<?xml version="1.0" encoding="UTF-8" standalone="no" ?>
<gpx xmlns="http://www.topografix.com/GPX/1/1" xmlns:xsi="http://www.w3.org/2001/XMLSchema-instance" xsi:schemaLocation="http://www.topografix.com/GPX/1/1 http://www.topografix.com/GPX/1/1/gpx.xsd" version="1.1" creator="VisuGPX - https://www.visugpx.com">
  <metadata>
    <name>HRE J4 Le Laus - Thures</name>
  </metadata>
  <trk>
    <name><![CDATA[Tracé 20211222-090207]]></name>
    <trkseg>
      <trkpt lat="44.85505" lon="6.7263">
        <ele>1823.6</ele>
        <time>2021-12-22T08:02:07Z</time>
      </trkpt>
      <trkpt lat="44.85509" lon="6.72633">
        <ele>1817.7</ele>
        <time>2021-12-22T08:02:10Z</time>
      </trkpt>
      <trkpt lat="44.85514" lon="6.72634">
        <ele>1813.7</ele>
        <time>2021-12-22T08:02:15Z</time>
      </trkpt>
      <trkpt lat="44.85509" lon="6.72644">
        <ele>1808.4</ele>
        <time>2021-12-22T08:02:17Z</time>
      </trkpt>
      <trkpt lat="44.85508" lon="6.72653">
        <ele>1803.7</ele>
        <time>2021-12-22T08:02:20Z</time>
      </trkpt>
      <trkpt lat="44.85506" lon="6.72659">
        <ele>1799</ele>
        <time>2021-12-22T08:02:22Z</time>
      </trkpt>
      <trkpt lat="44.855" lon="6.72662">
        <ele>1801.6</ele>
        <time>2021-12-22T08:02:26Z</time>
      </trkpt>
      <trkpt lat="44.85497" lon="6.72661">
        <ele>1805</ele>
        <time>2021-12-22T08:02:27Z</time>
      </trkpt>
      <trkpt lat="44.85495" lon="6.7266">
        <ele>1808</ele>
        <time>2021-12-22T08:02:28Z</time>
      </trkpt>
      <trkpt lat="44.85493" lon="6.72659">
        <ele>1811.1</ele>
        <time>2021-12-22T08:02:29Z</time>
      </trkpt>
      <trkpt lat="44.85491" lon="6.72661">
        <ele>1813.3</ele>
        <time>2021-12-22T08:02:30Z</time>
      </trkpt>
      <trkpt lat="44.85493" lon="6.72659">
        <ele>1814.6</ele>
        <time>2021-12-22T08:02:33Z</time>
      </trkpt>
      <trkpt lat="44.85494" lon="6.72656">
        <ele>1814.6</ele>
        <time>2021-12-22T08:02:34Z</time>
      </trkpt>
      <trkpt lat="44.85494" lon="6.72657">
        <ele>1815</ele>
        <time>2021-12-22T08:02:35Z</time>
      </trkpt>
      <trkpt lat="44.85492" lon="6.72657">
        <ele>1815.4</ele>
        <time>2021-12-22T08:02:36Z</time>
      </trkpt>
      <trkpt lat="44.85489" lon="6.7266">
        <ele>1815.7</ele>
        <time>2021-12-22T08:02:38Z</time>
      </trkpt>
      <trkpt lat="44.85486" lon="6.72661">
        <ele>1816.9</ele>
        <time>2021-12-22T08:02:39Z</time>
      </trkpt>
      <trkpt lat="44.85483" lon="6.72661">
        <ele>1817.6</ele>
        <time>2021-12-22T08:02:40Z</time>
      </trkpt>
      <trkpt lat="44.85481" lon="6.7266">
        <ele>1817.4</ele>
        <time>2021-12-22T08:02:43Z</time>
      </trkpt>
      <trkpt lat="44.85481" lon="6.72659">
        <ele>1817</ele>
        <time>2021-12-22T08:02:44Z</time>
      </trkpt>
      <trkpt lat="44.85487" lon="6.72662">
        <ele>1814.1</ele>
        <time>2021-12-22T08:02:47Z</time>
      </trkpt>
      <trkpt lat="44.85491" lon="6.72664">
        <ele>1813.7</ele>
        <time>2021-12-22T08:02:49Z</time>
      </trkpt>
      <trkpt lat="44.85498" lon="6.72668">
        <ele>1816</ele>
        <time>2021-12-22T08:02:51Z</time>
      </trkpt>
      <trkpt lat="44.85497" lon="6.72674">
        <ele>1815.4</ele>
        <time>2021-12-22T08:02:53Z</time>
      </trkpt>
      <trkpt lat="44.85493" lon="6.7268">
        <ele>1815.7</ele>
        <time>2021-12-22T08:02:56Z</time>
      </trkpt>
      <trkpt lat="44.85492" lon="6.72682">
        <ele>1816</ele>
        <time>2021-12-22T08:02:57Z</time>
      </trkpt>
      <trkpt lat="44.85499" lon="6.72684">
        <ele>1815.4</ele>
        <time>2021-12-22T08:03:05Z</time>
      </trkpt>
      <trkpt lat="44.85504" lon="6.72681">
        <ele>1814.2</ele>
        <time>2021-12-22T08:03:07Z</time>
      </trkpt>
      <trkpt lat="44.85508" lon="6.72676">
        <ele>1810.8</ele>
        <time>2021-12-22T08:03:11Z</time>
      </trkpt>
      <trkpt lat="44.85511" lon="6.7267">
        <ele>1810.5</ele>
        <time>2021-12-22T08:03:19Z</time>
      </trkpt>
      <trkpt lat="44.85511" lon="6.72663">
        <ele>1813.4</ele>
        <time>2021-12-22T08:03:29Z</time>
      </trkpt>
      <trkpt lat="44.85506" lon="6.72667">
        <ele>1814.1</ele>
        <time>2021-12-22T08:03:48Z</time>
      </trkpt>
      <trkpt lat="44.85511" lon="6.72666">
        <ele>1818.5</ele>
        <time>2021-12-22T08:04:14Z</time>
      </trkpt>
      <trkpt lat="44.85517" lon="6.72675">
        <ele>1813.7</ele>
        <time>2021-12-22T08:04:30Z</time>
      </trkpt>
      <trkpt lat="44.85522" lon="6.72683">
        <ele>1810.4</ele>
        <time>2021-12-22T08:04:48Z</time>
      </trkpt>
      <trkpt lat="44.85516" lon="6.72681">
        <ele>1808.8</ele>
        <time>2021-12-22T08:04:58Z</time>
      </trkpt>
      <trkpt lat="44.85515" lon="6.72688">
        <ele>1808.1</ele>
        <time>2021-12-22T08:05:06Z</time>
      </trkpt>
      <trkpt lat="44.85511" lon="6.72691">
        <ele>1807.3</ele>
        <time>2021-12-22T08:05:09Z</time>
      </trkpt>
      <trkpt lat="44.85511" lon="6.72698">
        <ele>1805.5</ele>
        <time>2021-12-22T08:05:12Z</time>
      </trkpt>
      <trkpt lat="44.85511" lon="6.72704">
        <ele>1802.6</ele>
        <time>2021-12-22T08:05:26Z</time>
      </trkpt>
      <trkpt lat="44.85515" lon="6.72709">
        <ele>1802.8</ele>
        <time>2021-12-22T08:05:30Z</time>
      </trkpt>
      <trkpt lat="44.85513" lon="6.72716">
        <ele>1803.5</ele>
        <time>2021-12-22T08:05:37Z</time>
      </trkpt>
      <trkpt lat="44.85514" lon="6.72723">
        <ele>1803.8</ele>
        <time>2021-12-22T08:05:40Z</time>
      </trkpt>
      <trkpt lat="44.85516" lon="6.72725">
        <ele>1803.9</ele>
        <time>2021-12-22T08:05:41Z</time>
      </trkpt>
      <trkpt lat="44.85519" lon="6.72728">
        <ele>1804.2</ele>
        <time>2021-12-22T08:05:42Z</time>
      </trkpt>
      <trkpt lat="44.85521" lon="6.72734">
        <ele>1804.6</ele>
        <time>2021-12-22T08:05:44Z</time>
      </trkpt>
      <trkpt lat="44.85559" lon="6.72714">
        <ele>1728.3</ele>
        <time>2021-12-22T08:11:21Z</time>
      </trkpt>
      <trkpt lat="44.85563" lon="6.72718">
        <ele>1728.3</ele>
        <time>2021-12-22T08:11:24Z</time>
      </trkpt>
      <trkpt lat="44.85568" lon="6.72718">
        <ele>1726</ele>
        <time>2021-12-22T08:11:29Z</time>
      </trkpt>
      <trkpt lat="44.85572" lon="6.72718">
        <ele>1724.5</ele>
        <time>2021-12-22T08:11:34Z</time>
      </trkpt>
      <trkpt lat="44.85578" lon="6.72716">
        <ele>1727.5</ele>
        <time>2021-12-22T08:11:39Z</time>
      </trkpt>
      <trkpt lat="44.85583" lon="6.72721">
        <ele>1729.1</ele>
        <time>2021-12-22T08:11:41Z</time>
      </trkpt>
      <trkpt lat="44.85588" lon="6.72719">
        <ele>1734.8</ele>
        <time>2021-12-22T08:11:48Z</time>
      </trkpt>
      <trkpt lat="44.85593" lon="6.72718">
        <ele>1732.8</ele>
        <time>2021-12-22T08:12:01Z</time>
      </trkpt>
      <trkpt lat="44.85598" lon="6.72715">
        <ele>1734.4</ele>
        <time>2021-12-22T08:12:06Z</time>
      </trkpt>
      <trkpt lat="44.85601" lon="6.7271">
        <ele>1736.1</ele>
        <time>2021-12-22T08:12:11Z</time>
      </trkpt>
      <trkpt lat="44.85603" lon="6.72703">
        <ele>1738.1</ele>
        <time>2021-12-22T08:12:17Z</time>
      </trkpt>
      <trkpt lat="44.85602" lon="6.72696">
        <ele>1739.4</ele>
        <time>2021-12-22T08:12:22Z</time>
      </trkpt>
      <trkpt lat="44.856" lon="6.72689">
        <ele>1740.3</ele>
        <time>2021-12-22T08:12:28Z</time>
      </trkpt>
      <trkpt lat="44.856" lon="6.72685">
        <ele>1742.1</ele>
        <time>2021-12-22T08:12:36Z</time>
      </trkpt>
      <trkpt lat="44.856" lon="6.72685">
        <ele>1742.3</ele>
        <time>2021-12-22T08:12:37Z</time>
      </trkpt>
      <trkpt lat="44.85599" lon="6.72684">
        <ele>1742.5</ele>
        <time>2021-12-22T08:12:39Z</time>
      </trkpt>
      <trkpt lat="44.85598" lon="6.72683">
        <ele>1742.7</ele>
        <time>2021-12-22T08:12:40Z</time>
      </trkpt>
      <trkpt lat="44.85598" lon="6.72682">
        <ele>1742.9</ele>
        <time>2021-12-22T08:12:41Z</time>
      </trkpt>
      <trkpt lat="44.85598" lon="6.72681">
        <ele>1743.1</ele>
        <time>2021-12-22T08:12:42Z</time>
      </trkpt>
      <trkpt lat="44.85598" lon="6.72681">
        <ele>1743.3</ele>
        <time>2021-12-22T08:12:43Z</time>
      </trkpt>
      <trkpt lat="44.85597" lon="6.72681">
        <ele>1743.4</ele>
        <time>2021-12-22T08:12:44Z</time>
      </trkpt>
      <trkpt lat="44.85595" lon="6.7268">
        <ele>1743.2</ele>
        <time>2021-12-22T08:13:40Z</time>
      </trkpt>
      <trkpt lat="44.85598" lon="6.72673">
        <ele>1743.4</ele>
        <time>2021-12-22T08:13:41Z</time>
      </trkpt>
      <trkpt lat="44.856" lon="6.72667">
        <ele>1744.3</ele>
        <time>2021-12-22T08:13:49Z</time>
      </trkpt>
      <trkpt lat="44.85603" lon="6.72662">
        <ele>1745.8</ele>
        <time>2021-12-22T08:13:58Z</time>
      </trkpt>
      <trkpt lat="44.85607" lon="6.7266">
        <ele>1746.8</ele>
        <time>2021-12-22T08:14:04Z</time>
      </trkpt>
      <trkpt lat="44.8561" lon="6.72653">
        <ele>1747.9</ele>
        <time>2021-12-22T08:14:10Z</time>
      </trkpt>
      <trkpt lat="44.85613" lon="6.72648">
        <ele>1749.5</ele>
        <time>2021-12-22T08:14:18Z</time>
      </trkpt>
      <trkpt lat="44.85617" lon="6.72644">
        <ele>1750.7</ele>
        <time>2021-12-22T08:14:26Z</time>
      </trkpt>
      <trkpt lat="44.85621" lon="6.72642">
        <ele>1751.7</ele>
        <time>2021-12-22T08:14:33Z</time>
      </trkpt>
      <trkpt lat="44.85626" lon="6.72642">
        <ele>1752.1</ele>
        <time>2021-12-22T08:14:36Z</time>
      </trkpt>
      <trkpt lat="44.85631" lon="6.72645">
        <ele>1752.8</ele>
        <time>2021-12-22T08:14:39Z</time>
      </trkpt>
      <trkpt lat="44.85637" lon="6.72648">
        <ele>1753.4</ele>
        <time>2021-12-22T08:14:42Z</time>
      </trkpt>
      <trkpt lat="44.85642" lon="6.7265">
        <ele>1753.7</ele>
        <time>2021-12-22T08:14:44Z</time>
      </trkpt>
      <trkpt lat="44.85647" lon="6.72651">
        <ele>1754</ele>
        <time>2021-12-22T08:14:46Z</time>
      </trkpt>
      <trkpt lat="44.85652" lon="6.72651">
        <ele>1753.7</ele>
        <time>2021-12-22T08:14:48Z</time>
      </trkpt>
      <trkpt lat="44.85657" lon="6.72649">
        <ele>1753.3</ele>
        <time>2021-12-22T08:14:50Z</time>
      </trkpt>
      <trkpt lat="44.85663" lon="6.72645">
        <ele>1752.6</ele>
        <time>2021-12-22T08:14:53Z</time>
      </trkpt>
      <trkpt lat="44.85668" lon="6.72642">
        <ele>1751.6</ele>
        <time>2021-12-22T08:14:55Z</time>
      </trkpt>
      <trkpt lat="44.85674" lon="6.72638">
        <ele>1750.3</ele>
        <time>2021-12-22T08:14:57Z</time>
      </trkpt>
      <trkpt lat="44.85679" lon="6.72636">
        <ele>1749.9</ele>
        <time>2021-12-22T08:14:59Z</time>
      </trkpt>
      <trkpt lat="44.85684" lon="6.72635">
        <ele>1749.9</ele>
        <time>2021-12-22T08:15:01Z</time>
      </trkpt>
      <trkpt lat="44.85688" lon="6.72632">
        <ele>1750.3</ele>
        <time>2021-12-22T08:15:04Z</time>
      </trkpt>
      <trkpt lat="44.85692" lon="6.72628">
        <ele>1749.9</ele>
        <time>2021-12-22T08:15:09Z</time>
      </trkpt>
      <trkpt lat="44.85696" lon="6.72623">
        <ele>1750</ele>
        <time>2021-12-22T08:15:13Z</time>
      </trkpt>
      <trkpt lat="44.857" lon="6.72621">
        <ele>1749.8</ele>
        <time>2021-12-22T08:15:17Z</time>
      </trkpt>
      <trkpt lat="44.85705" lon="6.72618">
        <ele>1750.1</ele>
        <time>2021-12-22T08:15:22Z</time>
      </trkpt>
      <trkpt lat="44.85711" lon="6.72616">
        <ele>1749.6</ele>
        <time>2021-12-22T08:15:26Z</time>
      </trkpt>
      <trkpt lat="44.85716" lon="6.72613">
        <ele>1749.8</ele>
        <time>2021-12-22T08:15:31Z</time>
      </trkpt>
      <trkpt lat="44.85721" lon="6.72612">
        <ele>1748.8</ele>
        <time>2021-12-22T08:15:36Z</time>
      </trkpt>
      <trkpt lat="44.85725" lon="6.72615">
        <ele>1749.1</ele>
        <time>2021-12-22T08:15:46Z</time>
      </trkpt>
      <trkpt lat="44.85729" lon="6.7262">
        <ele>1748.9</ele>
        <time>2021-12-22T08:15:56Z</time>
      </trkpt>
      <trkpt lat="44.85733" lon="6.72623">
        <ele>1751.6</ele>
        <time>2021-12-22T08:16:05Z</time>
      </trkpt>
      <trkpt lat="44.85734" lon="6.72624">
        <ele>1751.3</ele>
        <time>2021-12-22T08:16:13Z</time>
      </trkpt>
      <trkpt lat="44.85734" lon="6.72623">
        <ele>1751.2</ele>
        <time>2021-12-22T08:16:14Z</time>
      </trkpt>
      <trkpt lat="44.85734" lon="6.72623">
        <ele>1751.2</ele>
        <time>2021-12-22T08:16:15Z</time>
      </trkpt>
      <trkpt lat="44.85736" lon="6.72619">
        <ele>1750.4</ele>
        <time>2021-12-22T08:16:26Z</time>
      </trkpt>
      <trkpt lat="44.85736" lon="6.72619">
        <ele>1750.1</ele>
        <time>2021-12-22T08:16:27Z</time>
      </trkpt>
      <trkpt lat="44.85736" lon="6.72619">
        <ele>1750.1</ele>
        <time>2021-12-22T08:16:59Z</time>
      </trkpt>
      <trkpt lat="44.85732" lon="6.72614">
        <ele>1748.8</ele>
        <time>2021-12-22T08:17:00Z</time>
      </trkpt>
      <trkpt lat="44.85728" lon="6.72613">
        <ele>1747.1</ele>
        <time>2021-12-22T08:17:11Z</time>
      </trkpt>
      <trkpt lat="44.85722" lon="6.72611">
        <ele>1748.7</ele>
        <time>2021-12-22T08:17:14Z</time>
      </trkpt>
      <trkpt lat="44.85718" lon="6.72608">
        <ele>1750.3</ele>
        <time>2021-12-22T08:17:20Z</time>
      </trkpt>
      <trkpt lat="44.85714" lon="6.72604">
        <ele>1750.3</ele>
        <time>2021-12-22T08:17:27Z</time>
      </trkpt>
      <trkpt lat="44.85712" lon="6.72597">
        <ele>1750.4</ele>
        <time>2021-12-22T08:17:32Z</time>
      </trkpt>
      <trkpt lat="44.8571" lon="6.7259">
        <ele>1750.9</ele>
        <time>2021-12-22T08:17:39Z</time>
      </trkpt>
      <trkpt lat="44.85709" lon="6.72584">
        <ele>1750.9</ele>
        <time>2021-12-22T08:17:46Z</time>
      </trkpt>
      <trkpt lat="44.8571" lon="6.72577">
        <ele>1751.8</ele>
        <time>2021-12-22T08:18:00Z</time>
      </trkpt>
      <trkpt lat="44.85711" lon="6.7257">
        <ele>1752</ele>
        <time>2021-12-22T08:18:07Z</time>
      </trkpt>
      <trkpt lat="44.85714" lon="6.72567">
        <ele>1751.1</ele>
        <time>2021-12-22T08:18:17Z</time>
      </trkpt>
      <trkpt lat="44.85714" lon="6.72567">
        <ele>1751</ele>
        <time>2021-12-22T08:18:18Z</time>
      </trkpt>
      <trkpt lat="44.85715" lon="6.72566">
        <ele>1751</ele>
        <time>2021-12-22T08:18:20Z</time>
      </trkpt>
      <trkpt lat="44.85715" lon="6.72566">
        <ele>1751</ele>
        <time>2021-12-22T08:18:21Z</time>
      </trkpt>
      <trkpt lat="44.85718" lon="6.72561">
        <ele>1750.7</ele>
        <time>2021-12-22T08:18:30Z</time>
      </trkpt>
      <trkpt lat="44.85718" lon="6.7256">
        <ele>1750.7</ele>
        <time>2021-12-22T08:18:32Z</time>
      </trkpt>
      <trkpt lat="44.85718" lon="6.7256">
        <ele>1750.6</ele>
        <time>2021-12-22T08:18:33Z</time>
      </trkpt>
      <trkpt lat="44.85718" lon="6.72561">
        <ele>1750.7</ele>
        <time>2021-12-22T08:18:53Z</time>
      </trkpt>
      <trkpt lat="44.85718" lon="6.72559">
        <ele>1751.6</ele>
        <time>2021-12-22T08:18:54Z</time>
      </trkpt>
      <trkpt lat="44.85718" lon="6.72559">
        <ele>1751.7</ele>
        <time>2021-12-22T08:18:55Z</time>
      </trkpt>
      <trkpt lat="44.85718" lon="6.72558">
        <ele>1751.7</ele>
        <time>2021-12-22T08:19:02Z</time>
      </trkpt>
      <trkpt lat="44.85717" lon="6.72557">
        <ele>1752.2</ele>
        <time>2021-12-22T08:19:03Z</time>
      </trkpt>
      <trkpt lat="44.85721" lon="6.72551">
        <ele>1752.7</ele>
        <time>2021-12-22T08:19:08Z</time>
      </trkpt>
      <trkpt lat="44.85726" lon="6.72546">
        <ele>1752.4</ele>
        <time>2021-12-22T08:19:11Z</time>
      </trkpt>
      <trkpt lat="44.85731" lon="6.7254">
        <ele>1752.2</ele>
        <time>2021-12-22T08:19:14Z</time>
      </trkpt>
      <trkpt lat="44.85734" lon="6.72535">
        <ele>1752.3</ele>
        <time>2021-12-22T08:19:16Z</time>
      </trkpt>
      <trkpt lat="44.85737" lon="6.72529">
        <ele>1751.7</ele>
        <time>2021-12-22T08:19:18Z</time>
      </trkpt>
      <trkpt lat="44.8574" lon="6.72523">
        <ele>1750.9</ele>
        <time>2021-12-22T08:19:21Z</time>
      </trkpt>
      <trkpt lat="44.85745" lon="6.72516">
        <ele>1749</ele>
        <time>2021-12-22T08:19:24Z</time>
      </trkpt>
      <trkpt lat="44.85748" lon="6.7251">
        <ele>1747.3</ele>
        <time>2021-12-22T08:19:27Z</time>
      </trkpt>
      <trkpt lat="44.85752" lon="6.72502">
        <ele>1746.7</ele>
        <time>2021-12-22T08:19:30Z</time>
      </trkpt>
      <trkpt lat="44.85754" lon="6.72493">
        <ele>1745.6</ele>
        <time>2021-12-22T08:19:33Z</time>
      </trkpt>
      <trkpt lat="44.85757" lon="6.72488">
        <ele>1745.4</ele>
        <time>2021-12-22T08:19:36Z</time>
      </trkpt>
      <trkpt lat="44.85763" lon="6.72485">
        <ele>1742.8</ele>
        <time>2021-12-22T08:19:39Z</time>
      </trkpt>
      <trkpt lat="44.85767" lon="6.72482">
        <ele>1741.7</ele>
        <time>2021-12-22T08:19:41Z</time>
      </trkpt>
      <trkpt lat="44.85774" lon="6.72479">
        <ele>1740.4</ele>
        <time>2021-12-22T08:19:43Z</time>
      </trkpt>
      <trkpt lat="44.85781" lon="6.72475">
        <ele>1739.2</ele>
        <time>2021-12-22T08:19:45Z</time>
      </trkpt>
      <trkpt lat="44.85788" lon="6.72471">
        <ele>1738.3</ele>
        <time>2021-12-22T08:19:47Z</time>
      </trkpt>
      <trkpt lat="44.85795" lon="6.72468">
        <ele>1737.5</ele>
        <time>2021-12-22T08:19:49Z</time>
      </trkpt>
      <trkpt lat="44.85801" lon="6.72465">
        <ele>1736</ele>
        <time>2021-12-22T08:19:51Z</time>
      </trkpt>
      <trkpt lat="44.85806" lon="6.72463">
        <ele>1735.6</ele>
        <time>2021-12-22T08:19:53Z</time>
      </trkpt>
      <trkpt lat="44.85812" lon="6.72461">
        <ele>1735.3</ele>
        <time>2021-12-22T08:19:55Z</time>
      </trkpt>
      <trkpt lat="44.85818" lon="6.72464">
        <ele>1733.7</ele>
        <time>2021-12-22T08:19:58Z</time>
      </trkpt>
      <trkpt lat="44.85819" lon="6.72474">
        <ele>1731.8</ele>
        <time>2021-12-22T08:20:01Z</time>
      </trkpt>
      <trkpt lat="44.85821" lon="6.72484">
        <ele>1731.2</ele>
        <time>2021-12-22T08:20:03Z</time>
      </trkpt>
      <trkpt lat="44.85826" lon="6.72495">
        <ele>1731.6</ele>
        <time>2021-12-22T08:20:05Z</time>
      </trkpt>
      <trkpt lat="44.85835" lon="6.72499">
        <ele>1731.8</ele>
        <time>2021-12-22T08:20:07Z</time>
      </trkpt>
      <trkpt lat="44.85843" lon="6.72498">
        <ele>1732.3</ele>
        <time>2021-12-22T08:20:09Z</time>
      </trkpt>
      <trkpt lat="44.85851" lon="6.72497">
        <ele>1732.1</ele>
        <time>2021-12-22T08:20:11Z</time>
      </trkpt>
      <trkpt lat="44.85857" lon="6.72495">
        <ele>1731.8</ele>
        <time>2021-12-22T08:20:13Z</time>
      </trkpt>
      <trkpt lat="44.85864" lon="6.72494">
        <ele>1731.3</ele>
        <time>2021-12-22T08:20:15Z</time>
      </trkpt>
      <trkpt lat="44.85869" lon="6.72492">
        <ele>1731.3</ele>
        <time>2021-12-22T08:20:17Z</time>
      </trkpt>
      <trkpt lat="44.85873" lon="6.72492">
        <ele>1729.4</ele>
        <time>2021-12-22T08:20:23Z</time>
      </trkpt>
      <trkpt lat="44.85873" lon="6.72492">
        <ele>1729.4</ele>
        <time>2021-12-22T08:20:26Z</time>
      </trkpt>
      <trkpt lat="44.85873" lon="6.72492">
        <ele>1729.4</ele>
        <time>2021-12-22T08:20:27Z</time>
      </trkpt>
      <trkpt lat="44.85873" lon="6.72492">
        <ele>1729.4</ele>
        <time>2021-12-22T08:21:16Z</time>
      </trkpt>
      <trkpt lat="44.85876" lon="6.72489">
        <ele>1732</ele>
        <time>2021-12-22T08:21:17Z</time>
      </trkpt>
      <trkpt lat="44.85881" lon="6.72487">
        <ele>1731.8</ele>
        <time>2021-12-22T08:21:20Z</time>
      </trkpt>
      <trkpt lat="44.85885" lon="6.72484">
        <ele>1731.7</ele>
        <time>2021-12-22T08:21:22Z</time>
      </trkpt>
      <trkpt lat="44.85891" lon="6.72481">
        <ele>1731.4</ele>
        <time>2021-12-22T08:21:24Z</time>
      </trkpt>
      <trkpt lat="44.85898" lon="6.72475">
        <ele>1730.7</ele>
        <time>2021-12-22T08:21:26Z</time>
      </trkpt>
      <trkpt lat="44.85902" lon="6.72472">
        <ele>1730.2</ele>
        <time>2021-12-22T08:21:27Z</time>
      </trkpt>
      <trkpt lat="44.85906" lon="6.72468">
        <ele>1729.8</ele>
        <time>2021-12-22T08:21:28Z</time>
      </trkpt>
      <trkpt lat="44.85911" lon="6.72464">
        <ele>1729</ele>
        <time>2021-12-22T08:21:29Z</time>
      </trkpt>
      <trkpt lat="44.85916" lon="6.72462">
        <ele>1728.3</ele>
        <time>2021-12-22T08:21:30Z</time>
      </trkpt>
      <trkpt lat="44.85921" lon="6.72459">
        <ele>1727.6</ele>
        <time>2021-12-22T08:21:31Z</time>
      </trkpt>
      <trkpt lat="44.85926" lon="6.72456">
        <ele>1726.5</ele>
        <time>2021-12-22T08:21:32Z</time>
      </trkpt>
      <trkpt lat="44.85931" lon="6.72453">
        <ele>1725.9</ele>
        <time>2021-12-22T08:21:33Z</time>
      </trkpt>
      <trkpt lat="44.85935" lon="6.72451">
        <ele>1725.1</ele>
        <time>2021-12-22T08:21:34Z</time>
      </trkpt>
      <trkpt lat="44.85939" lon="6.72447">
        <ele>1724.4</ele>
        <time>2021-12-22T08:21:35Z</time>
      </trkpt>
      <trkpt lat="44.85946" lon="6.72441">
        <ele>1723.4</ele>
        <time>2021-12-22T08:21:37Z</time>
      </trkpt>
      <trkpt lat="44.85954" lon="6.72438">
        <ele>1722.3</ele>
        <time>2021-12-22T08:21:39Z</time>
      </trkpt>
      <trkpt lat="44.85962" lon="6.72436">
        <ele>1720.5</ele>
        <time>2021-12-22T08:21:41Z</time>
      </trkpt>
      <trkpt lat="44.8597" lon="6.72433">
        <ele>1718.9</ele>
        <time>2021-12-22T08:21:43Z</time>
      </trkpt>
      <trkpt lat="44.85976" lon="6.72428">
        <ele>1717.9</ele>
        <time>2021-12-22T08:21:45Z</time>
      </trkpt>
      <trkpt lat="44.85982" lon="6.72422">
        <ele>1716.3</ele>
        <time>2021-12-22T08:21:47Z</time>
      </trkpt>
      <trkpt lat="44.85989" lon="6.72418">
        <ele>1715.3</ele>
        <time>2021-12-22T08:21:49Z</time>
      </trkpt>
      <trkpt lat="44.85995" lon="6.72415">
        <ele>1715.1</ele>
        <time>2021-12-22T08:21:51Z</time>
      </trkpt>
      <trkpt lat="44.86" lon="6.72414">
        <ele>1713.4</ele>
        <time>2021-12-22T08:21:53Z</time>
      </trkpt>
      <trkpt lat="44.86005" lon="6.72412">
        <ele>1710.9</ele>
        <time>2021-12-22T08:21:55Z</time>
      </trkpt>
      <trkpt lat="44.8601" lon="6.72411">
        <ele>1710.4</ele>
        <time>2021-12-22T08:21:57Z</time>
      </trkpt>
      <trkpt lat="44.86015" lon="6.7241">
        <ele>1711</ele>
        <time>2021-12-22T08:21:59Z</time>
      </trkpt>
      <trkpt lat="44.8602" lon="6.72409">
        <ele>1710.2</ele>
        <time>2021-12-22T08:22:02Z</time>
      </trkpt>
      <trkpt lat="44.86026" lon="6.7241">
        <ele>1709.1</ele>
        <time>2021-12-22T08:22:08Z</time>
      </trkpt>
      <trkpt lat="44.86031" lon="6.72406">
        <ele>1708.1</ele>
        <time>2021-12-22T08:22:11Z</time>
      </trkpt>
      <trkpt lat="44.86036" lon="6.72402">
        <ele>1706.8</ele>
        <time>2021-12-22T08:22:14Z</time>
      </trkpt>
      <trkpt lat="44.86041" lon="6.72397">
        <ele>1706.3</ele>
        <time>2021-12-22T08:22:17Z</time>
      </trkpt>
      <trkpt lat="44.86045" lon="6.72394">
        <ele>1705.7</ele>
        <time>2021-12-22T08:22:19Z</time>
      </trkpt>
      <trkpt lat="44.8605" lon="6.72391">
        <ele>1704.8</ele>
        <time>2021-12-22T08:22:22Z</time>
      </trkpt>
      <trkpt lat="44.86055" lon="6.72389">
        <ele>1703.3</ele>
        <time>2021-12-22T08:22:25Z</time>
      </trkpt>
      <trkpt lat="44.86061" lon="6.72388">
        <ele>1703</ele>
        <time>2021-12-22T08:22:27Z</time>
      </trkpt>
      <trkpt lat="44.86067" lon="6.72387">
        <ele>1702.7</ele>
        <time>2021-12-22T08:22:29Z</time>
      </trkpt>
      <trkpt lat="44.86074" lon="6.72385">
        <ele>1702.2</ele>
        <time>2021-12-22T08:22:31Z</time>
      </trkpt>
      <trkpt lat="44.86081" lon="6.72381">
        <ele>1701.3</ele>
        <time>2021-12-22T08:22:33Z</time>
      </trkpt>
      <trkpt lat="44.86086" lon="6.72379">
        <ele>1701.2</ele>
        <time>2021-12-22T08:22:34Z</time>
      </trkpt>
      <trkpt lat="44.8609" lon="6.72377">
        <ele>1700.8</ele>
        <time>2021-12-22T08:22:35Z</time>
      </trkpt>
      <trkpt lat="44.86095" lon="6.72375">
        <ele>1700.2</ele>
        <time>2021-12-22T08:22:36Z</time>
      </trkpt>
      <trkpt lat="44.86099" lon="6.72373">
        <ele>1698.7</ele>
        <time>2021-12-22T08:22:37Z</time>
      </trkpt>
      <trkpt lat="44.86104" lon="6.72372">
        <ele>1698</ele>
        <time>2021-12-22T08:22:38Z</time>
      </trkpt>
      <trkpt lat="44.8611" lon="6.72371">
        <ele>1696.3</ele>
        <time>2021-12-22T08:22:39Z</time>
      </trkpt>
      <trkpt lat="44.86116" lon="6.72371">
        <ele>1695.6</ele>
        <time>2021-12-22T08:22:40Z</time>
      </trkpt>
      <trkpt lat="44.86122" lon="6.72371">
        <ele>1694.8</ele>
        <time>2021-12-22T08:22:41Z</time>
      </trkpt>
      <trkpt lat="44.86127" lon="6.72371">
        <ele>1693.9</ele>
        <time>2021-12-22T08:22:42Z</time>
      </trkpt>
      <trkpt lat="44.86135" lon="6.7237">
        <ele>1692.6</ele>
        <time>2021-12-22T08:22:44Z</time>
      </trkpt>
      <trkpt lat="44.86142" lon="6.72368">
        <ele>1690.9</ele>
        <time>2021-12-22T08:22:46Z</time>
      </trkpt>
      <trkpt lat="44.86148" lon="6.72366">
        <ele>1689.6</ele>
        <time>2021-12-22T08:22:48Z</time>
      </trkpt>
      <trkpt lat="44.86156" lon="6.72365">
        <ele>1688.3</ele>
        <time>2021-12-22T08:22:50Z</time>
      </trkpt>
      <trkpt lat="44.86164" lon="6.72363">
        <ele>1686.5</ele>
        <time>2021-12-22T08:22:52Z</time>
      </trkpt>
      <trkpt lat="44.86172" lon="6.72362">
        <ele>1684.9</ele>
        <time>2021-12-22T08:22:54Z</time>
      </trkpt>
      <trkpt lat="44.86177" lon="6.72361">
        <ele>1684.7</ele>
        <time>2021-12-22T08:22:55Z</time>
      </trkpt>
      <trkpt lat="44.86181" lon="6.72359">
        <ele>1684.6</ele>
        <time>2021-12-22T08:22:56Z</time>
      </trkpt>
      <trkpt lat="44.86186" lon="6.72358">
        <ele>1684.8</ele>
        <time>2021-12-22T08:22:57Z</time>
      </trkpt>
      <trkpt lat="44.86191" lon="6.72357">
        <ele>1684.6</ele>
        <time>2021-12-22T08:22:58Z</time>
      </trkpt>
      <trkpt lat="44.86197" lon="6.72356">
        <ele>1684.8</ele>
        <time>2021-12-22T08:22:59Z</time>
      </trkpt>
      <trkpt lat="44.86202" lon="6.72354">
        <ele>1684.5</ele>
        <time>2021-12-22T08:23:00Z</time>
      </trkpt>
      <trkpt lat="44.86208" lon="6.72353">
        <ele>1684.3</ele>
        <time>2021-12-22T08:23:01Z</time>
      </trkpt>
      <trkpt lat="44.86214" lon="6.7235">
        <ele>1683.6</ele>
        <time>2021-12-22T08:23:02Z</time>
      </trkpt>
      <trkpt lat="44.86221" lon="6.72349">
        <ele>1683.6</ele>
        <time>2021-12-22T08:23:03Z</time>
      </trkpt>
      <trkpt lat="44.86228" lon="6.72346">
        <ele>1683</ele>
        <time>2021-12-22T08:23:04Z</time>
      </trkpt>
      <trkpt lat="44.86235" lon="6.72344">
        <ele>1682.4</ele>
        <time>2021-12-22T08:23:05Z</time>
      </trkpt>
      <trkpt lat="44.86242" lon="6.72341">
        <ele>1681.9</ele>
        <time>2021-12-22T08:23:06Z</time>
      </trkpt>
      <trkpt lat="44.86249" lon="6.72338">
        <ele>1681.2</ele>
        <time>2021-12-22T08:23:07Z</time>
      </trkpt>
      <trkpt lat="44.86256" lon="6.72335">
        <ele>1680.6</ele>
        <time>2021-12-22T08:23:08Z</time>
      </trkpt>
      <trkpt lat="44.86263" lon="6.72332">
        <ele>1680</ele>
        <time>2021-12-22T08:23:09Z</time>
      </trkpt>
      <trkpt lat="44.86269" lon="6.72329">
        <ele>1678.7</ele>
        <time>2021-12-22T08:23:10Z</time>
      </trkpt>
      <trkpt lat="44.86275" lon="6.72326">
        <ele>1677.3</ele>
        <time>2021-12-22T08:23:11Z</time>
      </trkpt>
      <trkpt lat="44.8628" lon="6.72324">
        <ele>1675.9</ele>
        <time>2021-12-22T08:23:12Z</time>
      </trkpt>
      <trkpt lat="44.86288" lon="6.72322">
        <ele>1674.6</ele>
        <time>2021-12-22T08:23:14Z</time>
      </trkpt>
      <trkpt lat="44.86297" lon="6.7232">
        <ele>1674.2</ele>
        <time>2021-12-22T08:23:16Z</time>
      </trkpt>
      <trkpt lat="44.86305" lon="6.72317">
        <ele>1674</ele>
        <time>2021-12-22T08:23:18Z</time>
      </trkpt>
      <trkpt lat="44.86313" lon="6.72314">
        <ele>1672.2</ele>
        <time>2021-12-22T08:23:20Z</time>
      </trkpt>
      <trkpt lat="44.8632" lon="6.7231">
        <ele>1671.1</ele>
        <time>2021-12-22T08:23:22Z</time>
      </trkpt>
      <trkpt lat="44.86327" lon="6.72307">
        <ele>1671.8</ele>
        <time>2021-12-22T08:23:24Z</time>
      </trkpt>
      <trkpt lat="44.86334" lon="6.72304">
        <ele>1670.5</ele>
        <time>2021-12-22T08:23:26Z</time>
      </trkpt>
      <trkpt lat="44.86341" lon="6.72302">
        <ele>1669.1</ele>
        <time>2021-12-22T08:23:28Z</time>
      </trkpt>
      <trkpt lat="44.86348" lon="6.723">
        <ele>1668.4</ele>
        <time>2021-12-22T08:23:30Z</time>
      </trkpt>
      <trkpt lat="44.86355" lon="6.72298">
        <ele>1667.5</ele>
        <time>2021-12-22T08:23:32Z</time>
      </trkpt>
      <trkpt lat="44.86362" lon="6.72295">
        <ele>1667.6</ele>
        <time>2021-12-22T08:23:34Z</time>
      </trkpt>
      <trkpt lat="44.86367" lon="6.7229">
        <ele>1667.2</ele>
        <time>2021-12-22T08:23:37Z</time>
      </trkpt>
      <trkpt lat="44.86371" lon="6.72287">
        <ele>1665.8</ele>
        <time>2021-12-22T08:23:39Z</time>
      </trkpt>
      <trkpt lat="44.86376" lon="6.72284">
        <ele>1664.3</ele>
        <time>2021-12-22T08:23:41Z</time>
      </trkpt>
      <trkpt lat="44.86382" lon="6.72282">
        <ele>1663.5</ele>
        <time>2021-12-22T08:23:43Z</time>
      </trkpt>
      <trkpt lat="44.86388" lon="6.72279">
        <ele>1662.7</ele>
        <time>2021-12-22T08:23:45Z</time>
      </trkpt>
      <trkpt lat="44.86393" lon="6.72275">
        <ele>1662.3</ele>
        <time>2021-12-22T08:23:47Z</time>
      </trkpt>
      <trkpt lat="44.86398" lon="6.72272">
        <ele>1662.3</ele>
        <time>2021-12-22T08:23:49Z</time>
      </trkpt>
      <trkpt lat="44.86403" lon="6.72269">
        <ele>1662.2</ele>
        <time>2021-12-22T08:23:52Z</time>
      </trkpt>
      <trkpt lat="44.86407" lon="6.72265">
        <ele>1660.5</ele>
        <time>2021-12-22T08:23:56Z</time>
      </trkpt>
      <trkpt lat="44.86413" lon="6.72265">
        <ele>1659.9</ele>
        <time>2021-12-22T08:23:59Z</time>
      </trkpt>
      <trkpt lat="44.86418" lon="6.72265">
        <ele>1660.1</ele>
        <time>2021-12-22T08:24:01Z</time>
      </trkpt>
      <trkpt lat="44.86423" lon="6.72266">
        <ele>1660.3</ele>
        <time>2021-12-22T08:24:04Z</time>
      </trkpt>
      <trkpt lat="44.86425" lon="6.72266">
        <ele>1660.3</ele>
        <time>2021-12-22T08:24:05Z</time>
      </trkpt>
      <trkpt lat="44.86427" lon="6.72266">
        <ele>1660.4</ele>
        <time>2021-12-22T08:24:06Z</time>
      </trkpt>
      <trkpt lat="44.86428" lon="6.72265">
        <ele>1660.3</ele>
        <time>2021-12-22T08:24:09Z</time>
      </trkpt>
      <trkpt lat="44.86431" lon="6.72265">
        <ele>1659.6</ele>
        <time>2021-12-22T08:24:10Z</time>
      </trkpt>
      <trkpt lat="44.86435" lon="6.72263">
        <ele>1658.4</ele>
        <time>2021-12-22T08:24:13Z</time>
      </trkpt>
      <trkpt lat="44.86441" lon="6.72262">
        <ele>1658.6</ele>
        <time>2021-12-22T08:24:16Z</time>
      </trkpt>
      <trkpt lat="44.86446" lon="6.7226">
        <ele>1657.8</ele>
        <time>2021-12-22T08:24:19Z</time>
      </trkpt>
      <trkpt lat="44.86452" lon="6.72259">
        <ele>1659.2</ele>
        <time>2021-12-22T08:24:22Z</time>
      </trkpt>
      <trkpt lat="44.86458" lon="6.72257">
        <ele>1660.4</ele>
        <time>2021-12-22T08:24:26Z</time>
      </trkpt>
      <trkpt lat="44.86463" lon="6.72254">
        <ele>1660.9</ele>
        <time>2021-12-22T08:24:29Z</time>
      </trkpt>
      <trkpt lat="44.86467" lon="6.72251">
        <ele>1660.5</ele>
        <time>2021-12-22T08:24:32Z</time>
      </trkpt>
      <trkpt lat="44.86469" lon="6.72249">
        <ele>1660.5</ele>
        <time>2021-12-22T08:24:34Z</time>
      </trkpt>
      <trkpt lat="44.8647" lon="6.72249">
        <ele>1660.3</ele>
        <time>2021-12-22T08:24:35Z</time>
      </trkpt>
      <trkpt lat="44.86471" lon="6.72248">
        <ele>1660.2</ele>
        <time>2021-12-22T08:24:44Z</time>
      </trkpt>
      <trkpt lat="44.86474" lon="6.72243">
        <ele>1660</ele>
        <time>2021-12-22T08:24:45Z</time>
      </trkpt>
      <trkpt lat="44.86479" lon="6.7224">
        <ele>1659.2</ele>
        <time>2021-12-22T08:24:48Z</time>
      </trkpt>
      <trkpt lat="44.86482" lon="6.72241">
        <ele>1659</ele>
        <time>2021-12-22T08:24:50Z</time>
      </trkpt>
      <trkpt lat="44.86483" lon="6.72242">
        <ele>1658.9</ele>
        <time>2021-12-22T08:24:51Z</time>
      </trkpt>
      <trkpt lat="44.86485" lon="6.72242">
        <ele>1658.9</ele>
        <time>2021-12-22T08:24:56Z</time>
      </trkpt>
      <trkpt lat="44.86489" lon="6.72243">
        <ele>1659.1</ele>
        <time>2021-12-22T08:24:57Z</time>
      </trkpt>
      <trkpt lat="44.86492" lon="6.72244">
        <ele>1659</ele>
        <time>2021-12-22T08:25:00Z</time>
      </trkpt>
      <trkpt lat="44.86493" lon="6.72243">
        <ele>1659.1</ele>
        <time>2021-12-22T08:25:01Z</time>
      </trkpt>
      <trkpt lat="44.86493" lon="6.72243">
        <ele>1659.1</ele>
        <time>2021-12-22T08:25:45Z</time>
      </trkpt>
      <trkpt lat="44.86501" lon="6.72249">
        <ele>1659</ele>
        <time>2021-12-22T08:25:46Z</time>
      </trkpt>
      <trkpt lat="44.86502" lon="6.72249">
        <ele>1659</ele>
        <time>2021-12-22T08:25:47Z</time>
      </trkpt>
      <trkpt lat="44.86502" lon="6.72249">
        <ele>1659.2</ele>
        <time>2021-12-22T08:26:40Z</time>
      </trkpt>
      <trkpt lat="44.8651" lon="6.72249">
        <ele>1661.1</ele>
        <time>2021-12-22T08:26:41Z</time>
      </trkpt>
      <trkpt lat="44.86515" lon="6.72249">
        <ele>1660.8</ele>
        <time>2021-12-22T08:26:45Z</time>
      </trkpt>
      <trkpt lat="44.8652" lon="6.72249">
        <ele>1660.4</ele>
        <time>2021-12-22T08:26:48Z</time>
      </trkpt>
      <trkpt lat="44.86525" lon="6.72249">
        <ele>1659.8</ele>
        <time>2021-12-22T08:26:51Z</time>
      </trkpt>
      <trkpt lat="44.86531" lon="6.7225">
        <ele>1658.8</ele>
        <time>2021-12-22T08:26:54Z</time>
      </trkpt>
      <trkpt lat="44.86535" lon="6.72251">
        <ele>1658.6</ele>
        <time>2021-12-22T08:26:57Z</time>
      </trkpt>
      <trkpt lat="44.86541" lon="6.72251">
        <ele>1657.6</ele>
        <time>2021-12-22T08:27:01Z</time>
      </trkpt>
      <trkpt lat="44.86547" lon="6.72253">
        <ele>1657</ele>
        <time>2021-12-22T08:27:04Z</time>
      </trkpt>
      <trkpt lat="44.86552" lon="6.72254">
        <ele>1656.1</ele>
        <time>2021-12-22T08:27:08Z</time>
      </trkpt>
      <trkpt lat="44.86558" lon="6.72255">
        <ele>1655.5</ele>
        <time>2021-12-22T08:27:12Z</time>
      </trkpt>
      <trkpt lat="44.86563" lon="6.72258">
        <ele>1655.6</ele>
        <time>2021-12-22T08:27:15Z</time>
      </trkpt>
      <trkpt lat="44.86568" lon="6.7226">
        <ele>1655.8</ele>
        <time>2021-12-22T08:27:18Z</time>
      </trkpt>
      <trkpt lat="44.8657" lon="6.72263">
        <ele>1655.1</ele>
        <time>2021-12-22T08:27:21Z</time>
      </trkpt>
      <trkpt lat="44.86571" lon="6.72264">
        <ele>1654.8</ele>
        <time>2021-12-22T08:27:22Z</time>
      </trkpt>
      <trkpt lat="44.86572" lon="6.72266">
        <ele>1654.6</ele>
        <time>2021-12-22T08:27:30Z</time>
      </trkpt>
      <trkpt lat="44.86577" lon="6.7227">
        <ele>1653.5</ele>
        <time>2021-12-22T08:27:31Z</time>
      </trkpt>
      <trkpt lat="44.86582" lon="6.72271">
        <ele>1653.9</ele>
        <time>2021-12-22T08:27:34Z</time>
      </trkpt>
      <trkpt lat="44.86588" lon="6.72272">
        <ele>1653.9</ele>
        <time>2021-12-22T08:27:38Z</time>
      </trkpt>
      <trkpt lat="44.86594" lon="6.72273">
        <ele>1653.7</ele>
        <time>2021-12-22T08:27:42Z</time>
      </trkpt>
      <trkpt lat="44.866" lon="6.72272">
        <ele>1652.3</ele>
        <time>2021-12-22T08:27:45Z</time>
      </trkpt>
      <trkpt lat="44.86605" lon="6.72271">
        <ele>1651.3</ele>
        <time>2021-12-22T08:27:47Z</time>
      </trkpt>
      <trkpt lat="44.86612" lon="6.7227">
        <ele>1650.7</ele>
        <time>2021-12-22T08:27:49Z</time>
      </trkpt>
      <trkpt lat="44.86618" lon="6.72269">
        <ele>1649.5</ele>
        <time>2021-12-22T08:27:51Z</time>
      </trkpt>
      <trkpt lat="44.86624" lon="6.72268">
        <ele>1648.6</ele>
        <time>2021-12-22T08:27:53Z</time>
      </trkpt>
      <trkpt lat="44.86629" lon="6.72268">
        <ele>1649.5</ele>
        <time>2021-12-22T08:27:55Z</time>
      </trkpt>
      <trkpt lat="44.86632" lon="6.72268">
        <ele>1649.8</ele>
        <time>2021-12-22T08:27:57Z</time>
      </trkpt>
      <trkpt lat="44.86633" lon="6.72268">
        <ele>1649.8</ele>
        <time>2021-12-22T08:27:58Z</time>
      </trkpt>
      <trkpt lat="44.86635" lon="6.72268">
        <ele>1649.6</ele>
        <time>2021-12-22T08:28:42Z</time>
      </trkpt>
      <trkpt lat="44.86644" lon="6.72268">
        <ele>1649.5</ele>
        <time>2021-12-22T08:28:43Z</time>
      </trkpt>
      <trkpt lat="44.86644" lon="6.72268">
        <ele>1649.4</ele>
        <time>2021-12-22T08:28:44Z</time>
      </trkpt>
      <trkpt lat="44.86644" lon="6.72268">
        <ele>1649.5</ele>
        <time>2021-12-22T08:28:57Z</time>
      </trkpt>
      <trkpt lat="44.86648" lon="6.72268">
        <ele>1649.2</ele>
        <time>2021-12-22T08:28:58Z</time>
      </trkpt>
      <trkpt lat="44.86654" lon="6.72272">
        <ele>1648.7</ele>
        <time>2021-12-22T08:29:00Z</time>
      </trkpt>
      <trkpt lat="44.86661" lon="6.72279">
        <ele>1647.8</ele>
        <time>2021-12-22T08:29:02Z</time>
      </trkpt>
      <trkpt lat="44.86665" lon="6.72283">
        <ele>1647.1</ele>
        <time>2021-12-22T08:29:03Z</time>
      </trkpt>
      <trkpt lat="44.86669" lon="6.72287">
        <ele>1646</ele>
        <time>2021-12-22T08:29:04Z</time>
      </trkpt>
      <trkpt lat="44.86674" lon="6.72291">
        <ele>1645.3</ele>
        <time>2021-12-22T08:29:05Z</time>
      </trkpt>
      <trkpt lat="44.86679" lon="6.72294">
        <ele>1644.7</ele>
        <time>2021-12-22T08:29:06Z</time>
      </trkpt>
      <trkpt lat="44.86685" lon="6.72297">
        <ele>1644.3</ele>
        <time>2021-12-22T08:29:07Z</time>
      </trkpt>
      <trkpt lat="44.8669" lon="6.72298">
        <ele>1644</ele>
        <time>2021-12-22T08:29:08Z</time>
      </trkpt>
      <trkpt lat="44.86695" lon="6.72299">
        <ele>1643.5</ele>
        <time>2021-12-22T08:29:09Z</time>
      </trkpt>
      <trkpt lat="44.86699" lon="6.723">
        <ele>1642.5</ele>
        <time>2021-12-22T08:29:10Z</time>
      </trkpt>
      <trkpt lat="44.86707" lon="6.72299">
        <ele>1642.2</ele>
        <time>2021-12-22T08:29:12Z</time>
      </trkpt>
      <trkpt lat="44.86713" lon="6.72298">
        <ele>1642.7</ele>
        <time>2021-12-22T08:29:14Z</time>
      </trkpt>
      <trkpt lat="44.86717" lon="6.72298">
        <ele>1641.4</ele>
        <time>2021-12-22T08:29:16Z</time>
      </trkpt>
      <trkpt lat="44.86717" lon="6.72298">
        <ele>1641.5</ele>
        <time>2021-12-22T08:29:17Z</time>
      </trkpt>
      <trkpt lat="44.86718" lon="6.72298">
        <ele>1641.6</ele>
        <time>2021-12-22T08:29:25Z</time>
      </trkpt>
      <trkpt lat="44.86721" lon="6.72298">
        <ele>1641</ele>
        <time>2021-12-22T08:29:26Z</time>
      </trkpt>
      <trkpt lat="44.86727" lon="6.72299">
        <ele>1640.9</ele>
        <time>2021-12-22T08:29:29Z</time>
      </trkpt>
      <trkpt lat="44.86731" lon="6.72297">
        <ele>1640</ele>
        <time>2021-12-22T08:29:31Z</time>
      </trkpt>
      <trkpt lat="44.86737" lon="6.72295">
        <ele>1639.5</ele>
        <time>2021-12-22T08:29:33Z</time>
      </trkpt>
      <trkpt lat="44.86743" lon="6.72294">
        <ele>1639.2</ele>
        <time>2021-12-22T08:29:35Z</time>
      </trkpt>
      <trkpt lat="44.86749" lon="6.72293">
        <ele>1639.6</ele>
        <time>2021-12-22T08:29:37Z</time>
      </trkpt>
      <trkpt lat="44.86754" lon="6.72293">
        <ele>1639.1</ele>
        <time>2021-12-22T08:29:39Z</time>
      </trkpt>
      <trkpt lat="44.86756" lon="6.72293">
        <ele>1639.1</ele>
        <time>2021-12-22T08:29:40Z</time>
      </trkpt>
      <trkpt lat="44.86756" lon="6.72294">
        <ele>1638.6</ele>
        <time>2021-12-22T08:29:41Z</time>
      </trkpt>
      <trkpt lat="44.86757" lon="6.72295">
        <ele>1638.3</ele>
        <time>2021-12-22T08:30:09Z</time>
      </trkpt>
      <trkpt lat="44.86765" lon="6.723">
        <ele>1637.7</ele>
        <time>2021-12-22T08:30:10Z</time>
      </trkpt>
      <trkpt lat="44.86766" lon="6.723">
        <ele>1637.8</ele>
        <time>2021-12-22T08:30:11Z</time>
      </trkpt>
      <trkpt lat="44.86766" lon="6.723">
        <ele>1637.8</ele>
        <time>2021-12-22T08:30:21Z</time>
      </trkpt>
      <trkpt lat="44.8677" lon="6.723">
        <ele>1637.8</ele>
        <time>2021-12-22T08:30:22Z</time>
      </trkpt>
      <trkpt lat="44.86775" lon="6.72303">
        <ele>1637.9</ele>
        <time>2021-12-22T08:30:26Z</time>
      </trkpt>
      <trkpt lat="44.86779" lon="6.72305">
        <ele>1637.5</ele>
        <time>2021-12-22T08:30:29Z</time>
      </trkpt>
      <trkpt lat="44.86784" lon="6.72308">
        <ele>1637.4</ele>
        <time>2021-12-22T08:30:32Z</time>
      </trkpt>
      <trkpt lat="44.86789" lon="6.72309">
        <ele>1637</ele>
        <time>2021-12-22T08:30:34Z</time>
      </trkpt>
      <trkpt lat="44.86795" lon="6.72311">
        <ele>1635.6</ele>
        <time>2021-12-22T08:30:37Z</time>
      </trkpt>
      <trkpt lat="44.86799" lon="6.72313">
        <ele>1635.1</ele>
        <time>2021-12-22T08:30:40Z</time>
      </trkpt>
      <trkpt lat="44.86805" lon="6.72316">
        <ele>1634</ele>
        <time>2021-12-22T08:30:44Z</time>
      </trkpt>
      <trkpt lat="44.8681" lon="6.72319">
        <ele>1634.7</ele>
        <time>2021-12-22T08:30:47Z</time>
      </trkpt>
      <trkpt lat="44.86814" lon="6.72321">
        <ele>1634.8</ele>
        <time>2021-12-22T08:30:50Z</time>
      </trkpt>
      <trkpt lat="44.86818" lon="6.72323">
        <ele>1635.3</ele>
        <time>2021-12-22T08:30:54Z</time>
      </trkpt>
      <trkpt lat="44.86823" lon="6.72326">
        <ele>1635.7</ele>
        <time>2021-12-22T08:30:58Z</time>
      </trkpt>
      <trkpt lat="44.86826" lon="6.72331">
        <ele>1636.2</ele>
        <time>2021-12-22T08:31:03Z</time>
      </trkpt>
      <trkpt lat="44.8683" lon="6.72337">
        <ele>1637.2</ele>
        <time>2021-12-22T08:31:08Z</time>
      </trkpt>
      <trkpt lat="44.86831" lon="6.7234">
        <ele>1637.8</ele>
        <time>2021-12-22T08:31:10Z</time>
      </trkpt>
      <trkpt lat="44.86831" lon="6.72341">
        <ele>1637.8</ele>
        <time>2021-12-22T08:31:11Z</time>
      </trkpt>
      <trkpt lat="44.86833" lon="6.72342">
        <ele>1637.9</ele>
        <time>2021-12-22T08:31:15Z</time>
      </trkpt>
      <trkpt lat="44.86835" lon="6.72345">
        <ele>1638.5</ele>
        <time>2021-12-22T08:31:16Z</time>
      </trkpt>
      <trkpt lat="44.86836" lon="6.72348">
        <ele>1638.9</ele>
        <time>2021-12-22T08:31:18Z</time>
      </trkpt>
      <trkpt lat="44.86836" lon="6.72349">
        <ele>1639.3</ele>
        <time>2021-12-22T08:31:19Z</time>
      </trkpt>
      <trkpt lat="44.86837" lon="6.72351">
        <ele>1639.5</ele>
        <time>2021-12-22T08:31:21Z</time>
      </trkpt>
      <trkpt lat="44.86838" lon="6.72352">
        <ele>1639.4</ele>
        <time>2021-12-22T08:31:22Z</time>
      </trkpt>
      <trkpt lat="44.86841" lon="6.72357">
        <ele>1639.3</ele>
        <time>2021-12-22T08:31:27Z</time>
      </trkpt>
      <trkpt lat="44.86842" lon="6.72358">
        <ele>1639.4</ele>
        <time>2021-12-22T08:31:28Z</time>
      </trkpt>
      <trkpt lat="44.86843" lon="6.72359">
        <ele>1639.8</ele>
        <time>2021-12-22T08:31:29Z</time>
      </trkpt>
      <trkpt lat="44.86844" lon="6.72361">
        <ele>1640</ele>
        <time>2021-12-22T08:31:34Z</time>
      </trkpt>
      <trkpt lat="44.86846" lon="6.72364">
        <ele>1639.8</ele>
        <time>2021-12-22T08:31:35Z</time>
      </trkpt>
      <trkpt lat="44.86848" lon="6.72369">
        <ele>1639.9</ele>
        <time>2021-12-22T08:31:39Z</time>
      </trkpt>
      <trkpt lat="44.86848" lon="6.72369">
        <ele>1639.7</ele>
        <time>2021-12-22T08:31:40Z</time>
      </trkpt>
      <trkpt lat="44.8685" lon="6.72372">
        <ele>1639.6</ele>
        <time>2021-12-22T08:31:42Z</time>
      </trkpt>
      <trkpt lat="44.8685" lon="6.72373">
        <ele>1639.7</ele>
        <time>2021-12-22T08:31:43Z</time>
      </trkpt>
      <trkpt lat="44.86851" lon="6.72374">
        <ele>1639.8</ele>
        <time>2021-12-22T08:31:44Z</time>
      </trkpt>
      <trkpt lat="44.86851" lon="6.72375">
        <ele>1639.9</ele>
        <time>2021-12-22T08:31:45Z</time>
      </trkpt>
      <trkpt lat="44.86852" lon="6.72376">
        <ele>1640</ele>
        <time>2021-12-22T08:31:46Z</time>
      </trkpt>
      <trkpt lat="44.86853" lon="6.72377">
        <ele>1640.2</ele>
        <time>2021-12-22T08:31:47Z</time>
      </trkpt>
      <trkpt lat="44.86853" lon="6.72378">
        <ele>1640.2</ele>
        <time>2021-12-22T08:31:48Z</time>
      </trkpt>
      <trkpt lat="44.86854" lon="6.72379">
        <ele>1640.3</ele>
        <time>2021-12-22T08:31:49Z</time>
      </trkpt>
      <trkpt lat="44.86855" lon="6.72382">
        <ele>1640</ele>
        <time>2021-12-22T08:31:51Z</time>
      </trkpt>
      <trkpt lat="44.86856" lon="6.72383">
        <ele>1640</ele>
        <time>2021-12-22T08:31:52Z</time>
      </trkpt>
      <trkpt lat="44.86856" lon="6.72385">
        <ele>1639.9</ele>
        <time>2021-12-22T08:31:54Z</time>
      </trkpt>
      <trkpt lat="44.86857" lon="6.72386">
        <ele>1640</ele>
        <time>2021-12-22T08:31:55Z</time>
      </trkpt>
      <trkpt lat="44.86858" lon="6.72387">
        <ele>1640.2</ele>
        <time>2021-12-22T08:31:56Z</time>
      </trkpt>
      <trkpt lat="44.86859" lon="6.72388">
        <ele>1640.6</ele>
        <time>2021-12-22T08:32:00Z</time>
      </trkpt>
      <trkpt lat="44.86861" lon="6.72391">
        <ele>1640.9</ele>
        <time>2021-12-22T08:32:01Z</time>
      </trkpt>
      <trkpt lat="44.86864" lon="6.72394">
        <ele>1641.6</ele>
        <time>2021-12-22T08:32:04Z</time>
      </trkpt>
      <trkpt lat="44.86865" lon="6.72395">
        <ele>1641.7</ele>
        <time>2021-12-22T08:32:05Z</time>
      </trkpt>
      <trkpt lat="44.86866" lon="6.72397">
        <ele>1641.6</ele>
        <time>2021-12-22T08:32:06Z</time>
      </trkpt>
      <trkpt lat="44.86866" lon="6.72398">
        <ele>1640.9</ele>
        <time>2021-12-22T08:32:07Z</time>
      </trkpt>
      <trkpt lat="44.86867" lon="6.724">
        <ele>1640.4</ele>
        <time>2021-12-22T08:32:08Z</time>
      </trkpt>
      <trkpt lat="44.86867" lon="6.72401">
        <ele>1640.3</ele>
        <time>2021-12-22T08:32:09Z</time>
      </trkpt>
      <trkpt lat="44.86867" lon="6.72402">
        <ele>1639.6</ele>
        <time>2021-12-22T08:32:10Z</time>
      </trkpt>
      <trkpt lat="44.86868" lon="6.72403">
        <ele>1639.8</ele>
        <time>2021-12-22T08:32:11Z</time>
      </trkpt>
      <trkpt lat="44.86868" lon="6.72404">
        <ele>1639.8</ele>
        <time>2021-12-22T08:32:12Z</time>
      </trkpt>
      <trkpt lat="44.86869" lon="6.72405">
        <ele>1639.7</ele>
        <time>2021-12-22T08:32:13Z</time>
      </trkpt>
      <trkpt lat="44.86871" lon="6.72409">
        <ele>1639.5</ele>
        <time>2021-12-22T08:32:16Z</time>
      </trkpt>
      <trkpt lat="44.86872" lon="6.7241">
        <ele>1639.4</ele>
        <time>2021-12-22T08:32:17Z</time>
      </trkpt>
      <trkpt lat="44.86872" lon="6.72412">
        <ele>1639.5</ele>
        <time>2021-12-22T08:32:20Z</time>
      </trkpt>
      <trkpt lat="44.86874" lon="6.72414">
        <ele>1639.5</ele>
        <time>2021-12-22T08:32:21Z</time>
      </trkpt>
      <trkpt lat="44.86878" lon="6.7242">
        <ele>1641.1</ele>
        <time>2021-12-22T08:32:25Z</time>
      </trkpt>
      <trkpt lat="44.86882" lon="6.72426">
        <ele>1642.5</ele>
        <time>2021-12-22T08:32:29Z</time>
      </trkpt>
      <trkpt lat="44.86884" lon="6.72431">
        <ele>1640.8</ele>
        <time>2021-12-22T08:32:33Z</time>
      </trkpt>
      <trkpt lat="44.86886" lon="6.72435">
        <ele>1639.7</ele>
        <time>2021-12-22T08:32:37Z</time>
      </trkpt>
      <trkpt lat="44.86887" lon="6.72436">
        <ele>1639.6</ele>
        <time>2021-12-22T08:32:38Z</time>
      </trkpt>
      <trkpt lat="44.86887" lon="6.72437">
        <ele>1639.6</ele>
        <time>2021-12-22T08:32:39Z</time>
      </trkpt>
      <trkpt lat="44.86888" lon="6.72438">
        <ele>1639.1</ele>
        <time>2021-12-22T08:32:40Z</time>
      </trkpt>
      <trkpt lat="44.8689" lon="6.72444">
        <ele>1638.9</ele>
        <time>2021-12-22T08:32:45Z</time>
      </trkpt>
      <trkpt lat="44.86891" lon="6.72446">
        <ele>1638.8</ele>
        <time>2021-12-22T08:32:46Z</time>
      </trkpt>
      <trkpt lat="44.86892" lon="6.72446">
        <ele>1638.7</ele>
        <time>2021-12-22T08:32:47Z</time>
      </trkpt>
      <trkpt lat="44.86892" lon="6.72447">
        <ele>1638.7</ele>
        <time>2021-12-22T08:33:39Z</time>
      </trkpt>
      <trkpt lat="44.86898" lon="6.72456">
        <ele>1639</ele>
        <time>2021-12-22T08:33:40Z</time>
      </trkpt>
      <trkpt lat="44.86901" lon="6.72462">
        <ele>1638.4</ele>
        <time>2021-12-22T08:33:44Z</time>
      </trkpt>
      <trkpt lat="44.86903" lon="6.72469">
        <ele>1637.8</ele>
        <time>2021-12-22T08:33:48Z</time>
      </trkpt>
      <trkpt lat="44.86904" lon="6.72475">
        <ele>1636.5</ele>
        <time>2021-12-22T08:33:52Z</time>
      </trkpt>
      <trkpt lat="44.86906" lon="6.72482">
        <ele>1635.1</ele>
        <time>2021-12-22T08:33:56Z</time>
      </trkpt>
      <trkpt lat="44.86908" lon="6.72488">
        <ele>1633.6</ele>
        <time>2021-12-22T08:34:00Z</time>
      </trkpt>
      <trkpt lat="44.86911" lon="6.72494">
        <ele>1633.4</ele>
        <time>2021-12-22T08:34:05Z</time>
      </trkpt>
      <trkpt lat="44.86914" lon="6.725">
        <ele>1633.1</ele>
        <time>2021-12-22T08:34:10Z</time>
      </trkpt>
      <trkpt lat="44.86915" lon="6.72502">
        <ele>1632.9</ele>
        <time>2021-12-22T08:34:12Z</time>
      </trkpt>
      <trkpt lat="44.86915" lon="6.72503">
        <ele>1632.7</ele>
        <time>2021-12-22T08:34:13Z</time>
      </trkpt>
      <trkpt lat="44.86916" lon="6.72504">
        <ele>1632.7</ele>
        <time>2021-12-22T08:34:14Z</time>
      </trkpt>
      <trkpt lat="44.86916" lon="6.72505">
        <ele>1632.5</ele>
        <time>2021-12-22T08:34:15Z</time>
      </trkpt>
      <trkpt lat="44.86919" lon="6.72511">
        <ele>1632.6</ele>
        <time>2021-12-22T08:34:19Z</time>
      </trkpt>
      <trkpt lat="44.86923" lon="6.72517">
        <ele>1633.3</ele>
        <time>2021-12-22T08:34:24Z</time>
      </trkpt>
      <trkpt lat="44.86926" lon="6.72522">
        <ele>1634.6</ele>
        <time>2021-12-22T08:34:28Z</time>
      </trkpt>
      <trkpt lat="44.8693" lon="6.72527">
        <ele>1636.2</ele>
        <time>2021-12-22T08:34:33Z</time>
      </trkpt>
      <trkpt lat="44.86931" lon="6.72529">
        <ele>1636.5</ele>
        <time>2021-12-22T08:34:34Z</time>
      </trkpt>
      <trkpt lat="44.86931" lon="6.72529">
        <ele>1636.8</ele>
        <time>2021-12-22T08:34:35Z</time>
      </trkpt>
      <trkpt lat="44.86932" lon="6.7253">
        <ele>1636.9</ele>
        <time>2021-12-22T08:34:36Z</time>
      </trkpt>
      <trkpt lat="44.86932" lon="6.72532">
        <ele>1636.8</ele>
        <time>2021-12-22T08:34:37Z</time>
      </trkpt>
      <trkpt lat="44.86935" lon="6.72538">
        <ele>1636.8</ele>
        <time>2021-12-22T08:34:41Z</time>
      </trkpt>
      <trkpt lat="44.86935" lon="6.7254">
        <ele>1637</ele>
        <time>2021-12-22T08:34:42Z</time>
      </trkpt>
      <trkpt lat="44.86935" lon="6.72541">
        <ele>1637.1</ele>
        <time>2021-12-22T08:34:43Z</time>
      </trkpt>
      <trkpt lat="44.86936" lon="6.72543">
        <ele>1637.4</ele>
        <time>2021-12-22T08:34:46Z</time>
      </trkpt>
      <trkpt lat="44.86937" lon="6.72545">
        <ele>1637.6</ele>
        <time>2021-12-22T08:34:47Z</time>
      </trkpt>
      <trkpt lat="44.86937" lon="6.72546">
        <ele>1637.9</ele>
        <time>2021-12-22T08:34:48Z</time>
      </trkpt>
      <trkpt lat="44.86938" lon="6.72547">
        <ele>1638.1</ele>
        <time>2021-12-22T08:34:49Z</time>
      </trkpt>
      <trkpt lat="44.86939" lon="6.72549">
        <ele>1638.4</ele>
        <time>2021-12-22T08:34:51Z</time>
      </trkpt>
      <trkpt lat="44.86939" lon="6.7255">
        <ele>1638.5</ele>
        <time>2021-12-22T08:34:52Z</time>
      </trkpt>
      <trkpt lat="44.86941" lon="6.72554">
        <ele>1638.7</ele>
        <time>2021-12-22T08:34:55Z</time>
      </trkpt>
      <trkpt lat="44.86941" lon="6.72555">
        <ele>1638.8</ele>
        <time>2021-12-22T08:34:56Z</time>
      </trkpt>
      <trkpt lat="44.86942" lon="6.72556">
        <ele>1638.9</ele>
        <time>2021-12-22T08:34:57Z</time>
      </trkpt>
      <trkpt lat="44.86942" lon="6.72557">
        <ele>1639</ele>
        <time>2021-12-22T08:34:58Z</time>
      </trkpt>
      <trkpt lat="44.86946" lon="6.72563">
        <ele>1639.6</ele>
        <time>2021-12-22T08:35:03Z</time>
      </trkpt>
      <trkpt lat="44.86947" lon="6.72564">
        <ele>1639.9</ele>
        <time>2021-12-22T08:35:04Z</time>
      </trkpt>
      <trkpt lat="44.86947" lon="6.72565">
        <ele>1640.1</ele>
        <time>2021-12-22T08:35:05Z</time>
      </trkpt>
      <trkpt lat="44.86948" lon="6.72566">
        <ele>1640</ele>
        <time>2021-12-22T08:35:06Z</time>
      </trkpt>
      <trkpt lat="44.86949" lon="6.7257">
        <ele>1639.5</ele>
        <time>2021-12-22T08:35:09Z</time>
      </trkpt>
      <trkpt lat="44.8695" lon="6.72571">
        <ele>1639.7</ele>
        <time>2021-12-22T08:35:10Z</time>
      </trkpt>
      <trkpt lat="44.86951" lon="6.72573">
        <ele>1639.9</ele>
        <time>2021-12-22T08:35:17Z</time>
      </trkpt>
      <trkpt lat="44.86954" lon="6.72578">
        <ele>1640.2</ele>
        <time>2021-12-22T08:35:18Z</time>
      </trkpt>
      <trkpt lat="44.86955" lon="6.72579">
        <ele>1640.2</ele>
        <time>2021-12-22T08:35:19Z</time>
      </trkpt>
      <trkpt lat="44.86955" lon="6.72581">
        <ele>1640.5</ele>
        <time>2021-12-22T08:35:29Z</time>
      </trkpt>
      <trkpt lat="44.8696" lon="6.7259">
        <ele>1641</ele>
        <time>2021-12-22T08:35:30Z</time>
      </trkpt>
      <trkpt lat="44.8696" lon="6.72591">
        <ele>1640.8</ele>
        <time>2021-12-22T08:35:31Z</time>
      </trkpt>
      <trkpt lat="44.86961" lon="6.72592">
        <ele>1640</ele>
        <time>2021-12-22T08:35:32Z</time>
      </trkpt>
      <trkpt lat="44.86962" lon="6.72594">
        <ele>1640.2</ele>
        <time>2021-12-22T08:35:35Z</time>
      </trkpt>
      <trkpt lat="44.86963" lon="6.72595">
        <ele>1640.5</ele>
        <time>2021-12-22T08:35:36Z</time>
      </trkpt>
      <trkpt lat="44.86963" lon="6.72596">
        <ele>1640.8</ele>
        <time>2021-12-22T08:35:37Z</time>
      </trkpt>
      <trkpt lat="44.86964" lon="6.72598">
        <ele>1641</ele>
        <time>2021-12-22T08:35:41Z</time>
      </trkpt>
      <trkpt lat="44.86966" lon="6.72601">
        <ele>1641.9</ele>
        <time>2021-12-22T08:35:42Z</time>
      </trkpt>
      <trkpt lat="44.86966" lon="6.72602">
        <ele>1642</ele>
        <time>2021-12-22T08:35:43Z</time>
      </trkpt>
      <trkpt lat="44.86967" lon="6.72602">
        <ele>1642.4</ele>
        <time>2021-12-22T08:35:44Z</time>
      </trkpt>
      <trkpt lat="44.86968" lon="6.72604">
        <ele>1642.6</ele>
        <time>2021-12-22T08:35:57Z</time>
      </trkpt>
      <trkpt lat="44.86975" lon="6.72612">
        <ele>1644.2</ele>
        <time>2021-12-22T08:35:58Z</time>
      </trkpt>
      <trkpt lat="44.86976" lon="6.72613">
        <ele>1644.2</ele>
        <time>2021-12-22T08:35:59Z</time>
      </trkpt>
      <trkpt lat="44.86977" lon="6.72614">
        <ele>1644.3</ele>
        <time>2021-12-22T08:36:37Z</time>
      </trkpt>
      <trkpt lat="44.86983" lon="6.72624">
        <ele>1645.9</ele>
        <time>2021-12-22T08:36:38Z</time>
      </trkpt>
      <trkpt lat="44.86984" lon="6.72625">
        <ele>1646.1</ele>
        <time>2021-12-22T08:36:40Z</time>
      </trkpt>
      <trkpt lat="44.86985" lon="6.72625">
        <ele>1646.2</ele>
        <time>2021-12-22T08:36:41Z</time>
      </trkpt>
      <trkpt lat="44.86986" lon="6.72625">
        <ele>1646.3</ele>
        <time>2021-12-22T08:36:42Z</time>
      </trkpt>
      <trkpt lat="44.86987" lon="6.72625">
        <ele>1646.5</ele>
        <time>2021-12-22T08:36:43Z</time>
      </trkpt>
      <trkpt lat="44.86987" lon="6.72626">
        <ele>1646.7</ele>
        <time>2021-12-22T08:36:44Z</time>
      </trkpt>
      <trkpt lat="44.86988" lon="6.72625">
        <ele>1646.7</ele>
        <time>2021-12-22T08:36:45Z</time>
      </trkpt>
      <trkpt lat="44.86989" lon="6.72625">
        <ele>1646.9</ele>
        <time>2021-12-22T08:36:46Z</time>
      </trkpt>
      <trkpt lat="44.8699" lon="6.72625">
        <ele>1647.1</ele>
        <time>2021-12-22T08:36:47Z</time>
      </trkpt>
      <trkpt lat="44.86991" lon="6.72625">
        <ele>1647.1</ele>
        <time>2021-12-22T08:36:48Z</time>
      </trkpt>
      <trkpt lat="44.86992" lon="6.72625">
        <ele>1647.2</ele>
        <time>2021-12-22T08:39:55Z</time>
      </trkpt>
      <trkpt lat="44.87001" lon="6.7263">
        <ele>1649.1</ele>
        <time>2021-12-22T08:39:56Z</time>
      </trkpt>
      <trkpt lat="44.87001" lon="6.7263">
        <ele>1649.1</ele>
        <time>2021-12-22T08:39:57Z</time>
      </trkpt>
      <trkpt lat="44.87001" lon="6.7263">
        <ele>1649.1</ele>
        <time>2021-12-22T08:58:43Z</time>
      </trkpt>
      <trkpt lat="44.87001" lon="6.72637">
        <ele>1656</ele>
        <time>2021-12-22T08:58:44Z</time>
      </trkpt>
      <trkpt lat="44.87001" lon="6.72638">
        <ele>1655.8</ele>
        <time>2021-12-22T08:58:45Z</time>
      </trkpt>
      <trkpt lat="44.87001" lon="6.72638">
        <ele>1655.7</ele>
        <time>2021-12-22T08:58:50Z</time>
      </trkpt>
      <trkpt lat="44.87002" lon="6.72639">
        <ele>1655</ele>
        <time>2021-12-22T08:58:51Z</time>
      </trkpt>
      <trkpt lat="44.87005" lon="6.72645">
        <ele>1653.1</ele>
        <time>2021-12-22T08:58:55Z</time>
      </trkpt>
      <trkpt lat="44.87008" lon="6.72651">
        <ele>1651.7</ele>
        <time>2021-12-22T08:58:59Z</time>
      </trkpt>
      <trkpt lat="44.87011" lon="6.72657">
        <ele>1649.5</ele>
        <time>2021-12-22T08:59:03Z</time>
      </trkpt>
      <trkpt lat="44.87013" lon="6.72659">
        <ele>1648.4</ele>
        <time>2021-12-22T08:59:06Z</time>
      </trkpt>
      <trkpt lat="44.87013" lon="6.7266">
        <ele>1648.1</ele>
        <time>2021-12-22T08:59:07Z</time>
      </trkpt>
      <trkpt lat="44.87013" lon="6.72662">
        <ele>1647.9</ele>
        <time>2021-12-22T08:59:10Z</time>
      </trkpt>
      <trkpt lat="44.87013" lon="6.72665">
        <ele>1647.5</ele>
        <time>2021-12-22T08:59:11Z</time>
      </trkpt>
      <trkpt lat="44.87013" lon="6.72666">
        <ele>1647.3</ele>
        <time>2021-12-22T08:59:12Z</time>
      </trkpt>
      <trkpt lat="44.87014" lon="6.72667">
        <ele>1647.3</ele>
        <time>2021-12-22T08:59:13Z</time>
      </trkpt>
      <trkpt lat="44.87014" lon="6.72669">
        <ele>1647.3</ele>
        <time>2021-12-22T08:59:14Z</time>
      </trkpt>
      <trkpt lat="44.87017" lon="6.72674">
        <ele>1647.2</ele>
        <time>2021-12-22T08:59:19Z</time>
      </trkpt>
      <trkpt lat="44.87021" lon="6.7268">
        <ele>1647.7</ele>
        <time>2021-12-22T08:59:24Z</time>
      </trkpt>
      <trkpt lat="44.87021" lon="6.72681">
        <ele>1647.6</ele>
        <time>2021-12-22T08:59:25Z</time>
      </trkpt>
      <trkpt lat="44.87022" lon="6.72682">
        <ele>1647.6</ele>
        <time>2021-12-22T08:59:26Z</time>
      </trkpt>
      <trkpt lat="44.87023" lon="6.72682">
        <ele>1647.7</ele>
        <time>2021-12-22T08:59:27Z</time>
      </trkpt>
      <trkpt lat="44.87024" lon="6.72684">
        <ele>1647.6</ele>
        <time>2021-12-22T08:59:28Z</time>
      </trkpt>
      <trkpt lat="44.87024" lon="6.72685">
        <ele>1647.6</ele>
        <time>2021-12-22T08:59:29Z</time>
      </trkpt>
      <trkpt lat="44.87025" lon="6.72686">
        <ele>1647.6</ele>
        <time>2021-12-22T08:59:30Z</time>
      </trkpt>
      <trkpt lat="44.87026" lon="6.72687">
        <ele>1647.8</ele>
        <time>2021-12-22T08:59:31Z</time>
      </trkpt>
      <trkpt lat="44.87027" lon="6.72689">
        <ele>1647.8</ele>
        <time>2021-12-22T08:59:33Z</time>
      </trkpt>
      <trkpt lat="44.87028" lon="6.7269">
        <ele>1648</ele>
        <time>2021-12-22T08:59:34Z</time>
      </trkpt>
      <trkpt lat="44.87029" lon="6.72692">
        <ele>1648.2</ele>
        <time>2021-12-22T08:59:48Z</time>
      </trkpt>
      <trkpt lat="44.87034" lon="6.72702">
        <ele>1649.4</ele>
        <time>2021-12-22T08:59:49Z</time>
      </trkpt>
      <trkpt lat="44.87035" lon="6.72703">
        <ele>1649.4</ele>
        <time>2021-12-22T08:59:50Z</time>
      </trkpt>
      <trkpt lat="44.87036" lon="6.72704">
        <ele>1649.4</ele>
        <time>2021-12-22T08:59:51Z</time>
      </trkpt>
      <trkpt lat="44.87036" lon="6.72705">
        <ele>1649.4</ele>
        <time>2021-12-22T08:59:52Z</time>
      </trkpt>
      <trkpt lat="44.87039" lon="6.72712">
        <ele>1649.6</ele>
        <time>2021-12-22T08:59:57Z</time>
      </trkpt>
      <trkpt lat="44.87042" lon="6.72718">
        <ele>1649.4</ele>
        <time>2021-12-22T09:00:02Z</time>
      </trkpt>
      <trkpt lat="44.87044" lon="6.72725">
        <ele>1649.2</ele>
        <time>2021-12-22T09:00:07Z</time>
      </trkpt>
      <trkpt lat="44.87044" lon="6.72726">
        <ele>1649.2</ele>
        <time>2021-12-22T09:00:08Z</time>
      </trkpt>
      <trkpt lat="44.87046" lon="6.72728">
        <ele>1649.4</ele>
        <time>2021-12-22T09:00:14Z</time>
      </trkpt>
      <trkpt lat="44.87048" lon="6.72733">
        <ele>1649.6</ele>
        <time>2021-12-22T09:00:15Z</time>
      </trkpt>
      <trkpt lat="44.87049" lon="6.72735">
        <ele>1649.7</ele>
        <time>2021-12-22T09:00:16Z</time>
      </trkpt>
      <trkpt lat="44.87049" lon="6.72736">
        <ele>1649.7</ele>
        <time>2021-12-22T09:00:17Z</time>
      </trkpt>
      <trkpt lat="44.8705" lon="6.72737">
        <ele>1649.9</ele>
        <time>2021-12-22T09:00:18Z</time>
      </trkpt>
      <trkpt lat="44.87051" lon="6.72744">
        <ele>1650.3</ele>
        <time>2021-12-22T09:00:23Z</time>
      </trkpt>
      <trkpt lat="44.87052" lon="6.72745">
        <ele>1650.5</ele>
        <time>2021-12-22T09:00:24Z</time>
      </trkpt>
      <trkpt lat="44.87053" lon="6.72748">
        <ele>1650.8</ele>
        <time>2021-12-22T09:00:31Z</time>
      </trkpt>
      <trkpt lat="44.87055" lon="6.72754">
        <ele>1651</ele>
        <time>2021-12-22T09:00:32Z</time>
      </trkpt>
      <trkpt lat="44.87056" lon="6.72755">
        <ele>1650.8</ele>
        <time>2021-12-22T09:00:33Z</time>
      </trkpt>
      <trkpt lat="44.87056" lon="6.72756">
        <ele>1650.8</ele>
        <time>2021-12-22T09:00:34Z</time>
      </trkpt>
      <trkpt lat="44.87056" lon="6.72758">
        <ele>1650.7</ele>
        <time>2021-12-22T09:00:35Z</time>
      </trkpt>
      <trkpt lat="44.87057" lon="6.7276">
        <ele>1650.9</ele>
        <time>2021-12-22T09:00:37Z</time>
      </trkpt>
      <trkpt lat="44.87057" lon="6.72762">
        <ele>1651</ele>
        <time>2021-12-22T09:00:38Z</time>
      </trkpt>
      <trkpt lat="44.87058" lon="6.72764">
        <ele>1651.1</ele>
        <time>2021-12-22T09:00:43Z</time>
      </trkpt>
      <trkpt lat="44.87058" lon="6.72769">
        <ele>1651.3</ele>
        <time>2021-12-22T09:00:44Z</time>
      </trkpt>
      <trkpt lat="44.87058" lon="6.7277">
        <ele>1651.4</ele>
        <time>2021-12-22T09:00:45Z</time>
      </trkpt>
      <trkpt lat="44.87059" lon="6.72772">
        <ele>1651.6</ele>
        <time>2021-12-22T09:00:47Z</time>
      </trkpt>
      <trkpt lat="44.87059" lon="6.72773">
        <ele>1651.9</ele>
        <time>2021-12-22T09:00:48Z</time>
      </trkpt>
      <trkpt lat="44.87059" lon="6.72774">
        <ele>1652</ele>
        <time>2021-12-22T09:00:49Z</time>
      </trkpt>
      <trkpt lat="44.8706" lon="6.72777">
        <ele>1652.1</ele>
        <time>2021-12-22T09:00:51Z</time>
      </trkpt>
      <trkpt lat="44.8706" lon="6.72778">
        <ele>1652.3</ele>
        <time>2021-12-22T09:00:52Z</time>
      </trkpt>
      <trkpt lat="44.8706" lon="6.72779">
        <ele>1652.5</ele>
        <time>2021-12-22T09:00:53Z</time>
      </trkpt>
      <trkpt lat="44.87061" lon="6.72782">
        <ele>1652.6</ele>
        <time>2021-12-22T09:01:02Z</time>
      </trkpt>
      <trkpt lat="44.87061" lon="6.72792">
        <ele>1653.7</ele>
        <time>2021-12-22T09:01:03Z</time>
      </trkpt>
      <trkpt lat="44.87061" lon="6.72793">
        <ele>1653.7</ele>
        <time>2021-12-22T09:01:04Z</time>
      </trkpt>
      <trkpt lat="44.87062" lon="6.72794">
        <ele>1653.7</ele>
        <time>2021-12-22T09:01:05Z</time>
      </trkpt>
      <trkpt lat="44.87062" lon="6.72795">
        <ele>1653.8</ele>
        <time>2021-12-22T09:01:06Z</time>
      </trkpt>
      <trkpt lat="44.87062" lon="6.72797">
        <ele>1653.9</ele>
        <time>2021-12-22T09:01:07Z</time>
      </trkpt>
      <trkpt lat="44.87062" lon="6.72798">
        <ele>1653.9</ele>
        <time>2021-12-22T09:01:08Z</time>
      </trkpt>
      <trkpt lat="44.87062" lon="6.728">
        <ele>1654</ele>
        <time>2021-12-22T09:01:09Z</time>
      </trkpt>
      <trkpt lat="44.87062" lon="6.72801">
        <ele>1654</ele>
        <time>2021-12-22T09:01:10Z</time>
      </trkpt>
      <trkpt lat="44.87062" lon="6.72803">
        <ele>1654.1</ele>
        <time>2021-12-22T09:01:16Z</time>
      </trkpt>
      <trkpt lat="44.87063" lon="6.72809">
        <ele>1654.6</ele>
        <time>2021-12-22T09:01:17Z</time>
      </trkpt>
      <trkpt lat="44.87063" lon="6.72811">
        <ele>1654.5</ele>
        <time>2021-12-22T09:01:18Z</time>
      </trkpt>
      <trkpt lat="44.87063" lon="6.72813">
        <ele>1654.7</ele>
        <time>2021-12-22T09:01:29Z</time>
      </trkpt>
      <trkpt lat="44.87065" lon="6.72824">
        <ele>1655.8</ele>
        <time>2021-12-22T09:01:30Z</time>
      </trkpt>
      <trkpt lat="44.87065" lon="6.72826">
        <ele>1656</ele>
        <time>2021-12-22T09:01:31Z</time>
      </trkpt>
      <trkpt lat="44.87065" lon="6.72828">
        <ele>1656.1</ele>
        <time>2021-12-22T09:01:33Z</time>
      </trkpt>
      <trkpt lat="44.87065" lon="6.7283">
        <ele>1656.2</ele>
        <time>2021-12-22T09:01:34Z</time>
      </trkpt>
      <trkpt lat="44.87065" lon="6.72831">
        <ele>1656.4</ele>
        <time>2021-12-22T09:01:35Z</time>
      </trkpt>
      <trkpt lat="44.87066" lon="6.72833">
        <ele>1656.5</ele>
        <time>2021-12-22T09:01:41Z</time>
      </trkpt>
      <trkpt lat="44.87067" lon="6.72839">
        <ele>1656.7</ele>
        <time>2021-12-22T09:01:42Z</time>
      </trkpt>
      <trkpt lat="44.87067" lon="6.7284">
        <ele>1657</ele>
        <time>2021-12-22T09:01:43Z</time>
      </trkpt>
      <trkpt lat="44.87067" lon="6.72843">
        <ele>1657</ele>
        <time>2021-12-22T09:01:49Z</time>
      </trkpt>
      <trkpt lat="44.87068" lon="6.72849">
        <ele>1656.4</ele>
        <time>2021-12-22T09:01:50Z</time>
      </trkpt>
      <trkpt lat="44.87069" lon="6.7285">
        <ele>1656.4</ele>
        <time>2021-12-22T09:01:51Z</time>
      </trkpt>
      <trkpt lat="44.87069" lon="6.72852">
        <ele>1656.4</ele>
        <time>2021-12-22T09:01:57Z</time>
      </trkpt>
      <trkpt lat="44.8707" lon="6.72859">
        <ele>1656.3</ele>
        <time>2021-12-22T09:01:58Z</time>
      </trkpt>
      <trkpt lat="44.87072" lon="6.72866">
        <ele>1655.4</ele>
        <time>2021-12-22T09:02:03Z</time>
      </trkpt>
      <trkpt lat="44.87074" lon="6.72872">
        <ele>1655.5</ele>
        <time>2021-12-22T09:02:07Z</time>
      </trkpt>
      <trkpt lat="44.87074" lon="6.72873">
        <ele>1655.6</ele>
        <time>2021-12-22T09:02:08Z</time>
      </trkpt>
      <trkpt lat="44.87075" lon="6.72876">
        <ele>1656</ele>
        <time>2021-12-22T09:02:11Z</time>
      </trkpt>
      <trkpt lat="44.87076" lon="6.72878">
        <ele>1656.3</ele>
        <time>2021-12-22T09:02:12Z</time>
      </trkpt>
      <trkpt lat="44.87079" lon="6.72884">
        <ele>1657.3</ele>
        <time>2021-12-22T09:02:16Z</time>
      </trkpt>
      <trkpt lat="44.87081" lon="6.72887">
        <ele>1658.5</ele>
        <time>2021-12-22T09:02:19Z</time>
      </trkpt>
      <trkpt lat="44.87082" lon="6.72888">
        <ele>1658.4</ele>
        <time>2021-12-22T09:02:20Z</time>
      </trkpt>
      <trkpt lat="44.87082" lon="6.72889">
        <ele>1658.5</ele>
        <time>2021-12-22T09:02:21Z</time>
      </trkpt>
      <trkpt lat="44.87083" lon="6.72891">
        <ele>1658.6</ele>
        <time>2021-12-22T09:02:22Z</time>
      </trkpt>
      <trkpt lat="44.87087" lon="6.72897">
        <ele>1659.5</ele>
        <time>2021-12-22T09:02:27Z</time>
      </trkpt>
      <trkpt lat="44.87089" lon="6.72903">
        <ele>1660.5</ele>
        <time>2021-12-22T09:02:32Z</time>
      </trkpt>
      <trkpt lat="44.8709" lon="6.72905">
        <ele>1660.7</ele>
        <time>2021-12-22T09:02:33Z</time>
      </trkpt>
      <trkpt lat="44.8709" lon="6.72906">
        <ele>1660.9</ele>
        <time>2021-12-22T09:02:34Z</time>
      </trkpt>
      <trkpt lat="44.87092" lon="6.72908">
        <ele>1661</ele>
        <time>2021-12-22T09:02:37Z</time>
      </trkpt>
      <trkpt lat="44.87093" lon="6.7291">
        <ele>1661.4</ele>
        <time>2021-12-22T09:02:38Z</time>
      </trkpt>
      <trkpt lat="44.87096" lon="6.72914">
        <ele>1661.9</ele>
        <time>2021-12-22T09:02:42Z</time>
      </trkpt>
      <trkpt lat="44.87097" lon="6.72915">
        <ele>1662.1</ele>
        <time>2021-12-22T09:02:43Z</time>
      </trkpt>
      <trkpt lat="44.87098" lon="6.72917">
        <ele>1662.2</ele>
        <time>2021-12-22T09:02:47Z</time>
      </trkpt>
      <trkpt lat="44.871" lon="6.72921">
        <ele>1662.3</ele>
        <time>2021-12-22T09:02:48Z</time>
      </trkpt>
      <trkpt lat="44.87101" lon="6.72922">
        <ele>1662.2</ele>
        <time>2021-12-22T09:02:49Z</time>
      </trkpt>
      <trkpt lat="44.87101" lon="6.72923">
        <ele>1662.2</ele>
        <time>2021-12-22T09:02:50Z</time>
      </trkpt>
      <trkpt lat="44.87102" lon="6.72924">
        <ele>1662.3</ele>
        <time>2021-12-22T09:02:51Z</time>
      </trkpt>
      <trkpt lat="44.87104" lon="6.7293">
        <ele>1662.6</ele>
        <time>2021-12-22T09:02:56Z</time>
      </trkpt>
      <trkpt lat="44.87107" lon="6.72936">
        <ele>1663.3</ele>
        <time>2021-12-22T09:03:01Z</time>
      </trkpt>
      <trkpt lat="44.87111" lon="6.72941">
        <ele>1664.4</ele>
        <time>2021-12-22T09:03:06Z</time>
      </trkpt>
      <trkpt lat="44.87114" lon="6.72948">
        <ele>1665.2</ele>
        <time>2021-12-22T09:03:11Z</time>
      </trkpt>
      <trkpt lat="44.87116" lon="6.72954">
        <ele>1666.5</ele>
        <time>2021-12-22T09:03:16Z</time>
      </trkpt>
      <trkpt lat="44.87119" lon="6.72959">
        <ele>1667</ele>
        <time>2021-12-22T09:03:21Z</time>
      </trkpt>
      <trkpt lat="44.87119" lon="6.7296">
        <ele>1667.1</ele>
        <time>2021-12-22T09:03:22Z</time>
      </trkpt>
      <trkpt lat="44.8712" lon="6.72961">
        <ele>1667.1</ele>
        <time>2021-12-22T09:03:23Z</time>
      </trkpt>
      <trkpt lat="44.87121" lon="6.72962">
        <ele>1666.9</ele>
        <time>2021-12-22T09:03:24Z</time>
      </trkpt>
      <trkpt lat="44.87121" lon="6.72962">
        <ele>1667</ele>
        <time>2021-12-22T09:03:25Z</time>
      </trkpt>
      <trkpt lat="44.87122" lon="6.72965">
        <ele>1667.2</ele>
        <time>2021-12-22T09:03:27Z</time>
      </trkpt>
      <trkpt lat="44.87123" lon="6.72966">
        <ele>1667.5</ele>
        <time>2021-12-22T09:03:28Z</time>
      </trkpt>
      <trkpt lat="44.87124" lon="6.72967">
        <ele>1667.6</ele>
        <time>2021-12-22T09:03:29Z</time>
      </trkpt>
      <trkpt lat="44.87124" lon="6.72968">
        <ele>1667.8</ele>
        <time>2021-12-22T09:03:30Z</time>
      </trkpt>
      <trkpt lat="44.87125" lon="6.72968">
        <ele>1668.2</ele>
        <time>2021-12-22T09:03:31Z</time>
      </trkpt>
      <trkpt lat="44.87129" lon="6.72973">
        <ele>1668.9</ele>
        <time>2021-12-22T09:03:36Z</time>
      </trkpt>
      <trkpt lat="44.87131" lon="6.72975">
        <ele>1669</ele>
        <time>2021-12-22T09:03:38Z</time>
      </trkpt>
      <trkpt lat="44.87131" lon="6.72976">
        <ele>1669.1</ele>
        <time>2021-12-22T09:03:39Z</time>
      </trkpt>
      <trkpt lat="44.87132" lon="6.72977">
        <ele>1669.1</ele>
        <time>2021-12-22T09:03:40Z</time>
      </trkpt>
      <trkpt lat="44.87133" lon="6.72977">
        <ele>1669.3</ele>
        <time>2021-12-22T09:03:41Z</time>
      </trkpt>
      <trkpt lat="44.87137" lon="6.72983">
        <ele>1669.7</ele>
        <time>2021-12-22T09:03:46Z</time>
      </trkpt>
      <trkpt lat="44.87141" lon="6.72987">
        <ele>1670.5</ele>
        <time>2021-12-22T09:03:51Z</time>
      </trkpt>
      <trkpt lat="44.87145" lon="6.72992">
        <ele>1671.3</ele>
        <time>2021-12-22T09:03:56Z</time>
      </trkpt>
      <trkpt lat="44.87147" lon="6.72993">
        <ele>1671.5</ele>
        <time>2021-12-22T09:03:58Z</time>
      </trkpt>
      <trkpt lat="44.87147" lon="6.72994">
        <ele>1671.7</ele>
        <time>2021-12-22T09:03:59Z</time>
      </trkpt>
      <trkpt lat="44.87148" lon="6.72995">
        <ele>1671.8</ele>
        <time>2021-12-22T09:04:00Z</time>
      </trkpt>
      <trkpt lat="44.87149" lon="6.72996">
        <ele>1671.9</ele>
        <time>2021-12-22T09:04:01Z</time>
      </trkpt>
      <trkpt lat="44.87149" lon="6.72997">
        <ele>1672.1</ele>
        <time>2021-12-22T09:04:02Z</time>
      </trkpt>
      <trkpt lat="44.87151" lon="6.72999">
        <ele>1672.5</ele>
        <time>2021-12-22T09:04:06Z</time>
      </trkpt>
      <trkpt lat="44.87153" lon="6.73001">
        <ele>1672.8</ele>
        <time>2021-12-22T09:04:07Z</time>
      </trkpt>
      <trkpt lat="44.87153" lon="6.73002">
        <ele>1673.1</ele>
        <time>2021-12-22T09:04:08Z</time>
      </trkpt>
      <trkpt lat="44.87154" lon="6.73003">
        <ele>1673.3</ele>
        <time>2021-12-22T09:04:09Z</time>
      </trkpt>
      <trkpt lat="44.87154" lon="6.73004">
        <ele>1673.3</ele>
        <time>2021-12-22T09:04:10Z</time>
      </trkpt>
      <trkpt lat="44.87155" lon="6.73004">
        <ele>1673.6</ele>
        <time>2021-12-22T09:04:11Z</time>
      </trkpt>
      <trkpt lat="44.87157" lon="6.73006">
        <ele>1674</ele>
        <time>2021-12-22T09:04:15Z</time>
      </trkpt>
      <trkpt lat="44.87159" lon="6.73008">
        <ele>1674.6</ele>
        <time>2021-12-22T09:04:16Z</time>
      </trkpt>
      <trkpt lat="44.8716" lon="6.73008">
        <ele>1674.6</ele>
        <time>2021-12-22T09:04:17Z</time>
      </trkpt>
      <trkpt lat="44.87161" lon="6.73009">
        <ele>1674.7</ele>
        <time>2021-12-22T09:04:18Z</time>
      </trkpt>
      <trkpt lat="44.87161" lon="6.7301">
        <ele>1674.7</ele>
        <time>2021-12-22T09:04:19Z</time>
      </trkpt>
      <trkpt lat="44.87162" lon="6.73011">
        <ele>1674.7</ele>
        <time>2021-12-22T09:04:20Z</time>
      </trkpt>
      <trkpt lat="44.87163" lon="6.73012">
        <ele>1674.7</ele>
        <time>2021-12-22T09:04:21Z</time>
      </trkpt>
      <trkpt lat="44.87163" lon="6.73013">
        <ele>1674.7</ele>
        <time>2021-12-22T09:04:22Z</time>
      </trkpt>
      <trkpt lat="44.87164" lon="6.73014">
        <ele>1674.5</ele>
        <time>2021-12-22T09:04:23Z</time>
      </trkpt>
      <trkpt lat="44.87165" lon="6.73015">
        <ele>1674.5</ele>
        <time>2021-12-22T09:04:24Z</time>
      </trkpt>
      <trkpt lat="44.87165" lon="6.73016">
        <ele>1674.2</ele>
        <time>2021-12-22T09:04:25Z</time>
      </trkpt>
      <trkpt lat="44.87166" lon="6.73017">
        <ele>1674</ele>
        <time>2021-12-22T09:04:26Z</time>
      </trkpt>
      <trkpt lat="44.87168" lon="6.73018">
        <ele>1674</ele>
        <time>2021-12-22T09:04:38Z</time>
      </trkpt>
      <trkpt lat="44.87174" lon="6.73028">
        <ele>1674.3</ele>
        <time>2021-12-22T09:04:39Z</time>
      </trkpt>
      <trkpt lat="44.87175" lon="6.73029">
        <ele>1674.3</ele>
        <time>2021-12-22T09:04:40Z</time>
      </trkpt>
      <trkpt lat="44.87176" lon="6.7303">
        <ele>1674.3</ele>
        <time>2021-12-22T09:04:41Z</time>
      </trkpt>
      <trkpt lat="44.87176" lon="6.73031">
        <ele>1674.4</ele>
        <time>2021-12-22T09:04:42Z</time>
      </trkpt>
      <trkpt lat="44.87177" lon="6.73032">
        <ele>1674.5</ele>
        <time>2021-12-22T09:04:43Z</time>
      </trkpt>
      <trkpt lat="44.87178" lon="6.73032">
        <ele>1674.6</ele>
        <time>2021-12-22T09:04:44Z</time>
      </trkpt>
      <trkpt lat="44.87178" lon="6.73034">
        <ele>1674.9</ele>
        <time>2021-12-22T09:04:45Z</time>
      </trkpt>
      <trkpt lat="44.87179" lon="6.73035">
        <ele>1675.2</ele>
        <time>2021-12-22T09:04:46Z</time>
      </trkpt>
      <trkpt lat="44.8718" lon="6.73036">
        <ele>1675.3</ele>
        <time>2021-12-22T09:04:47Z</time>
      </trkpt>
      <trkpt lat="44.8718" lon="6.73037">
        <ele>1675.7</ele>
        <time>2021-12-22T09:04:48Z</time>
      </trkpt>
      <trkpt lat="44.87181" lon="6.73038">
        <ele>1676.1</ele>
        <time>2021-12-22T09:04:49Z</time>
      </trkpt>
      <trkpt lat="44.87182" lon="6.73039">
        <ele>1676.2</ele>
        <time>2021-12-22T09:04:50Z</time>
      </trkpt>
      <trkpt lat="44.87183" lon="6.7304">
        <ele>1676.3</ele>
        <time>2021-12-22T09:04:51Z</time>
      </trkpt>
      <trkpt lat="44.87183" lon="6.73041">
        <ele>1676.5</ele>
        <time>2021-12-22T09:04:52Z</time>
      </trkpt>
      <trkpt lat="44.87185" lon="6.73042">
        <ele>1676.6</ele>
        <time>2021-12-22T09:04:54Z</time>
      </trkpt>
      <trkpt lat="44.87185" lon="6.73043">
        <ele>1676.6</ele>
        <time>2021-12-22T09:04:55Z</time>
      </trkpt>
      <trkpt lat="44.87186" lon="6.73044">
        <ele>1676.8</ele>
        <time>2021-12-22T09:04:56Z</time>
      </trkpt>
      <trkpt lat="44.87187" lon="6.73045">
        <ele>1676.8</ele>
        <time>2021-12-22T09:04:57Z</time>
      </trkpt>
      <trkpt lat="44.87187" lon="6.73046">
        <ele>1676.9</ele>
        <time>2021-12-22T09:04:58Z</time>
      </trkpt>
      <trkpt lat="44.87188" lon="6.73047">
        <ele>1677</ele>
        <time>2021-12-22T09:04:59Z</time>
      </trkpt>
      <trkpt lat="44.87188" lon="6.73049">
        <ele>1677</ele>
        <time>2021-12-22T09:05:00Z</time>
      </trkpt>
      <trkpt lat="44.87189" lon="6.73051">
        <ele>1677</ele>
        <time>2021-12-22T09:05:05Z</time>
      </trkpt>
      <trkpt lat="44.87192" lon="6.73054">
        <ele>1677.5</ele>
        <time>2021-12-22T09:05:06Z</time>
      </trkpt>
      <trkpt lat="44.87192" lon="6.73055">
        <ele>1677.6</ele>
        <time>2021-12-22T09:05:07Z</time>
      </trkpt>
      <trkpt lat="44.87193" lon="6.73057">
        <ele>1677.6</ele>
        <time>2021-12-22T09:05:09Z</time>
      </trkpt>
      <trkpt lat="44.87194" lon="6.73058">
        <ele>1677.5</ele>
        <time>2021-12-22T09:05:10Z</time>
      </trkpt>
      <trkpt lat="44.87195" lon="6.73058">
        <ele>1677.7</ele>
        <time>2021-12-22T09:05:11Z</time>
      </trkpt>
      <trkpt lat="44.87196" lon="6.7306">
        <ele>1677.7</ele>
        <time>2021-12-22T09:05:13Z</time>
      </trkpt>
      <trkpt lat="44.87196" lon="6.73061">
        <ele>1677.9</ele>
        <time>2021-12-22T09:05:14Z</time>
      </trkpt>
      <trkpt lat="44.87197" lon="6.73062">
        <ele>1678.1</ele>
        <time>2021-12-22T09:05:15Z</time>
      </trkpt>
      <trkpt lat="44.87198" lon="6.73064">
        <ele>1678.2</ele>
        <time>2021-12-22T09:05:22Z</time>
      </trkpt>
      <trkpt lat="44.87201" lon="6.7307">
        <ele>1678.9</ele>
        <time>2021-12-22T09:05:23Z</time>
      </trkpt>
      <trkpt lat="44.87203" lon="6.73073">
        <ele>1679.3</ele>
        <time>2021-12-22T09:05:26Z</time>
      </trkpt>
      <trkpt lat="44.87203" lon="6.73074">
        <ele>1679.5</ele>
        <time>2021-12-22T09:05:27Z</time>
      </trkpt>
      <trkpt lat="44.87204" lon="6.73076">
        <ele>1679.8</ele>
        <time>2021-12-22T09:05:32Z</time>
      </trkpt>
      <trkpt lat="44.87206" lon="6.7308">
        <ele>1680.5</ele>
        <time>2021-12-22T09:05:33Z</time>
      </trkpt>
      <trkpt lat="44.87207" lon="6.73081">
        <ele>1680.7</ele>
        <time>2021-12-22T09:05:34Z</time>
      </trkpt>
      <trkpt lat="44.87208" lon="6.73083">
        <ele>1681.1</ele>
        <time>2021-12-22T09:05:43Z</time>
      </trkpt>
      <trkpt lat="44.87213" lon="6.7309">
        <ele>1682.3</ele>
        <time>2021-12-22T09:05:44Z</time>
      </trkpt>
      <trkpt lat="44.87213" lon="6.73091">
        <ele>1682.4</ele>
        <time>2021-12-22T09:05:45Z</time>
      </trkpt>
      <trkpt lat="44.87214" lon="6.73093">
        <ele>1682.6</ele>
        <time>2021-12-22T09:05:55Z</time>
      </trkpt>
      <trkpt lat="44.8722" lon="6.73102">
        <ele>1683.5</ele>
        <time>2021-12-22T09:05:56Z</time>
      </trkpt>
      <trkpt lat="44.87222" lon="6.73104">
        <ele>1684.5</ele>
        <time>2021-12-22T09:05:59Z</time>
      </trkpt>
      <trkpt lat="44.87222" lon="6.73105">
        <ele>1684.4</ele>
        <time>2021-12-22T09:06:00Z</time>
      </trkpt>
      <trkpt lat="44.87224" lon="6.73107">
        <ele>1684.6</ele>
        <time>2021-12-22T09:06:03Z</time>
      </trkpt>
      <trkpt lat="44.87225" lon="6.73109">
        <ele>1684.7</ele>
        <time>2021-12-22T09:06:04Z</time>
      </trkpt>
      <trkpt lat="44.87225" lon="6.7311">
        <ele>1684.6</ele>
        <time>2021-12-22T09:06:05Z</time>
      </trkpt>
      <trkpt lat="44.87227" lon="6.73112">
        <ele>1684.6</ele>
        <time>2021-12-22T09:06:07Z</time>
      </trkpt>
      <trkpt lat="44.87227" lon="6.73113">
        <ele>1684.6</ele>
        <time>2021-12-22T09:06:08Z</time>
      </trkpt>
      <trkpt lat="44.87228" lon="6.73114">
        <ele>1684.7</ele>
        <time>2021-12-22T09:06:09Z</time>
      </trkpt>
      <trkpt lat="44.87229" lon="6.73116">
        <ele>1684.7</ele>
        <time>2021-12-22T09:06:16Z</time>
      </trkpt>
      <trkpt lat="44.87232" lon="6.73121">
        <ele>1685.6</ele>
        <time>2021-12-22T09:06:17Z</time>
      </trkpt>
      <trkpt lat="44.87233" lon="6.73122">
        <ele>1685.7</ele>
        <time>2021-12-22T09:06:18Z</time>
      </trkpt>
      <trkpt lat="44.87234" lon="6.73124">
        <ele>1685.9</ele>
        <time>2021-12-22T09:06:20Z</time>
      </trkpt>
      <trkpt lat="44.87235" lon="6.73125">
        <ele>1686</ele>
        <time>2021-12-22T09:06:21Z</time>
      </trkpt>
      <trkpt lat="44.87235" lon="6.73126">
        <ele>1686.5</ele>
        <time>2021-12-22T09:06:22Z</time>
      </trkpt>
      <trkpt lat="44.87236" lon="6.73128">
        <ele>1686.6</ele>
        <time>2021-12-22T09:06:33Z</time>
      </trkpt>
      <trkpt lat="44.87241" lon="6.73137">
        <ele>1687.7</ele>
        <time>2021-12-22T09:06:34Z</time>
      </trkpt>
      <trkpt lat="44.87242" lon="6.73138">
        <ele>1688.2</ele>
        <time>2021-12-22T09:06:35Z</time>
      </trkpt>
      <trkpt lat="44.87243" lon="6.73139">
        <ele>1688.4</ele>
        <time>2021-12-22T09:06:38Z</time>
      </trkpt>
      <trkpt lat="44.87244" lon="6.7314">
        <ele>1688.7</ele>
        <time>2021-12-22T09:06:39Z</time>
      </trkpt>
      <trkpt lat="44.87245" lon="6.73141">
        <ele>1688.9</ele>
        <time>2021-12-22T09:06:40Z</time>
      </trkpt>
      <trkpt lat="44.87246" lon="6.73143">
        <ele>1689.2</ele>
        <time>2021-12-22T09:06:47Z</time>
      </trkpt>
      <trkpt lat="44.8725" lon="6.73148">
        <ele>1689.9</ele>
        <time>2021-12-22T09:06:48Z</time>
      </trkpt>
      <trkpt lat="44.87251" lon="6.73148">
        <ele>1689.9</ele>
        <time>2021-12-22T09:06:49Z</time>
      </trkpt>
      <trkpt lat="44.87253" lon="6.7315">
        <ele>1690.1</ele>
        <time>2021-12-22T09:06:55Z</time>
      </trkpt>
      <trkpt lat="44.87256" lon="6.73153">
        <ele>1690.8</ele>
        <time>2021-12-22T09:06:56Z</time>
      </trkpt>
      <trkpt lat="44.87257" lon="6.73154">
        <ele>1691.1</ele>
        <time>2021-12-22T09:06:57Z</time>
      </trkpt>
      <trkpt lat="44.87258" lon="6.73155">
        <ele>1691.4</ele>
        <time>2021-12-22T09:06:59Z</time>
      </trkpt>
      <trkpt lat="44.87259" lon="6.73157">
        <ele>1691.4</ele>
        <time>2021-12-22T09:07:00Z</time>
      </trkpt>
      <trkpt lat="44.8726" lon="6.73158">
        <ele>1691.5</ele>
        <time>2021-12-22T09:07:01Z</time>
      </trkpt>
      <trkpt lat="44.87261" lon="6.73159">
        <ele>1691.8</ele>
        <time>2021-12-22T09:07:06Z</time>
      </trkpt>
      <trkpt lat="44.87264" lon="6.73162">
        <ele>1692.7</ele>
        <time>2021-12-22T09:07:07Z</time>
      </trkpt>
      <trkpt lat="44.87265" lon="6.73163">
        <ele>1692.9</ele>
        <time>2021-12-22T09:07:08Z</time>
      </trkpt>
      <trkpt lat="44.87266" lon="6.73164">
        <ele>1693.1</ele>
        <time>2021-12-22T09:07:10Z</time>
      </trkpt>
      <trkpt lat="44.87267" lon="6.73165">
        <ele>1693.3</ele>
        <time>2021-12-22T09:07:11Z</time>
      </trkpt>
      <trkpt lat="44.87268" lon="6.73165">
        <ele>1693.4</ele>
        <time>2021-12-22T09:07:12Z</time>
      </trkpt>
      <trkpt lat="44.87269" lon="6.73167">
        <ele>1693.7</ele>
        <time>2021-12-22T09:07:14Z</time>
      </trkpt>
      <trkpt lat="44.8727" lon="6.73167">
        <ele>1693.7</ele>
        <time>2021-12-22T09:07:15Z</time>
      </trkpt>
      <trkpt lat="44.87271" lon="6.73168">
        <ele>1693.7</ele>
        <time>2021-12-22T09:07:16Z</time>
      </trkpt>
      <trkpt lat="44.87272" lon="6.73169">
        <ele>1693.9</ele>
        <time>2021-12-22T09:07:19Z</time>
      </trkpt>
      <trkpt lat="44.87274" lon="6.7317">
        <ele>1694.1</ele>
        <time>2021-12-22T09:07:20Z</time>
      </trkpt>
      <trkpt lat="44.87274" lon="6.73171">
        <ele>1694.3</ele>
        <time>2021-12-22T09:07:21Z</time>
      </trkpt>
      <trkpt lat="44.87275" lon="6.73172">
        <ele>1694.5</ele>
        <time>2021-12-22T09:07:33Z</time>
      </trkpt>
      <trkpt lat="44.87283" lon="6.7318">
        <ele>1696</ele>
        <time>2021-12-22T09:07:34Z</time>
      </trkpt>
      <trkpt lat="44.87283" lon="6.73181">
        <ele>1696.1</ele>
        <time>2021-12-22T09:07:35Z</time>
      </trkpt>
      <trkpt lat="44.87284" lon="6.73183">
        <ele>1696.3</ele>
        <time>2021-12-22T09:07:37Z</time>
      </trkpt>
      <trkpt lat="44.87285" lon="6.73184">
        <ele>1696.3</ele>
        <time>2021-12-22T09:07:38Z</time>
      </trkpt>
      <trkpt lat="44.87285" lon="6.73185">
        <ele>1696.1</ele>
        <time>2021-12-22T09:07:39Z</time>
      </trkpt>
      <trkpt lat="44.87286" lon="6.73186">
        <ele>1696.2</ele>
        <time>2021-12-22T09:07:51Z</time>
      </trkpt>
      <trkpt lat="44.87292" lon="6.73196">
        <ele>1697.3</ele>
        <time>2021-12-22T09:07:52Z</time>
      </trkpt>
      <trkpt lat="44.87293" lon="6.73197">
        <ele>1697.3</ele>
        <time>2021-12-22T09:07:53Z</time>
      </trkpt>
      <trkpt lat="44.87294" lon="6.73199">
        <ele>1697.3</ele>
        <time>2021-12-22T09:07:55Z</time>
      </trkpt>
      <trkpt lat="44.87295" lon="6.732">
        <ele>1697.2</ele>
        <time>2021-12-22T09:07:56Z</time>
      </trkpt>
      <trkpt lat="44.87296" lon="6.73201">
        <ele>1697</ele>
        <time>2021-12-22T09:07:57Z</time>
      </trkpt>
      <trkpt lat="44.87297" lon="6.73203">
        <ele>1697.1</ele>
        <time>2021-12-22T09:08:07Z</time>
      </trkpt>
      <trkpt lat="44.87301" lon="6.73213">
        <ele>1696.6</ele>
        <time>2021-12-22T09:08:08Z</time>
      </trkpt>
      <trkpt lat="44.87303" lon="6.73217">
        <ele>1696.7</ele>
        <time>2021-12-22T09:08:11Z</time>
      </trkpt>
      <trkpt lat="44.87304" lon="6.73218">
        <ele>1696.9</ele>
        <time>2021-12-22T09:08:12Z</time>
      </trkpt>
      <trkpt lat="44.87304" lon="6.73219">
        <ele>1697</ele>
        <time>2021-12-22T09:08:13Z</time>
      </trkpt>
      <trkpt lat="44.87304" lon="6.7322">
        <ele>1697</ele>
        <time>2021-12-22T09:08:14Z</time>
      </trkpt>
      <trkpt lat="44.87305" lon="6.73221">
        <ele>1697.2</ele>
        <time>2021-12-22T09:08:15Z</time>
      </trkpt>
      <trkpt lat="44.87306" lon="6.73222">
        <ele>1697.2</ele>
        <time>2021-12-22T09:08:16Z</time>
      </trkpt>
      <trkpt lat="44.87306" lon="6.73223">
        <ele>1697.3</ele>
        <time>2021-12-22T09:08:17Z</time>
      </trkpt>
      <trkpt lat="44.87307" lon="6.73224">
        <ele>1697.4</ele>
        <time>2021-12-22T09:08:18Z</time>
      </trkpt>
      <trkpt lat="44.87309" lon="6.7323">
        <ele>1697.4</ele>
        <time>2021-12-22T09:08:23Z</time>
      </trkpt>
      <trkpt lat="44.8731" lon="6.73231">
        <ele>1697.6</ele>
        <time>2021-12-22T09:08:24Z</time>
      </trkpt>
      <trkpt lat="44.8731" lon="6.73233">
        <ele>1698</ele>
        <time>2021-12-22T09:08:25Z</time>
      </trkpt>
      <trkpt lat="44.8731" lon="6.73234">
        <ele>1698</ele>
        <time>2021-12-22T09:08:26Z</time>
      </trkpt>
      <trkpt lat="44.87311" lon="6.73235">
        <ele>1698.3</ele>
        <time>2021-12-22T09:08:27Z</time>
      </trkpt>
      <trkpt lat="44.87311" lon="6.73236">
        <ele>1698.3</ele>
        <time>2021-12-22T09:08:28Z</time>
      </trkpt>
      <trkpt lat="44.87312" lon="6.73238">
        <ele>1698.6</ele>
        <time>2021-12-22T09:08:30Z</time>
      </trkpt>
      <trkpt lat="44.87313" lon="6.7324">
        <ele>1698.8</ele>
        <time>2021-12-22T09:08:31Z</time>
      </trkpt>
      <trkpt lat="44.87313" lon="6.73241">
        <ele>1698.9</ele>
        <time>2021-12-22T09:08:32Z</time>
      </trkpt>
      <trkpt lat="44.87314" lon="6.73242">
        <ele>1699</ele>
        <time>2021-12-22T09:08:33Z</time>
      </trkpt>
      <trkpt lat="44.87314" lon="6.73243">
        <ele>1699.2</ele>
        <time>2021-12-22T09:08:34Z</time>
      </trkpt>
      <trkpt lat="44.87315" lon="6.73244">
        <ele>1699.3</ele>
        <time>2021-12-22T09:08:35Z</time>
      </trkpt>
      <trkpt lat="44.87315" lon="6.73245">
        <ele>1699.3</ele>
        <time>2021-12-22T09:08:36Z</time>
      </trkpt>
      <trkpt lat="44.87315" lon="6.73246">
        <ele>1699.4</ele>
        <time>2021-12-22T09:08:37Z</time>
      </trkpt>
      <trkpt lat="44.87316" lon="6.73247">
        <ele>1699.6</ele>
        <time>2021-12-22T09:08:38Z</time>
      </trkpt>
      <trkpt lat="44.87316" lon="6.73248">
        <ele>1699.7</ele>
        <time>2021-12-22T09:08:39Z</time>
      </trkpt>
      <trkpt lat="44.87317" lon="6.7325">
        <ele>1699.7</ele>
        <time>2021-12-22T09:08:40Z</time>
      </trkpt>
      <trkpt lat="44.87317" lon="6.73251">
        <ele>1699.7</ele>
        <time>2021-12-22T09:08:41Z</time>
      </trkpt>
      <trkpt lat="44.87318" lon="6.73252">
        <ele>1699.7</ele>
        <time>2021-12-22T09:08:42Z</time>
      </trkpt>
      <trkpt lat="44.87318" lon="6.73254">
        <ele>1700</ele>
        <time>2021-12-22T09:08:55Z</time>
      </trkpt>
      <trkpt lat="44.87322" lon="6.73267">
        <ele>1700.5</ele>
        <time>2021-12-22T09:08:56Z</time>
      </trkpt>
      <trkpt lat="44.87322" lon="6.73268">
        <ele>1700.6</ele>
        <time>2021-12-22T09:08:57Z</time>
      </trkpt>
      <trkpt lat="44.87322" lon="6.73269">
        <ele>1700.6</ele>
        <time>2021-12-22T09:08:58Z</time>
      </trkpt>
      <trkpt lat="44.87323" lon="6.73271">
        <ele>1700.7</ele>
        <time>2021-12-22T09:09:02Z</time>
      </trkpt>
      <trkpt lat="44.87325" lon="6.73275">
        <ele>1700.6</ele>
        <time>2021-12-22T09:09:03Z</time>
      </trkpt>
      <trkpt lat="44.87327" lon="6.73281">
        <ele>1701.3</ele>
        <time>2021-12-22T09:09:08Z</time>
      </trkpt>
      <trkpt lat="44.87329" lon="6.73288">
        <ele>1701.8</ele>
        <time>2021-12-22T09:09:12Z</time>
      </trkpt>
      <trkpt lat="44.87332" lon="6.73294">
        <ele>1702.3</ele>
        <time>2021-12-22T09:09:16Z</time>
      </trkpt>
      <trkpt lat="44.87334" lon="6.73301">
        <ele>1702.7</ele>
        <time>2021-12-22T09:09:21Z</time>
      </trkpt>
      <trkpt lat="44.87335" lon="6.73302">
        <ele>1702.7</ele>
        <time>2021-12-22T09:09:22Z</time>
      </trkpt>
      <trkpt lat="44.87335" lon="6.73303">
        <ele>1702.5</ele>
        <time>2021-12-22T09:09:23Z</time>
      </trkpt>
      <trkpt lat="44.87335" lon="6.73305">
        <ele>1702.8</ele>
        <time>2021-12-22T09:09:24Z</time>
      </trkpt>
      <trkpt lat="44.87336" lon="6.73306">
        <ele>1703</ele>
        <time>2021-12-22T09:09:25Z</time>
      </trkpt>
      <trkpt lat="44.87336" lon="6.73307">
        <ele>1703.2</ele>
        <time>2021-12-22T09:09:26Z</time>
      </trkpt>
      <trkpt lat="44.87337" lon="6.73309">
        <ele>1703.4</ele>
        <time>2021-12-22T09:09:27Z</time>
      </trkpt>
      <trkpt lat="44.87337" lon="6.73311">
        <ele>1703.7</ele>
        <time>2021-12-22T09:09:40Z</time>
      </trkpt>
      <trkpt lat="44.87343" lon="6.73321">
        <ele>1705.3</ele>
        <time>2021-12-22T09:09:41Z</time>
      </trkpt>
      <trkpt lat="44.87344" lon="6.73321">
        <ele>1705.4</ele>
        <time>2021-12-22T09:09:42Z</time>
      </trkpt>
      <trkpt lat="44.87345" lon="6.73323">
        <ele>1705.7</ele>
        <time>2021-12-22T09:09:55Z</time>
      </trkpt>
      <trkpt lat="44.87348" lon="6.73335">
        <ele>1707.2</ele>
        <time>2021-12-22T09:09:56Z</time>
      </trkpt>
      <trkpt lat="44.87349" lon="6.73336">
        <ele>1707.4</ele>
        <time>2021-12-22T09:09:57Z</time>
      </trkpt>
      <trkpt lat="44.87349" lon="6.73338">
        <ele>1707.6</ele>
        <time>2021-12-22T09:10:09Z</time>
      </trkpt>
      <trkpt lat="44.87351" lon="6.7335">
        <ele>1708.6</ele>
        <time>2021-12-22T09:10:10Z</time>
      </trkpt>
      <trkpt lat="44.87351" lon="6.73352">
        <ele>1708.7</ele>
        <time>2021-12-22T09:10:11Z</time>
      </trkpt>
      <trkpt lat="44.87351" lon="6.73354">
        <ele>1709</ele>
        <time>2021-12-22T09:10:24Z</time>
      </trkpt>
      <trkpt lat="44.87344" lon="6.73363">
        <ele>1710.6</ele>
        <time>2021-12-22T09:10:25Z</time>
      </trkpt>
      <trkpt lat="44.87344" lon="6.73363">
        <ele>1710.7</ele>
        <time>2021-12-22T09:10:26Z</time>
      </trkpt>
      <trkpt lat="44.87343" lon="6.73365">
        <ele>1710.8</ele>
        <time>2021-12-22T09:10:38Z</time>
      </trkpt>
      <trkpt lat="44.87335" lon="6.73371">
        <ele>1712.4</ele>
        <time>2021-12-22T09:10:39Z</time>
      </trkpt>
      <trkpt lat="44.87334" lon="6.73373">
        <ele>1712.6</ele>
        <time>2021-12-22T09:10:40Z</time>
      </trkpt>
      <trkpt lat="44.87333" lon="6.73374">
        <ele>1712.9</ele>
        <time>2021-12-22T09:10:54Z</time>
      </trkpt>
      <trkpt lat="44.87328" lon="6.73386">
        <ele>1715.5</ele>
        <time>2021-12-22T09:10:55Z</time>
      </trkpt>
      <trkpt lat="44.87328" lon="6.73387">
        <ele>1715.7</ele>
        <time>2021-12-22T09:10:56Z</time>
      </trkpt>
      <trkpt lat="44.87328" lon="6.73389">
        <ele>1716.1</ele>
        <time>2021-12-22T09:11:10Z</time>
      </trkpt>
      <trkpt lat="44.87333" lon="6.73401">
        <ele>1718.4</ele>
        <time>2021-12-22T09:11:11Z</time>
      </trkpt>
      <trkpt lat="44.87333" lon="6.73401">
        <ele>1718.5</ele>
        <time>2021-12-22T09:11:12Z</time>
      </trkpt>
      <trkpt lat="44.87334" lon="6.73403">
        <ele>1718.9</ele>
        <time>2021-12-22T09:11:16Z</time>
      </trkpt>
      <trkpt lat="44.87336" lon="6.73405">
        <ele>1719.5</ele>
        <time>2021-12-22T09:11:17Z</time>
      </trkpt>
      <trkpt lat="44.87337" lon="6.73405">
        <ele>1720</ele>
        <time>2021-12-22T09:11:18Z</time>
      </trkpt>
      <trkpt lat="44.87339" lon="6.73406">
        <ele>1720.3</ele>
        <time>2021-12-22T09:11:33Z</time>
      </trkpt>
      <trkpt lat="44.87346" lon="6.73413">
        <ele>1722</ele>
        <time>2021-12-22T09:11:34Z</time>
      </trkpt>
      <trkpt lat="44.87347" lon="6.73413">
        <ele>1722.1</ele>
        <time>2021-12-22T09:11:35Z</time>
      </trkpt>
      <trkpt lat="44.87347" lon="6.73413">
        <ele>1722.1</ele>
        <time>2021-12-22T09:11:56Z</time>
      </trkpt>
      <trkpt lat="44.87354" lon="6.73403">
        <ele>1724.4</ele>
        <time>2021-12-22T09:11:57Z</time>
      </trkpt>
      <trkpt lat="44.87354" lon="6.73402">
        <ele>1724.4</ele>
        <time>2021-12-22T09:11:58Z</time>
      </trkpt>
      <trkpt lat="44.87355" lon="6.73401">
        <ele>1724.6</ele>
        <time>2021-12-22T09:14:49Z</time>
      </trkpt>
      <trkpt lat="44.8736" lon="6.73404">
        <ele>1726.2</ele>
        <time>2021-12-22T09:14:50Z</time>
      </trkpt>
      <trkpt lat="44.8736" lon="6.73406">
        <ele>1726.3</ele>
        <time>2021-12-22T09:14:51Z</time>
      </trkpt>
      <trkpt lat="44.87358" lon="6.73409">
        <ele>1726.6</ele>
        <time>2021-12-22T09:15:07Z</time>
      </trkpt>
      <trkpt lat="44.87352" lon="6.73419">
        <ele>1728.8</ele>
        <time>2021-12-22T09:15:08Z</time>
      </trkpt>
      <trkpt lat="44.87353" lon="6.73419">
        <ele>1728.9</ele>
        <time>2021-12-22T09:15:09Z</time>
      </trkpt>
      <trkpt lat="44.87353" lon="6.7342">
        <ele>1729.1</ele>
        <time>2021-12-22T09:15:20Z</time>
      </trkpt>
      <trkpt lat="44.87357" lon="6.73426">
        <ele>1729.4</ele>
        <time>2021-12-22T09:15:21Z</time>
      </trkpt>
      <trkpt lat="44.87358" lon="6.73427">
        <ele>1729.2</ele>
        <time>2021-12-22T09:15:22Z</time>
      </trkpt>
      <trkpt lat="44.87358" lon="6.73428">
        <ele>1729.1</ele>
        <time>2021-12-22T09:15:23Z</time>
      </trkpt>
      <trkpt lat="44.87359" lon="6.73429">
        <ele>1728.7</ele>
        <time>2021-12-22T09:15:24Z</time>
      </trkpt>
      <trkpt lat="44.8736" lon="6.73429">
        <ele>1728.2</ele>
        <time>2021-12-22T09:15:25Z</time>
      </trkpt>
      <trkpt lat="44.87361" lon="6.73431">
        <ele>1728.2</ele>
        <time>2021-12-22T09:15:40Z</time>
      </trkpt>
      <trkpt lat="44.87366" lon="6.73441">
        <ele>1728.5</ele>
        <time>2021-12-22T09:15:41Z</time>
      </trkpt>
      <trkpt lat="44.87366" lon="6.73442">
        <ele>1728.5</ele>
        <time>2021-12-22T09:15:42Z</time>
      </trkpt>
      <trkpt lat="44.87367" lon="6.73443">
        <ele>1728.6</ele>
        <time>2021-12-22T09:16:03Z</time>
      </trkpt>
      <trkpt lat="44.87369" lon="6.73456">
        <ele>1726.9</ele>
        <time>2021-12-22T09:16:04Z</time>
      </trkpt>
      <trkpt lat="44.87369" lon="6.73457">
        <ele>1727.2</ele>
        <time>2021-12-22T09:16:05Z</time>
      </trkpt>
      <trkpt lat="44.87369" lon="6.73459">
        <ele>1727.2</ele>
        <time>2021-12-22T09:16:06Z</time>
      </trkpt>
      <trkpt lat="44.87372" lon="6.73465">
        <ele>1727.8</ele>
        <time>2021-12-22T09:16:12Z</time>
      </trkpt>
      <trkpt lat="44.87372" lon="6.73466">
        <ele>1727.5</ele>
        <time>2021-12-22T09:16:13Z</time>
      </trkpt>
      <trkpt lat="44.87372" lon="6.73467">
        <ele>1728.1</ele>
        <time>2021-12-22T09:16:27Z</time>
      </trkpt>
      <trkpt lat="44.87369" lon="6.73479">
        <ele>1729.5</ele>
        <time>2021-12-22T09:16:28Z</time>
      </trkpt>
      <trkpt lat="44.87368" lon="6.73486">
        <ele>1727.9</ele>
        <time>2021-12-22T09:16:32Z</time>
      </trkpt>
      <trkpt lat="44.87368" lon="6.73493">
        <ele>1726.7</ele>
        <time>2021-12-22T09:16:36Z</time>
      </trkpt>
      <trkpt lat="44.87368" lon="6.73499">
        <ele>1725.9</ele>
        <time>2021-12-22T09:16:40Z</time>
      </trkpt>
      <trkpt lat="44.87368" lon="6.73504">
        <ele>1725.4</ele>
        <time>2021-12-22T09:16:44Z</time>
      </trkpt>
      <trkpt lat="44.87368" lon="6.73506">
        <ele>1725.2</ele>
        <time>2021-12-22T09:16:45Z</time>
      </trkpt>
      <trkpt lat="44.87368" lon="6.73508">
        <ele>1725.4</ele>
        <time>2021-12-22T09:16:52Z</time>
      </trkpt>
      <trkpt lat="44.87368" lon="6.73515">
        <ele>1725.2</ele>
        <time>2021-12-22T09:16:53Z</time>
      </trkpt>
      <trkpt lat="44.87368" lon="6.73516">
        <ele>1725</ele>
        <time>2021-12-22T09:16:54Z</time>
      </trkpt>
      <trkpt lat="44.87369" lon="6.73518">
        <ele>1725.2</ele>
        <time>2021-12-22T09:17:09Z</time>
      </trkpt>
      <trkpt lat="44.8737" lon="6.73531">
        <ele>1725.8</ele>
        <time>2021-12-22T09:17:10Z</time>
      </trkpt>
      <trkpt lat="44.8737" lon="6.73532">
        <ele>1725.9</ele>
        <time>2021-12-22T09:17:11Z</time>
      </trkpt>
      <trkpt lat="44.8737" lon="6.73533">
        <ele>1726.1</ele>
        <time>2021-12-22T09:17:12Z</time>
      </trkpt>
      <trkpt lat="44.87371" lon="6.73535">
        <ele>1726</ele>
        <time>2021-12-22T09:17:13Z</time>
      </trkpt>
      <trkpt lat="44.87371" lon="6.73536">
        <ele>1726</ele>
        <time>2021-12-22T09:17:14Z</time>
      </trkpt>
      <trkpt lat="44.87371" lon="6.73538">
        <ele>1726</ele>
        <time>2021-12-22T09:17:15Z</time>
      </trkpt>
      <trkpt lat="44.87371" lon="6.73539">
        <ele>1726.3</ele>
        <time>2021-12-22T09:17:16Z</time>
      </trkpt>
      <trkpt lat="44.87371" lon="6.7354">
        <ele>1726.3</ele>
        <time>2021-12-22T09:17:17Z</time>
      </trkpt>
      <trkpt lat="44.87371" lon="6.73543">
        <ele>1726.7</ele>
        <time>2021-12-22T09:17:19Z</time>
      </trkpt>
      <trkpt lat="44.87371" lon="6.73544">
        <ele>1726.8</ele>
        <time>2021-12-22T09:17:20Z</time>
      </trkpt>
      <trkpt lat="44.87372" lon="6.73546">
        <ele>1727.3</ele>
        <time>2021-12-22T09:17:24Z</time>
      </trkpt>
      <trkpt lat="44.87373" lon="6.73549">
        <ele>1727.8</ele>
        <time>2021-12-22T09:17:25Z</time>
      </trkpt>
      <trkpt lat="44.87373" lon="6.7355">
        <ele>1728</ele>
        <time>2021-12-22T09:17:26Z</time>
      </trkpt>
      <trkpt lat="44.87374" lon="6.73551">
        <ele>1728.6</ele>
        <time>2021-12-22T09:17:42Z</time>
      </trkpt>
      <trkpt lat="44.87375" lon="6.73564">
        <ele>1731.8</ele>
        <time>2021-12-22T09:17:43Z</time>
      </trkpt>
      <trkpt lat="44.87376" lon="6.73564">
        <ele>1732</ele>
        <time>2021-12-22T09:17:44Z</time>
      </trkpt>
      <trkpt lat="44.87376" lon="6.73566">
        <ele>1732.4</ele>
        <time>2021-12-22T09:17:59Z</time>
      </trkpt>
      <trkpt lat="44.87376" lon="6.73579">
        <ele>1734.8</ele>
        <time>2021-12-22T09:18:00Z</time>
      </trkpt>
      <trkpt lat="44.87376" lon="6.7358">
        <ele>1734.9</ele>
        <time>2021-12-22T09:18:01Z</time>
      </trkpt>
      <trkpt lat="44.87375" lon="6.73582">
        <ele>1735.3</ele>
        <time>2021-12-22T09:18:17Z</time>
      </trkpt>
      <trkpt lat="44.87365" lon="6.7358">
        <ele>1737.7</ele>
        <time>2021-12-22T09:18:18Z</time>
      </trkpt>
      <trkpt lat="44.87365" lon="6.73579">
        <ele>1737.9</ele>
        <time>2021-12-22T09:18:19Z</time>
      </trkpt>
      <trkpt lat="44.87364" lon="6.73578">
        <ele>1738.4</ele>
        <time>2021-12-22T09:18:26Z</time>
      </trkpt>
      <trkpt lat="44.8736" lon="6.73571">
        <ele>1739.3</ele>
        <time>2021-12-22T09:18:27Z</time>
      </trkpt>
      <trkpt lat="44.87357" lon="6.73565">
        <ele>1739.6</ele>
        <time>2021-12-22T09:18:32Z</time>
      </trkpt>
      <trkpt lat="44.87354" lon="6.73559">
        <ele>1738.8</ele>
        <time>2021-12-22T09:18:37Z</time>
      </trkpt>
      <trkpt lat="44.87354" lon="6.73558">
        <ele>1738.9</ele>
        <time>2021-12-22T09:18:38Z</time>
      </trkpt>
      <trkpt lat="44.87353" lon="6.73556">
        <ele>1738.8</ele>
        <time>2021-12-22T09:18:51Z</time>
      </trkpt>
      <trkpt lat="44.87348" lon="6.73545">
        <ele>1740.3</ele>
        <time>2021-12-22T09:18:52Z</time>
      </trkpt>
      <trkpt lat="44.87347" lon="6.73543">
        <ele>1740.3</ele>
        <time>2021-12-22T09:18:53Z</time>
      </trkpt>
      <trkpt lat="44.87347" lon="6.73542">
        <ele>1740.5</ele>
        <time>2021-12-22T09:18:54Z</time>
      </trkpt>
      <trkpt lat="44.87346" lon="6.73541">
        <ele>1740.4</ele>
        <time>2021-12-22T09:18:55Z</time>
      </trkpt>
      <trkpt lat="44.87346" lon="6.7354">
        <ele>1740.4</ele>
        <time>2021-12-22T09:18:56Z</time>
      </trkpt>
      <trkpt lat="44.87345" lon="6.73539">
        <ele>1740.4</ele>
        <time>2021-12-22T09:18:57Z</time>
      </trkpt>
      <trkpt lat="44.87344" lon="6.73537">
        <ele>1740.8</ele>
        <time>2021-12-22T09:18:59Z</time>
      </trkpt>
      <trkpt lat="44.87343" lon="6.73537">
        <ele>1740.8</ele>
        <time>2021-12-22T09:19:00Z</time>
      </trkpt>
      <trkpt lat="44.87343" lon="6.73536">
        <ele>1741</ele>
        <time>2021-12-22T09:19:01Z</time>
      </trkpt>
      <trkpt lat="44.87342" lon="6.73534">
        <ele>1741.4</ele>
        <time>2021-12-22T09:19:14Z</time>
      </trkpt>
      <trkpt lat="44.87337" lon="6.73523">
        <ele>1743.5</ele>
        <time>2021-12-22T09:19:15Z</time>
      </trkpt>
      <trkpt lat="44.87336" lon="6.73523">
        <ele>1743.7</ele>
        <time>2021-12-22T09:19:16Z</time>
      </trkpt>
      <trkpt lat="44.87336" lon="6.73522">
        <ele>1743.9</ele>
        <time>2021-12-22T09:19:17Z</time>
      </trkpt>
      <trkpt lat="44.87335" lon="6.73521">
        <ele>1744</ele>
        <time>2021-12-22T09:19:18Z</time>
      </trkpt>
      <trkpt lat="44.87335" lon="6.7352">
        <ele>1744.1</ele>
        <time>2021-12-22T09:19:19Z</time>
      </trkpt>
      <trkpt lat="44.87334" lon="6.73518">
        <ele>1744.4</ele>
        <time>2021-12-22T09:19:21Z</time>
      </trkpt>
      <trkpt lat="44.87333" lon="6.73517">
        <ele>1744.4</ele>
        <time>2021-12-22T09:19:22Z</time>
      </trkpt>
      <trkpt lat="44.87333" lon="6.73516">
        <ele>1744.4</ele>
        <time>2021-12-22T09:19:23Z</time>
      </trkpt>
      <trkpt lat="44.87333" lon="6.73515">
        <ele>1744.8</ele>
        <time>2021-12-22T09:19:36Z</time>
      </trkpt>
      <trkpt lat="44.87324" lon="6.7351">
        <ele>1746.5</ele>
        <time>2021-12-22T09:19:37Z</time>
      </trkpt>
      <trkpt lat="44.87323" lon="6.7351">
        <ele>1746.7</ele>
        <time>2021-12-22T09:19:38Z</time>
      </trkpt>
      <trkpt lat="44.87322" lon="6.73511">
        <ele>1746.9</ele>
        <time>2021-12-22T09:19:52Z</time>
      </trkpt>
      <trkpt lat="44.87316" lon="6.73521">
        <ele>1748.1</ele>
        <time>2021-12-22T09:19:53Z</time>
      </trkpt>
      <trkpt lat="44.87316" lon="6.73522">
        <ele>1748.2</ele>
        <time>2021-12-22T09:19:54Z</time>
      </trkpt>
      <trkpt lat="44.87315" lon="6.73524">
        <ele>1748.4</ele>
        <time>2021-12-22T09:20:08Z</time>
      </trkpt>
      <trkpt lat="44.87315" lon="6.73537">
        <ele>1749.4</ele>
        <time>2021-12-22T09:20:09Z</time>
      </trkpt>
      <trkpt lat="44.87314" lon="6.73539">
        <ele>1749.5</ele>
        <time>2021-12-22T09:20:10Z</time>
      </trkpt>
      <trkpt lat="44.87315" lon="6.73541">
        <ele>1749.6</ele>
        <time>2021-12-22T09:20:22Z</time>
      </trkpt>
      <trkpt lat="44.87317" lon="6.73554">
        <ele>1749.9</ele>
        <time>2021-12-22T09:20:23Z</time>
      </trkpt>
      <trkpt lat="44.87317" lon="6.73555">
        <ele>1750</ele>
        <time>2021-12-22T09:20:24Z</time>
      </trkpt>
      <trkpt lat="44.87317" lon="6.73558">
        <ele>1750.1</ele>
        <time>2021-12-22T09:20:36Z</time>
      </trkpt>
      <trkpt lat="44.8732" lon="6.7357">
        <ele>1751.1</ele>
        <time>2021-12-22T09:20:37Z</time>
      </trkpt>
      <trkpt lat="44.8732" lon="6.73571">
        <ele>1751.2</ele>
        <time>2021-12-22T09:20:38Z</time>
      </trkpt>
      <trkpt lat="44.87321" lon="6.73573">
        <ele>1751.4</ele>
        <time>2021-12-22T09:20:42Z</time>
      </trkpt>
      <trkpt lat="44.87322" lon="6.73577">
        <ele>1751.3</ele>
        <time>2021-12-22T09:20:43Z</time>
      </trkpt>
      <trkpt lat="44.87322" lon="6.73578">
        <ele>1751.3</ele>
        <time>2021-12-22T09:20:44Z</time>
      </trkpt>
      <trkpt lat="44.87323" lon="6.7358">
        <ele>1751.5</ele>
        <time>2021-12-22T09:20:57Z</time>
      </trkpt>
      <trkpt lat="44.87326" lon="6.73591">
        <ele>1753.1</ele>
        <time>2021-12-22T09:20:58Z</time>
      </trkpt>
      <trkpt lat="44.87327" lon="6.73592">
        <ele>1753.2</ele>
        <time>2021-12-22T09:20:59Z</time>
      </trkpt>
      <trkpt lat="44.87328" lon="6.73595">
        <ele>1753.4</ele>
        <time>2021-12-22T09:21:03Z</time>
      </trkpt>
      <trkpt lat="44.87328" lon="6.73599">
        <ele>1753.7</ele>
        <time>2021-12-22T09:21:04Z</time>
      </trkpt>
      <trkpt lat="44.87329" lon="6.736">
        <ele>1753.9</ele>
        <time>2021-12-22T09:21:05Z</time>
      </trkpt>
      <trkpt lat="44.8733" lon="6.73602">
        <ele>1754.1</ele>
        <time>2021-12-22T09:21:18Z</time>
      </trkpt>
      <trkpt lat="44.87334" lon="6.73613">
        <ele>1755.2</ele>
        <time>2021-12-22T09:21:19Z</time>
      </trkpt>
      <trkpt lat="44.87334" lon="6.73614">
        <ele>1755.2</ele>
        <time>2021-12-22T09:21:20Z</time>
      </trkpt>
      <trkpt lat="44.87335" lon="6.73616">
        <ele>1755.4</ele>
        <time>2021-12-22T09:21:23Z</time>
      </trkpt>
      <trkpt lat="44.87336" lon="6.73618">
        <ele>1755.3</ele>
        <time>2021-12-22T09:21:24Z</time>
      </trkpt>
      <trkpt lat="44.87336" lon="6.7362">
        <ele>1755.5</ele>
        <time>2021-12-22T09:21:25Z</time>
      </trkpt>
      <trkpt lat="44.87337" lon="6.73622">
        <ele>1755.7</ele>
        <time>2021-12-22T09:21:37Z</time>
      </trkpt>
      <trkpt lat="44.87342" lon="6.73632">
        <ele>1756.8</ele>
        <time>2021-12-22T09:21:38Z</time>
      </trkpt>
      <trkpt lat="44.87342" lon="6.73633">
        <ele>1756.9</ele>
        <time>2021-12-22T09:21:39Z</time>
      </trkpt>
      <trkpt lat="44.87343" lon="6.73635">
        <ele>1756.7</ele>
        <time>2021-12-22T09:21:43Z</time>
      </trkpt>
      <trkpt lat="44.87344" lon="6.7364">
        <ele>1757</ele>
        <time>2021-12-22T09:21:44Z</time>
      </trkpt>
      <trkpt lat="44.87345" lon="6.73641">
        <ele>1757.2</ele>
        <time>2021-12-22T09:21:45Z</time>
      </trkpt>
      <trkpt lat="44.87345" lon="6.73643">
        <ele>1757.3</ele>
        <time>2021-12-22T09:21:57Z</time>
      </trkpt>
      <trkpt lat="44.8735" lon="6.73654">
        <ele>1758.5</ele>
        <time>2021-12-22T09:21:58Z</time>
      </trkpt>
      <trkpt lat="44.87351" lon="6.73655">
        <ele>1758.6</ele>
        <time>2021-12-22T09:21:59Z</time>
      </trkpt>
      <trkpt lat="44.87352" lon="6.73657">
        <ele>1758.7</ele>
        <time>2021-12-22T09:22:13Z</time>
      </trkpt>
      <trkpt lat="44.87356" lon="6.73668">
        <ele>1760</ele>
        <time>2021-12-22T09:22:14Z</time>
      </trkpt>
      <trkpt lat="44.87356" lon="6.73669">
        <ele>1760.1</ele>
        <time>2021-12-22T09:22:15Z</time>
      </trkpt>
      <trkpt lat="44.87357" lon="6.7367">
        <ele>1760.3</ele>
        <time>2021-12-22T09:22:28Z</time>
      </trkpt>
      <trkpt lat="44.87358" lon="6.73684">
        <ele>1760.5</ele>
        <time>2021-12-22T09:22:29Z</time>
      </trkpt>
      <trkpt lat="44.87358" lon="6.73685">
        <ele>1760.6</ele>
        <time>2021-12-22T09:22:30Z</time>
      </trkpt>
      <trkpt lat="44.87359" lon="6.73687">
        <ele>1760.5</ele>
        <time>2021-12-22T09:22:42Z</time>
      </trkpt>
      <trkpt lat="44.8736" lon="6.737">
        <ele>1760.9</ele>
        <time>2021-12-22T09:22:43Z</time>
      </trkpt>
      <trkpt lat="44.8736" lon="6.73701">
        <ele>1761</ele>
        <time>2021-12-22T09:22:44Z</time>
      </trkpt>
      <trkpt lat="44.8736" lon="6.73703">
        <ele>1761.1</ele>
        <time>2021-12-22T09:22:55Z</time>
      </trkpt>
      <trkpt lat="44.8736" lon="6.73716">
        <ele>1762.1</ele>
        <time>2021-12-22T09:22:56Z</time>
      </trkpt>
      <trkpt lat="44.8736" lon="6.73717">
        <ele>1762.2</ele>
        <time>2021-12-22T09:22:57Z</time>
      </trkpt>
      <trkpt lat="44.8736" lon="6.73719">
        <ele>1762.3</ele>
        <time>2021-12-22T09:22:58Z</time>
      </trkpt>
      <trkpt lat="44.8736" lon="6.7372">
        <ele>1762.4</ele>
        <time>2021-12-22T09:22:59Z</time>
      </trkpt>
      <trkpt lat="44.8736" lon="6.73721">
        <ele>1762.8</ele>
        <time>2021-12-22T09:23:00Z</time>
      </trkpt>
      <trkpt lat="44.8736" lon="6.73724">
        <ele>1762.9</ele>
        <time>2021-12-22T09:24:43Z</time>
      </trkpt>
      <trkpt lat="44.87361" lon="6.73737">
        <ele>1764.7</ele>
        <time>2021-12-22T09:24:44Z</time>
      </trkpt>
      <trkpt lat="44.87361" lon="6.73738">
        <ele>1764.7</ele>
        <time>2021-12-22T09:24:45Z</time>
      </trkpt>
      <trkpt lat="44.87361" lon="6.7374">
        <ele>1764.8</ele>
        <time>2021-12-22T09:24:46Z</time>
      </trkpt>
      <trkpt lat="44.87361" lon="6.73741">
        <ele>1764.7</ele>
        <time>2021-12-22T09:24:47Z</time>
      </trkpt>
      <trkpt lat="44.87361" lon="6.73746">
        <ele>1764.8</ele>
        <time>2021-12-22T09:24:50Z</time>
      </trkpt>
      <trkpt lat="44.87361" lon="6.73748">
        <ele>1765</ele>
        <time>2021-12-22T09:24:51Z</time>
      </trkpt>
      <trkpt lat="44.87361" lon="6.7375">
        <ele>1765</ele>
        <time>2021-12-22T09:24:58Z</time>
      </trkpt>
      <trkpt lat="44.87363" lon="6.73759">
        <ele>1765.6</ele>
        <time>2021-12-22T09:24:59Z</time>
      </trkpt>
      <trkpt lat="44.87365" lon="6.73765">
        <ele>1766.5</ele>
        <time>2021-12-22T09:25:03Z</time>
      </trkpt>
      <trkpt lat="44.87366" lon="6.73772">
        <ele>1766.5</ele>
        <time>2021-12-22T09:25:07Z</time>
      </trkpt>
      <trkpt lat="44.87367" lon="6.73774">
        <ele>1766.9</ele>
        <time>2021-12-22T09:25:08Z</time>
      </trkpt>
      <trkpt lat="44.87367" lon="6.73776">
        <ele>1767.1</ele>
        <time>2021-12-22T09:25:09Z</time>
      </trkpt>
      <trkpt lat="44.87367" lon="6.73777">
        <ele>1767.2</ele>
        <time>2021-12-22T09:25:10Z</time>
      </trkpt>
      <trkpt lat="44.87368" lon="6.73779">
        <ele>1767</ele>
        <time>2021-12-22T09:25:11Z</time>
      </trkpt>
      <trkpt lat="44.87368" lon="6.7378">
        <ele>1767.2</ele>
        <time>2021-12-22T09:25:12Z</time>
      </trkpt>
      <trkpt lat="44.87368" lon="6.73781">
        <ele>1766.9</ele>
        <time>2021-12-22T09:25:13Z</time>
      </trkpt>
      <trkpt lat="44.87369" lon="6.73784">
        <ele>1766.7</ele>
        <time>2021-12-22T09:25:17Z</time>
      </trkpt>
      <trkpt lat="44.8737" lon="6.73787">
        <ele>1766.5</ele>
        <time>2021-12-22T09:25:18Z</time>
      </trkpt>
      <trkpt lat="44.87371" lon="6.73794">
        <ele>1766.3</ele>
        <time>2021-12-22T09:25:23Z</time>
      </trkpt>
      <trkpt lat="44.87372" lon="6.73801">
        <ele>1766</ele>
        <time>2021-12-22T09:25:28Z</time>
      </trkpt>
      <trkpt lat="44.87372" lon="6.73807">
        <ele>1765.8</ele>
        <time>2021-12-22T09:25:32Z</time>
      </trkpt>
      <trkpt lat="44.87372" lon="6.73814">
        <ele>1767</ele>
        <time>2021-12-22T09:25:36Z</time>
      </trkpt>
      <trkpt lat="44.87371" lon="6.73821">
        <ele>1767.3</ele>
        <time>2021-12-22T09:25:40Z</time>
      </trkpt>
      <trkpt lat="44.87371" lon="6.73822">
        <ele>1767.2</ele>
        <time>2021-12-22T09:25:41Z</time>
      </trkpt>
      <trkpt lat="44.87371" lon="6.73823">
        <ele>1767.2</ele>
        <time>2021-12-22T09:25:42Z</time>
      </trkpt>
      <trkpt lat="44.87371" lon="6.73826">
        <ele>1767.1</ele>
        <time>2021-12-22T09:25:44Z</time>
      </trkpt>
      <trkpt lat="44.87371" lon="6.73828">
        <ele>1767.2</ele>
        <time>2021-12-22T09:25:45Z</time>
      </trkpt>
      <trkpt lat="44.87371" lon="6.73829">
        <ele>1767.2</ele>
        <time>2021-12-22T09:25:46Z</time>
      </trkpt>
      <trkpt lat="44.87371" lon="6.73831">
        <ele>1767.2</ele>
        <time>2021-12-22T09:25:47Z</time>
      </trkpt>
      <trkpt lat="44.87371" lon="6.73832">
        <ele>1767.3</ele>
        <time>2021-12-22T09:25:48Z</time>
      </trkpt>
      <trkpt lat="44.87371" lon="6.73835">
        <ele>1767.3</ele>
        <time>2021-12-22T09:25:50Z</time>
      </trkpt>
      <trkpt lat="44.87371" lon="6.73836">
        <ele>1767.4</ele>
        <time>2021-12-22T09:25:51Z</time>
      </trkpt>
      <trkpt lat="44.8737" lon="6.73837">
        <ele>1767.4</ele>
        <time>2021-12-22T09:25:52Z</time>
      </trkpt>
      <trkpt lat="44.8737" lon="6.73839">
        <ele>1767.3</ele>
        <time>2021-12-22T09:25:53Z</time>
      </trkpt>
      <trkpt lat="44.8737" lon="6.73842">
        <ele>1767.4</ele>
        <time>2021-12-22T09:25:55Z</time>
      </trkpt>
      <trkpt lat="44.8737" lon="6.73843">
        <ele>1767.4</ele>
        <time>2021-12-22T09:25:56Z</time>
      </trkpt>
      <trkpt lat="44.8737" lon="6.73844">
        <ele>1767.4</ele>
        <time>2021-12-22T09:25:57Z</time>
      </trkpt>
      <trkpt lat="44.8737" lon="6.73846">
        <ele>1767.4</ele>
        <time>2021-12-22T09:25:58Z</time>
      </trkpt>
      <trkpt lat="44.87369" lon="6.73848">
        <ele>1767.4</ele>
        <time>2021-12-22T09:25:59Z</time>
      </trkpt>
      <trkpt lat="44.87369" lon="6.73851">
        <ele>1767.4</ele>
        <time>2021-12-22T09:26:11Z</time>
      </trkpt>
      <trkpt lat="44.87369" lon="6.73864">
        <ele>1768.1</ele>
        <time>2021-12-22T09:26:12Z</time>
      </trkpt>
      <trkpt lat="44.87369" lon="6.73865">
        <ele>1768.1</ele>
        <time>2021-12-22T09:26:13Z</time>
      </trkpt>
      <trkpt lat="44.87369" lon="6.73867">
        <ele>1768.2</ele>
        <time>2021-12-22T09:26:26Z</time>
      </trkpt>
      <trkpt lat="44.87369" lon="6.73881">
        <ele>1767.6</ele>
        <time>2021-12-22T09:26:27Z</time>
      </trkpt>
      <trkpt lat="44.87369" lon="6.73882">
        <ele>1767.7</ele>
        <time>2021-12-22T09:26:28Z</time>
      </trkpt>
      <trkpt lat="44.87369" lon="6.73883">
        <ele>1767.8</ele>
        <time>2021-12-22T09:26:29Z</time>
      </trkpt>
      <trkpt lat="44.87369" lon="6.73885">
        <ele>1767.9</ele>
        <time>2021-12-22T09:26:42Z</time>
      </trkpt>
      <trkpt lat="44.87369" lon="6.73899">
        <ele>1768.3</ele>
        <time>2021-12-22T09:26:43Z</time>
      </trkpt>
      <trkpt lat="44.87369" lon="6.73901">
        <ele>1768.2</ele>
        <time>2021-12-22T09:26:44Z</time>
      </trkpt>
      <trkpt lat="44.8737" lon="6.73903">
        <ele>1768.1</ele>
        <time>2021-12-22T09:26:57Z</time>
      </trkpt>
      <trkpt lat="44.8737" lon="6.73916">
        <ele>1768.3</ele>
        <time>2021-12-22T09:26:58Z</time>
      </trkpt>
      <trkpt lat="44.87371" lon="6.73916">
        <ele>1768.4</ele>
        <time>2021-12-22T09:26:59Z</time>
      </trkpt>
      <trkpt lat="44.87371" lon="6.73919">
        <ele>1768.6</ele>
        <time>2021-12-22T09:27:01Z</time>
      </trkpt>
      <trkpt lat="44.87372" lon="6.73921">
        <ele>1768.8</ele>
        <time>2021-12-22T09:27:02Z</time>
      </trkpt>
      <trkpt lat="44.87372" lon="6.73922">
        <ele>1769.2</ele>
        <time>2021-12-22T09:27:03Z</time>
      </trkpt>
      <trkpt lat="44.87372" lon="6.73923">
        <ele>1769.3</ele>
        <time>2021-12-22T09:27:04Z</time>
      </trkpt>
      <trkpt lat="44.87373" lon="6.73924">
        <ele>1769.6</ele>
        <time>2021-12-22T09:27:05Z</time>
      </trkpt>
      <trkpt lat="44.87374" lon="6.73925">
        <ele>1769.9</ele>
        <time>2021-12-22T09:27:06Z</time>
      </trkpt>
      <trkpt lat="44.87374" lon="6.73926">
        <ele>1770</ele>
        <time>2021-12-22T09:27:07Z</time>
      </trkpt>
      <trkpt lat="44.87374" lon="6.73927">
        <ele>1770.4</ele>
        <time>2021-12-22T09:27:08Z</time>
      </trkpt>
      <trkpt lat="44.87375" lon="6.73928">
        <ele>1770.8</ele>
        <time>2021-12-22T09:27:09Z</time>
      </trkpt>
      <trkpt lat="44.87376" lon="6.7393">
        <ele>1771.1</ele>
        <time>2021-12-22T09:27:11Z</time>
      </trkpt>
      <trkpt lat="44.87375" lon="6.73932">
        <ele>1771.2</ele>
        <time>2021-12-22T09:27:12Z</time>
      </trkpt>
      <trkpt lat="44.87376" lon="6.73933">
        <ele>1771.4</ele>
        <time>2021-12-22T09:27:13Z</time>
      </trkpt>
      <trkpt lat="44.87377" lon="6.73935">
        <ele>1771.5</ele>
        <time>2021-12-22T09:27:15Z</time>
      </trkpt>
      <trkpt lat="44.87377" lon="6.73937">
        <ele>1771.8</ele>
        <time>2021-12-22T09:27:16Z</time>
      </trkpt>
      <trkpt lat="44.87377" lon="6.73938">
        <ele>1771.9</ele>
        <time>2021-12-22T09:27:17Z</time>
      </trkpt>
      <trkpt lat="44.87378" lon="6.7394">
        <ele>1772.1</ele>
        <time>2021-12-22T09:27:19Z</time>
      </trkpt>
      <trkpt lat="44.87379" lon="6.73942">
        <ele>1772.3</ele>
        <time>2021-12-22T09:27:20Z</time>
      </trkpt>
      <trkpt lat="44.8738" lon="6.73943">
        <ele>1772.7</ele>
        <time>2021-12-22T09:27:22Z</time>
      </trkpt>
      <trkpt lat="44.8738" lon="6.73944">
        <ele>1772.7</ele>
        <time>2021-12-22T09:27:23Z</time>
      </trkpt>
      <trkpt lat="44.87381" lon="6.73945">
        <ele>1772.8</ele>
        <time>2021-12-22T09:27:24Z</time>
      </trkpt>
      <trkpt lat="44.87382" lon="6.73947">
        <ele>1772.8</ele>
        <time>2021-12-22T09:27:25Z</time>
      </trkpt>
      <trkpt lat="44.87382" lon="6.73948">
        <ele>1772.7</ele>
        <time>2021-12-22T09:27:26Z</time>
      </trkpt>
      <trkpt lat="44.87383" lon="6.7395">
        <ele>1772.7</ele>
        <time>2021-12-22T09:27:28Z</time>
      </trkpt>
      <trkpt lat="44.87384" lon="6.73951">
        <ele>1772.9</ele>
        <time>2021-12-22T09:27:29Z</time>
      </trkpt>
      <trkpt lat="44.87385" lon="6.73952">
        <ele>1773.2</ele>
        <time>2021-12-22T09:27:30Z</time>
      </trkpt>
      <trkpt lat="44.87385" lon="6.73953">
        <ele>1773.4</ele>
        <time>2021-12-22T09:27:31Z</time>
      </trkpt>
      <trkpt lat="44.87386" lon="6.73954">
        <ele>1773.3</ele>
        <time>2021-12-22T09:27:32Z</time>
      </trkpt>
      <trkpt lat="44.87386" lon="6.73955">
        <ele>1773.3</ele>
        <time>2021-12-22T09:27:33Z</time>
      </trkpt>
      <trkpt lat="44.87387" lon="6.73957">
        <ele>1773.6</ele>
        <time>2021-12-22T09:27:45Z</time>
      </trkpt>
      <trkpt lat="44.87394" lon="6.73965">
        <ele>1775.2</ele>
        <time>2021-12-22T09:27:46Z</time>
      </trkpt>
      <trkpt lat="44.87394" lon="6.73966">
        <ele>1775.2</ele>
        <time>2021-12-22T09:27:47Z</time>
      </trkpt>
      <trkpt lat="44.87396" lon="6.73967">
        <ele>1775.3</ele>
        <time>2021-12-22T09:28:00Z</time>
      </trkpt>
      <trkpt lat="44.87404" lon="6.73974">
        <ele>1776.4</ele>
        <time>2021-12-22T09:28:01Z</time>
      </trkpt>
      <trkpt lat="44.87405" lon="6.73974">
        <ele>1776.4</ele>
        <time>2021-12-22T09:28:02Z</time>
      </trkpt>
      <trkpt lat="44.87406" lon="6.73975">
        <ele>1776.5</ele>
        <time>2021-12-22T09:28:16Z</time>
      </trkpt>
      <trkpt lat="44.87415" lon="6.73978">
        <ele>1777.5</ele>
        <time>2021-12-22T09:28:17Z</time>
      </trkpt>
      <trkpt lat="44.87416" lon="6.73978">
        <ele>1777.5</ele>
        <time>2021-12-22T09:28:18Z</time>
      </trkpt>
      <trkpt lat="44.87418" lon="6.73978">
        <ele>1777.7</ele>
        <time>2021-12-22T09:28:34Z</time>
      </trkpt>
      <trkpt lat="44.87427" lon="6.73976">
        <ele>1779.4</ele>
        <time>2021-12-22T09:28:35Z</time>
      </trkpt>
      <trkpt lat="44.87428" lon="6.73976">
        <ele>1779.6</ele>
        <time>2021-12-22T09:28:36Z</time>
      </trkpt>
      <trkpt lat="44.87429" lon="6.73976">
        <ele>1779.9</ele>
        <time>2021-12-22T09:28:51Z</time>
      </trkpt>
      <trkpt lat="44.87438" lon="6.73974">
        <ele>1781.7</ele>
        <time>2021-12-22T09:28:52Z</time>
      </trkpt>
      <trkpt lat="44.87438" lon="6.73974">
        <ele>1781.9</ele>
        <time>2021-12-22T09:28:53Z</time>
      </trkpt>
      <trkpt lat="44.8744" lon="6.73974">
        <ele>1782.2</ele>
        <time>2021-12-22T09:29:09Z</time>
      </trkpt>
      <trkpt lat="44.87448" lon="6.73968">
        <ele>1783.8</ele>
        <time>2021-12-22T09:29:10Z</time>
      </trkpt>
      <trkpt lat="44.87449" lon="6.73968">
        <ele>1783.9</ele>
        <time>2021-12-22T09:29:11Z</time>
      </trkpt>
      <trkpt lat="44.8745" lon="6.73967">
        <ele>1784.2</ele>
        <time>2021-12-22T09:29:25Z</time>
      </trkpt>
      <trkpt lat="44.87459" lon="6.73961">
        <ele>1786.1</ele>
        <time>2021-12-22T09:29:26Z</time>
      </trkpt>
      <trkpt lat="44.87459" lon="6.73961">
        <ele>1786.2</ele>
        <time>2021-12-22T09:29:27Z</time>
      </trkpt>
      <trkpt lat="44.87461" lon="6.7396">
        <ele>1786.5</ele>
        <time>2021-12-22T09:29:42Z</time>
      </trkpt>
      <trkpt lat="44.8747" lon="6.73957">
        <ele>1788.6</ele>
        <time>2021-12-22T09:29:43Z</time>
      </trkpt>
      <trkpt lat="44.87471" lon="6.73957">
        <ele>1788.7</ele>
        <time>2021-12-22T09:29:44Z</time>
      </trkpt>
      <trkpt lat="44.87472" lon="6.73957">
        <ele>1789.1</ele>
        <time>2021-12-22T09:29:57Z</time>
      </trkpt>
      <trkpt lat="44.87482" lon="6.73959">
        <ele>1791</ele>
        <time>2021-12-22T09:29:58Z</time>
      </trkpt>
      <trkpt lat="44.87482" lon="6.73959">
        <ele>1791.1</ele>
        <time>2021-12-22T09:29:59Z</time>
      </trkpt>
      <trkpt lat="44.87484" lon="6.73959">
        <ele>1791.4</ele>
        <time>2021-12-22T09:30:16Z</time>
      </trkpt>
      <trkpt lat="44.87493" lon="6.73963">
        <ele>1792.9</ele>
        <time>2021-12-22T09:30:17Z</time>
      </trkpt>
      <trkpt lat="44.87493" lon="6.73963">
        <ele>1792.9</ele>
        <time>2021-12-22T09:30:18Z</time>
      </trkpt>
      <trkpt lat="44.87495" lon="6.73964">
        <ele>1793</ele>
        <time>2021-12-22T09:30:32Z</time>
      </trkpt>
      <trkpt lat="44.87504" lon="6.73968">
        <ele>1793.9</ele>
        <time>2021-12-22T09:30:33Z</time>
      </trkpt>
      <trkpt lat="44.87505" lon="6.73968">
        <ele>1794</ele>
        <time>2021-12-22T09:30:34Z</time>
      </trkpt>
      <trkpt lat="44.87506" lon="6.73968">
        <ele>1794.1</ele>
        <time>2021-12-22T09:30:48Z</time>
      </trkpt>
      <trkpt lat="44.87515" lon="6.73972">
        <ele>1795.3</ele>
        <time>2021-12-22T09:30:49Z</time>
      </trkpt>
      <trkpt lat="44.87516" lon="6.73973">
        <ele>1795.4</ele>
        <time>2021-12-22T09:30:50Z</time>
      </trkpt>
      <trkpt lat="44.87517" lon="6.73973">
        <ele>1795.6</ele>
        <time>2021-12-22T09:31:04Z</time>
      </trkpt>
      <trkpt lat="44.87525" lon="6.73977">
        <ele>1796.9</ele>
        <time>2021-12-22T09:31:05Z</time>
      </trkpt>
      <trkpt lat="44.87526" lon="6.73977">
        <ele>1797.1</ele>
        <time>2021-12-22T09:31:06Z</time>
      </trkpt>
      <trkpt lat="44.87527" lon="6.73978">
        <ele>1797.3</ele>
        <time>2021-12-22T09:31:19Z</time>
      </trkpt>
      <trkpt lat="44.87535" lon="6.73982">
        <ele>1798.9</ele>
        <time>2021-12-22T09:31:20Z</time>
      </trkpt>
      <trkpt lat="44.87536" lon="6.73983">
        <ele>1799</ele>
        <time>2021-12-22T09:31:21Z</time>
      </trkpt>
      <trkpt lat="44.87538" lon="6.73984">
        <ele>1799.3</ele>
        <time>2021-12-22T09:31:35Z</time>
      </trkpt>
      <trkpt lat="44.87545" lon="6.73992">
        <ele>1801.4</ele>
        <time>2021-12-22T09:31:36Z</time>
      </trkpt>
      <trkpt lat="44.87545" lon="6.73993">
        <ele>1801.6</ele>
        <time>2021-12-22T09:31:37Z</time>
      </trkpt>
      <trkpt lat="44.87546" lon="6.73994">
        <ele>1801.9</ele>
        <time>2021-12-22T09:31:50Z</time>
      </trkpt>
      <trkpt lat="44.87552" lon="6.74005">
        <ele>1804.6</ele>
        <time>2021-12-22T09:31:51Z</time>
      </trkpt>
      <trkpt lat="44.87552" lon="6.74006">
        <ele>1804.8</ele>
        <time>2021-12-22T09:31:52Z</time>
      </trkpt>
      <trkpt lat="44.87553" lon="6.74007">
        <ele>1805</ele>
        <time>2021-12-22T09:31:53Z</time>
      </trkpt>
      <trkpt lat="44.87554" lon="6.74008">
        <ele>1805.3</ele>
        <time>2021-12-22T09:31:54Z</time>
      </trkpt>
      <trkpt lat="44.87554" lon="6.74009">
        <ele>1805.4</ele>
        <time>2021-12-22T09:31:55Z</time>
      </trkpt>
      <trkpt lat="44.87555" lon="6.7401">
        <ele>1805.8</ele>
        <time>2021-12-22T09:32:08Z</time>
      </trkpt>
      <trkpt lat="44.87562" lon="6.7402">
        <ele>1807.7</ele>
        <time>2021-12-22T09:32:09Z</time>
      </trkpt>
      <trkpt lat="44.87563" lon="6.7402">
        <ele>1807.9</ele>
        <time>2021-12-22T09:32:10Z</time>
      </trkpt>
      <trkpt lat="44.87564" lon="6.74021">
        <ele>1808.2</ele>
        <time>2021-12-22T09:34:33Z</time>
      </trkpt>
      <trkpt lat="44.87573" lon="6.74021">
        <ele>1810.9</ele>
        <time>2021-12-22T09:34:34Z</time>
      </trkpt>
      <trkpt lat="44.87574" lon="6.74021">
        <ele>1810.7</ele>
        <time>2021-12-22T09:34:35Z</time>
      </trkpt>
      <trkpt lat="44.87575" lon="6.7402">
        <ele>1810.7</ele>
        <time>2021-12-22T09:34:36Z</time>
      </trkpt>
      <trkpt lat="44.87576" lon="6.7402">
        <ele>1810.3</ele>
        <time>2021-12-22T09:34:37Z</time>
      </trkpt>
      <trkpt lat="44.87577" lon="6.74019">
        <ele>1810.1</ele>
        <time>2021-12-22T09:34:38Z</time>
      </trkpt>
      <trkpt lat="44.87577" lon="6.74018">
        <ele>1810</ele>
        <time>2021-12-22T09:34:39Z</time>
      </trkpt>
      <trkpt lat="44.87578" lon="6.74018">
        <ele>1809.7</ele>
        <time>2021-12-22T09:34:40Z</time>
      </trkpt>
      <trkpt lat="44.87579" lon="6.74017">
        <ele>1809.5</ele>
        <time>2021-12-22T09:34:41Z</time>
      </trkpt>
      <trkpt lat="44.8758" lon="6.74017">
        <ele>1809.5</ele>
        <time>2021-12-22T09:34:42Z</time>
      </trkpt>
      <trkpt lat="44.8758" lon="6.74016">
        <ele>1809.2</ele>
        <time>2021-12-22T09:34:43Z</time>
      </trkpt>
      <trkpt lat="44.87581" lon="6.74016">
        <ele>1809</ele>
        <time>2021-12-22T09:34:44Z</time>
      </trkpt>
      <trkpt lat="44.87583" lon="6.74015">
        <ele>1808.8</ele>
        <time>2021-12-22T09:34:56Z</time>
      </trkpt>
      <trkpt lat="44.87591" lon="6.74009">
        <ele>1809</ele>
        <time>2021-12-22T09:34:57Z</time>
      </trkpt>
      <trkpt lat="44.87592" lon="6.74008">
        <ele>1809.1</ele>
        <time>2021-12-22T09:34:58Z</time>
      </trkpt>
      <trkpt lat="44.87593" lon="6.74007">
        <ele>1809.3</ele>
        <time>2021-12-22T09:35:13Z</time>
      </trkpt>
      <trkpt lat="44.87599" lon="6.73996">
        <ele>1810.8</ele>
        <time>2021-12-22T09:35:14Z</time>
      </trkpt>
      <trkpt lat="44.87599" lon="6.73995">
        <ele>1810.9</ele>
        <time>2021-12-22T09:35:15Z</time>
      </trkpt>
      <trkpt lat="44.87599" lon="6.73994">
        <ele>1811.2</ele>
        <time>2021-12-22T09:35:33Z</time>
      </trkpt>
      <trkpt lat="44.876" lon="6.73981">
        <ele>1813.4</ele>
        <time>2021-12-22T09:35:34Z</time>
      </trkpt>
      <trkpt lat="44.876" lon="6.7398">
        <ele>1813.4</ele>
        <time>2021-12-22T09:35:35Z</time>
      </trkpt>
      <trkpt lat="44.876" lon="6.73979">
        <ele>1813.3</ele>
        <time>2021-12-22T09:35:50Z</time>
      </trkpt>
      <trkpt lat="44.87598" lon="6.73966">
        <ele>1814.3</ele>
        <time>2021-12-22T09:35:51Z</time>
      </trkpt>
      <trkpt lat="44.87598" lon="6.73965">
        <ele>1814.5</ele>
        <time>2021-12-22T09:35:52Z</time>
      </trkpt>
      <trkpt lat="44.87598" lon="6.73963">
        <ele>1814.7</ele>
        <time>2021-12-22T09:36:06Z</time>
      </trkpt>
      <trkpt lat="44.87595" lon="6.73951">
        <ele>1816.8</ele>
        <time>2021-12-22T09:36:07Z</time>
      </trkpt>
      <trkpt lat="44.87595" lon="6.7395">
        <ele>1816.9</ele>
        <time>2021-12-22T09:36:08Z</time>
      </trkpt>
      <trkpt lat="44.87595" lon="6.73948">
        <ele>1817.2</ele>
        <time>2021-12-22T09:36:34Z</time>
      </trkpt>
      <trkpt lat="44.87603" lon="6.73955">
        <ele>1821.5</ele>
        <time>2021-12-22T09:36:35Z</time>
      </trkpt>
      <trkpt lat="44.87603" lon="6.73956">
        <ele>1821.6</ele>
        <time>2021-12-22T09:36:36Z</time>
      </trkpt>
      <trkpt lat="44.87604" lon="6.73957">
        <ele>1821.4</ele>
        <time>2021-12-22T09:36:37Z</time>
      </trkpt>
      <trkpt lat="44.87605" lon="6.7396">
        <ele>1821.6</ele>
        <time>2021-12-22T09:36:50Z</time>
      </trkpt>
      <trkpt lat="44.8761" lon="6.73971">
        <ele>1822.6</ele>
        <time>2021-12-22T09:36:51Z</time>
      </trkpt>
      <trkpt lat="44.8761" lon="6.73972">
        <ele>1822.7</ele>
        <time>2021-12-22T09:36:52Z</time>
      </trkpt>
      <trkpt lat="44.87611" lon="6.73974">
        <ele>1822.9</ele>
        <time>2021-12-22T09:37:05Z</time>
      </trkpt>
      <trkpt lat="44.87616" lon="6.73986">
        <ele>1823.8</ele>
        <time>2021-12-22T09:37:06Z</time>
      </trkpt>
      <trkpt lat="44.87616" lon="6.73986">
        <ele>1823.9</ele>
        <time>2021-12-22T09:37:07Z</time>
      </trkpt>
      <trkpt lat="44.87617" lon="6.73988">
        <ele>1824.1</ele>
        <time>2021-12-22T09:37:21Z</time>
      </trkpt>
      <trkpt lat="44.87621" lon="6.74001">
        <ele>1824.7</ele>
        <time>2021-12-22T09:37:22Z</time>
      </trkpt>
      <trkpt lat="44.87621" lon="6.74002">
        <ele>1824.8</ele>
        <time>2021-12-22T09:37:23Z</time>
      </trkpt>
      <trkpt lat="44.87621" lon="6.74004">
        <ele>1824.8</ele>
        <time>2021-12-22T09:37:37Z</time>
      </trkpt>
      <trkpt lat="44.87623" lon="6.74017">
        <ele>1825.1</ele>
        <time>2021-12-22T09:37:38Z</time>
      </trkpt>
      <trkpt lat="44.87623" lon="6.74018">
        <ele>1825.1</ele>
        <time>2021-12-22T09:37:39Z</time>
      </trkpt>
      <trkpt lat="44.87623" lon="6.74019">
        <ele>1825.2</ele>
        <time>2021-12-22T09:37:54Z</time>
      </trkpt>
      <trkpt lat="44.87623" lon="6.74033">
        <ele>1826.2</ele>
        <time>2021-12-22T09:37:55Z</time>
      </trkpt>
      <trkpt lat="44.87623" lon="6.74034">
        <ele>1826.4</ele>
        <time>2021-12-22T09:37:56Z</time>
      </trkpt>
      <trkpt lat="44.87623" lon="6.74036">
        <ele>1826.7</ele>
        <time>2021-12-22T09:37:58Z</time>
      </trkpt>
      <trkpt lat="44.87623" lon="6.74037">
        <ele>1827.1</ele>
        <time>2021-12-22T09:37:59Z</time>
      </trkpt>
      <trkpt lat="44.87623" lon="6.74039">
        <ele>1827.3</ele>
        <time>2021-12-22T09:38:00Z</time>
      </trkpt>
      <trkpt lat="44.87623" lon="6.74041">
        <ele>1827.9</ele>
        <time>2021-12-22T09:38:14Z</time>
      </trkpt>
      <trkpt lat="44.87621" lon="6.74054">
        <ele>1829.9</ele>
        <time>2021-12-22T09:38:15Z</time>
      </trkpt>
      <trkpt lat="44.87621" lon="6.74055">
        <ele>1830.4</ele>
        <time>2021-12-22T09:38:16Z</time>
      </trkpt>
      <trkpt lat="44.87621" lon="6.74057">
        <ele>1830.7</ele>
        <time>2021-12-22T09:38:29Z</time>
      </trkpt>
      <trkpt lat="44.87619" lon="6.74069">
        <ele>1833</ele>
        <time>2021-12-22T09:38:30Z</time>
      </trkpt>
      <trkpt lat="44.87618" lon="6.7407">
        <ele>1833.2</ele>
        <time>2021-12-22T09:38:31Z</time>
      </trkpt>
      <trkpt lat="44.87618" lon="6.74072">
        <ele>1833.5</ele>
        <time>2021-12-22T09:38:45Z</time>
      </trkpt>
      <trkpt lat="44.87615" lon="6.74084">
        <ele>1835.5</ele>
        <time>2021-12-22T09:38:46Z</time>
      </trkpt>
      <trkpt lat="44.87615" lon="6.74086">
        <ele>1835.7</ele>
        <time>2021-12-22T09:38:47Z</time>
      </trkpt>
      <trkpt lat="44.87615" lon="6.74087">
        <ele>1836</ele>
        <time>2021-12-22T09:39:01Z</time>
      </trkpt>
      <trkpt lat="44.87614" lon="6.741">
        <ele>1837</ele>
        <time>2021-12-22T09:39:02Z</time>
      </trkpt>
      <trkpt lat="44.87614" lon="6.74101">
        <ele>1837</ele>
        <time>2021-12-22T09:39:03Z</time>
      </trkpt>
      <trkpt lat="44.87615" lon="6.74103">
        <ele>1836.8</ele>
        <time>2021-12-22T09:39:17Z</time>
      </trkpt>
      <trkpt lat="44.87619" lon="6.74114">
        <ele>1837.2</ele>
        <time>2021-12-22T09:39:18Z</time>
      </trkpt>
      <trkpt lat="44.87619" lon="6.74115">
        <ele>1837.2</ele>
        <time>2021-12-22T09:39:19Z</time>
      </trkpt>
      <trkpt lat="44.8762" lon="6.74117">
        <ele>1837.3</ele>
        <time>2021-12-22T09:39:32Z</time>
      </trkpt>
      <trkpt lat="44.87626" lon="6.74126">
        <ele>1839.2</ele>
        <time>2021-12-22T09:39:33Z</time>
      </trkpt>
      <trkpt lat="44.87627" lon="6.74127">
        <ele>1839.4</ele>
        <time>2021-12-22T09:39:34Z</time>
      </trkpt>
      <trkpt lat="44.87627" lon="6.74129">
        <ele>1839.8</ele>
        <time>2021-12-22T09:39:51Z</time>
      </trkpt>
      <trkpt lat="44.87631" lon="6.7414">
        <ele>1842.4</ele>
        <time>2021-12-22T09:39:52Z</time>
      </trkpt>
      <trkpt lat="44.87631" lon="6.74141">
        <ele>1842.5</ele>
        <time>2021-12-22T09:39:53Z</time>
      </trkpt>
      <trkpt lat="44.87631" lon="6.74143">
        <ele>1842.8</ele>
        <time>2021-12-22T09:40:08Z</time>
      </trkpt>
      <trkpt lat="44.87632" lon="6.74156">
        <ele>1845</ele>
        <time>2021-12-22T09:40:09Z</time>
      </trkpt>
      <trkpt lat="44.87633" lon="6.74157">
        <ele>1845.1</ele>
        <time>2021-12-22T09:40:10Z</time>
      </trkpt>
      <trkpt lat="44.87632" lon="6.74159">
        <ele>1845.4</ele>
        <time>2021-12-22T09:40:25Z</time>
      </trkpt>
      <trkpt lat="44.87633" lon="6.74172">
        <ele>1847.1</ele>
        <time>2021-12-22T09:40:26Z</time>
      </trkpt>
      <trkpt lat="44.87633" lon="6.74173">
        <ele>1847.1</ele>
        <time>2021-12-22T09:40:27Z</time>
      </trkpt>
      <trkpt lat="44.87633" lon="6.74174">
        <ele>1847.4</ele>
        <time>2021-12-22T09:40:41Z</time>
      </trkpt>
      <trkpt lat="44.87638" lon="6.74186">
        <ele>1848.3</ele>
        <time>2021-12-22T09:40:42Z</time>
      </trkpt>
      <trkpt lat="44.87639" lon="6.74187">
        <ele>1848.2</ele>
        <time>2021-12-22T09:40:43Z</time>
      </trkpt>
      <trkpt lat="44.8764" lon="6.74188">
        <ele>1848.5</ele>
        <time>2021-12-22T09:40:55Z</time>
      </trkpt>
      <trkpt lat="44.87647" lon="6.74197">
        <ele>1849.9</ele>
        <time>2021-12-22T09:40:56Z</time>
      </trkpt>
      <trkpt lat="44.87648" lon="6.74198">
        <ele>1850.2</ele>
        <time>2021-12-22T09:40:57Z</time>
      </trkpt>
      <trkpt lat="44.87649" lon="6.74199">
        <ele>1850.4</ele>
        <time>2021-12-22T09:41:04Z</time>
      </trkpt>
      <trkpt lat="44.87653" lon="6.74203">
        <ele>1850.8</ele>
        <time>2021-12-22T09:41:05Z</time>
      </trkpt>
      <trkpt lat="44.87657" lon="6.74206">
        <ele>1850.4</ele>
        <time>2021-12-22T09:41:09Z</time>
      </trkpt>
      <trkpt lat="44.87662" lon="6.74209">
        <ele>1850.1</ele>
        <time>2021-12-22T09:41:13Z</time>
      </trkpt>
      <trkpt lat="44.87663" lon="6.74209">
        <ele>1850</ele>
        <time>2021-12-22T09:41:14Z</time>
      </trkpt>
      <trkpt lat="44.87664" lon="6.74211">
        <ele>1849.7</ele>
        <time>2021-12-22T09:41:18Z</time>
      </trkpt>
      <trkpt lat="44.87667" lon="6.74211">
        <ele>1849.5</ele>
        <time>2021-12-22T09:41:19Z</time>
      </trkpt>
      <trkpt lat="44.87667" lon="6.74212">
        <ele>1849.2</ele>
        <time>2021-12-22T09:41:20Z</time>
      </trkpt>
      <trkpt lat="44.87669" lon="6.74212">
        <ele>1849.2</ele>
        <time>2021-12-22T09:41:26Z</time>
      </trkpt>
      <trkpt lat="44.87673" lon="6.74214">
        <ele>1848.8</ele>
        <time>2021-12-22T09:41:27Z</time>
      </trkpt>
      <trkpt lat="44.87674" lon="6.74214">
        <ele>1848.7</ele>
        <time>2021-12-22T09:41:28Z</time>
      </trkpt>
      <trkpt lat="44.87675" lon="6.74214">
        <ele>1848.6</ele>
        <time>2021-12-22T09:41:29Z</time>
      </trkpt>
      <trkpt lat="44.87676" lon="6.74214">
        <ele>1848.8</ele>
        <time>2021-12-22T09:41:43Z</time>
      </trkpt>
      <trkpt lat="44.87685" lon="6.74212">
        <ele>1850</ele>
        <time>2021-12-22T09:41:44Z</time>
      </trkpt>
      <trkpt lat="44.87686" lon="6.74212">
        <ele>1850.2</ele>
        <time>2021-12-22T09:41:45Z</time>
      </trkpt>
      <trkpt lat="44.87687" lon="6.74211">
        <ele>1850.4</ele>
        <time>2021-12-22T09:42:03Z</time>
      </trkpt>
      <trkpt lat="44.87692" lon="6.74199">
        <ele>1852.3</ele>
        <time>2021-12-22T09:42:04Z</time>
      </trkpt>
      <trkpt lat="44.87692" lon="6.74199">
        <ele>1852.4</ele>
        <time>2021-12-22T09:42:05Z</time>
      </trkpt>
      <trkpt lat="44.87692" lon="6.74198">
        <ele>1852.6</ele>
        <time>2021-12-22T09:42:21Z</time>
      </trkpt>
      <trkpt lat="44.87689" lon="6.74185">
        <ele>1853.9</ele>
        <time>2021-12-22T09:42:22Z</time>
      </trkpt>
      <trkpt lat="44.87689" lon="6.74184">
        <ele>1854.1</ele>
        <time>2021-12-22T09:42:23Z</time>
      </trkpt>
      <trkpt lat="44.87688" lon="6.74182">
        <ele>1854.3</ele>
        <time>2021-12-22T09:42:39Z</time>
      </trkpt>
      <trkpt lat="44.87684" lon="6.74171">
        <ele>1855.5</ele>
        <time>2021-12-22T09:42:40Z</time>
      </trkpt>
      <trkpt lat="44.87684" lon="6.74171">
        <ele>1855.5</ele>
        <time>2021-12-22T09:42:41Z</time>
      </trkpt>
      <trkpt lat="44.87684" lon="6.74171">
        <ele>1855.5</ele>
        <time>2021-12-22T09:43:03Z</time>
      </trkpt>
      <trkpt lat="44.87683" lon="6.74159">
        <ele>1856.9</ele>
        <time>2021-12-22T09:43:04Z</time>
      </trkpt>
      <trkpt lat="44.87683" lon="6.74158">
        <ele>1856.9</ele>
        <time>2021-12-22T09:43:05Z</time>
      </trkpt>
      <trkpt lat="44.87683" lon="6.74157">
        <ele>1857</ele>
        <time>2021-12-22T09:43:23Z</time>
      </trkpt>
      <trkpt lat="44.87688" lon="6.7415">
        <ele>1858.3</ele>
        <time>2021-12-22T09:43:24Z</time>
      </trkpt>
      <trkpt lat="44.87689" lon="6.7415">
        <ele>1858.5</ele>
        <time>2021-12-22T09:43:25Z</time>
      </trkpt>
      <trkpt lat="44.8769" lon="6.74149">
        <ele>1858.9</ele>
        <time>2021-12-22T09:46:02Z</time>
      </trkpt>
      <trkpt lat="44.87696" lon="6.7414">
        <ele>1862.5</ele>
        <time>2021-12-22T09:46:03Z</time>
      </trkpt>
      <trkpt lat="44.87697" lon="6.7414">
        <ele>1862.4</ele>
        <time>2021-12-22T09:46:04Z</time>
      </trkpt>
      <trkpt lat="44.87698" lon="6.74139">
        <ele>1862.3</ele>
        <time>2021-12-22T09:46:31Z</time>
      </trkpt>
      <trkpt lat="44.87707" lon="6.74136">
        <ele>1862</ele>
        <time>2021-12-22T09:46:32Z</time>
      </trkpt>
      <trkpt lat="44.87707" lon="6.74136">
        <ele>1862</ele>
        <time>2021-12-22T09:46:33Z</time>
      </trkpt>
      <trkpt lat="44.87707" lon="6.74136">
        <ele>1862</ele>
        <time>2021-12-22T09:46:46Z</time>
      </trkpt>
      <trkpt lat="44.87716" lon="6.74139">
        <ele>1863.3</ele>
        <time>2021-12-22T09:46:47Z</time>
      </trkpt>
      <trkpt lat="44.87717" lon="6.7414">
        <ele>1863.4</ele>
        <time>2021-12-22T09:46:48Z</time>
      </trkpt>
      <trkpt lat="44.87718" lon="6.7414">
        <ele>1863.7</ele>
        <time>2021-12-22T09:47:02Z</time>
      </trkpt>
      <trkpt lat="44.87727" lon="6.74143">
        <ele>1865.6</ele>
        <time>2021-12-22T09:47:03Z</time>
      </trkpt>
      <trkpt lat="44.87728" lon="6.74143">
        <ele>1865.7</ele>
        <time>2021-12-22T09:47:04Z</time>
      </trkpt>
      <trkpt lat="44.87729" lon="6.74143">
        <ele>1865.9</ele>
        <time>2021-12-22T09:47:19Z</time>
      </trkpt>
      <trkpt lat="44.87738" lon="6.74146">
        <ele>1867.7</ele>
        <time>2021-12-22T09:47:20Z</time>
      </trkpt>
      <trkpt lat="44.87739" lon="6.74145">
        <ele>1867.8</ele>
        <time>2021-12-22T09:47:21Z</time>
      </trkpt>
      <trkpt lat="44.87741" lon="6.74145">
        <ele>1868.1</ele>
        <time>2021-12-22T09:47:39Z</time>
      </trkpt>
      <trkpt lat="44.87749" lon="6.7414">
        <ele>1869.9</ele>
        <time>2021-12-22T09:47:40Z</time>
      </trkpt>
      <trkpt lat="44.87749" lon="6.7414">
        <ele>1870</ele>
        <time>2021-12-22T09:47:41Z</time>
      </trkpt>
      <trkpt lat="44.8775" lon="6.74141">
        <ele>1870.3</ele>
        <time>2021-12-22T09:47:57Z</time>
      </trkpt>
      <trkpt lat="44.87758" lon="6.74147">
        <ele>1871.9</ele>
        <time>2021-12-22T09:47:58Z</time>
      </trkpt>
      <trkpt lat="44.87759" lon="6.74148">
        <ele>1872</ele>
        <time>2021-12-22T09:47:59Z</time>
      </trkpt>
      <trkpt lat="44.87759" lon="6.74149">
        <ele>1872.2</ele>
        <time>2021-12-22T09:48:15Z</time>
      </trkpt>
      <trkpt lat="44.87767" lon="6.74155">
        <ele>1873.5</ele>
        <time>2021-12-22T09:48:16Z</time>
      </trkpt>
      <trkpt lat="44.87768" lon="6.74156">
        <ele>1873.6</ele>
        <time>2021-12-22T09:48:17Z</time>
      </trkpt>
      <trkpt lat="44.87769" lon="6.74156">
        <ele>1873.7</ele>
        <time>2021-12-22T09:48:32Z</time>
      </trkpt>
      <trkpt lat="44.87779" lon="6.74156">
        <ele>1874.1</ele>
        <time>2021-12-22T09:48:33Z</time>
      </trkpt>
      <trkpt lat="44.87779" lon="6.74156">
        <ele>1874.2</ele>
        <time>2021-12-22T09:48:34Z</time>
      </trkpt>
      <trkpt lat="44.8778" lon="6.74155">
        <ele>1874.4</ele>
        <time>2021-12-22T09:48:50Z</time>
      </trkpt>
      <trkpt lat="44.87789" lon="6.74155">
        <ele>1875.2</ele>
        <time>2021-12-22T09:48:51Z</time>
      </trkpt>
      <trkpt lat="44.87789" lon="6.74155">
        <ele>1875.2</ele>
        <time>2021-12-22T09:48:52Z</time>
      </trkpt>
      <trkpt lat="44.8779" lon="6.74155">
        <ele>1875.4</ele>
        <time>2021-12-22T09:49:06Z</time>
      </trkpt>
      <trkpt lat="44.87798" lon="6.74159">
        <ele>1876.5</ele>
        <time>2021-12-22T09:49:07Z</time>
      </trkpt>
      <trkpt lat="44.87799" lon="6.7416">
        <ele>1876.6</ele>
        <time>2021-12-22T09:49:09Z</time>
      </trkpt>
      <trkpt lat="44.878" lon="6.74161">
        <ele>1876.7</ele>
        <time>2021-12-22T09:49:10Z</time>
      </trkpt>
      <trkpt lat="44.87801" lon="6.74162">
        <ele>1877.1</ele>
        <time>2021-12-22T09:49:30Z</time>
      </trkpt>
      <trkpt lat="44.87807" lon="6.74172">
        <ele>1879</ele>
        <time>2021-12-22T09:49:31Z</time>
      </trkpt>
      <trkpt lat="44.87807" lon="6.74173">
        <ele>1879.1</ele>
        <time>2021-12-22T09:49:32Z</time>
      </trkpt>
      <trkpt lat="44.87807" lon="6.74174">
        <ele>1879.2</ele>
        <time>2021-12-22T09:49:47Z</time>
      </trkpt>
      <trkpt lat="44.87807" lon="6.74188">
        <ele>1879.7</ele>
        <time>2021-12-22T09:49:48Z</time>
      </trkpt>
      <trkpt lat="44.87807" lon="6.7419">
        <ele>1880.1</ele>
        <time>2021-12-22T09:49:49Z</time>
      </trkpt>
      <trkpt lat="44.87808" lon="6.74192">
        <ele>1880.3</ele>
        <time>2021-12-22T09:50:00Z</time>
      </trkpt>
      <trkpt lat="44.8781" lon="6.74205">
        <ele>1880.7</ele>
        <time>2021-12-22T09:50:01Z</time>
      </trkpt>
      <trkpt lat="44.8781" lon="6.74206">
        <ele>1880.7</ele>
        <time>2021-12-22T09:50:02Z</time>
      </trkpt>
      <trkpt lat="44.8781" lon="6.74208">
        <ele>1880.5</ele>
        <time>2021-12-22T09:50:03Z</time>
      </trkpt>
      <trkpt lat="44.8781" lon="6.74209">
        <ele>1880.4</ele>
        <time>2021-12-22T09:50:04Z</time>
      </trkpt>
      <trkpt lat="44.8781" lon="6.74211">
        <ele>1880.3</ele>
        <time>2021-12-22T09:50:18Z</time>
      </trkpt>
      <trkpt lat="44.87813" lon="6.74223">
        <ele>1880.2</ele>
        <time>2021-12-22T09:50:19Z</time>
      </trkpt>
      <trkpt lat="44.87813" lon="6.74226">
        <ele>1880.1</ele>
        <time>2021-12-22T09:50:21Z</time>
      </trkpt>
      <trkpt lat="44.87814" lon="6.74227">
        <ele>1880</ele>
        <time>2021-12-22T09:50:22Z</time>
      </trkpt>
      <trkpt lat="44.87814" lon="6.74228">
        <ele>1880.1</ele>
        <time>2021-12-22T09:50:23Z</time>
      </trkpt>
      <trkpt lat="44.87814" lon="6.7423">
        <ele>1879.8</ele>
        <time>2021-12-22T09:50:24Z</time>
      </trkpt>
      <trkpt lat="44.87814" lon="6.74231">
        <ele>1879.8</ele>
        <time>2021-12-22T09:50:25Z</time>
      </trkpt>
      <trkpt lat="44.87814" lon="6.74232">
        <ele>1879.8</ele>
        <time>2021-12-22T09:50:26Z</time>
      </trkpt>
      <trkpt lat="44.87814" lon="6.74234">
        <ele>1880</ele>
        <time>2021-12-22T09:50:27Z</time>
      </trkpt>
      <trkpt lat="44.87815" lon="6.74237">
        <ele>1880</ele>
        <time>2021-12-22T09:50:29Z</time>
      </trkpt>
      <trkpt lat="44.87815" lon="6.74238">
        <ele>1880</ele>
        <time>2021-12-22T09:50:30Z</time>
      </trkpt>
      <trkpt lat="44.87815" lon="6.74239">
        <ele>1880</ele>
        <time>2021-12-22T09:50:31Z</time>
      </trkpt>
      <trkpt lat="44.87815" lon="6.7424">
        <ele>1880</ele>
        <time>2021-12-22T09:50:32Z</time>
      </trkpt>
      <trkpt lat="44.87816" lon="6.74242">
        <ele>1879.9</ele>
        <time>2021-12-22T09:50:33Z</time>
      </trkpt>
      <trkpt lat="44.87816" lon="6.74244">
        <ele>1880.1</ele>
        <time>2021-12-22T09:50:40Z</time>
      </trkpt>
      <trkpt lat="44.87818" lon="6.74251">
        <ele>1880.8</ele>
        <time>2021-12-22T09:50:41Z</time>
      </trkpt>
      <trkpt lat="44.87818" lon="6.74252">
        <ele>1881.1</ele>
        <time>2021-12-22T09:50:42Z</time>
      </trkpt>
      <trkpt lat="44.87818" lon="6.74254">
        <ele>1881.1</ele>
        <time>2021-12-22T09:50:43Z</time>
      </trkpt>
      <trkpt lat="44.87819" lon="6.74255">
        <ele>1881.3</ele>
        <time>2021-12-22T09:50:44Z</time>
      </trkpt>
      <trkpt lat="44.87819" lon="6.74256">
        <ele>1881.5</ele>
        <time>2021-12-22T09:50:45Z</time>
      </trkpt>
      <trkpt lat="44.87819" lon="6.74258">
        <ele>1881.5</ele>
        <time>2021-12-22T09:50:46Z</time>
      </trkpt>
      <trkpt lat="44.8782" lon="6.74259">
        <ele>1881.5</ele>
        <time>2021-12-22T09:50:47Z</time>
      </trkpt>
      <trkpt lat="44.87822" lon="6.74266">
        <ele>1881.3</ele>
        <time>2021-12-22T09:50:52Z</time>
      </trkpt>
      <trkpt lat="44.87824" lon="6.74272">
        <ele>1881.6</ele>
        <time>2021-12-22T09:50:56Z</time>
      </trkpt>
      <trkpt lat="44.87825" lon="6.74274">
        <ele>1881.6</ele>
        <time>2021-12-22T09:50:57Z</time>
      </trkpt>
      <trkpt lat="44.87826" lon="6.74275">
        <ele>1881</ele>
        <time>2021-12-22T09:50:58Z</time>
      </trkpt>
      <trkpt lat="44.87827" lon="6.74276">
        <ele>1880.8</ele>
        <time>2021-12-22T09:50:59Z</time>
      </trkpt>
      <trkpt lat="44.87827" lon="6.74278">
        <ele>1880.3</ele>
        <time>2021-12-22T09:51:00Z</time>
      </trkpt>
      <trkpt lat="44.87828" lon="6.7428">
        <ele>1879.8</ele>
        <time>2021-12-22T09:51:01Z</time>
      </trkpt>
      <trkpt lat="44.87828" lon="6.74281">
        <ele>1878.7</ele>
        <time>2021-12-22T09:51:02Z</time>
      </trkpt>
      <trkpt lat="44.87828" lon="6.74283">
        <ele>1877.6</ele>
        <time>2021-12-22T09:51:05Z</time>
      </trkpt>
      <trkpt lat="44.87829" lon="6.74287">
        <ele>1876.8</ele>
        <time>2021-12-22T09:51:06Z</time>
      </trkpt>
      <trkpt lat="44.87829" lon="6.74295">
        <ele>1877.8</ele>
        <time>2021-12-22T09:51:10Z</time>
      </trkpt>
      <trkpt lat="44.87829" lon="6.74302">
        <ele>1880</ele>
        <time>2021-12-22T09:51:14Z</time>
      </trkpt>
      <trkpt lat="44.8783" lon="6.7431">
        <ele>1882.1</ele>
        <time>2021-12-22T09:51:19Z</time>
      </trkpt>
      <trkpt lat="44.8783" lon="6.74317">
        <ele>1883.4</ele>
        <time>2021-12-22T09:51:24Z</time>
      </trkpt>
      <trkpt lat="44.8783" lon="6.74324">
        <ele>1884.2</ele>
        <time>2021-12-22T09:51:29Z</time>
      </trkpt>
      <trkpt lat="44.8783" lon="6.74331">
        <ele>1884.4</ele>
        <time>2021-12-22T09:51:34Z</time>
      </trkpt>
      <trkpt lat="44.8783" lon="6.74338">
        <ele>1884.5</ele>
        <time>2021-12-22T09:51:39Z</time>
      </trkpt>
      <trkpt lat="44.87829" lon="6.7434">
        <ele>1884.5</ele>
        <time>2021-12-22T09:51:40Z</time>
      </trkpt>
      <trkpt lat="44.87829" lon="6.74341">
        <ele>1884.6</ele>
        <time>2021-12-22T09:51:41Z</time>
      </trkpt>
      <trkpt lat="44.87829" lon="6.74342">
        <ele>1884.6</ele>
        <time>2021-12-22T09:51:42Z</time>
      </trkpt>
      <trkpt lat="44.87829" lon="6.74343">
        <ele>1884.8</ele>
        <time>2021-12-22T09:51:43Z</time>
      </trkpt>
      <trkpt lat="44.87828" lon="6.74351">
        <ele>1885</ele>
        <time>2021-12-22T09:51:47Z</time>
      </trkpt>
      <trkpt lat="44.87827" lon="6.74358">
        <ele>1885.2</ele>
        <time>2021-12-22T09:51:50Z</time>
      </trkpt>
      <trkpt lat="44.87827" lon="6.74366">
        <ele>1885.3</ele>
        <time>2021-12-22T09:51:54Z</time>
      </trkpt>
      <trkpt lat="44.87826" lon="6.74373">
        <ele>1885.3</ele>
        <time>2021-12-22T09:51:59Z</time>
      </trkpt>
      <trkpt lat="44.87825" lon="6.7438">
        <ele>1885.4</ele>
        <time>2021-12-22T09:52:03Z</time>
      </trkpt>
      <trkpt lat="44.87825" lon="6.74386">
        <ele>1886.3</ele>
        <time>2021-12-22T09:52:07Z</time>
      </trkpt>
      <trkpt lat="44.87824" lon="6.7439">
        <ele>1886.4</ele>
        <time>2021-12-22T09:52:09Z</time>
      </trkpt>
      <trkpt lat="44.87824" lon="6.74391">
        <ele>1886.5</ele>
        <time>2021-12-22T09:52:10Z</time>
      </trkpt>
      <trkpt lat="44.87824" lon="6.74394">
        <ele>1886.6</ele>
        <time>2021-12-22T09:52:14Z</time>
      </trkpt>
      <trkpt lat="44.87823" lon="6.74397">
        <ele>1886.9</ele>
        <time>2021-12-22T09:52:15Z</time>
      </trkpt>
      <trkpt lat="44.87823" lon="6.74399">
        <ele>1887.1</ele>
        <time>2021-12-22T09:52:16Z</time>
      </trkpt>
      <trkpt lat="44.87823" lon="6.74401">
        <ele>1887.5</ele>
        <time>2021-12-22T09:52:28Z</time>
      </trkpt>
      <trkpt lat="44.87822" lon="6.74413">
        <ele>1889.1</ele>
        <time>2021-12-22T09:52:29Z</time>
      </trkpt>
      <trkpt lat="44.87822" lon="6.74414">
        <ele>1889.3</ele>
        <time>2021-12-22T09:52:30Z</time>
      </trkpt>
      <trkpt lat="44.87822" lon="6.74417">
        <ele>1889.3</ele>
        <time>2021-12-22T09:52:35Z</time>
      </trkpt>
      <trkpt lat="44.87822" lon="6.74422">
        <ele>1889.1</ele>
        <time>2021-12-22T09:52:36Z</time>
      </trkpt>
      <trkpt lat="44.87822" lon="6.74423">
        <ele>1889</ele>
        <time>2021-12-22T09:52:37Z</time>
      </trkpt>
      <trkpt lat="44.87822" lon="6.74425">
        <ele>1889</ele>
        <time>2021-12-22T09:52:38Z</time>
      </trkpt>
      <trkpt lat="44.87822" lon="6.74426">
        <ele>1889</ele>
        <time>2021-12-22T09:52:39Z</time>
      </trkpt>
      <trkpt lat="44.87822" lon="6.74427">
        <ele>1889.2</ele>
        <time>2021-12-22T09:52:40Z</time>
      </trkpt>
      <trkpt lat="44.87822" lon="6.74429">
        <ele>1889.3</ele>
        <time>2021-12-22T09:52:41Z</time>
      </trkpt>
      <trkpt lat="44.87823" lon="6.7443">
        <ele>1889.3</ele>
        <time>2021-12-22T09:52:42Z</time>
      </trkpt>
      <trkpt lat="44.87823" lon="6.74431">
        <ele>1889.2</ele>
        <time>2021-12-22T09:52:43Z</time>
      </trkpt>
      <trkpt lat="44.87824" lon="6.74433">
        <ele>1889.3</ele>
        <time>2021-12-22T09:52:45Z</time>
      </trkpt>
      <trkpt lat="44.87824" lon="6.74435">
        <ele>1889.3</ele>
        <time>2021-12-22T09:52:46Z</time>
      </trkpt>
      <trkpt lat="44.87824" lon="6.74436">
        <ele>1889.7</ele>
        <time>2021-12-22T09:52:47Z</time>
      </trkpt>
      <trkpt lat="44.87825" lon="6.74438">
        <ele>1889.8</ele>
        <time>2021-12-22T09:52:48Z</time>
      </trkpt>
      <trkpt lat="44.87825" lon="6.74439">
        <ele>1889.8</ele>
        <time>2021-12-22T09:52:49Z</time>
      </trkpt>
      <trkpt lat="44.87827" lon="6.74445">
        <ele>1889.5</ele>
        <time>2021-12-22T09:52:54Z</time>
      </trkpt>
      <trkpt lat="44.87827" lon="6.74446">
        <ele>1889.5</ele>
        <time>2021-12-22T09:52:55Z</time>
      </trkpt>
      <trkpt lat="44.87827" lon="6.74448">
        <ele>1889.6</ele>
        <time>2021-12-22T09:52:56Z</time>
      </trkpt>
      <trkpt lat="44.87828" lon="6.7445">
        <ele>1889.5</ele>
        <time>2021-12-22T09:52:57Z</time>
      </trkpt>
      <trkpt lat="44.87828" lon="6.74452">
        <ele>1889.2</ele>
        <time>2021-12-22T09:52:58Z</time>
      </trkpt>
      <trkpt lat="44.87829" lon="6.74459">
        <ele>1888.9</ele>
        <time>2021-12-22T09:53:02Z</time>
      </trkpt>
      <trkpt lat="44.8783" lon="6.74465">
        <ele>1888.6</ele>
        <time>2021-12-22T09:53:05Z</time>
      </trkpt>
      <trkpt lat="44.87831" lon="6.74472">
        <ele>1888.7</ele>
        <time>2021-12-22T09:53:08Z</time>
      </trkpt>
      <trkpt lat="44.87832" lon="6.74479">
        <ele>1889.5</ele>
        <time>2021-12-22T09:53:12Z</time>
      </trkpt>
      <trkpt lat="44.87832" lon="6.74486">
        <ele>1889.9</ele>
        <time>2021-12-22T09:53:16Z</time>
      </trkpt>
      <trkpt lat="44.87832" lon="6.74488">
        <ele>1890</ele>
        <time>2021-12-22T09:53:17Z</time>
      </trkpt>
      <trkpt lat="44.87832" lon="6.74488">
        <ele>1889.9</ele>
        <time>2021-12-22T09:53:18Z</time>
      </trkpt>
      <trkpt lat="44.87832" lon="6.74491">
        <ele>1890</ele>
        <time>2021-12-22T09:53:21Z</time>
      </trkpt>
      <trkpt lat="44.87832" lon="6.74494">
        <ele>1889.9</ele>
        <time>2021-12-22T09:53:22Z</time>
      </trkpt>
      <trkpt lat="44.87832" lon="6.74498">
        <ele>1890.3</ele>
        <time>2021-12-22T09:53:24Z</time>
      </trkpt>
      <trkpt lat="44.87832" lon="6.74499">
        <ele>1890.5</ele>
        <time>2021-12-22T09:53:25Z</time>
      </trkpt>
      <trkpt lat="44.87831" lon="6.74501">
        <ele>1890.6</ele>
        <time>2021-12-22T09:53:27Z</time>
      </trkpt>
      <trkpt lat="44.87831" lon="6.74503">
        <ele>1890.7</ele>
        <time>2021-12-22T09:53:28Z</time>
      </trkpt>
      <trkpt lat="44.87831" lon="6.74504">
        <ele>1890.7</ele>
        <time>2021-12-22T09:53:29Z</time>
      </trkpt>
      <trkpt lat="44.87831" lon="6.74506">
        <ele>1890.8</ele>
        <time>2021-12-22T09:53:36Z</time>
      </trkpt>
      <trkpt lat="44.87829" lon="6.74515">
        <ele>1891.1</ele>
        <time>2021-12-22T09:53:37Z</time>
      </trkpt>
      <trkpt lat="44.87828" lon="6.74522">
        <ele>1892.4</ele>
        <time>2021-12-22T09:53:42Z</time>
      </trkpt>
      <trkpt lat="44.87828" lon="6.74523">
        <ele>1892.6</ele>
        <time>2021-12-22T09:53:43Z</time>
      </trkpt>
      <trkpt lat="44.87827" lon="6.74524">
        <ele>1892.6</ele>
        <time>2021-12-22T09:53:44Z</time>
      </trkpt>
      <trkpt lat="44.87827" lon="6.74526">
        <ele>1892.7</ele>
        <time>2021-12-22T09:53:46Z</time>
      </trkpt>
      <trkpt lat="44.87826" lon="6.74528">
        <ele>1892.6</ele>
        <time>2021-12-22T09:53:47Z</time>
      </trkpt>
      <trkpt lat="44.87826" lon="6.74529">
        <ele>1892.4</ele>
        <time>2021-12-22T09:53:48Z</time>
      </trkpt>
      <trkpt lat="44.87826" lon="6.74531">
        <ele>1892.3</ele>
        <time>2021-12-22T09:54:06Z</time>
      </trkpt>
      <trkpt lat="44.87823" lon="6.74545">
        <ele>1892.4</ele>
        <time>2021-12-22T09:54:07Z</time>
      </trkpt>
      <trkpt lat="44.87823" lon="6.74546">
        <ele>1892.4</ele>
        <time>2021-12-22T09:54:08Z</time>
      </trkpt>
      <trkpt lat="44.87823" lon="6.74548">
        <ele>1892.5</ele>
        <time>2021-12-22T09:54:21Z</time>
      </trkpt>
      <trkpt lat="44.87821" lon="6.74561">
        <ele>1892.8</ele>
        <time>2021-12-22T09:54:22Z</time>
      </trkpt>
      <trkpt lat="44.87821" lon="6.74562">
        <ele>1892.8</ele>
        <time>2021-12-22T09:54:23Z</time>
      </trkpt>
      <trkpt lat="44.8782" lon="6.74564">
        <ele>1892.9</ele>
        <time>2021-12-22T09:54:27Z</time>
      </trkpt>
      <trkpt lat="44.8782" lon="6.74567">
        <ele>1892.5</ele>
        <time>2021-12-22T09:54:28Z</time>
      </trkpt>
      <trkpt lat="44.8782" lon="6.74569">
        <ele>1892.6</ele>
        <time>2021-12-22T09:54:29Z</time>
      </trkpt>
      <trkpt lat="44.8782" lon="6.74571">
        <ele>1892.5</ele>
        <time>2021-12-22T09:54:34Z</time>
      </trkpt>
      <trkpt lat="44.87819" lon="6.74576">
        <ele>1892.1</ele>
        <time>2021-12-22T09:54:35Z</time>
      </trkpt>
      <trkpt lat="44.87818" lon="6.74577">
        <ele>1892</ele>
        <time>2021-12-22T09:54:36Z</time>
      </trkpt>
      <trkpt lat="44.87818" lon="6.74578">
        <ele>1892.1</ele>
        <time>2021-12-22T09:54:37Z</time>
      </trkpt>
      <trkpt lat="44.87818" lon="6.74581">
        <ele>1892.4</ele>
        <time>2021-12-22T09:54:51Z</time>
      </trkpt>
      <trkpt lat="44.87816" lon="6.74595">
        <ele>1892.5</ele>
        <time>2021-12-22T09:54:52Z</time>
      </trkpt>
      <trkpt lat="44.87816" lon="6.74596">
        <ele>1892.4</ele>
        <time>2021-12-22T09:54:53Z</time>
      </trkpt>
      <trkpt lat="44.87816" lon="6.74597">
        <ele>1892.2</ele>
        <time>2021-12-22T09:55:07Z</time>
      </trkpt>
      <trkpt lat="44.87813" lon="6.74611">
        <ele>1891.4</ele>
        <time>2021-12-22T09:55:08Z</time>
      </trkpt>
      <trkpt lat="44.87813" lon="6.74612">
        <ele>1891.3</ele>
        <time>2021-12-22T09:55:09Z</time>
      </trkpt>
      <trkpt lat="44.87813" lon="6.74614">
        <ele>1891.3</ele>
        <time>2021-12-22T09:55:25Z</time>
      </trkpt>
      <trkpt lat="44.87811" lon="6.74626">
        <ele>1891.2</ele>
        <time>2021-12-22T09:55:26Z</time>
      </trkpt>
      <trkpt lat="44.87811" lon="6.74628">
        <ele>1891.2</ele>
        <time>2021-12-22T09:55:27Z</time>
      </trkpt>
      <trkpt lat="44.87811" lon="6.7463">
        <ele>1891.2</ele>
        <time>2021-12-22T09:55:41Z</time>
      </trkpt>
      <trkpt lat="44.87811" lon="6.74643">
        <ele>1891.4</ele>
        <time>2021-12-22T09:55:42Z</time>
      </trkpt>
      <trkpt lat="44.87811" lon="6.74644">
        <ele>1891.4</ele>
        <time>2021-12-22T09:55:43Z</time>
      </trkpt>
      <trkpt lat="44.87811" lon="6.74646">
        <ele>1891.4</ele>
        <time>2021-12-22T09:56:39Z</time>
      </trkpt>
      <trkpt lat="44.87814" lon="6.74659">
        <ele>1892</ele>
        <time>2021-12-22T09:56:40Z</time>
      </trkpt>
      <trkpt lat="44.87814" lon="6.74659">
        <ele>1892.1</ele>
        <time>2021-12-22T09:56:41Z</time>
      </trkpt>
      <trkpt lat="44.87814" lon="6.74659">
        <ele>1892.1</ele>
        <time>2021-12-22T09:59:07Z</time>
      </trkpt>
      <trkpt lat="44.87819" lon="6.74661">
        <ele>1891.3</ele>
        <time>2021-12-22T09:59:08Z</time>
      </trkpt>
      <trkpt lat="44.87822" lon="6.74666">
        <ele>1891.9</ele>
        <time>2021-12-22T09:59:12Z</time>
      </trkpt>
      <trkpt lat="44.87823" lon="6.74667">
        <ele>1891.9</ele>
        <time>2021-12-22T09:59:13Z</time>
      </trkpt>
      <trkpt lat="44.87824" lon="6.74668">
        <ele>1891.8</ele>
        <time>2021-12-22T10:00:50Z</time>
      </trkpt>
      <trkpt lat="44.87828" lon="6.74672">
        <ele>1891.1</ele>
        <time>2021-12-22T10:00:51Z</time>
      </trkpt>
      <trkpt lat="44.87829" lon="6.74673">
        <ele>1891.3</ele>
        <time>2021-12-22T10:00:52Z</time>
      </trkpt>
      <trkpt lat="44.87829" lon="6.74674">
        <ele>1891.6</ele>
        <time>2021-12-22T10:00:59Z</time>
      </trkpt>
      <trkpt lat="44.87832" lon="6.74676">
        <ele>1891.5</ele>
        <time>2021-12-22T10:01:00Z</time>
      </trkpt>
      <trkpt lat="44.87835" lon="6.74681">
        <ele>1891.5</ele>
        <time>2021-12-22T10:01:04Z</time>
      </trkpt>
      <trkpt lat="44.87839" lon="6.74686">
        <ele>1891.1</ele>
        <time>2021-12-22T10:01:09Z</time>
      </trkpt>
      <trkpt lat="44.87843" lon="6.7469">
        <ele>1890.8</ele>
        <time>2021-12-22T10:01:13Z</time>
      </trkpt>
      <trkpt lat="44.87847" lon="6.74694">
        <ele>1890.8</ele>
        <time>2021-12-22T10:01:17Z</time>
      </trkpt>
      <trkpt lat="44.8785" lon="6.74696">
        <ele>1890.8</ele>
        <time>2021-12-22T10:01:20Z</time>
      </trkpt>
      <trkpt lat="44.87851" lon="6.74696">
        <ele>1890.9</ele>
        <time>2021-12-22T10:01:21Z</time>
      </trkpt>
      <trkpt lat="44.87852" lon="6.74697">
        <ele>1890.8</ele>
        <time>2021-12-22T10:01:22Z</time>
      </trkpt>
      <trkpt lat="44.87853" lon="6.74698">
        <ele>1890.8</ele>
        <time>2021-12-22T10:01:23Z</time>
      </trkpt>
      <trkpt lat="44.87854" lon="6.74698">
        <ele>1890.8</ele>
        <time>2021-12-22T10:01:24Z</time>
      </trkpt>
      <trkpt lat="44.87854" lon="6.74699">
        <ele>1890.9</ele>
        <time>2021-12-22T10:01:25Z</time>
      </trkpt>
      <trkpt lat="44.87855" lon="6.747">
        <ele>1891</ele>
        <time>2021-12-22T10:01:26Z</time>
      </trkpt>
      <trkpt lat="44.87856" lon="6.74701">
        <ele>1891.2</ele>
        <time>2021-12-22T10:01:27Z</time>
      </trkpt>
      <trkpt lat="44.87857" lon="6.74701">
        <ele>1891.2</ele>
        <time>2021-12-22T10:01:28Z</time>
      </trkpt>
      <trkpt lat="44.87858" lon="6.74703">
        <ele>1891.2</ele>
        <time>2021-12-22T10:01:29Z</time>
      </trkpt>
      <trkpt lat="44.87859" lon="6.74704">
        <ele>1891.3</ele>
        <time>2021-12-22T10:01:30Z</time>
      </trkpt>
      <trkpt lat="44.87859" lon="6.74704">
        <ele>1891.2</ele>
        <time>2021-12-22T10:01:31Z</time>
      </trkpt>
      <trkpt lat="44.8786" lon="6.74705">
        <ele>1891.2</ele>
        <time>2021-12-22T10:01:32Z</time>
      </trkpt>
      <trkpt lat="44.87864" lon="6.74709">
        <ele>1891.2</ele>
        <time>2021-12-22T10:01:36Z</time>
      </trkpt>
      <trkpt lat="44.87868" lon="6.74714">
        <ele>1890.9</ele>
        <time>2021-12-22T10:01:40Z</time>
      </trkpt>
      <trkpt lat="44.87871" lon="6.7472">
        <ele>1890.4</ele>
        <time>2021-12-22T10:01:44Z</time>
      </trkpt>
      <trkpt lat="44.87876" lon="6.74723">
        <ele>1890.1</ele>
        <time>2021-12-22T10:01:48Z</time>
      </trkpt>
      <trkpt lat="44.8788" lon="6.74728">
        <ele>1890.1</ele>
        <time>2021-12-22T10:01:52Z</time>
      </trkpt>
      <trkpt lat="44.87884" lon="6.74732">
        <ele>1890.6</ele>
        <time>2021-12-22T10:01:56Z</time>
      </trkpt>
      <trkpt lat="44.87887" lon="6.74737">
        <ele>1890.6</ele>
        <time>2021-12-22T10:02:00Z</time>
      </trkpt>
      <trkpt lat="44.87891" lon="6.74742">
        <ele>1890.2</ele>
        <time>2021-12-22T10:02:04Z</time>
      </trkpt>
      <trkpt lat="44.87895" lon="6.74746">
        <ele>1890.1</ele>
        <time>2021-12-22T10:02:08Z</time>
      </trkpt>
      <trkpt lat="44.87899" lon="6.74751">
        <ele>1889.9</ele>
        <time>2021-12-22T10:02:12Z</time>
      </trkpt>
      <trkpt lat="44.87902" lon="6.74756">
        <ele>1889.3</ele>
        <time>2021-12-22T10:02:16Z</time>
      </trkpt>
      <trkpt lat="44.87906" lon="6.74761">
        <ele>1889.1</ele>
        <time>2021-12-22T10:02:20Z</time>
      </trkpt>
      <trkpt lat="44.8791" lon="6.74767">
        <ele>1888.7</ele>
        <time>2021-12-22T10:02:24Z</time>
      </trkpt>
      <trkpt lat="44.87912" lon="6.74773">
        <ele>1888.8</ele>
        <time>2021-12-22T10:02:28Z</time>
      </trkpt>
      <trkpt lat="44.87913" lon="6.7478">
        <ele>1889</ele>
        <time>2021-12-22T10:02:32Z</time>
      </trkpt>
      <trkpt lat="44.87914" lon="6.74787">
        <ele>1888.1</ele>
        <time>2021-12-22T10:02:36Z</time>
      </trkpt>
      <trkpt lat="44.87915" lon="6.74794">
        <ele>1887.3</ele>
        <time>2021-12-22T10:02:40Z</time>
      </trkpt>
      <trkpt lat="44.87916" lon="6.74801">
        <ele>1886.5</ele>
        <time>2021-12-22T10:02:44Z</time>
      </trkpt>
      <trkpt lat="44.87916" lon="6.74808">
        <ele>1886.2</ele>
        <time>2021-12-22T10:02:48Z</time>
      </trkpt>
      <trkpt lat="44.87916" lon="6.74814">
        <ele>1885.8</ele>
        <time>2021-12-22T10:02:52Z</time>
      </trkpt>
      <trkpt lat="44.87916" lon="6.74822">
        <ele>1885.6</ele>
        <time>2021-12-22T10:02:56Z</time>
      </trkpt>
      <trkpt lat="44.87916" lon="6.7483">
        <ele>1885.5</ele>
        <time>2021-12-22T10:03:00Z</time>
      </trkpt>
      <trkpt lat="44.87915" lon="6.74836">
        <ele>1885.5</ele>
        <time>2021-12-22T10:03:04Z</time>
      </trkpt>
      <trkpt lat="44.87915" lon="6.74839">
        <ele>1885.5</ele>
        <time>2021-12-22T10:03:06Z</time>
      </trkpt>
      <trkpt lat="44.87915" lon="6.7484">
        <ele>1885.5</ele>
        <time>2021-12-22T10:03:07Z</time>
      </trkpt>
      <trkpt lat="44.87914" lon="6.74842">
        <ele>1885.4</ele>
        <time>2021-12-22T10:03:40Z</time>
      </trkpt>
      <trkpt lat="44.87909" lon="6.74853">
        <ele>1885.5</ele>
        <time>2021-12-22T10:03:41Z</time>
      </trkpt>
      <trkpt lat="44.87909" lon="6.74854">
        <ele>1885.6</ele>
        <time>2021-12-22T10:03:42Z</time>
      </trkpt>
      <trkpt lat="44.87908" lon="6.74855">
        <ele>1885.7</ele>
        <time>2021-12-22T10:03:51Z</time>
      </trkpt>
      <trkpt lat="44.87903" lon="6.7486">
        <ele>1885.7</ele>
        <time>2021-12-22T10:03:52Z</time>
      </trkpt>
      <trkpt lat="44.87898" lon="6.74864">
        <ele>1885.1</ele>
        <time>2021-12-22T10:03:56Z</time>
      </trkpt>
      <trkpt lat="44.87895" lon="6.74869">
        <ele>1885.1</ele>
        <time>2021-12-22T10:04:00Z</time>
      </trkpt>
      <trkpt lat="44.87891" lon="6.74873">
        <ele>1884.9</ele>
        <time>2021-12-22T10:04:04Z</time>
      </trkpt>
      <trkpt lat="44.87887" lon="6.74876">
        <ele>1884.9</ele>
        <time>2021-12-22T10:04:08Z</time>
      </trkpt>
      <trkpt lat="44.87882" lon="6.7488">
        <ele>1884.8</ele>
        <time>2021-12-22T10:04:12Z</time>
      </trkpt>
      <trkpt lat="44.87879" lon="6.74886">
        <ele>1884.2</ele>
        <time>2021-12-22T10:04:16Z</time>
      </trkpt>
      <trkpt lat="44.87876" lon="6.74892">
        <ele>1883.6</ele>
        <time>2021-12-22T10:04:20Z</time>
      </trkpt>
      <trkpt lat="44.87874" lon="6.74898">
        <ele>1883.9</ele>
        <time>2021-12-22T10:04:24Z</time>
      </trkpt>
      <trkpt lat="44.87872" lon="6.74905">
        <ele>1883.9</ele>
        <time>2021-12-22T10:04:28Z</time>
      </trkpt>
      <trkpt lat="44.87871" lon="6.74911">
        <ele>1883.8</ele>
        <time>2021-12-22T10:04:32Z</time>
      </trkpt>
      <trkpt lat="44.87871" lon="6.74917">
        <ele>1883.6</ele>
        <time>2021-12-22T10:04:36Z</time>
      </trkpt>
      <trkpt lat="44.8787" lon="6.74924">
        <ele>1883</ele>
        <time>2021-12-22T10:04:40Z</time>
      </trkpt>
      <trkpt lat="44.87869" lon="6.74931">
        <ele>1882.6</ele>
        <time>2021-12-22T10:04:44Z</time>
      </trkpt>
      <trkpt lat="44.87868" lon="6.74938">
        <ele>1882</ele>
        <time>2021-12-22T10:04:48Z</time>
      </trkpt>
      <trkpt lat="44.87868" lon="6.74944">
        <ele>1882</ele>
        <time>2021-12-22T10:04:52Z</time>
      </trkpt>
      <trkpt lat="44.87867" lon="6.74952">
        <ele>1881.8</ele>
        <time>2021-12-22T10:04:56Z</time>
      </trkpt>
      <trkpt lat="44.87866" lon="6.74959">
        <ele>1881.9</ele>
        <time>2021-12-22T10:05:00Z</time>
      </trkpt>
      <trkpt lat="44.87865" lon="6.74966">
        <ele>1882</ele>
        <time>2021-12-22T10:05:04Z</time>
      </trkpt>
      <trkpt lat="44.87864" lon="6.74974">
        <ele>1881.3</ele>
        <time>2021-12-22T10:05:09Z</time>
      </trkpt>
      <trkpt lat="44.87862" lon="6.7498">
        <ele>1881.3</ele>
        <time>2021-12-22T10:05:13Z</time>
      </trkpt>
      <trkpt lat="44.87861" lon="6.74987">
        <ele>1881.6</ele>
        <time>2021-12-22T10:05:17Z</time>
      </trkpt>
      <trkpt lat="44.87859" lon="6.74994">
        <ele>1881.8</ele>
        <time>2021-12-22T10:05:21Z</time>
      </trkpt>
      <trkpt lat="44.87857" lon="6.75001">
        <ele>1881</ele>
        <time>2021-12-22T10:05:25Z</time>
      </trkpt>
      <trkpt lat="44.87855" lon="6.75008">
        <ele>1880.4</ele>
        <time>2021-12-22T10:05:29Z</time>
      </trkpt>
      <trkpt lat="44.87855" lon="6.75015">
        <ele>1879.5</ele>
        <time>2021-12-22T10:05:33Z</time>
      </trkpt>
      <trkpt lat="44.87855" lon="6.75021">
        <ele>1879.1</ele>
        <time>2021-12-22T10:05:37Z</time>
      </trkpt>
      <trkpt lat="44.87854" lon="6.75029">
        <ele>1878.4</ele>
        <time>2021-12-22T10:05:42Z</time>
      </trkpt>
      <trkpt lat="44.87855" lon="6.75036">
        <ele>1878.3</ele>
        <time>2021-12-22T10:05:46Z</time>
      </trkpt>
      <trkpt lat="44.87855" lon="6.75044">
        <ele>1878.2</ele>
        <time>2021-12-22T10:05:50Z</time>
      </trkpt>
      <trkpt lat="44.87855" lon="6.7505">
        <ele>1877.9</ele>
        <time>2021-12-22T10:05:54Z</time>
      </trkpt>
      <trkpt lat="44.87855" lon="6.75057">
        <ele>1877.6</ele>
        <time>2021-12-22T10:05:58Z</time>
      </trkpt>
      <trkpt lat="44.87855" lon="6.75064">
        <ele>1877.2</ele>
        <time>2021-12-22T10:06:02Z</time>
      </trkpt>
      <trkpt lat="44.87854" lon="6.7507">
        <ele>1876.5</ele>
        <time>2021-12-22T10:06:06Z</time>
      </trkpt>
      <trkpt lat="44.87854" lon="6.75077">
        <ele>1876.6</ele>
        <time>2021-12-22T10:06:10Z</time>
      </trkpt>
      <trkpt lat="44.87854" lon="6.75084">
        <ele>1876.8</ele>
        <time>2021-12-22T10:06:14Z</time>
      </trkpt>
      <trkpt lat="44.87854" lon="6.7509">
        <ele>1876.3</ele>
        <time>2021-12-22T10:06:18Z</time>
      </trkpt>
      <trkpt lat="44.87853" lon="6.75097">
        <ele>1876</ele>
        <time>2021-12-22T10:06:22Z</time>
      </trkpt>
      <trkpt lat="44.87853" lon="6.75104">
        <ele>1875.4</ele>
        <time>2021-12-22T10:06:26Z</time>
      </trkpt>
      <trkpt lat="44.87852" lon="6.75112">
        <ele>1875</ele>
        <time>2021-12-22T10:06:30Z</time>
      </trkpt>
      <trkpt lat="44.87851" lon="6.75118">
        <ele>1874.6</ele>
        <time>2021-12-22T10:06:34Z</time>
      </trkpt>
      <trkpt lat="44.8785" lon="6.75126">
        <ele>1874.1</ele>
        <time>2021-12-22T10:06:38Z</time>
      </trkpt>
      <trkpt lat="44.87848" lon="6.75133">
        <ele>1873.8</ele>
        <time>2021-12-22T10:06:42Z</time>
      </trkpt>
      <trkpt lat="44.87847" lon="6.7514">
        <ele>1873.5</ele>
        <time>2021-12-22T10:06:46Z</time>
      </trkpt>
      <trkpt lat="44.87845" lon="6.75147">
        <ele>1873.6</ele>
        <time>2021-12-22T10:06:50Z</time>
      </trkpt>
      <trkpt lat="44.87844" lon="6.75153">
        <ele>1873.6</ele>
        <time>2021-12-22T10:06:54Z</time>
      </trkpt>
      <trkpt lat="44.87843" lon="6.7516">
        <ele>1873.7</ele>
        <time>2021-12-22T10:06:58Z</time>
      </trkpt>
      <trkpt lat="44.87842" lon="6.75167">
        <ele>1873.8</ele>
        <time>2021-12-22T10:07:02Z</time>
      </trkpt>
      <trkpt lat="44.8784" lon="6.75174">
        <ele>1873.4</ele>
        <time>2021-12-22T10:07:07Z</time>
      </trkpt>
      <trkpt lat="44.8784" lon="6.75181">
        <ele>1872.9</ele>
        <time>2021-12-22T10:07:11Z</time>
      </trkpt>
      <trkpt lat="44.87839" lon="6.75189">
        <ele>1872.8</ele>
        <time>2021-12-22T10:07:15Z</time>
      </trkpt>
      <trkpt lat="44.87839" lon="6.75197">
        <ele>1872.8</ele>
        <time>2021-12-22T10:07:19Z</time>
      </trkpt>
      <trkpt lat="44.87839" lon="6.75201">
        <ele>1873.1</ele>
        <time>2021-12-22T10:07:21Z</time>
      </trkpt>
      <trkpt lat="44.87838" lon="6.75203">
        <ele>1873.1</ele>
        <time>2021-12-22T10:07:22Z</time>
      </trkpt>
      <trkpt lat="44.87838" lon="6.75204">
        <ele>1872.7</ele>
        <time>2021-12-22T10:07:25Z</time>
      </trkpt>
      <trkpt lat="44.87837" lon="6.75208">
        <ele>1872.1</ele>
        <time>2021-12-22T10:07:26Z</time>
      </trkpt>
      <trkpt lat="44.87835" lon="6.75216">
        <ele>1871.5</ele>
        <time>2021-12-22T10:07:30Z</time>
      </trkpt>
      <trkpt lat="44.87834" lon="6.75223">
        <ele>1871.3</ele>
        <time>2021-12-22T10:07:34Z</time>
      </trkpt>
      <trkpt lat="44.87832" lon="6.75229">
        <ele>1871.1</ele>
        <time>2021-12-22T10:07:38Z</time>
      </trkpt>
      <trkpt lat="44.87831" lon="6.75235">
        <ele>1871</ele>
        <time>2021-12-22T10:07:42Z</time>
      </trkpt>
      <trkpt lat="44.87829" lon="6.75242">
        <ele>1871.2</ele>
        <time>2021-12-22T10:07:46Z</time>
      </trkpt>
      <trkpt lat="44.87829" lon="6.7525">
        <ele>1871.2</ele>
        <time>2021-12-22T10:07:51Z</time>
      </trkpt>
      <trkpt lat="44.87828" lon="6.75255">
        <ele>1871</ele>
        <time>2021-12-22T10:07:55Z</time>
      </trkpt>
      <trkpt lat="44.87828" lon="6.75257">
        <ele>1870.8</ele>
        <time>2021-12-22T10:07:56Z</time>
      </trkpt>
      <trkpt lat="44.87827" lon="6.75258">
        <ele>1870.7</ele>
        <time>2021-12-22T10:07:57Z</time>
      </trkpt>
      <trkpt lat="44.87827" lon="6.75259">
        <ele>1870.5</ele>
        <time>2021-12-22T10:07:58Z</time>
      </trkpt>
      <trkpt lat="44.87827" lon="6.7526">
        <ele>1870.3</ele>
        <time>2021-12-22T10:07:59Z</time>
      </trkpt>
      <trkpt lat="44.87827" lon="6.75263">
        <ele>1869.9</ele>
        <time>2021-12-22T10:08:02Z</time>
      </trkpt>
      <trkpt lat="44.87827" lon="6.75266">
        <ele>1869.5</ele>
        <time>2021-12-22T10:08:03Z</time>
      </trkpt>
      <trkpt lat="44.87827" lon="6.75272">
        <ele>1869.5</ele>
        <time>2021-12-22T10:08:07Z</time>
      </trkpt>
      <trkpt lat="44.87827" lon="6.75279">
        <ele>1869.8</ele>
        <time>2021-12-22T10:08:12Z</time>
      </trkpt>
      <trkpt lat="44.87827" lon="6.75281">
        <ele>1869.7</ele>
        <time>2021-12-22T10:08:13Z</time>
      </trkpt>
      <trkpt lat="44.87827" lon="6.75282">
        <ele>1869.5</ele>
        <time>2021-12-22T10:08:14Z</time>
      </trkpt>
      <trkpt lat="44.87827" lon="6.75284">
        <ele>1869.6</ele>
        <time>2021-12-22T10:08:24Z</time>
      </trkpt>
      <trkpt lat="44.87828" lon="6.75295">
        <ele>1869.1</ele>
        <time>2021-12-22T10:08:25Z</time>
      </trkpt>
      <trkpt lat="44.87829" lon="6.75296">
        <ele>1869.1</ele>
        <time>2021-12-22T10:08:26Z</time>
      </trkpt>
      <trkpt lat="44.8783" lon="6.75298">
        <ele>1869.2</ele>
        <time>2021-12-22T10:08:39Z</time>
      </trkpt>
      <trkpt lat="44.87832" lon="6.75311">
        <ele>1869.9</ele>
        <time>2021-12-22T10:08:40Z</time>
      </trkpt>
      <trkpt lat="44.87832" lon="6.75313">
        <ele>1869.9</ele>
        <time>2021-12-22T10:08:41Z</time>
      </trkpt>
      <trkpt lat="44.87832" lon="6.75314">
        <ele>1870</ele>
        <time>2021-12-22T10:08:42Z</time>
      </trkpt>
      <trkpt lat="44.87832" lon="6.75316">
        <ele>1870</ele>
        <time>2021-12-22T10:08:43Z</time>
      </trkpt>
      <trkpt lat="44.87832" lon="6.75317">
        <ele>1870.1</ele>
        <time>2021-12-22T10:08:44Z</time>
      </trkpt>
      <trkpt lat="44.87832" lon="6.75318">
        <ele>1870.4</ele>
        <time>2021-12-22T10:08:45Z</time>
      </trkpt>
      <trkpt lat="44.87833" lon="6.7532">
        <ele>1870.6</ele>
        <time>2021-12-22T10:08:59Z</time>
      </trkpt>
      <trkpt lat="44.87834" lon="6.75333">
        <ele>1871.4</ele>
        <time>2021-12-22T10:09:00Z</time>
      </trkpt>
      <trkpt lat="44.87834" lon="6.75335">
        <ele>1871.5</ele>
        <time>2021-12-22T10:09:01Z</time>
      </trkpt>
      <trkpt lat="44.87834" lon="6.75337">
        <ele>1871.3</ele>
        <time>2021-12-22T10:09:10Z</time>
      </trkpt>
      <trkpt lat="44.87835" lon="6.75341">
        <ele>1870.8</ele>
        <time>2021-12-22T10:09:11Z</time>
      </trkpt>
      <trkpt lat="44.87835" lon="6.75343">
        <ele>1871.1</ele>
        <time>2021-12-22T10:09:12Z</time>
      </trkpt>
      <trkpt lat="44.87835" lon="6.75344">
        <ele>1871.2</ele>
        <time>2021-12-22T10:09:13Z</time>
      </trkpt>
      <trkpt lat="44.87835" lon="6.75347">
        <ele>1871.2</ele>
        <time>2021-12-22T10:09:23Z</time>
      </trkpt>
      <trkpt lat="44.87836" lon="6.75357">
        <ele>1871.3</ele>
        <time>2021-12-22T10:09:24Z</time>
      </trkpt>
      <trkpt lat="44.87836" lon="6.75358">
        <ele>1871.3</ele>
        <time>2021-12-22T10:09:25Z</time>
      </trkpt>
      <trkpt lat="44.87836" lon="6.75361">
        <ele>1871.1</ele>
        <time>2021-12-22T10:09:34Z</time>
      </trkpt>
      <trkpt lat="44.87838" lon="6.75371">
        <ele>1871.4</ele>
        <time>2021-12-22T10:09:35Z</time>
      </trkpt>
      <trkpt lat="44.87838" lon="6.75373">
        <ele>1871.8</ele>
        <time>2021-12-22T10:09:36Z</time>
      </trkpt>
      <trkpt lat="44.87838" lon="6.75374">
        <ele>1872</ele>
        <time>2021-12-22T10:09:37Z</time>
      </trkpt>
      <trkpt lat="44.87838" lon="6.75376">
        <ele>1872</ele>
        <time>2021-12-22T10:09:39Z</time>
      </trkpt>
      <trkpt lat="44.87838" lon="6.75378">
        <ele>1871.9</ele>
        <time>2021-12-22T10:09:40Z</time>
      </trkpt>
      <trkpt lat="44.87838" lon="6.75382">
        <ele>1872.2</ele>
        <time>2021-12-22T10:09:43Z</time>
      </trkpt>
      <trkpt lat="44.87838" lon="6.75384">
        <ele>1872.3</ele>
        <time>2021-12-22T10:09:44Z</time>
      </trkpt>
      <trkpt lat="44.87839" lon="6.75385">
        <ele>1872.3</ele>
        <time>2021-12-22T10:09:45Z</time>
      </trkpt>
      <trkpt lat="44.87839" lon="6.75386">
        <ele>1872.5</ele>
        <time>2021-12-22T10:09:46Z</time>
      </trkpt>
      <trkpt lat="44.87839" lon="6.75388">
        <ele>1872.8</ele>
        <time>2021-12-22T10:09:47Z</time>
      </trkpt>
      <trkpt lat="44.87839" lon="6.7539">
        <ele>1873</ele>
        <time>2021-12-22T10:09:50Z</time>
      </trkpt>
      <trkpt lat="44.87839" lon="6.75392">
        <ele>1872.8</ele>
        <time>2021-12-22T10:09:51Z</time>
      </trkpt>
      <trkpt lat="44.87839" lon="6.75394">
        <ele>1872.8</ele>
        <time>2021-12-22T10:09:52Z</time>
      </trkpt>
      <trkpt lat="44.87839" lon="6.75395">
        <ele>1872.8</ele>
        <time>2021-12-22T10:09:53Z</time>
      </trkpt>
      <trkpt lat="44.87839" lon="6.75396">
        <ele>1872.7</ele>
        <time>2021-12-22T10:09:54Z</time>
      </trkpt>
      <trkpt lat="44.87839" lon="6.75398">
        <ele>1872.8</ele>
        <time>2021-12-22T10:09:55Z</time>
      </trkpt>
      <trkpt lat="44.87839" lon="6.75399">
        <ele>1872.9</ele>
        <time>2021-12-22T10:09:56Z</time>
      </trkpt>
      <trkpt lat="44.87839" lon="6.75402">
        <ele>1872.7</ele>
        <time>2021-12-22T10:09:58Z</time>
      </trkpt>
      <trkpt lat="44.87839" lon="6.75403">
        <ele>1872.6</ele>
        <time>2021-12-22T10:09:59Z</time>
      </trkpt>
      <trkpt lat="44.87839" lon="6.75405">
        <ele>1872.9</ele>
        <time>2021-12-22T10:10:00Z</time>
      </trkpt>
      <trkpt lat="44.87839" lon="6.75406">
        <ele>1873.1</ele>
        <time>2021-12-22T10:10:01Z</time>
      </trkpt>
      <trkpt lat="44.8784" lon="6.75409">
        <ele>1872.9</ele>
        <time>2021-12-22T10:10:03Z</time>
      </trkpt>
      <trkpt lat="44.8784" lon="6.7541">
        <ele>1872.8</ele>
        <time>2021-12-22T10:10:04Z</time>
      </trkpt>
      <trkpt lat="44.8784" lon="6.75411">
        <ele>1873.2</ele>
        <time>2021-12-22T10:10:05Z</time>
      </trkpt>
      <trkpt lat="44.8784" lon="6.75413">
        <ele>1873.2</ele>
        <time>2021-12-22T10:10:06Z</time>
      </trkpt>
      <trkpt lat="44.8784" lon="6.75414">
        <ele>1873.3</ele>
        <time>2021-12-22T10:10:07Z</time>
      </trkpt>
      <trkpt lat="44.87841" lon="6.75421">
        <ele>1873.8</ele>
        <time>2021-12-22T10:10:12Z</time>
      </trkpt>
      <trkpt lat="44.87841" lon="6.75428">
        <ele>1873.5</ele>
        <time>2021-12-22T10:10:16Z</time>
      </trkpt>
      <trkpt lat="44.87842" lon="6.7543">
        <ele>1873.5</ele>
        <time>2021-12-22T10:10:17Z</time>
      </trkpt>
      <trkpt lat="44.87842" lon="6.75431">
        <ele>1873.5</ele>
        <time>2021-12-22T10:10:18Z</time>
      </trkpt>
      <trkpt lat="44.87842" lon="6.75433">
        <ele>1873.4</ele>
        <time>2021-12-22T10:10:19Z</time>
      </trkpt>
      <trkpt lat="44.87842" lon="6.75435">
        <ele>1873.5</ele>
        <time>2021-12-22T10:10:20Z</time>
      </trkpt>
      <trkpt lat="44.87842" lon="6.75439">
        <ele>1873.7</ele>
        <time>2021-12-22T10:10:23Z</time>
      </trkpt>
      <trkpt lat="44.87842" lon="6.75441">
        <ele>1873.9</ele>
        <time>2021-12-22T10:10:24Z</time>
      </trkpt>
      <trkpt lat="44.87842" lon="6.75443">
        <ele>1874.1</ele>
        <time>2021-12-22T10:10:27Z</time>
      </trkpt>
      <trkpt lat="44.87843" lon="6.75446">
        <ele>1874.4</ele>
        <time>2021-12-22T10:10:28Z</time>
      </trkpt>
      <trkpt lat="44.87844" lon="6.75454">
        <ele>1874.6</ele>
        <time>2021-12-22T10:10:33Z</time>
      </trkpt>
      <trkpt lat="44.87843" lon="6.75455">
        <ele>1874.6</ele>
        <time>2021-12-22T10:10:34Z</time>
      </trkpt>
      <trkpt lat="44.87844" lon="6.75458">
        <ele>1874.7</ele>
        <time>2021-12-22T10:10:46Z</time>
      </trkpt>
      <trkpt lat="44.87845" lon="6.75466">
        <ele>1874.2</ele>
        <time>2021-12-22T10:10:47Z</time>
      </trkpt>
      <trkpt lat="44.87845" lon="6.75468">
        <ele>1874.1</ele>
        <time>2021-12-22T10:10:48Z</time>
      </trkpt>
      <trkpt lat="44.87845" lon="6.75469">
        <ele>1874.1</ele>
        <time>2021-12-22T10:10:49Z</time>
      </trkpt>
      <trkpt lat="44.87845" lon="6.7547">
        <ele>1873.9</ele>
        <time>2021-12-22T10:10:50Z</time>
      </trkpt>
      <trkpt lat="44.87845" lon="6.75473">
        <ele>1873.6</ele>
        <time>2021-12-22T10:10:52Z</time>
      </trkpt>
      <trkpt lat="44.87845" lon="6.75475">
        <ele>1873.6</ele>
        <time>2021-12-22T10:10:53Z</time>
      </trkpt>
      <trkpt lat="44.87845" lon="6.75477">
        <ele>1873.6</ele>
        <time>2021-12-22T10:10:56Z</time>
      </trkpt>
      <trkpt lat="44.87845" lon="6.7548">
        <ele>1873.4</ele>
        <time>2021-12-22T10:10:57Z</time>
      </trkpt>
      <trkpt lat="44.87845" lon="6.75481">
        <ele>1873.3</ele>
        <time>2021-12-22T10:10:58Z</time>
      </trkpt>
      <trkpt lat="44.87845" lon="6.75483">
        <ele>1873.2</ele>
        <time>2021-12-22T10:11:01Z</time>
      </trkpt>
      <trkpt lat="44.87845" lon="6.75486">
        <ele>1873.2</ele>
        <time>2021-12-22T10:11:02Z</time>
      </trkpt>
      <trkpt lat="44.87845" lon="6.75487">
        <ele>1873.4</ele>
        <time>2021-12-22T10:11:03Z</time>
      </trkpt>
      <trkpt lat="44.87845" lon="6.75488">
        <ele>1873.4</ele>
        <time>2021-12-22T10:11:04Z</time>
      </trkpt>
      <trkpt lat="44.87845" lon="6.75489">
        <ele>1873.4</ele>
        <time>2021-12-22T10:11:05Z</time>
      </trkpt>
      <trkpt lat="44.87845" lon="6.75491">
        <ele>1873.2</ele>
        <time>2021-12-22T10:11:06Z</time>
      </trkpt>
      <trkpt lat="44.87845" lon="6.75492">
        <ele>1873.2</ele>
        <time>2021-12-22T10:11:07Z</time>
      </trkpt>
      <trkpt lat="44.87846" lon="6.75494">
        <ele>1873</ele>
        <time>2021-12-22T10:12:41Z</time>
      </trkpt>
      <trkpt lat="44.87849" lon="6.75497">
        <ele>1872.5</ele>
        <time>2021-12-22T10:12:42Z</time>
      </trkpt>
      <trkpt lat="44.87848" lon="6.75504">
        <ele>1873.6</ele>
        <time>2021-12-22T10:12:46Z</time>
      </trkpt>
      <trkpt lat="44.87849" lon="6.75511">
        <ele>1874.1</ele>
        <time>2021-12-22T10:12:50Z</time>
      </trkpt>
      <trkpt lat="44.87849" lon="6.75518">
        <ele>1873.9</ele>
        <time>2021-12-22T10:12:54Z</time>
      </trkpt>
      <trkpt lat="44.8785" lon="6.75524">
        <ele>1873.8</ele>
        <time>2021-12-22T10:12:58Z</time>
      </trkpt>
      <trkpt lat="44.8785" lon="6.7553">
        <ele>1873.7</ele>
        <time>2021-12-22T10:13:02Z</time>
      </trkpt>
      <trkpt lat="44.87851" lon="6.75538">
        <ele>1873.7</ele>
        <time>2021-12-22T10:13:07Z</time>
      </trkpt>
      <trkpt lat="44.87852" lon="6.75545">
        <ele>1873.9</ele>
        <time>2021-12-22T10:13:11Z</time>
      </trkpt>
      <trkpt lat="44.87853" lon="6.75552">
        <ele>1873.9</ele>
        <time>2021-12-22T10:13:15Z</time>
      </trkpt>
      <trkpt lat="44.87854" lon="6.75559">
        <ele>1873.6</ele>
        <time>2021-12-22T10:13:19Z</time>
      </trkpt>
      <trkpt lat="44.87854" lon="6.75566">
        <ele>1873.5</ele>
        <time>2021-12-22T10:13:24Z</time>
      </trkpt>
      <trkpt lat="44.87856" lon="6.75573">
        <ele>1873.3</ele>
        <time>2021-12-22T10:13:28Z</time>
      </trkpt>
      <trkpt lat="44.87858" lon="6.75579">
        <ele>1873.2</ele>
        <time>2021-12-22T10:13:32Z</time>
      </trkpt>
      <trkpt lat="44.87859" lon="6.75586">
        <ele>1872.8</ele>
        <time>2021-12-22T10:13:36Z</time>
      </trkpt>
      <trkpt lat="44.87861" lon="6.75593">
        <ele>1872.1</ele>
        <time>2021-12-22T10:13:40Z</time>
      </trkpt>
      <trkpt lat="44.87862" lon="6.756">
        <ele>1871.8</ele>
        <time>2021-12-22T10:13:44Z</time>
      </trkpt>
      <trkpt lat="44.87863" lon="6.75606">
        <ele>1871.3</ele>
        <time>2021-12-22T10:13:48Z</time>
      </trkpt>
      <trkpt lat="44.87864" lon="6.75612">
        <ele>1871.1</ele>
        <time>2021-12-22T10:13:52Z</time>
      </trkpt>
      <trkpt lat="44.87864" lon="6.75614">
        <ele>1871.3</ele>
        <time>2021-12-22T10:13:53Z</time>
      </trkpt>
      <trkpt lat="44.87865" lon="6.75615">
        <ele>1871.3</ele>
        <time>2021-12-22T10:13:54Z</time>
      </trkpt>
      <trkpt lat="44.87865" lon="6.75617">
        <ele>1871.2</ele>
        <time>2021-12-22T10:13:55Z</time>
      </trkpt>
      <trkpt lat="44.87865" lon="6.75618">
        <ele>1871.1</ele>
        <time>2021-12-22T10:13:56Z</time>
      </trkpt>
      <trkpt lat="44.87866" lon="6.75623">
        <ele>1870.7</ele>
        <time>2021-12-22T10:13:59Z</time>
      </trkpt>
      <trkpt lat="44.87866" lon="6.75624">
        <ele>1870.5</ele>
        <time>2021-12-22T10:14:00Z</time>
      </trkpt>
      <trkpt lat="44.87867" lon="6.75627">
        <ele>1870.1</ele>
        <time>2021-12-22T10:14:09Z</time>
      </trkpt>
      <trkpt lat="44.87869" lon="6.75639">
        <ele>1865.8</ele>
        <time>2021-12-22T10:14:10Z</time>
      </trkpt>
      <trkpt lat="44.8787" lon="6.75647">
        <ele>1867.1</ele>
        <time>2021-12-22T10:14:15Z</time>
      </trkpt>
      <trkpt lat="44.87871" lon="6.75653">
        <ele>1868.3</ele>
        <time>2021-12-22T10:14:19Z</time>
      </trkpt>
      <trkpt lat="44.87872" lon="6.75655">
        <ele>1868.4</ele>
        <time>2021-12-22T10:14:20Z</time>
      </trkpt>
      <trkpt lat="44.87872" lon="6.75656">
        <ele>1868.7</ele>
        <time>2021-12-22T10:14:21Z</time>
      </trkpt>
      <trkpt lat="44.87873" lon="6.75659">
        <ele>1868.4</ele>
        <time>2021-12-22T10:14:23Z</time>
      </trkpt>
      <trkpt lat="44.87873" lon="6.7566">
        <ele>1868.4</ele>
        <time>2021-12-22T10:14:24Z</time>
      </trkpt>
      <trkpt lat="44.87874" lon="6.75667">
        <ele>1867.9</ele>
        <time>2021-12-22T10:14:28Z</time>
      </trkpt>
      <trkpt lat="44.87875" lon="6.75674">
        <ele>1869.1</ele>
        <time>2021-12-22T10:14:33Z</time>
      </trkpt>
      <trkpt lat="44.87876" lon="6.7568">
        <ele>1869.8</ele>
        <time>2021-12-22T10:14:37Z</time>
      </trkpt>
      <trkpt lat="44.87876" lon="6.75681">
        <ele>1869.9</ele>
        <time>2021-12-22T10:14:38Z</time>
      </trkpt>
      <trkpt lat="44.87876" lon="6.75682">
        <ele>1869.9</ele>
        <time>2021-12-22T10:14:39Z</time>
      </trkpt>
      <trkpt lat="44.87876" lon="6.75684">
        <ele>1870</ele>
        <time>2021-12-22T10:14:40Z</time>
      </trkpt>
      <trkpt lat="44.87876" lon="6.75685">
        <ele>1870.2</ele>
        <time>2021-12-22T10:14:41Z</time>
      </trkpt>
      <trkpt lat="44.87876" lon="6.75687">
        <ele>1870.4</ele>
        <time>2021-12-22T10:14:42Z</time>
      </trkpt>
      <trkpt lat="44.87877" lon="6.75689">
        <ele>1870.6</ele>
        <time>2021-12-22T10:14:48Z</time>
      </trkpt>
      <trkpt lat="44.87878" lon="6.75694">
        <ele>1870.8</ele>
        <time>2021-12-22T10:14:49Z</time>
      </trkpt>
      <trkpt lat="44.87878" lon="6.75696">
        <ele>1871</ele>
        <time>2021-12-22T10:14:50Z</time>
      </trkpt>
      <trkpt lat="44.87879" lon="6.75697">
        <ele>1871</ele>
        <time>2021-12-22T10:14:51Z</time>
      </trkpt>
      <trkpt lat="44.87879" lon="6.75698">
        <ele>1871</ele>
        <time>2021-12-22T10:14:52Z</time>
      </trkpt>
      <trkpt lat="44.87879" lon="6.75703">
        <ele>1871.2</ele>
        <time>2021-12-22T10:14:55Z</time>
      </trkpt>
      <trkpt lat="44.8788" lon="6.75704">
        <ele>1871.4</ele>
        <time>2021-12-22T10:14:56Z</time>
      </trkpt>
      <trkpt lat="44.8788" lon="6.75706">
        <ele>1871.5</ele>
        <time>2021-12-22T10:14:58Z</time>
      </trkpt>
      <trkpt lat="44.8788" lon="6.75707">
        <ele>1871.4</ele>
        <time>2021-12-22T10:14:59Z</time>
      </trkpt>
      <trkpt lat="44.8788" lon="6.75709">
        <ele>1871.5</ele>
        <time>2021-12-22T10:15:00Z</time>
      </trkpt>
      <trkpt lat="44.8788" lon="6.7571">
        <ele>1871.2</ele>
        <time>2021-12-22T10:15:01Z</time>
      </trkpt>
      <trkpt lat="44.87881" lon="6.75711">
        <ele>1871.2</ele>
        <time>2021-12-22T10:15:02Z</time>
      </trkpt>
      <trkpt lat="44.87881" lon="6.75712">
        <ele>1871.3</ele>
        <time>2021-12-22T10:15:03Z</time>
      </trkpt>
      <trkpt lat="44.87882" lon="6.75717">
        <ele>1871.1</ele>
        <time>2021-12-22T10:15:06Z</time>
      </trkpt>
      <trkpt lat="44.87882" lon="6.75718">
        <ele>1870.9</ele>
        <time>2021-12-22T10:15:07Z</time>
      </trkpt>
      <trkpt lat="44.87883" lon="6.75719">
        <ele>1870.9</ele>
        <time>2021-12-22T10:15:08Z</time>
      </trkpt>
      <trkpt lat="44.87883" lon="6.75721">
        <ele>1870.5</ele>
        <time>2021-12-22T10:15:09Z</time>
      </trkpt>
      <trkpt lat="44.87883" lon="6.75722">
        <ele>1870.3</ele>
        <time>2021-12-22T10:15:10Z</time>
      </trkpt>
      <trkpt lat="44.87883" lon="6.75724">
        <ele>1870.2</ele>
        <time>2021-12-22T10:15:11Z</time>
      </trkpt>
      <trkpt lat="44.87883" lon="6.75725">
        <ele>1870.2</ele>
        <time>2021-12-22T10:15:12Z</time>
      </trkpt>
      <trkpt lat="44.87883" lon="6.75727">
        <ele>1870</ele>
        <time>2021-12-22T10:15:13Z</time>
      </trkpt>
      <trkpt lat="44.87883" lon="6.75733">
        <ele>1868.8</ele>
        <time>2021-12-22T10:15:18Z</time>
      </trkpt>
      <trkpt lat="44.87883" lon="6.7574">
        <ele>1867.9</ele>
        <time>2021-12-22T10:15:22Z</time>
      </trkpt>
      <trkpt lat="44.87882" lon="6.75748">
        <ele>1867.5</ele>
        <time>2021-12-22T10:15:26Z</time>
      </trkpt>
      <trkpt lat="44.87883" lon="6.75751">
        <ele>1867.2</ele>
        <time>2021-12-22T10:15:28Z</time>
      </trkpt>
      <trkpt lat="44.87883" lon="6.75753">
        <ele>1867.2</ele>
        <time>2021-12-22T10:15:29Z</time>
      </trkpt>
      <trkpt lat="44.87884" lon="6.75754">
        <ele>1867.2</ele>
        <time>2021-12-22T10:15:30Z</time>
      </trkpt>
      <trkpt lat="44.87884" lon="6.75755">
        <ele>1867</ele>
        <time>2021-12-22T10:15:31Z</time>
      </trkpt>
      <trkpt lat="44.87885" lon="6.75762">
        <ele>1866.9</ele>
        <time>2021-12-22T10:15:36Z</time>
      </trkpt>
      <trkpt lat="44.87885" lon="6.75765">
        <ele>1867.1</ele>
        <time>2021-12-22T10:15:38Z</time>
      </trkpt>
      <trkpt lat="44.87886" lon="6.75766">
        <ele>1867.3</ele>
        <time>2021-12-22T10:15:39Z</time>
      </trkpt>
      <trkpt lat="44.87886" lon="6.75768">
        <ele>1867.4</ele>
        <time>2021-12-22T10:15:43Z</time>
      </trkpt>
      <trkpt lat="44.87887" lon="6.75773">
        <ele>1867.6</ele>
        <time>2021-12-22T10:15:44Z</time>
      </trkpt>
      <trkpt lat="44.87887" lon="6.75777">
        <ele>1868</ele>
        <time>2021-12-22T10:15:47Z</time>
      </trkpt>
      <trkpt lat="44.87887" lon="6.75778">
        <ele>1868</ele>
        <time>2021-12-22T10:15:48Z</time>
      </trkpt>
      <trkpt lat="44.87887" lon="6.75779">
        <ele>1867.9</ele>
        <time>2021-12-22T10:15:49Z</time>
      </trkpt>
      <trkpt lat="44.87887" lon="6.75781">
        <ele>1867.9</ele>
        <time>2021-12-22T10:15:50Z</time>
      </trkpt>
      <trkpt lat="44.87888" lon="6.75782">
        <ele>1867.6</ele>
        <time>2021-12-22T10:15:51Z</time>
      </trkpt>
      <trkpt lat="44.87887" lon="6.75785">
        <ele>1867.6</ele>
        <time>2021-12-22T10:15:53Z</time>
      </trkpt>
      <trkpt lat="44.87887" lon="6.75786">
        <ele>1867.3</ele>
        <time>2021-12-22T10:15:54Z</time>
      </trkpt>
      <trkpt lat="44.87887" lon="6.75787">
        <ele>1867.3</ele>
        <time>2021-12-22T10:15:55Z</time>
      </trkpt>
      <trkpt lat="44.87887" lon="6.7579">
        <ele>1867.3</ele>
        <time>2021-12-22T10:16:01Z</time>
      </trkpt>
      <trkpt lat="44.87887" lon="6.75796">
        <ele>1867.3</ele>
        <time>2021-12-22T10:16:02Z</time>
      </trkpt>
      <trkpt lat="44.87886" lon="6.75797">
        <ele>1867.2</ele>
        <time>2021-12-22T10:16:03Z</time>
      </trkpt>
      <trkpt lat="44.87886" lon="6.758">
        <ele>1867.3</ele>
        <time>2021-12-22T10:16:05Z</time>
      </trkpt>
      <trkpt lat="44.87886" lon="6.75801">
        <ele>1867.1</ele>
        <time>2021-12-22T10:16:06Z</time>
      </trkpt>
      <trkpt lat="44.87886" lon="6.75803">
        <ele>1867.1</ele>
        <time>2021-12-22T10:16:07Z</time>
      </trkpt>
      <trkpt lat="44.87885" lon="6.75805">
        <ele>1867</ele>
        <time>2021-12-22T10:16:09Z</time>
      </trkpt>
      <trkpt lat="44.87885" lon="6.75807">
        <ele>1867</ele>
        <time>2021-12-22T10:16:10Z</time>
      </trkpt>
      <trkpt lat="44.87885" lon="6.75808">
        <ele>1866.9</ele>
        <time>2021-12-22T10:16:11Z</time>
      </trkpt>
      <trkpt lat="44.87885" lon="6.75809">
        <ele>1867</ele>
        <time>2021-12-22T10:16:12Z</time>
      </trkpt>
      <trkpt lat="44.87885" lon="6.75812">
        <ele>1866.8</ele>
        <time>2021-12-22T10:16:16Z</time>
      </trkpt>
      <trkpt lat="44.87885" lon="6.75815">
        <ele>1866.3</ele>
        <time>2021-12-22T10:16:17Z</time>
      </trkpt>
      <trkpt lat="44.87885" lon="6.75817">
        <ele>1866.2</ele>
        <time>2021-12-22T10:16:18Z</time>
      </trkpt>
      <trkpt lat="44.87885" lon="6.75818">
        <ele>1866.2</ele>
        <time>2021-12-22T10:16:19Z</time>
      </trkpt>
      <trkpt lat="44.87885" lon="6.7582">
        <ele>1866.2</ele>
        <time>2021-12-22T10:16:25Z</time>
      </trkpt>
      <trkpt lat="44.87884" lon="6.75826">
        <ele>1866.3</ele>
        <time>2021-12-22T10:16:26Z</time>
      </trkpt>
      <trkpt lat="44.87883" lon="6.75832">
        <ele>1866.1</ele>
        <time>2021-12-22T10:16:30Z</time>
      </trkpt>
      <trkpt lat="44.87883" lon="6.75833">
        <ele>1866.1</ele>
        <time>2021-12-22T10:16:31Z</time>
      </trkpt>
      <trkpt lat="44.87883" lon="6.75835">
        <ele>1866.2</ele>
        <time>2021-12-22T10:16:37Z</time>
      </trkpt>
      <trkpt lat="44.87883" lon="6.75842">
        <ele>1866.6</ele>
        <time>2021-12-22T10:16:38Z</time>
      </trkpt>
      <trkpt lat="44.87883" lon="6.75844">
        <ele>1866.8</ele>
        <time>2021-12-22T10:16:39Z</time>
      </trkpt>
      <trkpt lat="44.87883" lon="6.75846">
        <ele>1867.3</ele>
        <time>2021-12-22T10:16:40Z</time>
      </trkpt>
      <trkpt lat="44.87883" lon="6.75848">
        <ele>1867.5</ele>
        <time>2021-12-22T10:16:45Z</time>
      </trkpt>
      <trkpt lat="44.87883" lon="6.75854">
        <ele>1868.1</ele>
        <time>2021-12-22T10:16:46Z</time>
      </trkpt>
      <trkpt lat="44.87884" lon="6.75861">
        <ele>1868.6</ele>
        <time>2021-12-22T10:16:51Z</time>
      </trkpt>
      <trkpt lat="44.87886" lon="6.75868">
        <ele>1869.4</ele>
        <time>2021-12-22T10:16:56Z</time>
      </trkpt>
      <trkpt lat="44.87886" lon="6.75869">
        <ele>1869.4</ele>
        <time>2021-12-22T10:16:57Z</time>
      </trkpt>
      <trkpt lat="44.87886" lon="6.75872">
        <ele>1869.6</ele>
        <time>2021-12-22T10:17:01Z</time>
      </trkpt>
      <trkpt lat="44.87887" lon="6.75876">
        <ele>1869.9</ele>
        <time>2021-12-22T10:17:02Z</time>
      </trkpt>
      <trkpt lat="44.87888" lon="6.75877">
        <ele>1869.8</ele>
        <time>2021-12-22T10:17:03Z</time>
      </trkpt>
      <trkpt lat="44.87888" lon="6.75878">
        <ele>1869.8</ele>
        <time>2021-12-22T10:17:04Z</time>
      </trkpt>
      <trkpt lat="44.87888" lon="6.75879">
        <ele>1869.7</ele>
        <time>2021-12-22T10:17:05Z</time>
      </trkpt>
      <trkpt lat="44.87888" lon="6.75881">
        <ele>1869.6</ele>
        <time>2021-12-22T10:17:06Z</time>
      </trkpt>
      <trkpt lat="44.87887" lon="6.75883">
        <ele>1869.5</ele>
        <time>2021-12-22T10:17:11Z</time>
      </trkpt>
      <trkpt lat="44.87887" lon="6.75888">
        <ele>1869.3</ele>
        <time>2021-12-22T10:17:12Z</time>
      </trkpt>
      <trkpt lat="44.87886" lon="6.75889">
        <ele>1869.4</ele>
        <time>2021-12-22T10:17:13Z</time>
      </trkpt>
      <trkpt lat="44.87886" lon="6.7589">
        <ele>1869.3</ele>
        <time>2021-12-22T10:17:14Z</time>
      </trkpt>
      <trkpt lat="44.87886" lon="6.75893">
        <ele>1869.2</ele>
        <time>2021-12-22T10:17:28Z</time>
      </trkpt>
      <trkpt lat="44.87885" lon="6.75906">
        <ele>1870.3</ele>
        <time>2021-12-22T10:17:29Z</time>
      </trkpt>
      <trkpt lat="44.87884" lon="6.75913">
        <ele>1870.5</ele>
        <time>2021-12-22T10:17:34Z</time>
      </trkpt>
      <trkpt lat="44.87884" lon="6.75914">
        <ele>1870.5</ele>
        <time>2021-12-22T10:17:35Z</time>
      </trkpt>
      <trkpt lat="44.87884" lon="6.75915">
        <ele>1870.7</ele>
        <time>2021-12-22T10:17:36Z</time>
      </trkpt>
      <trkpt lat="44.87883" lon="6.75918">
        <ele>1871</ele>
        <time>2021-12-22T10:17:48Z</time>
      </trkpt>
      <trkpt lat="44.87883" lon="6.75931">
        <ele>1873.5</ele>
        <time>2021-12-22T10:17:49Z</time>
      </trkpt>
      <trkpt lat="44.87883" lon="6.75932">
        <ele>1873.6</ele>
        <time>2021-12-22T10:17:50Z</time>
      </trkpt>
      <trkpt lat="44.87884" lon="6.75934">
        <ele>1873.9</ele>
        <time>2021-12-22T10:18:05Z</time>
      </trkpt>
      <trkpt lat="44.87881" lon="6.75946">
        <ele>1875.6</ele>
        <time>2021-12-22T10:18:06Z</time>
      </trkpt>
      <trkpt lat="44.87881" lon="6.75947">
        <ele>1875.7</ele>
        <time>2021-12-22T10:18:07Z</time>
      </trkpt>
      <trkpt lat="44.87881" lon="6.7595">
        <ele>1875.9</ele>
        <time>2021-12-22T10:18:20Z</time>
      </trkpt>
      <trkpt lat="44.87881" lon="6.75963">
        <ele>1876.9</ele>
        <time>2021-12-22T10:18:21Z</time>
      </trkpt>
      <trkpt lat="44.87881" lon="6.75964">
        <ele>1877.1</ele>
        <time>2021-12-22T10:18:22Z</time>
      </trkpt>
      <trkpt lat="44.87882" lon="6.75966">
        <ele>1877.4</ele>
        <time>2021-12-22T10:18:36Z</time>
      </trkpt>
      <trkpt lat="44.87884" lon="6.75978">
        <ele>1879</ele>
        <time>2021-12-22T10:18:37Z</time>
      </trkpt>
      <trkpt lat="44.87884" lon="6.75979">
        <ele>1879.1</ele>
        <time>2021-12-22T10:18:38Z</time>
      </trkpt>
      <trkpt lat="44.87884" lon="6.7598">
        <ele>1879.2</ele>
        <time>2021-12-22T10:19:43Z</time>
      </trkpt>
      <trkpt lat="44.87886" lon="6.75987">
        <ele>1879.9</ele>
        <time>2021-12-22T10:19:44Z</time>
      </trkpt>
      <trkpt lat="44.87886" lon="6.75989">
        <ele>1879.8</ele>
        <time>2021-12-22T10:19:45Z</time>
      </trkpt>
      <trkpt lat="44.87887" lon="6.75991">
        <ele>1879.7</ele>
        <time>2021-12-22T10:19:58Z</time>
      </trkpt>
      <trkpt lat="44.87892" lon="6.76002">
        <ele>1880</ele>
        <time>2021-12-22T10:19:59Z</time>
      </trkpt>
      <trkpt lat="44.87892" lon="6.76003">
        <ele>1879.9</ele>
        <time>2021-12-22T10:20:00Z</time>
      </trkpt>
      <trkpt lat="44.87893" lon="6.76005">
        <ele>1879.9</ele>
        <time>2021-12-22T10:20:15Z</time>
      </trkpt>
      <trkpt lat="44.87899" lon="6.76016">
        <ele>1881.2</ele>
        <time>2021-12-22T10:20:16Z</time>
      </trkpt>
      <trkpt lat="44.87899" lon="6.76016">
        <ele>1881.3</ele>
        <time>2021-12-22T10:20:17Z</time>
      </trkpt>
      <trkpt lat="44.87899" lon="6.76017">
        <ele>1881.5</ele>
        <time>2021-12-22T10:20:45Z</time>
      </trkpt>
      <trkpt lat="44.87905" lon="6.76028">
        <ele>1880.9</ele>
        <time>2021-12-22T10:20:46Z</time>
      </trkpt>
      <trkpt lat="44.87905" lon="6.76029">
        <ele>1880.9</ele>
        <time>2021-12-22T10:20:47Z</time>
      </trkpt>
      <trkpt lat="44.87906" lon="6.76029">
        <ele>1880.9</ele>
        <time>2021-12-22T10:21:14Z</time>
      </trkpt>
      <trkpt lat="44.87904" lon="6.76043">
        <ele>1880.7</ele>
        <time>2021-12-22T10:21:15Z</time>
      </trkpt>
      <trkpt lat="44.87904" lon="6.76043">
        <ele>1880.7</ele>
        <time>2021-12-22T10:21:16Z</time>
      </trkpt>
      <trkpt lat="44.87904" lon="6.76045">
        <ele>1880.7</ele>
        <time>2021-12-22T10:21:35Z</time>
      </trkpt>
      <trkpt lat="44.87902" lon="6.76057">
        <ele>1879.8</ele>
        <time>2021-12-22T10:21:36Z</time>
      </trkpt>
      <trkpt lat="44.87902" lon="6.76058">
        <ele>1879.7</ele>
        <time>2021-12-22T10:21:37Z</time>
      </trkpt>
      <trkpt lat="44.87902" lon="6.7606">
        <ele>1879.5</ele>
        <time>2021-12-22T10:21:51Z</time>
      </trkpt>
      <trkpt lat="44.87899" lon="6.76073">
        <ele>1878.6</ele>
        <time>2021-12-22T10:21:52Z</time>
      </trkpt>
      <trkpt lat="44.87899" lon="6.76074">
        <ele>1878.5</ele>
        <time>2021-12-22T10:21:53Z</time>
      </trkpt>
      <trkpt lat="44.87899" lon="6.76076">
        <ele>1878.4</ele>
        <time>2021-12-22T10:21:57Z</time>
      </trkpt>
      <trkpt lat="44.87899" lon="6.76079">
        <ele>1877.5</ele>
        <time>2021-12-22T10:21:58Z</time>
      </trkpt>
      <trkpt lat="44.87899" lon="6.76081">
        <ele>1876.7</ele>
        <time>2021-12-22T10:22:00Z</time>
      </trkpt>
      <trkpt lat="44.87899" lon="6.76082">
        <ele>1876.4</ele>
        <time>2021-12-22T10:22:01Z</time>
      </trkpt>
      <trkpt lat="44.87898" lon="6.76084">
        <ele>1876</ele>
        <time>2021-12-22T10:22:53Z</time>
      </trkpt>
      <trkpt lat="44.87899" lon="6.76097">
        <ele>1873.8</ele>
        <time>2021-12-22T10:22:54Z</time>
      </trkpt>
      <trkpt lat="44.87899" lon="6.76098">
        <ele>1873.7</ele>
        <time>2021-12-22T10:22:55Z</time>
      </trkpt>
      <trkpt lat="44.87899" lon="6.761">
        <ele>1873.5</ele>
        <time>2021-12-22T10:23:10Z</time>
      </trkpt>
      <trkpt lat="44.87898" lon="6.76114">
        <ele>1872</ele>
        <time>2021-12-22T10:23:11Z</time>
      </trkpt>
      <trkpt lat="44.87898" lon="6.76115">
        <ele>1871.9</ele>
        <time>2021-12-22T10:23:12Z</time>
      </trkpt>
      <trkpt lat="44.87897" lon="6.76116">
        <ele>1871.7</ele>
        <time>2021-12-22T10:23:40Z</time>
      </trkpt>
      <trkpt lat="44.87897" lon="6.76129">
        <ele>1870.5</ele>
        <time>2021-12-22T10:23:41Z</time>
      </trkpt>
      <trkpt lat="44.87897" lon="6.7613">
        <ele>1870.5</ele>
        <time>2021-12-22T10:23:42Z</time>
      </trkpt>
      <trkpt lat="44.87897" lon="6.76132">
        <ele>1870.4</ele>
        <time>2021-12-22T10:23:57Z</time>
      </trkpt>
      <trkpt lat="44.87898" lon="6.76145">
        <ele>1869.5</ele>
        <time>2021-12-22T10:23:58Z</time>
      </trkpt>
      <trkpt lat="44.87898" lon="6.76146">
        <ele>1869.4</ele>
        <time>2021-12-22T10:23:59Z</time>
      </trkpt>
      <trkpt lat="44.87898" lon="6.76146">
        <ele>1869.3</ele>
        <time>2021-12-22T10:25:39Z</time>
      </trkpt>
      <trkpt lat="44.879" lon="6.76159">
        <ele>1870.6</ele>
        <time>2021-12-22T10:25:40Z</time>
      </trkpt>
      <trkpt lat="44.87899" lon="6.76161">
        <ele>1870.5</ele>
        <time>2021-12-22T10:25:42Z</time>
      </trkpt>
      <trkpt lat="44.87899" lon="6.76162">
        <ele>1870.6</ele>
        <time>2021-12-22T10:25:43Z</time>
      </trkpt>
      <trkpt lat="44.87899" lon="6.76164">
        <ele>1870.7</ele>
        <time>2021-12-22T10:25:59Z</time>
      </trkpt>
      <trkpt lat="44.87898" lon="6.76177">
        <ele>1871.3</ele>
        <time>2021-12-22T10:26:00Z</time>
      </trkpt>
      <trkpt lat="44.87898" lon="6.76177">
        <ele>1871.3</ele>
        <time>2021-12-22T10:26:01Z</time>
      </trkpt>
      <trkpt lat="44.87898" lon="6.76178">
        <ele>1871.3</ele>
        <time>2021-12-22T10:26:24Z</time>
      </trkpt>
      <trkpt lat="44.87895" lon="6.76191">
        <ele>1869.9</ele>
        <time>2021-12-22T10:26:25Z</time>
      </trkpt>
      <trkpt lat="44.87894" lon="6.76191">
        <ele>1869.7</ele>
        <time>2021-12-22T10:26:26Z</time>
      </trkpt>
      <trkpt lat="44.87894" lon="6.76193">
        <ele>1869.4</ele>
        <time>2021-12-22T10:26:44Z</time>
      </trkpt>
      <trkpt lat="44.87892" lon="6.76206">
        <ele>1868.2</ele>
        <time>2021-12-22T10:26:45Z</time>
      </trkpt>
      <trkpt lat="44.87892" lon="6.76208">
        <ele>1868.3</ele>
        <time>2021-12-22T10:26:46Z</time>
      </trkpt>
      <trkpt lat="44.87892" lon="6.7621">
        <ele>1868.4</ele>
        <time>2021-12-22T10:26:59Z</time>
      </trkpt>
      <trkpt lat="44.87891" lon="6.76223">
        <ele>1868</ele>
        <time>2021-12-22T10:27:00Z</time>
      </trkpt>
      <trkpt lat="44.87891" lon="6.76224">
        <ele>1868</ele>
        <time>2021-12-22T10:27:01Z</time>
      </trkpt>
      <trkpt lat="44.87891" lon="6.76226">
        <ele>1868.1</ele>
        <time>2021-12-22T10:27:22Z</time>
      </trkpt>
      <trkpt lat="44.8789" lon="6.76239">
        <ele>1868.6</ele>
        <time>2021-12-22T10:27:23Z</time>
      </trkpt>
      <trkpt lat="44.8789" lon="6.7624">
        <ele>1868.7</ele>
        <time>2021-12-22T10:27:24Z</time>
      </trkpt>
      <trkpt lat="44.8789" lon="6.76241">
        <ele>1868.6</ele>
        <time>2021-12-22T10:27:41Z</time>
      </trkpt>
      <trkpt lat="44.87888" lon="6.76254">
        <ele>1871.5</ele>
        <time>2021-12-22T10:27:42Z</time>
      </trkpt>
      <trkpt lat="44.87888" lon="6.76255">
        <ele>1871.7</ele>
        <time>2021-12-22T10:27:43Z</time>
      </trkpt>
      <trkpt lat="44.87888" lon="6.76257">
        <ele>1871.9</ele>
        <time>2021-12-22T10:28:00Z</time>
      </trkpt>
      <trkpt lat="44.87886" lon="6.7627">
        <ele>1875.7</ele>
        <time>2021-12-22T10:28:01Z</time>
      </trkpt>
      <trkpt lat="44.87886" lon="6.76271">
        <ele>1875.9</ele>
        <time>2021-12-22T10:28:02Z</time>
      </trkpt>
      <trkpt lat="44.87886" lon="6.76272">
        <ele>1876.1</ele>
        <time>2021-12-22T10:28:19Z</time>
      </trkpt>
      <trkpt lat="44.87881" lon="6.76282">
        <ele>1877.9</ele>
        <time>2021-12-22T10:28:20Z</time>
      </trkpt>
      <trkpt lat="44.8788" lon="6.76283">
        <ele>1877.9</ele>
        <time>2021-12-22T10:28:21Z</time>
      </trkpt>
      <trkpt lat="44.8788" lon="6.76284">
        <ele>1878</ele>
        <time>2021-12-22T10:28:34Z</time>
      </trkpt>
      <trkpt lat="44.87879" lon="6.76296">
        <ele>1878.3</ele>
        <time>2021-12-22T10:28:35Z</time>
      </trkpt>
      <trkpt lat="44.87879" lon="6.76297">
        <ele>1878.2</ele>
        <time>2021-12-22T10:28:36Z</time>
      </trkpt>
      <trkpt lat="44.87878" lon="6.76298">
        <ele>1878.1</ele>
        <time>2021-12-22T10:28:52Z</time>
      </trkpt>
      <trkpt lat="44.87876" lon="6.76311">
        <ele>1877.3</ele>
        <time>2021-12-22T10:28:53Z</time>
      </trkpt>
      <trkpt lat="44.87875" lon="6.76312">
        <ele>1876.6</ele>
        <time>2021-12-22T10:28:54Z</time>
      </trkpt>
      <trkpt lat="44.87874" lon="6.76313">
        <ele>1875.4</ele>
        <time>2021-12-22T10:29:00Z</time>
      </trkpt>
      <trkpt lat="44.87874" lon="6.76319">
        <ele>1874.6</ele>
        <time>2021-12-22T10:29:01Z</time>
      </trkpt>
      <trkpt lat="44.87873" lon="6.76326">
        <ele>1875.3</ele>
        <time>2021-12-22T10:29:06Z</time>
      </trkpt>
      <trkpt lat="44.87872" lon="6.7633">
        <ele>1875.5</ele>
        <time>2021-12-22T10:29:11Z</time>
      </trkpt>
      <trkpt lat="44.87872" lon="6.76331">
        <ele>1875.6</ele>
        <time>2021-12-22T10:29:12Z</time>
      </trkpt>
      <trkpt lat="44.87871" lon="6.76333">
        <ele>1875.2</ele>
        <time>2021-12-22T10:29:18Z</time>
      </trkpt>
      <trkpt lat="44.8787" lon="6.76337">
        <ele>1874.7</ele>
        <time>2021-12-22T10:29:19Z</time>
      </trkpt>
      <trkpt lat="44.8787" lon="6.76338">
        <ele>1874.7</ele>
        <time>2021-12-22T10:29:20Z</time>
      </trkpt>
      <trkpt lat="44.8787" lon="6.76339">
        <ele>1874.8</ele>
        <time>2021-12-22T10:29:21Z</time>
      </trkpt>
      <trkpt lat="44.87869" lon="6.7634">
        <ele>1874.9</ele>
        <time>2021-12-22T10:30:16Z</time>
      </trkpt>
      <trkpt lat="44.87866" lon="6.76348">
        <ele>1877.6</ele>
        <time>2021-12-22T10:30:17Z</time>
      </trkpt>
      <trkpt lat="44.87865" lon="6.7635">
        <ele>1877.8</ele>
        <time>2021-12-22T10:30:19Z</time>
      </trkpt>
      <trkpt lat="44.87865" lon="6.7635">
        <ele>1877.9</ele>
        <time>2021-12-22T10:30:20Z</time>
      </trkpt>
      <trkpt lat="44.87864" lon="6.76352">
        <ele>1877.8</ele>
        <time>2021-12-22T10:30:39Z</time>
      </trkpt>
      <trkpt lat="44.8786" lon="6.76364">
        <ele>1878.3</ele>
        <time>2021-12-22T10:30:40Z</time>
      </trkpt>
      <trkpt lat="44.8786" lon="6.76364">
        <ele>1878.4</ele>
        <time>2021-12-22T10:30:41Z</time>
      </trkpt>
      <trkpt lat="44.8786" lon="6.76366">
        <ele>1878.6</ele>
        <time>2021-12-22T10:30:57Z</time>
      </trkpt>
      <trkpt lat="44.87859" lon="6.7638">
        <ele>1879.5</ele>
        <time>2021-12-22T10:30:58Z</time>
      </trkpt>
      <trkpt lat="44.87859" lon="6.7638">
        <ele>1879.5</ele>
        <time>2021-12-22T10:30:59Z</time>
      </trkpt>
      <trkpt lat="44.87859" lon="6.76382">
        <ele>1879.6</ele>
        <time>2021-12-22T10:31:15Z</time>
      </trkpt>
      <trkpt lat="44.8786" lon="6.76395">
        <ele>1880.4</ele>
        <time>2021-12-22T10:31:16Z</time>
      </trkpt>
      <trkpt lat="44.8786" lon="6.76396">
        <ele>1880.5</ele>
        <time>2021-12-22T10:31:17Z</time>
      </trkpt>
      <trkpt lat="44.87861" lon="6.76398">
        <ele>1880.7</ele>
        <time>2021-12-22T10:31:31Z</time>
      </trkpt>
      <trkpt lat="44.87864" lon="6.76411">
        <ele>1881.5</ele>
        <time>2021-12-22T10:31:32Z</time>
      </trkpt>
      <trkpt lat="44.87864" lon="6.76412">
        <ele>1881.3</ele>
        <time>2021-12-22T10:31:33Z</time>
      </trkpt>
      <trkpt lat="44.87864" lon="6.76415">
        <ele>1881</ele>
        <time>2021-12-22T10:31:52Z</time>
      </trkpt>
      <trkpt lat="44.87867" lon="6.76427">
        <ele>1879.5</ele>
        <time>2021-12-22T10:31:53Z</time>
      </trkpt>
      <trkpt lat="44.87867" lon="6.76428">
        <ele>1879.5</ele>
        <time>2021-12-22T10:31:54Z</time>
      </trkpt>
      <trkpt lat="44.87868" lon="6.7643">
        <ele>1879.6</ele>
        <time>2021-12-22T10:32:14Z</time>
      </trkpt>
      <trkpt lat="44.87873" lon="6.76441">
        <ele>1881.7</ele>
        <time>2021-12-22T10:32:15Z</time>
      </trkpt>
      <trkpt lat="44.87873" lon="6.76442">
        <ele>1881.8</ele>
        <time>2021-12-22T10:32:16Z</time>
      </trkpt>
      <trkpt lat="44.87873" lon="6.76443">
        <ele>1881.9</ele>
        <time>2021-12-22T10:32:35Z</time>
      </trkpt>
      <trkpt lat="44.87879" lon="6.76454">
        <ele>1883.7</ele>
        <time>2021-12-22T10:32:36Z</time>
      </trkpt>
      <trkpt lat="44.87879" lon="6.76454">
        <ele>1883.8</ele>
        <time>2021-12-22T10:32:37Z</time>
      </trkpt>
      <trkpt lat="44.87879" lon="6.76455">
        <ele>1884</ele>
        <time>2021-12-22T10:33:13Z</time>
      </trkpt>
      <trkpt lat="44.8787" lon="6.76458">
        <ele>1888.1</ele>
        <time>2021-12-22T10:33:14Z</time>
      </trkpt>
      <trkpt lat="44.8787" lon="6.76458">
        <ele>1888.3</ele>
        <time>2021-12-22T10:33:15Z</time>
      </trkpt>
      <trkpt lat="44.87869" lon="6.76459">
        <ele>1888.6</ele>
        <time>2021-12-22T10:33:37Z</time>
      </trkpt>
      <trkpt lat="44.87863" lon="6.76468">
        <ele>1890.8</ele>
        <time>2021-12-22T10:33:38Z</time>
      </trkpt>
      <trkpt lat="44.87862" lon="6.76469">
        <ele>1890.7</ele>
        <time>2021-12-22T10:33:39Z</time>
      </trkpt>
      <trkpt lat="44.87862" lon="6.7647">
        <ele>1890.5</ele>
        <time>2021-12-22T10:34:05Z</time>
      </trkpt>
      <trkpt lat="44.87856" lon="6.7648">
        <ele>1889.9</ele>
        <time>2021-12-22T10:34:06Z</time>
      </trkpt>
      <trkpt lat="44.87855" lon="6.76481">
        <ele>1889.9</ele>
        <time>2021-12-22T10:34:07Z</time>
      </trkpt>
      <trkpt lat="44.87855" lon="6.76482">
        <ele>1889.9</ele>
        <time>2021-12-22T10:34:27Z</time>
      </trkpt>
      <trkpt lat="44.87853" lon="6.76495">
        <ele>1891.9</ele>
        <time>2021-12-22T10:34:28Z</time>
      </trkpt>
      <trkpt lat="44.87853" lon="6.76495">
        <ele>1892.1</ele>
        <time>2021-12-22T10:34:29Z</time>
      </trkpt>
      <trkpt lat="44.87852" lon="6.76496">
        <ele>1892.3</ele>
        <time>2021-12-22T10:34:51Z</time>
      </trkpt>
      <trkpt lat="44.87847" lon="6.76507">
        <ele>1894</ele>
        <time>2021-12-22T10:34:52Z</time>
      </trkpt>
      <trkpt lat="44.87847" lon="6.76508">
        <ele>1893.8</ele>
        <time>2021-12-22T10:34:53Z</time>
      </trkpt>
      <trkpt lat="44.87846" lon="6.76509">
        <ele>1893.7</ele>
        <time>2021-12-22T10:35:12Z</time>
      </trkpt>
      <trkpt lat="44.87843" lon="6.76521">
        <ele>1893.1</ele>
        <time>2021-12-22T10:35:13Z</time>
      </trkpt>
      <trkpt lat="44.87843" lon="6.76522">
        <ele>1893.1</ele>
        <time>2021-12-22T10:35:14Z</time>
      </trkpt>
      <trkpt lat="44.87842" lon="6.76523">
        <ele>1893.1</ele>
        <time>2021-12-22T10:35:34Z</time>
      </trkpt>
      <trkpt lat="44.87841" lon="6.76536">
        <ele>1895.1</ele>
        <time>2021-12-22T10:35:35Z</time>
      </trkpt>
      <trkpt lat="44.87841" lon="6.76537">
        <ele>1895.2</ele>
        <time>2021-12-22T10:35:36Z</time>
      </trkpt>
      <trkpt lat="44.87841" lon="6.76539">
        <ele>1895.4</ele>
        <time>2021-12-22T10:35:55Z</time>
      </trkpt>
      <trkpt lat="44.87842" lon="6.76551">
        <ele>1899.6</ele>
        <time>2021-12-22T10:35:56Z</time>
      </trkpt>
      <trkpt lat="44.87842" lon="6.76552">
        <ele>1899.7</ele>
        <time>2021-12-22T10:35:57Z</time>
      </trkpt>
      <trkpt lat="44.87842" lon="6.76553">
        <ele>1900</ele>
        <time>2021-12-22T10:36:18Z</time>
      </trkpt>
      <trkpt lat="44.87842" lon="6.76566">
        <ele>1903.5</ele>
        <time>2021-12-22T10:36:19Z</time>
      </trkpt>
      <trkpt lat="44.87842" lon="6.76567">
        <ele>1903.7</ele>
        <time>2021-12-22T10:36:20Z</time>
      </trkpt>
      <trkpt lat="44.87842" lon="6.76569">
        <ele>1904.3</ele>
        <time>2021-12-22T10:36:38Z</time>
      </trkpt>
      <trkpt lat="44.87839" lon="6.76582">
        <ele>1907.5</ele>
        <time>2021-12-22T10:36:39Z</time>
      </trkpt>
      <trkpt lat="44.87839" lon="6.76582">
        <ele>1907.6</ele>
        <time>2021-12-22T10:36:40Z</time>
      </trkpt>
      <trkpt lat="44.87839" lon="6.76583">
        <ele>1907.9</ele>
        <time>2021-12-22T10:36:59Z</time>
      </trkpt>
      <trkpt lat="44.87833" lon="6.76594">
        <ele>1909.7</ele>
        <time>2021-12-22T10:37:00Z</time>
      </trkpt>
      <trkpt lat="44.87832" lon="6.76594">
        <ele>1909.7</ele>
        <time>2021-12-22T10:37:01Z</time>
      </trkpt>
      <trkpt lat="44.87832" lon="6.76595">
        <ele>1909.8</ele>
        <time>2021-12-22T10:38:59Z</time>
      </trkpt>
      <trkpt lat="44.87823" lon="6.76602">
        <ele>1908.3</ele>
        <time>2021-12-22T10:39:00Z</time>
      </trkpt>
      <trkpt lat="44.87823" lon="6.76603">
        <ele>1908.1</ele>
        <time>2021-12-22T10:39:01Z</time>
      </trkpt>
      <trkpt lat="44.87822" lon="6.76604">
        <ele>1908</ele>
        <time>2021-12-22T10:39:07Z</time>
      </trkpt>
      <trkpt lat="44.87821" lon="6.7661">
        <ele>1907.4</ele>
        <time>2021-12-22T10:39:08Z</time>
      </trkpt>
      <trkpt lat="44.8782" lon="6.76614">
        <ele>1906.5</ele>
        <time>2021-12-22T10:39:11Z</time>
      </trkpt>
      <trkpt lat="44.8782" lon="6.76615">
        <ele>1906.2</ele>
        <time>2021-12-22T10:39:12Z</time>
      </trkpt>
      <trkpt lat="44.8782" lon="6.76617">
        <ele>1906</ele>
        <time>2021-12-22T10:39:14Z</time>
      </trkpt>
      <trkpt lat="44.87819" lon="6.76618">
        <ele>1905.7</ele>
        <time>2021-12-22T10:39:15Z</time>
      </trkpt>
      <trkpt lat="44.87819" lon="6.76619">
        <ele>1905.5</ele>
        <time>2021-12-22T10:39:16Z</time>
      </trkpt>
      <trkpt lat="44.87819" lon="6.76621">
        <ele>1905.5</ele>
        <time>2021-12-22T10:39:30Z</time>
      </trkpt>
      <trkpt lat="44.87819" lon="6.76634">
        <ele>1905.5</ele>
        <time>2021-12-22T10:39:31Z</time>
      </trkpt>
      <trkpt lat="44.87819" lon="6.76635">
        <ele>1905.5</ele>
        <time>2021-12-22T10:39:32Z</time>
      </trkpt>
      <trkpt lat="44.87819" lon="6.76637">
        <ele>1905.6</ele>
        <time>2021-12-22T10:40:06Z</time>
      </trkpt>
      <trkpt lat="44.8782" lon="6.7665">
        <ele>1905.3</ele>
        <time>2021-12-22T10:40:07Z</time>
      </trkpt>
      <trkpt lat="44.8782" lon="6.76651">
        <ele>1905.4</ele>
        <time>2021-12-22T10:40:08Z</time>
      </trkpt>
      <trkpt lat="44.8782" lon="6.76652">
        <ele>1905.5</ele>
        <time>2021-12-22T10:40:24Z</time>
      </trkpt>
      <trkpt lat="44.8782" lon="6.76666">
        <ele>1906.2</ele>
        <time>2021-12-22T10:40:25Z</time>
      </trkpt>
      <trkpt lat="44.87817" lon="6.76672">
        <ele>1905.5</ele>
        <time>2021-12-22T10:40:29Z</time>
      </trkpt>
      <trkpt lat="44.87817" lon="6.76673">
        <ele>1905.3</ele>
        <time>2021-12-22T10:40:30Z</time>
      </trkpt>
      <trkpt lat="44.87816" lon="6.76675">
        <ele>1905.2</ele>
        <time>2021-12-22T10:40:42Z</time>
      </trkpt>
      <trkpt lat="44.87809" lon="6.76683">
        <ele>1904.3</ele>
        <time>2021-12-22T10:40:43Z</time>
      </trkpt>
      <trkpt lat="44.87809" lon="6.76684">
        <ele>1904.3</ele>
        <time>2021-12-22T10:40:44Z</time>
      </trkpt>
      <trkpt lat="44.87807" lon="6.76685">
        <ele>1904.1</ele>
        <time>2021-12-22T10:41:01Z</time>
      </trkpt>
      <trkpt lat="44.87802" lon="6.76695">
        <ele>1903.5</ele>
        <time>2021-12-22T10:41:02Z</time>
      </trkpt>
      <trkpt lat="44.87802" lon="6.76696">
        <ele>1903.5</ele>
        <time>2021-12-22T10:41:03Z</time>
      </trkpt>
      <trkpt lat="44.87801" lon="6.76697">
        <ele>1903.4</ele>
        <time>2021-12-22T10:41:19Z</time>
      </trkpt>
      <trkpt lat="44.87796" lon="6.76709">
        <ele>1903.4</ele>
        <time>2021-12-22T10:41:20Z</time>
      </trkpt>
      <trkpt lat="44.87796" lon="6.76709">
        <ele>1903.5</ele>
        <time>2021-12-22T10:41:21Z</time>
      </trkpt>
      <trkpt lat="44.87796" lon="6.7671">
        <ele>1903.6</ele>
        <time>2021-12-22T10:44:38Z</time>
      </trkpt>
      <trkpt lat="44.87806" lon="6.76711">
        <ele>1904.5</ele>
        <time>2021-12-22T10:44:39Z</time>
      </trkpt>
      <trkpt lat="44.87806" lon="6.76711">
        <ele>1904.5</ele>
        <time>2021-12-22T10:44:40Z</time>
      </trkpt>
      <trkpt lat="44.87819" lon="6.76703">
        <ele>1904.8</ele>
        <time>2021-12-22T10:44:53Z</time>
      </trkpt>
      <trkpt lat="44.87824" lon="6.76699">
        <ele>1904.8</ele>
        <time>2021-12-22T10:44:55Z</time>
      </trkpt>
      <trkpt lat="44.87827" lon="6.76703">
        <ele>1904.8</ele>
        <time>2021-12-22T10:44:56Z</time>
      </trkpt>
      <trkpt lat="44.87827" lon="6.76704">
        <ele>1904.8</ele>
        <time>2021-12-22T10:44:57Z</time>
      </trkpt>
      <trkpt lat="44.8782" lon="6.76708">
        <ele>1905.7</ele>
        <time>2021-12-22T10:45:39Z</time>
      </trkpt>
      <trkpt lat="44.87818" lon="6.76707">
        <ele>1905.7</ele>
        <time>2021-12-22T10:46:24Z</time>
      </trkpt>
      <trkpt lat="44.87823" lon="6.76718">
        <ele>1906.5</ele>
        <time>2021-12-22T10:46:25Z</time>
      </trkpt>
      <trkpt lat="44.87823" lon="6.76719">
        <ele>1906.5</ele>
        <time>2021-12-22T10:46:26Z</time>
      </trkpt>
      <trkpt lat="44.87824" lon="6.76723">
        <ele>1906.7</ele>
        <time>2021-12-22T10:47:05Z</time>
      </trkpt>
      <trkpt lat="44.87813" lon="6.76721">
        <ele>1906.5</ele>
        <time>2021-12-22T10:47:06Z</time>
      </trkpt>
      <trkpt lat="44.87812" lon="6.76721">
        <ele>1906.5</ele>
        <time>2021-12-22T10:47:07Z</time>
      </trkpt>
      <trkpt lat="44.87811" lon="6.7672">
        <ele>1906.6</ele>
        <time>2021-12-22T10:48:00Z</time>
      </trkpt>
      <trkpt lat="44.87825" lon="6.76725">
        <ele>1906.4</ele>
        <time>2021-12-22T10:48:01Z</time>
      </trkpt>
      <trkpt lat="44.8783" lon="6.76721">
        <ele>1906.3</ele>
        <time>2021-12-22T10:48:02Z</time>
      </trkpt>
      <trkpt lat="44.8783" lon="6.76723">
        <ele>1906.2</ele>
        <time>2021-12-22T10:48:03Z</time>
      </trkpt>
      <trkpt lat="44.87829" lon="6.76723">
        <ele>1906.1</ele>
        <time>2021-12-22T10:48:04Z</time>
      </trkpt>
      <trkpt lat="44.8783" lon="6.76721">
        <ele>1905.4</ele>
        <time>2021-12-22T10:48:26Z</time>
      </trkpt>
      <trkpt lat="44.87822" lon="6.76714">
        <ele>1903.2</ele>
        <time>2021-12-22T10:48:27Z</time>
      </trkpt>
      <trkpt lat="44.87821" lon="6.76714">
        <ele>1903.1</ele>
        <time>2021-12-22T10:48:28Z</time>
      </trkpt>
      <trkpt lat="44.87819" lon="6.76714">
        <ele>1903.1</ele>
        <time>2021-12-22T10:48:44Z</time>
      </trkpt>
      <trkpt lat="44.8781" lon="6.76715">
        <ele>1903.3</ele>
        <time>2021-12-22T10:48:45Z</time>
      </trkpt>
      <trkpt lat="44.8781" lon="6.76715">
        <ele>1903.3</ele>
        <time>2021-12-22T10:48:46Z</time>
      </trkpt>
      <trkpt lat="44.87812" lon="6.76715">
        <ele>1903.9</ele>
        <time>2021-12-22T10:49:01Z</time>
      </trkpt>
      <trkpt lat="44.87821" lon="6.76716">
        <ele>1906.6</ele>
        <time>2021-12-22T10:49:02Z</time>
      </trkpt>
      <trkpt lat="44.87823" lon="6.76715">
        <ele>1906.8</ele>
        <time>2021-12-22T10:49:03Z</time>
      </trkpt>
      <trkpt lat="44.87825" lon="6.76715">
        <ele>1907.2</ele>
        <time>2021-12-22T10:49:14Z</time>
      </trkpt>
      <trkpt lat="44.87835" lon="6.76718">
        <ele>1909.1</ele>
        <time>2021-12-22T10:49:15Z</time>
      </trkpt>
      <trkpt lat="44.87836" lon="6.76718">
        <ele>1909.2</ele>
        <time>2021-12-22T10:49:16Z</time>
      </trkpt>
      <trkpt lat="44.87836" lon="6.76717">
        <ele>1909.1</ele>
        <time>2021-12-22T10:49:37Z</time>
      </trkpt>
      <trkpt lat="44.87827" lon="6.76715">
        <ele>1908.9</ele>
        <time>2021-12-22T10:49:38Z</time>
      </trkpt>
      <trkpt lat="44.87826" lon="6.76714">
        <ele>1909</ele>
        <time>2021-12-22T10:49:39Z</time>
      </trkpt>
      <trkpt lat="44.87825" lon="6.76714">
        <ele>1909.1</ele>
        <time>2021-12-22T10:49:48Z</time>
      </trkpt>
      <trkpt lat="44.87815" lon="6.76713">
        <ele>1909.3</ele>
        <time>2021-12-22T10:49:49Z</time>
      </trkpt>
      <trkpt lat="44.87813" lon="6.76713">
        <ele>1909.3</ele>
        <time>2021-12-22T10:49:50Z</time>
      </trkpt>
      <trkpt lat="44.87812" lon="6.76712">
        <ele>1909.4</ele>
        <time>2021-12-22T10:50:03Z</time>
      </trkpt>
      <trkpt lat="44.87803" lon="6.76714">
        <ele>1909.4</ele>
        <time>2021-12-22T10:50:04Z</time>
      </trkpt>
      <trkpt lat="44.87803" lon="6.76715">
        <ele>1909.3</ele>
        <time>2021-12-22T10:50:05Z</time>
      </trkpt>
      <trkpt lat="44.87803" lon="6.76715">
        <ele>1909.2</ele>
        <time>2021-12-22T10:50:55Z</time>
      </trkpt>
      <trkpt lat="44.8781" lon="6.76721">
        <ele>1907.6</ele>
        <time>2021-12-22T10:50:56Z</time>
      </trkpt>
      <trkpt lat="44.87811" lon="6.76722">
        <ele>1907.4</ele>
        <time>2021-12-22T10:50:57Z</time>
      </trkpt>
      <trkpt lat="44.87812" lon="6.76722">
        <ele>1907</ele>
        <time>2021-12-22T10:51:09Z</time>
      </trkpt>
      <trkpt lat="44.87821" lon="6.76726">
        <ele>1904.5</ele>
        <time>2021-12-22T10:51:10Z</time>
      </trkpt>
      <trkpt lat="44.87822" lon="6.76726">
        <ele>1904.4</ele>
        <time>2021-12-22T10:51:11Z</time>
      </trkpt>
      <trkpt lat="44.87824" lon="6.76728">
        <ele>1903.9</ele>
        <time>2021-12-22T10:51:20Z</time>
      </trkpt>
      <trkpt lat="44.87834" lon="6.76731">
        <ele>1901.8</ele>
        <time>2021-12-22T10:51:21Z</time>
      </trkpt>
      <trkpt lat="44.87836" lon="6.76732">
        <ele>1901.4</ele>
        <time>2021-12-22T10:51:22Z</time>
      </trkpt>
      <trkpt lat="44.87841" lon="6.76734">
        <ele>1900.7</ele>
        <time>2021-12-22T10:51:24Z</time>
      </trkpt>
      <trkpt lat="44.87841" lon="6.76734">
        <ele>1900.7</ele>
        <time>2021-12-22T10:51:50Z</time>
      </trkpt>
      <trkpt lat="44.87832" lon="6.76731">
        <ele>1900.1</ele>
        <time>2021-12-22T10:51:51Z</time>
      </trkpt>
      <trkpt lat="44.87832" lon="6.76731">
        <ele>1900.1</ele>
        <time>2021-12-22T10:51:52Z</time>
      </trkpt>
      <trkpt lat="44.8784" lon="6.76725">
        <ele>1899.4</ele>
        <time>2021-12-22T10:51:59Z</time>
      </trkpt>
      <trkpt lat="44.87847" lon="6.76722">
        <ele>1899.2</ele>
        <time>2021-12-22T10:52:00Z</time>
      </trkpt>
      <trkpt lat="44.87858" lon="6.7672">
        <ele>1898.9</ele>
        <time>2021-12-22T10:52:01Z</time>
      </trkpt>
      <trkpt lat="44.87873" lon="6.76719">
        <ele>1898.7</ele>
        <time>2021-12-22T10:52:02Z</time>
      </trkpt>
      <trkpt lat="44.87885" lon="6.76715">
        <ele>1898.3</ele>
        <time>2021-12-22T10:52:03Z</time>
      </trkpt>
      <trkpt lat="44.87895" lon="6.76707">
        <ele>1897.9</ele>
        <time>2021-12-22T10:52:04Z</time>
      </trkpt>
      <trkpt lat="44.87902" lon="6.76706">
        <ele>1897.2</ele>
        <time>2021-12-22T10:52:06Z</time>
      </trkpt>
      <trkpt lat="44.87907" lon="6.76707">
        <ele>1897</ele>
        <time>2021-12-22T10:52:07Z</time>
      </trkpt>
      <trkpt lat="44.87901" lon="6.76704">
        <ele>1896</ele>
        <time>2021-12-22T10:52:13Z</time>
      </trkpt>
      <trkpt lat="44.87895" lon="6.76705">
        <ele>1895.8</ele>
        <time>2021-12-22T10:52:15Z</time>
      </trkpt>
      <trkpt lat="44.87889" lon="6.76706">
        <ele>1895.7</ele>
        <time>2021-12-22T10:52:17Z</time>
      </trkpt>
      <trkpt lat="44.87883" lon="6.76708">
        <ele>1895.5</ele>
        <time>2021-12-22T10:52:19Z</time>
      </trkpt>
      <trkpt lat="44.87869" lon="6.76707">
        <ele>1895.6</ele>
        <time>2021-12-22T10:52:20Z</time>
      </trkpt>
      <trkpt lat="44.87859" lon="6.76706">
        <ele>1895.7</ele>
        <time>2021-12-22T10:52:21Z</time>
      </trkpt>
      <trkpt lat="44.87854" lon="6.76707">
        <ele>1895.7</ele>
        <time>2021-12-22T10:52:22Z</time>
      </trkpt>
      <trkpt lat="44.87844" lon="6.76711">
        <ele>1895.9</ele>
        <time>2021-12-22T10:52:23Z</time>
      </trkpt>
      <trkpt lat="44.87844" lon="6.76711">
        <ele>1895.9</ele>
        <time>2021-12-22T10:52:24Z</time>
      </trkpt>
      <trkpt lat="44.87828" lon="6.7671">
        <ele>1896.2</ele>
        <time>2021-12-22T10:52:25Z</time>
      </trkpt>
      <trkpt lat="44.87823" lon="6.76711">
        <ele>1896.3</ele>
        <time>2021-12-22T10:52:26Z</time>
      </trkpt>
      <trkpt lat="44.87814" lon="6.76712">
        <ele>1896.6</ele>
        <time>2021-12-22T10:52:28Z</time>
      </trkpt>
      <trkpt lat="44.87808" lon="6.76713">
        <ele>1896.7</ele>
        <time>2021-12-22T10:52:29Z</time>
      </trkpt>
      <trkpt lat="44.87806" lon="6.76713">
        <ele>1896.8</ele>
        <time>2021-12-22T10:52:30Z</time>
      </trkpt>
      <trkpt lat="44.87805" lon="6.76713">
        <ele>1896.9</ele>
        <time>2021-12-22T10:53:02Z</time>
      </trkpt>
      <trkpt lat="44.87807" lon="6.76721">
        <ele>1898.5</ele>
        <time>2021-12-22T10:53:03Z</time>
      </trkpt>
      <trkpt lat="44.87807" lon="6.7672">
        <ele>1896.4</ele>
        <time>2021-12-22T10:53:06Z</time>
      </trkpt>
      <trkpt lat="44.87805" lon="6.76721">
        <ele>1896.2</ele>
        <time>2021-12-22T10:53:07Z</time>
      </trkpt>
      <trkpt lat="44.87804" lon="6.7672">
        <ele>1895.8</ele>
        <time>2021-12-22T10:53:23Z</time>
      </trkpt>
      <trkpt lat="44.87809" lon="6.7671">
        <ele>1888.8</ele>
        <time>2021-12-22T10:53:24Z</time>
      </trkpt>
      <trkpt lat="44.87809" lon="6.76709">
        <ele>1888.4</ele>
        <time>2021-12-22T10:53:25Z</time>
      </trkpt>
      <trkpt lat="44.87798" lon="6.76703">
        <ele>1886.6</ele>
        <time>2021-12-22T10:53:37Z</time>
      </trkpt>
      <trkpt lat="44.87803" lon="6.76692">
        <ele>1886.8</ele>
        <time>2021-12-22T10:53:55Z</time>
      </trkpt>
      <trkpt lat="44.87804" lon="6.76689">
        <ele>1886.7</ele>
        <time>2021-12-22T10:54:02Z</time>
      </trkpt>
      <trkpt lat="44.87808" lon="6.76686">
        <ele>1886</ele>
        <time>2021-12-22T10:54:03Z</time>
      </trkpt>
      <trkpt lat="44.87809" lon="6.76686">
        <ele>1885.8</ele>
        <time>2021-12-22T10:54:04Z</time>
      </trkpt>
      <trkpt lat="44.87811" lon="6.76693">
        <ele>1885.1</ele>
        <time>2021-12-22T10:54:05Z</time>
      </trkpt>
      <trkpt lat="44.87814" lon="6.76691">
        <ele>1884.6</ele>
        <time>2021-12-22T10:54:07Z</time>
      </trkpt>
      <trkpt lat="44.87815" lon="6.76689">
        <ele>1884.3</ele>
        <time>2021-12-22T10:54:08Z</time>
      </trkpt>
      <trkpt lat="44.8782" lon="6.76689">
        <ele>1882.2</ele>
        <time>2021-12-22T10:54:10Z</time>
      </trkpt>
      <trkpt lat="44.87826" lon="6.76688">
        <ele>1879.2</ele>
        <time>2021-12-22T10:54:14Z</time>
      </trkpt>
      <trkpt lat="44.87825" lon="6.7669">
        <ele>1878.5</ele>
        <time>2021-12-22T10:54:15Z</time>
      </trkpt>
      <trkpt lat="44.87826" lon="6.7669">
        <ele>1878.2</ele>
        <time>2021-12-22T10:54:16Z</time>
      </trkpt>
      <trkpt lat="44.87841" lon="6.76685">
        <ele>1876.3</ele>
        <time>2021-12-22T10:54:22Z</time>
      </trkpt>
      <trkpt lat="44.87833" lon="6.76687">
        <ele>1873.3</ele>
        <time>2021-12-22T10:54:36Z</time>
      </trkpt>
      <trkpt lat="44.87821" lon="6.7669">
        <ele>1872</ele>
        <time>2021-12-22T10:54:54Z</time>
      </trkpt>
      <trkpt lat="44.87815" lon="6.76695">
        <ele>1871.6</ele>
        <time>2021-12-22T10:55:29Z</time>
      </trkpt>
      <trkpt lat="44.87817" lon="6.76685">
        <ele>1871.1</ele>
        <time>2021-12-22T10:55:46Z</time>
      </trkpt>
      <trkpt lat="44.87818" lon="6.76676">
        <ele>1871.1</ele>
        <time>2021-12-22T10:55:48Z</time>
      </trkpt>
      <trkpt lat="44.87821" lon="6.76669">
        <ele>1870.9</ele>
        <time>2021-12-22T10:55:51Z</time>
      </trkpt>
      <trkpt lat="44.87824" lon="6.76663">
        <ele>1870.7</ele>
        <time>2021-12-22T10:55:54Z</time>
      </trkpt>
      <trkpt lat="44.87828" lon="6.76652">
        <ele>1870.4</ele>
        <time>2021-12-22T10:55:59Z</time>
      </trkpt>
      <trkpt lat="44.8783" lon="6.76648">
        <ele>1870.3</ele>
        <time>2021-12-22T10:56:00Z</time>
      </trkpt>
      <trkpt lat="44.87831" lon="6.76644">
        <ele>1870.1</ele>
        <time>2021-12-22T10:56:01Z</time>
      </trkpt>
      <trkpt lat="44.87836" lon="6.76641">
        <ele>1869.6</ele>
        <time>2021-12-22T10:56:04Z</time>
      </trkpt>
      <trkpt lat="44.87839" lon="6.76649">
        <ele>1869.3</ele>
        <time>2021-12-22T10:56:06Z</time>
      </trkpt>
      <trkpt lat="44.8784" lon="6.76651">
        <ele>1869.2</ele>
        <time>2021-12-22T10:56:07Z</time>
      </trkpt>
      <trkpt lat="44.87841" lon="6.76652">
        <ele>1869</ele>
        <time>2021-12-22T10:56:08Z</time>
      </trkpt>
      <trkpt lat="44.87837" lon="6.76665">
        <ele>1868</ele>
        <time>2021-12-22T10:56:28Z</time>
      </trkpt>
      <trkpt lat="44.87829" lon="6.76672">
        <ele>1868.5</ele>
        <time>2021-12-22T10:56:54Z</time>
      </trkpt>
      <trkpt lat="44.87826" lon="6.76686">
        <ele>1868.6</ele>
        <time>2021-12-22T10:57:20Z</time>
      </trkpt>
      <trkpt lat="44.87831" lon="6.76695">
        <ele>1868.4</ele>
        <time>2021-12-22T10:57:32Z</time>
      </trkpt>
      <trkpt lat="44.87838" lon="6.76707">
        <ele>1869.9</ele>
        <time>2021-12-22T10:57:45Z</time>
      </trkpt>
      <trkpt lat="44.8783" lon="6.76711">
        <ele>1870.4</ele>
        <time>2021-12-22T10:57:58Z</time>
      </trkpt>
      <trkpt lat="44.87824" lon="6.76713">
        <ele>1870.3</ele>
        <time>2021-12-22T10:58:07Z</time>
      </trkpt>
      <trkpt lat="44.8781" lon="6.76714">
        <ele>1871.2</ele>
        <time>2021-12-22T10:58:33Z</time>
      </trkpt>
      <trkpt lat="44.87806" lon="6.76713">
        <ele>1871.3</ele>
        <time>2021-12-22T10:58:36Z</time>
      </trkpt>
      <trkpt lat="44.87812" lon="6.76703">
        <ele>1870.8</ele>
        <time>2021-12-22T10:58:54Z</time>
      </trkpt>
      <trkpt lat="44.87805" lon="6.7669">
        <ele>1874.2</ele>
        <time>2021-12-22T11:01:31Z</time>
      </trkpt>
      <trkpt lat="44.87802" lon="6.76704">
        <ele>1878.4</ele>
        <time>2021-12-22T11:01:53Z</time>
      </trkpt>
      <trkpt lat="44.87795" lon="6.7671">
        <ele>1884.5</ele>
        <time>2021-12-22T11:03:07Z</time>
      </trkpt>
      <trkpt lat="44.87799" lon="6.76716">
        <ele>1883.7</ele>
        <time>2021-12-22T11:03:12Z</time>
      </trkpt>
      <trkpt lat="44.87807" lon="6.76719">
        <ele>1885.4</ele>
        <time>2021-12-22T11:03:25Z</time>
      </trkpt>
      <trkpt lat="44.87812" lon="6.76718">
        <ele>1885.5</ele>
        <time>2021-12-22T11:03:28Z</time>
      </trkpt>
      <trkpt lat="44.87816" lon="6.76721">
        <ele>1885.6</ele>
        <time>2021-12-22T11:03:31Z</time>
      </trkpt>
      <trkpt lat="44.87817" lon="6.76721">
        <ele>1885.7</ele>
        <time>2021-12-22T11:03:32Z</time>
      </trkpt>
      <trkpt lat="44.8782" lon="6.76721">
        <ele>1885.6</ele>
        <time>2021-12-22T11:03:34Z</time>
      </trkpt>
      <trkpt lat="44.8782" lon="6.7672">
        <ele>1885.7</ele>
        <time>2021-12-22T11:03:35Z</time>
      </trkpt>
      <trkpt lat="44.87824" lon="6.76724">
        <ele>1886.2</ele>
        <time>2021-12-22T11:03:41Z</time>
      </trkpt>
      <trkpt lat="44.87821" lon="6.76715">
        <ele>1889.5</ele>
        <time>2021-12-22T11:04:01Z</time>
      </trkpt>
      <trkpt lat="44.8783" lon="6.76707">
        <ele>1888.3</ele>
        <time>2021-12-22T11:04:19Z</time>
      </trkpt>
      <trkpt lat="44.87836" lon="6.76709">
        <ele>1887.6</ele>
        <time>2021-12-22T11:04:22Z</time>
      </trkpt>
      <trkpt lat="44.87845" lon="6.76712">
        <ele>1887.4</ele>
        <time>2021-12-22T11:04:26Z</time>
      </trkpt>
      <trkpt lat="44.87835" lon="6.76708">
        <ele>1885.5</ele>
        <time>2021-12-22T11:04:50Z</time>
      </trkpt>
      <trkpt lat="44.87822" lon="6.76703">
        <ele>1884.5</ele>
        <time>2021-12-22T11:05:04Z</time>
      </trkpt>
      <trkpt lat="44.87815" lon="6.76712">
        <ele>1886.8</ele>
        <time>2021-12-22T11:05:12Z</time>
      </trkpt>
      <trkpt lat="44.87819" lon="6.76704">
        <ele>1891.3</ele>
        <time>2021-12-22T11:05:30Z</time>
      </trkpt>
      <trkpt lat="44.8783" lon="6.76707">
        <ele>1891</ele>
        <time>2021-12-22T11:05:39Z</time>
      </trkpt>
      <trkpt lat="44.87842" lon="6.7671">
        <ele>1889.7</ele>
        <time>2021-12-22T11:05:50Z</time>
      </trkpt>
      <trkpt lat="44.87853" lon="6.76711">
        <ele>1887.7</ele>
        <time>2021-12-22T11:05:57Z</time>
      </trkpt>
      <trkpt lat="44.8786" lon="6.76711">
        <ele>1887.3</ele>
        <time>2021-12-22T11:05:59Z</time>
      </trkpt>
      <trkpt lat="44.87868" lon="6.76712">
        <ele>1886.7</ele>
        <time>2021-12-22T11:06:01Z</time>
      </trkpt>
      <trkpt lat="44.87876" lon="6.7671">
        <ele>1886.4</ele>
        <time>2021-12-22T11:06:03Z</time>
      </trkpt>
      <trkpt lat="44.87879" lon="6.7671">
        <ele>1886.1</ele>
        <time>2021-12-22T11:06:04Z</time>
      </trkpt>
      <trkpt lat="44.87884" lon="6.7671">
        <ele>1885.8</ele>
        <time>2021-12-22T11:06:05Z</time>
      </trkpt>
      <trkpt lat="44.87889" lon="6.7671">
        <ele>1885.4</ele>
        <time>2021-12-22T11:06:07Z</time>
      </trkpt>
      <trkpt lat="44.87894" lon="6.76709">
        <ele>1884.5</ele>
        <time>2021-12-22T11:06:11Z</time>
      </trkpt>
      <trkpt lat="44.87897" lon="6.76713">
        <ele>1883.3</ele>
        <time>2021-12-22T11:06:16Z</time>
      </trkpt>
      <trkpt lat="44.87898" lon="6.76713">
        <ele>1883.1</ele>
        <time>2021-12-22T11:06:17Z</time>
      </trkpt>
      <trkpt lat="44.879" lon="6.76713">
        <ele>1882.9</ele>
        <time>2021-12-22T11:06:18Z</time>
      </trkpt>
      <trkpt lat="44.87899" lon="6.76713">
        <ele>1882.5</ele>
        <time>2021-12-22T11:06:19Z</time>
      </trkpt>
      <trkpt lat="44.87897" lon="6.76716">
        <ele>1881.8</ele>
        <time>2021-12-22T11:06:21Z</time>
      </trkpt>
      <trkpt lat="44.87895" lon="6.76716">
        <ele>1881.5</ele>
        <time>2021-12-22T11:06:22Z</time>
      </trkpt>
      <trkpt lat="44.87889" lon="6.76713">
        <ele>1878.1</ele>
        <time>2021-12-22T11:06:42Z</time>
      </trkpt>
      <trkpt lat="44.87884" lon="6.76712">
        <ele>1877.9</ele>
        <time>2021-12-22T11:06:44Z</time>
      </trkpt>
      <trkpt lat="44.87875" lon="6.76718">
        <ele>1876.8</ele>
        <time>2021-12-22T11:06:59Z</time>
      </trkpt>
      <trkpt lat="44.87865" lon="6.76715">
        <ele>1875.4</ele>
        <time>2021-12-22T11:07:47Z</time>
      </trkpt>
      <trkpt lat="44.87871" lon="6.76714">
        <ele>1874.3</ele>
        <time>2021-12-22T11:08:11Z</time>
      </trkpt>
      <trkpt lat="44.8788" lon="6.76709">
        <ele>1874.5</ele>
        <time>2021-12-22T11:08:30Z</time>
      </trkpt>
      <trkpt lat="44.87869" lon="6.76715">
        <ele>1874.4</ele>
        <time>2021-12-22T11:08:41Z</time>
      </trkpt>
      <trkpt lat="44.87864" lon="6.76713">
        <ele>1874.4</ele>
        <time>2021-12-22T11:08:54Z</time>
      </trkpt>
      <trkpt lat="44.87869" lon="6.76711">
        <ele>1873</ele>
        <time>2021-12-22T11:09:59Z</time>
      </trkpt>
      <trkpt lat="44.87861" lon="6.7671">
        <ele>1872.2</ele>
        <time>2021-12-22T11:10:33Z</time>
      </trkpt>
      <trkpt lat="44.87867" lon="6.76703">
        <ele>1871.9</ele>
        <time>2021-12-22T11:11:24Z</time>
      </trkpt>
      <trkpt lat="44.87869" lon="6.76701">
        <ele>1871.9</ele>
        <time>2021-12-22T11:11:26Z</time>
      </trkpt>
      <trkpt lat="44.8787" lon="6.76701">
        <ele>1871.9</ele>
        <time>2021-12-22T11:11:27Z</time>
      </trkpt>
      <trkpt lat="44.8787" lon="6.76699">
        <ele>1871.5</ele>
        <time>2021-12-22T11:11:32Z</time>
      </trkpt>
      <trkpt lat="44.87869" lon="6.76699">
        <ele>1871.5</ele>
        <time>2021-12-22T11:11:33Z</time>
      </trkpt>
      <trkpt lat="44.87859" lon="6.76705">
        <ele>1871.1</ele>
        <time>2021-12-22T11:11:47Z</time>
      </trkpt>
      <trkpt lat="44.87856" lon="6.7671">
        <ele>1870.4</ele>
        <time>2021-12-22T11:12:09Z</time>
      </trkpt>
      <trkpt lat="44.87866" lon="6.76719">
        <ele>1870.2</ele>
        <time>2021-12-22T11:13:00Z</time>
      </trkpt>
      <trkpt lat="44.87856" lon="6.76715">
        <ele>1869.1</ele>
        <time>2021-12-22T11:13:35Z</time>
      </trkpt>
      <trkpt lat="44.87841" lon="6.76714">
        <ele>1872.7</ele>
        <time>2021-12-22T11:14:04Z</time>
      </trkpt>
      <trkpt lat="44.87835" lon="6.76714">
        <ele>1874.5</ele>
        <time>2021-12-22T11:14:05Z</time>
      </trkpt>
      <trkpt lat="44.87829" lon="6.76714">
        <ele>1876.8</ele>
        <time>2021-12-22T11:14:06Z</time>
      </trkpt>
      <trkpt lat="44.87824" lon="6.76714">
        <ele>1878.7</ele>
        <time>2021-12-22T11:14:07Z</time>
      </trkpt>
      <trkpt lat="44.87824" lon="6.76714">
        <ele>1878.7</ele>
        <time>2021-12-22T11:14:08Z</time>
      </trkpt>
      <trkpt lat="44.87813" lon="6.76715">
        <ele>1882.2</ele>
        <time>2021-12-22T11:14:09Z</time>
      </trkpt>
      <trkpt lat="44.87807" lon="6.76715">
        <ele>1884.1</ele>
        <time>2021-12-22T11:14:10Z</time>
      </trkpt>
      <trkpt lat="44.87807" lon="6.76714">
        <ele>1884.1</ele>
        <time>2021-12-22T11:14:16Z</time>
      </trkpt>
      <trkpt lat="44.87797" lon="6.76712">
        <ele>1889.9</ele>
        <time>2021-12-22T11:14:17Z</time>
      </trkpt>
      <trkpt lat="44.87801" lon="6.76709">
        <ele>1891.1</ele>
        <time>2021-12-22T11:14:18Z</time>
      </trkpt>
      <trkpt lat="44.87791" lon="6.7671">
        <ele>1895.8</ele>
        <time>2021-12-22T11:14:32Z</time>
      </trkpt>
      <trkpt lat="44.87801" lon="6.76704">
        <ele>1903.6</ele>
        <time>2021-12-22T11:14:59Z</time>
      </trkpt>
      <trkpt lat="44.87805" lon="6.76701">
        <ele>1904.3</ele>
        <time>2021-12-22T11:15:00Z</time>
      </trkpt>
      <trkpt lat="44.87812" lon="6.76697">
        <ele>1905.5</ele>
        <time>2021-12-22T11:15:02Z</time>
      </trkpt>
      <trkpt lat="44.87817" lon="6.76693">
        <ele>1906.2</ele>
        <time>2021-12-22T11:15:03Z</time>
      </trkpt>
      <trkpt lat="44.87822" lon="6.76692">
        <ele>1906.7</ele>
        <time>2021-12-22T11:15:04Z</time>
      </trkpt>
      <trkpt lat="44.87827" lon="6.76691">
        <ele>1907.6</ele>
        <time>2021-12-22T11:15:06Z</time>
      </trkpt>
      <trkpt lat="44.87831" lon="6.76689">
        <ele>1908.4</ele>
        <time>2021-12-22T11:15:08Z</time>
      </trkpt>
      <trkpt lat="44.87831" lon="6.76689">
        <ele>1908.6</ele>
        <time>2021-12-22T11:15:09Z</time>
      </trkpt>
      <trkpt lat="44.8783" lon="6.7669">
        <ele>1908.8</ele>
        <time>2021-12-22T11:15:16Z</time>
      </trkpt>
      <trkpt lat="44.8782" lon="6.76694">
        <ele>1908.3</ele>
        <time>2021-12-22T11:15:17Z</time>
      </trkpt>
      <trkpt lat="44.87819" lon="6.76695">
        <ele>1908.2</ele>
        <time>2021-12-22T11:15:18Z</time>
      </trkpt>
      <trkpt lat="44.87817" lon="6.76698">
        <ele>1907.3</ele>
        <time>2021-12-22T11:15:27Z</time>
      </trkpt>
      <trkpt lat="44.87809" lon="6.76703">
        <ele>1906.9</ele>
        <time>2021-12-22T11:15:28Z</time>
      </trkpt>
      <trkpt lat="44.87807" lon="6.76704">
        <ele>1907</ele>
        <time>2021-12-22T11:15:29Z</time>
      </trkpt>
      <trkpt lat="44.87805" lon="6.76704">
        <ele>1907.2</ele>
        <time>2021-12-22T11:15:36Z</time>
      </trkpt>
      <trkpt lat="44.87795" lon="6.76708">
        <ele>1905.9</ele>
        <time>2021-12-22T11:15:37Z</time>
      </trkpt>
      <trkpt lat="44.87795" lon="6.76709">
        <ele>1906.1</ele>
        <time>2021-12-22T11:15:38Z</time>
      </trkpt>
      <trkpt lat="44.87794" lon="6.76709">
        <ele>1906.2</ele>
        <time>2021-12-22T11:18:44Z</time>
      </trkpt>
      <trkpt lat="44.87799" lon="6.76719">
        <ele>1905.4</ele>
        <time>2021-12-22T11:18:45Z</time>
      </trkpt>
      <trkpt lat="44.87799" lon="6.7672">
        <ele>1905.4</ele>
        <time>2021-12-22T11:18:46Z</time>
      </trkpt>
      <trkpt lat="44.87799" lon="6.7672">
        <ele>1905.4</ele>
        <time>2021-12-22T11:19:17Z</time>
      </trkpt>
      <trkpt lat="44.87804" lon="6.76732">
        <ele>1904.7</ele>
        <time>2021-12-22T11:19:18Z</time>
      </trkpt>
      <trkpt lat="44.87804" lon="6.76733">
        <ele>1904.7</ele>
        <time>2021-12-22T11:19:19Z</time>
      </trkpt>
      <trkpt lat="44.87804" lon="6.76735">
        <ele>1904.6</ele>
        <time>2021-12-22T11:19:30Z</time>
      </trkpt>
      <trkpt lat="44.87802" lon="6.76748">
        <ele>1904.1</ele>
        <time>2021-12-22T11:19:31Z</time>
      </trkpt>
      <trkpt lat="44.87802" lon="6.76751">
        <ele>1904</ele>
        <time>2021-12-22T11:19:33Z</time>
      </trkpt>
      <trkpt lat="44.87801" lon="6.76752">
        <ele>1904.1</ele>
        <time>2021-12-22T11:19:34Z</time>
      </trkpt>
      <trkpt lat="44.878" lon="6.76754">
        <ele>1904</ele>
        <time>2021-12-22T11:19:36Z</time>
      </trkpt>
      <trkpt lat="44.878" lon="6.76756">
        <ele>1904</ele>
        <time>2021-12-22T11:19:37Z</time>
      </trkpt>
      <trkpt lat="44.87799" lon="6.76757">
        <ele>1904.1</ele>
        <time>2021-12-22T11:19:38Z</time>
      </trkpt>
      <trkpt lat="44.87799" lon="6.76758">
        <ele>1904.1</ele>
        <time>2021-12-22T11:19:39Z</time>
      </trkpt>
      <trkpt lat="44.87798" lon="6.7676">
        <ele>1903.9</ele>
        <time>2021-12-22T11:19:40Z</time>
      </trkpt>
      <trkpt lat="44.87796" lon="6.76763">
        <ele>1902.9</ele>
        <time>2021-12-22T11:19:43Z</time>
      </trkpt>
      <trkpt lat="44.87795" lon="6.76764">
        <ele>1902.9</ele>
        <time>2021-12-22T11:19:44Z</time>
      </trkpt>
      <trkpt lat="44.87794" lon="6.76765">
        <ele>1902.5</ele>
        <time>2021-12-22T11:20:05Z</time>
      </trkpt>
      <trkpt lat="44.8779" lon="6.76776">
        <ele>1901.4</ele>
        <time>2021-12-22T11:20:06Z</time>
      </trkpt>
      <trkpt lat="44.8779" lon="6.76776">
        <ele>1901.4</ele>
        <time>2021-12-22T11:20:07Z</time>
      </trkpt>
      <trkpt lat="44.8779" lon="6.76777">
        <ele>1901.6</ele>
        <time>2021-12-22T11:20:26Z</time>
      </trkpt>
      <trkpt lat="44.87799" lon="6.7678">
        <ele>1903.3</ele>
        <time>2021-12-22T11:20:27Z</time>
      </trkpt>
      <trkpt lat="44.878" lon="6.76781">
        <ele>1903.4</ele>
        <time>2021-12-22T11:20:28Z</time>
      </trkpt>
      <trkpt lat="44.87801" lon="6.76781">
        <ele>1903.6</ele>
        <time>2021-12-22T11:20:44Z</time>
      </trkpt>
      <trkpt lat="44.8781" lon="6.76782">
        <ele>1904.8</ele>
        <time>2021-12-22T11:20:45Z</time>
      </trkpt>
      <trkpt lat="44.87811" lon="6.76782">
        <ele>1904.8</ele>
        <time>2021-12-22T11:20:46Z</time>
      </trkpt>
      <trkpt lat="44.87812" lon="6.76782">
        <ele>1905</ele>
        <time>2021-12-22T11:21:04Z</time>
      </trkpt>
      <trkpt lat="44.8782" lon="6.76775">
        <ele>1906.8</ele>
        <time>2021-12-22T11:21:05Z</time>
      </trkpt>
      <trkpt lat="44.8782" lon="6.76774">
        <ele>1906.9</ele>
        <time>2021-12-22T11:21:06Z</time>
      </trkpt>
      <trkpt lat="44.87821" lon="6.76774">
        <ele>1907.2</ele>
        <time>2021-12-22T11:22:09Z</time>
      </trkpt>
      <trkpt lat="44.87829" lon="6.76767">
        <ele>1908.7</ele>
        <time>2021-12-22T11:22:10Z</time>
      </trkpt>
      <trkpt lat="44.8783" lon="6.76766">
        <ele>1908.8</ele>
        <time>2021-12-22T11:22:11Z</time>
      </trkpt>
      <trkpt lat="44.8783" lon="6.76766">
        <ele>1908.9</ele>
        <time>2021-12-22T11:22:28Z</time>
      </trkpt>
      <trkpt lat="44.87839" lon="6.7676">
        <ele>1909.7</ele>
        <time>2021-12-22T11:22:29Z</time>
      </trkpt>
      <trkpt lat="44.87839" lon="6.7676">
        <ele>1909.9</ele>
        <time>2021-12-22T11:22:30Z</time>
      </trkpt>
      <trkpt lat="44.8784" lon="6.7676">
        <ele>1910.3</ele>
        <time>2021-12-22T11:22:47Z</time>
      </trkpt>
      <trkpt lat="44.87849" lon="6.76755">
        <ele>1913.5</ele>
        <time>2021-12-22T11:22:48Z</time>
      </trkpt>
      <trkpt lat="44.87849" lon="6.76755">
        <ele>1913.7</ele>
        <time>2021-12-22T11:22:49Z</time>
      </trkpt>
      <trkpt lat="44.8785" lon="6.76754">
        <ele>1914.2</ele>
        <time>2021-12-22T11:23:10Z</time>
      </trkpt>
      <trkpt lat="44.87859" lon="6.76751">
        <ele>1918.8</ele>
        <time>2021-12-22T11:23:11Z</time>
      </trkpt>
      <trkpt lat="44.8786" lon="6.76751">
        <ele>1919</ele>
        <time>2021-12-22T11:23:12Z</time>
      </trkpt>
      <trkpt lat="44.87862" lon="6.7675">
        <ele>1919.7</ele>
        <time>2021-12-22T11:23:28Z</time>
      </trkpt>
      <trkpt lat="44.8787" lon="6.76745">
        <ele>1923.5</ele>
        <time>2021-12-22T11:23:29Z</time>
      </trkpt>
      <trkpt lat="44.8787" lon="6.76745">
        <ele>1923.8</ele>
        <time>2021-12-22T11:23:30Z</time>
      </trkpt>
      <trkpt lat="44.87871" lon="6.76745">
        <ele>1924.4</ele>
        <time>2021-12-22T11:23:47Z</time>
      </trkpt>
      <trkpt lat="44.8788" lon="6.76741">
        <ele>1928.7</ele>
        <time>2021-12-22T11:23:48Z</time>
      </trkpt>
      <trkpt lat="44.8788" lon="6.7674">
        <ele>1929</ele>
        <time>2021-12-22T11:23:49Z</time>
      </trkpt>
      <trkpt lat="44.8788" lon="6.7674">
        <ele>1929.4</ele>
        <time>2021-12-22T11:24:20Z</time>
      </trkpt>
      <trkpt lat="44.87889" lon="6.76739">
        <ele>1931.1</ele>
        <time>2021-12-22T11:24:21Z</time>
      </trkpt>
      <trkpt lat="44.8789" lon="6.76739">
        <ele>1931.3</ele>
        <time>2021-12-22T11:24:22Z</time>
      </trkpt>
      <trkpt lat="44.87891" lon="6.76738">
        <ele>1931.7</ele>
        <time>2021-12-22T11:24:39Z</time>
      </trkpt>
      <trkpt lat="44.879" lon="6.76735">
        <ele>1934.6</ele>
        <time>2021-12-22T11:24:40Z</time>
      </trkpt>
      <trkpt lat="44.87901" lon="6.76734">
        <ele>1934.8</ele>
        <time>2021-12-22T11:24:41Z</time>
      </trkpt>
      <trkpt lat="44.87902" lon="6.76733">
        <ele>1935.2</ele>
        <time>2021-12-22T11:24:58Z</time>
      </trkpt>
      <trkpt lat="44.87909" lon="6.76725">
        <ele>1937.8</ele>
        <time>2021-12-22T11:24:59Z</time>
      </trkpt>
      <trkpt lat="44.8791" lon="6.76725">
        <ele>1938</ele>
        <time>2021-12-22T11:25:00Z</time>
      </trkpt>
      <trkpt lat="44.8791" lon="6.76725">
        <ele>1938.3</ele>
        <time>2021-12-22T11:25:20Z</time>
      </trkpt>
      <trkpt lat="44.87917" lon="6.76735">
        <ele>1942.1</ele>
        <time>2021-12-22T11:25:21Z</time>
      </trkpt>
      <trkpt lat="44.87917" lon="6.76735">
        <ele>1942.3</ele>
        <time>2021-12-22T11:25:22Z</time>
      </trkpt>
      <trkpt lat="44.87918" lon="6.76736">
        <ele>1942.7</ele>
        <time>2021-12-22T11:26:19Z</time>
      </trkpt>
      <trkpt lat="44.87922" lon="6.76747">
        <ele>1946.3</ele>
        <time>2021-12-22T11:26:20Z</time>
      </trkpt>
      <trkpt lat="44.87923" lon="6.76747">
        <ele>1946.4</ele>
        <time>2021-12-22T11:26:21Z</time>
      </trkpt>
      <trkpt lat="44.87924" lon="6.76749">
        <ele>1946.6</ele>
        <time>2021-12-22T11:26:38Z</time>
      </trkpt>
      <trkpt lat="44.87929" lon="6.7676">
        <ele>1949.1</ele>
        <time>2021-12-22T11:26:39Z</time>
      </trkpt>
      <trkpt lat="44.87929" lon="6.76761">
        <ele>1949.2</ele>
        <time>2021-12-22T11:26:40Z</time>
      </trkpt>
      <trkpt lat="44.87929" lon="6.76762">
        <ele>1949.3</ele>
        <time>2021-12-22T11:26:58Z</time>
      </trkpt>
      <trkpt lat="44.87935" lon="6.76773">
        <ele>1951</ele>
        <time>2021-12-22T11:26:59Z</time>
      </trkpt>
      <trkpt lat="44.87935" lon="6.76773">
        <ele>1951.2</ele>
        <time>2021-12-22T11:27:00Z</time>
      </trkpt>
      <trkpt lat="44.87935" lon="6.76775">
        <ele>1951.3</ele>
        <time>2021-12-22T11:27:20Z</time>
      </trkpt>
      <trkpt lat="44.87939" lon="6.76787">
        <ele>1952.4</ele>
        <time>2021-12-22T11:27:21Z</time>
      </trkpt>
      <trkpt lat="44.8794" lon="6.76788">
        <ele>1952.5</ele>
        <time>2021-12-22T11:27:22Z</time>
      </trkpt>
      <trkpt lat="44.8794" lon="6.76789">
        <ele>1952.8</ele>
        <time>2021-12-22T11:27:35Z</time>
      </trkpt>
      <trkpt lat="44.87944" lon="6.76801">
        <ele>1953</ele>
        <time>2021-12-22T11:27:36Z</time>
      </trkpt>
      <trkpt lat="44.87945" lon="6.76802">
        <ele>1953</ele>
        <time>2021-12-22T11:27:37Z</time>
      </trkpt>
      <trkpt lat="44.87946" lon="6.76803">
        <ele>1953.1</ele>
        <time>2021-12-22T11:27:48Z</time>
      </trkpt>
      <trkpt lat="44.87951" lon="6.76814">
        <ele>1954.5</ele>
        <time>2021-12-22T11:27:49Z</time>
      </trkpt>
      <trkpt lat="44.87951" lon="6.76815">
        <ele>1954.7</ele>
        <time>2021-12-22T11:27:50Z</time>
      </trkpt>
      <trkpt lat="44.87952" lon="6.76817">
        <ele>1955.2</ele>
        <time>2021-12-22T11:28:06Z</time>
      </trkpt>
      <trkpt lat="44.87958" lon="6.76828">
        <ele>1957.1</ele>
        <time>2021-12-22T11:28:07Z</time>
      </trkpt>
      <trkpt lat="44.87958" lon="6.76829">
        <ele>1957.2</ele>
        <time>2021-12-22T11:28:08Z</time>
      </trkpt>
      <trkpt lat="44.87959" lon="6.7683">
        <ele>1957.3</ele>
        <time>2021-12-22T11:28:20Z</time>
      </trkpt>
      <trkpt lat="44.87968" lon="6.76836">
        <ele>1957.3</ele>
        <time>2021-12-22T11:28:21Z</time>
      </trkpt>
      <trkpt lat="44.87968" lon="6.76837">
        <ele>1957.3</ele>
        <time>2021-12-22T11:28:22Z</time>
      </trkpt>
      <trkpt lat="44.8797" lon="6.76838">
        <ele>1957.4</ele>
        <time>2021-12-22T11:28:25Z</time>
      </trkpt>
      <trkpt lat="44.87972" lon="6.76838">
        <ele>1957</ele>
        <time>2021-12-22T11:28:26Z</time>
      </trkpt>
      <trkpt lat="44.87972" lon="6.76839">
        <ele>1956.9</ele>
        <time>2021-12-22T11:28:27Z</time>
      </trkpt>
      <trkpt lat="44.87974" lon="6.7684">
        <ele>1957.2</ele>
        <time>2021-12-22T11:28:43Z</time>
      </trkpt>
      <trkpt lat="44.87982" lon="6.76846">
        <ele>1959.1</ele>
        <time>2021-12-22T11:28:44Z</time>
      </trkpt>
      <trkpt lat="44.87982" lon="6.76846">
        <ele>1959.2</ele>
        <time>2021-12-22T11:28:45Z</time>
      </trkpt>
      <trkpt lat="44.87983" lon="6.76847">
        <ele>1959.4</ele>
        <time>2021-12-22T11:28:58Z</time>
      </trkpt>
      <trkpt lat="44.8799" lon="6.76855">
        <ele>1960.5</ele>
        <time>2021-12-22T11:28:59Z</time>
      </trkpt>
      <trkpt lat="44.87991" lon="6.76856">
        <ele>1960.6</ele>
        <time>2021-12-22T11:29:00Z</time>
      </trkpt>
      <trkpt lat="44.87992" lon="6.76857">
        <ele>1960.8</ele>
        <time>2021-12-22T11:29:14Z</time>
      </trkpt>
      <trkpt lat="44.87999" lon="6.76866">
        <ele>1961.6</ele>
        <time>2021-12-22T11:29:15Z</time>
      </trkpt>
      <trkpt lat="44.88" lon="6.76867">
        <ele>1961.4</ele>
        <time>2021-12-22T11:29:16Z</time>
      </trkpt>
      <trkpt lat="44.88001" lon="6.76868">
        <ele>1961.6</ele>
        <time>2021-12-22T11:29:32Z</time>
      </trkpt>
      <trkpt lat="44.88008" lon="6.76874">
        <ele>1963.4</ele>
        <time>2021-12-22T11:29:33Z</time>
      </trkpt>
      <trkpt lat="44.8801" lon="6.76875">
        <ele>1963.6</ele>
        <time>2021-12-22T11:29:34Z</time>
      </trkpt>
      <trkpt lat="44.88012" lon="6.76877">
        <ele>1964.2</ele>
        <time>2021-12-22T11:29:48Z</time>
      </trkpt>
      <trkpt lat="44.88019" lon="6.76884">
        <ele>1966.4</ele>
        <time>2021-12-22T11:29:49Z</time>
      </trkpt>
      <trkpt lat="44.8802" lon="6.76885">
        <ele>1966.5</ele>
        <time>2021-12-22T11:29:50Z</time>
      </trkpt>
      <trkpt lat="44.88021" lon="6.76886">
        <ele>1966.8</ele>
        <time>2021-12-22T11:30:12Z</time>
      </trkpt>
      <trkpt lat="44.88028" lon="6.76893">
        <ele>1968.3</ele>
        <time>2021-12-22T11:30:13Z</time>
      </trkpt>
      <trkpt lat="44.88029" lon="6.76894">
        <ele>1968.3</ele>
        <time>2021-12-22T11:30:14Z</time>
      </trkpt>
      <trkpt lat="44.8803" lon="6.76895">
        <ele>1968</ele>
        <time>2021-12-22T11:33:38Z</time>
      </trkpt>
      <trkpt lat="44.88036" lon="6.76905">
        <ele>1967.5</ele>
        <time>2021-12-22T11:33:39Z</time>
      </trkpt>
      <trkpt lat="44.88037" lon="6.76905">
        <ele>1967.7</ele>
        <time>2021-12-22T11:33:40Z</time>
      </trkpt>
      <trkpt lat="44.88038" lon="6.76906">
        <ele>1968</ele>
        <time>2021-12-22T11:33:53Z</time>
      </trkpt>
      <trkpt lat="44.88046" lon="6.76912">
        <ele>1969.7</ele>
        <time>2021-12-22T11:33:54Z</time>
      </trkpt>
      <trkpt lat="44.88047" lon="6.76913">
        <ele>1969.8</ele>
        <time>2021-12-22T11:33:55Z</time>
      </trkpt>
      <trkpt lat="44.88049" lon="6.76914">
        <ele>1970.1</ele>
        <time>2021-12-22T11:34:09Z</time>
      </trkpt>
      <trkpt lat="44.88057" lon="6.7692">
        <ele>1971.5</ele>
        <time>2021-12-22T11:34:10Z</time>
      </trkpt>
      <trkpt lat="44.88058" lon="6.7692">
        <ele>1971.6</ele>
        <time>2021-12-22T11:34:11Z</time>
      </trkpt>
      <trkpt lat="44.88059" lon="6.76921">
        <ele>1971.9</ele>
        <time>2021-12-22T11:34:26Z</time>
      </trkpt>
      <trkpt lat="44.88068" lon="6.76926">
        <ele>1973.4</ele>
        <time>2021-12-22T11:34:27Z</time>
      </trkpt>
      <trkpt lat="44.88069" lon="6.76927">
        <ele>1973.4</ele>
        <time>2021-12-22T11:34:28Z</time>
      </trkpt>
      <trkpt lat="44.88071" lon="6.76928">
        <ele>1973.5</ele>
        <time>2021-12-22T11:34:30Z</time>
      </trkpt>
      <trkpt lat="44.88072" lon="6.76929">
        <ele>1973.5</ele>
        <time>2021-12-22T11:34:31Z</time>
      </trkpt>
      <trkpt lat="44.88072" lon="6.76929">
        <ele>1973.6</ele>
        <time>2021-12-22T11:34:32Z</time>
      </trkpt>
      <trkpt lat="44.88073" lon="6.76929">
        <ele>1973.6</ele>
        <time>2021-12-22T11:34:33Z</time>
      </trkpt>
      <trkpt lat="44.88075" lon="6.7693">
        <ele>1973.8</ele>
        <time>2021-12-22T11:34:39Z</time>
      </trkpt>
      <trkpt lat="44.88078" lon="6.76933">
        <ele>1974.1</ele>
        <time>2021-12-22T11:34:40Z</time>
      </trkpt>
      <trkpt lat="44.88079" lon="6.76934">
        <ele>1974.1</ele>
        <time>2021-12-22T11:34:41Z</time>
      </trkpt>
      <trkpt lat="44.8808" lon="6.76935">
        <ele>1974.3</ele>
        <time>2021-12-22T11:34:55Z</time>
      </trkpt>
      <trkpt lat="44.88088" lon="6.7694">
        <ele>1975.9</ele>
        <time>2021-12-22T11:34:56Z</time>
      </trkpt>
      <trkpt lat="44.88089" lon="6.76941">
        <ele>1976</ele>
        <time>2021-12-22T11:34:57Z</time>
      </trkpt>
      <trkpt lat="44.8809" lon="6.76942">
        <ele>1976.2</ele>
        <time>2021-12-22T11:35:10Z</time>
      </trkpt>
      <trkpt lat="44.88099" lon="6.76948">
        <ele>1977.4</ele>
        <time>2021-12-22T11:35:11Z</time>
      </trkpt>
      <trkpt lat="44.88099" lon="6.76949">
        <ele>1977.5</ele>
        <time>2021-12-22T11:35:12Z</time>
      </trkpt>
      <trkpt lat="44.88101" lon="6.7695">
        <ele>1977.7</ele>
        <time>2021-12-22T11:35:25Z</time>
      </trkpt>
      <trkpt lat="44.88103" lon="6.76957">
        <ele>1979</ele>
        <time>2021-12-22T11:35:26Z</time>
      </trkpt>
      <trkpt lat="44.88103" lon="6.76958">
        <ele>1978.7</ele>
        <time>2021-12-22T11:35:27Z</time>
      </trkpt>
      <trkpt lat="44.88103" lon="6.76958">
        <ele>1978.8</ele>
        <time>2021-12-22T11:35:28Z</time>
      </trkpt>
      <trkpt lat="44.88103" lon="6.7696">
        <ele>1979</ele>
        <time>2021-12-22T11:35:37Z</time>
      </trkpt>
      <trkpt lat="44.88105" lon="6.76969">
        <ele>1979.9</ele>
        <time>2021-12-22T11:35:38Z</time>
      </trkpt>
      <trkpt lat="44.88105" lon="6.7697">
        <ele>1979.8</ele>
        <time>2021-12-22T11:35:39Z</time>
      </trkpt>
      <trkpt lat="44.88106" lon="6.76971">
        <ele>1979.7</ele>
        <time>2021-12-22T11:35:40Z</time>
      </trkpt>
      <trkpt lat="44.88106" lon="6.76972">
        <ele>1980</ele>
        <time>2021-12-22T11:35:54Z</time>
      </trkpt>
      <trkpt lat="44.88108" lon="6.76985">
        <ele>1981.3</ele>
        <time>2021-12-22T11:35:55Z</time>
      </trkpt>
      <trkpt lat="44.88108" lon="6.76986">
        <ele>1981.4</ele>
        <time>2021-12-22T11:35:56Z</time>
      </trkpt>
      <trkpt lat="44.88108" lon="6.76987">
        <ele>1981.7</ele>
        <time>2021-12-22T11:36:08Z</time>
      </trkpt>
      <trkpt lat="44.88109" lon="6.76999">
        <ele>1982.4</ele>
        <time>2021-12-22T11:36:09Z</time>
      </trkpt>
      <trkpt lat="44.88109" lon="6.77004">
        <ele>1982.4</ele>
        <time>2021-12-22T11:36:12Z</time>
      </trkpt>
      <trkpt lat="44.88109" lon="6.77005">
        <ele>1982.2</ele>
        <time>2021-12-22T11:36:13Z</time>
      </trkpt>
      <trkpt lat="44.88109" lon="6.77006">
        <ele>1982.4</ele>
        <time>2021-12-22T11:36:29Z</time>
      </trkpt>
      <trkpt lat="44.88111" lon="6.77019">
        <ele>1983.3</ele>
        <time>2021-12-22T11:36:30Z</time>
      </trkpt>
      <trkpt lat="44.88112" lon="6.7702">
        <ele>1983.3</ele>
        <time>2021-12-22T11:36:31Z</time>
      </trkpt>
      <trkpt lat="44.88112" lon="6.77022">
        <ele>1982.8</ele>
        <time>2021-12-22T11:36:37Z</time>
      </trkpt>
      <trkpt lat="44.88113" lon="6.77027">
        <ele>1983.6</ele>
        <time>2021-12-22T11:36:38Z</time>
      </trkpt>
      <trkpt lat="44.88114" lon="6.77031">
        <ele>1984</ele>
        <time>2021-12-22T11:36:41Z</time>
      </trkpt>
      <trkpt lat="44.88114" lon="6.77032">
        <ele>1984.2</ele>
        <time>2021-12-22T11:36:42Z</time>
      </trkpt>
      <trkpt lat="44.88115" lon="6.77034">
        <ele>1984.7</ele>
        <time>2021-12-22T11:36:53Z</time>
      </trkpt>
      <trkpt lat="44.88117" lon="6.77043">
        <ele>1985.4</ele>
        <time>2021-12-22T11:36:54Z</time>
      </trkpt>
      <trkpt lat="44.88118" lon="6.77046">
        <ele>1985.1</ele>
        <time>2021-12-22T11:36:56Z</time>
      </trkpt>
      <trkpt lat="44.88118" lon="6.77047">
        <ele>1985.1</ele>
        <time>2021-12-22T11:36:57Z</time>
      </trkpt>
      <trkpt lat="44.88118" lon="6.77049">
        <ele>1985.3</ele>
        <time>2021-12-22T11:37:16Z</time>
      </trkpt>
      <trkpt lat="44.8812" lon="6.77062">
        <ele>1986.8</ele>
        <time>2021-12-22T11:37:17Z</time>
      </trkpt>
      <trkpt lat="44.88121" lon="6.77063">
        <ele>1986.9</ele>
        <time>2021-12-22T11:37:18Z</time>
      </trkpt>
      <trkpt lat="44.88121" lon="6.77064">
        <ele>1986.8</ele>
        <time>2021-12-22T11:37:38Z</time>
      </trkpt>
      <trkpt lat="44.88127" lon="6.77073">
        <ele>1988.1</ele>
        <time>2021-12-22T11:37:39Z</time>
      </trkpt>
      <trkpt lat="44.88128" lon="6.77074">
        <ele>1988.2</ele>
        <time>2021-12-22T11:37:40Z</time>
      </trkpt>
      <trkpt lat="44.88127" lon="6.77075">
        <ele>1988.2</ele>
        <time>2021-12-22T11:37:50Z</time>
      </trkpt>
      <trkpt lat="44.88127" lon="6.77087">
        <ele>1988.2</ele>
        <time>2021-12-22T11:37:51Z</time>
      </trkpt>
      <trkpt lat="44.88126" lon="6.7709">
        <ele>1988.1</ele>
        <time>2021-12-22T11:37:53Z</time>
      </trkpt>
      <trkpt lat="44.88126" lon="6.77091">
        <ele>1988</ele>
        <time>2021-12-22T11:37:54Z</time>
      </trkpt>
      <trkpt lat="44.88126" lon="6.77092">
        <ele>1988.1</ele>
        <time>2021-12-22T11:38:11Z</time>
      </trkpt>
      <trkpt lat="44.88129" lon="6.77105">
        <ele>1987.7</ele>
        <time>2021-12-22T11:38:12Z</time>
      </trkpt>
      <trkpt lat="44.8813" lon="6.77108">
        <ele>1987.6</ele>
        <time>2021-12-22T11:38:14Z</time>
      </trkpt>
      <trkpt lat="44.88131" lon="6.77108">
        <ele>1987.5</ele>
        <time>2021-12-22T11:38:15Z</time>
      </trkpt>
      <trkpt lat="44.88132" lon="6.7711">
        <ele>1987.7</ele>
        <time>2021-12-22T11:38:30Z</time>
      </trkpt>
      <trkpt lat="44.88137" lon="6.7712">
        <ele>1989.4</ele>
        <time>2021-12-22T11:38:31Z</time>
      </trkpt>
      <trkpt lat="44.88137" lon="6.77121">
        <ele>1989.4</ele>
        <time>2021-12-22T11:38:32Z</time>
      </trkpt>
      <trkpt lat="44.88138" lon="6.77123">
        <ele>1989.2</ele>
        <time>2021-12-22T11:38:35Z</time>
      </trkpt>
      <trkpt lat="44.88138" lon="6.77126">
        <ele>1989.1</ele>
        <time>2021-12-22T11:38:36Z</time>
      </trkpt>
      <trkpt lat="44.88139" lon="6.77127">
        <ele>1989.3</ele>
        <time>2021-12-22T11:38:37Z</time>
      </trkpt>
      <trkpt lat="44.88139" lon="6.77128">
        <ele>1989.3</ele>
        <time>2021-12-22T11:38:38Z</time>
      </trkpt>
      <trkpt lat="44.8814" lon="6.77129">
        <ele>1989.5</ele>
        <time>2021-12-22T11:38:46Z</time>
      </trkpt>
      <trkpt lat="44.88143" lon="6.77136">
        <ele>1990.2</ele>
        <time>2021-12-22T11:38:47Z</time>
      </trkpt>
      <trkpt lat="44.88143" lon="6.77137">
        <ele>1990.1</ele>
        <time>2021-12-22T11:38:48Z</time>
      </trkpt>
      <trkpt lat="44.88144" lon="6.77138">
        <ele>1990.2</ele>
        <time>2021-12-22T11:38:49Z</time>
      </trkpt>
      <trkpt lat="44.88144" lon="6.77139">
        <ele>1990.4</ele>
        <time>2021-12-22T11:38:56Z</time>
      </trkpt>
      <trkpt lat="44.88148" lon="6.77143">
        <ele>1990.7</ele>
        <time>2021-12-22T11:38:57Z</time>
      </trkpt>
      <trkpt lat="44.8815" lon="6.77145">
        <ele>1990.6</ele>
        <time>2021-12-22T11:38:59Z</time>
      </trkpt>
      <trkpt lat="44.8815" lon="6.77146">
        <ele>1990.8</ele>
        <time>2021-12-22T11:39:00Z</time>
      </trkpt>
      <trkpt lat="44.88152" lon="6.77147">
        <ele>1991</ele>
        <time>2021-12-22T11:39:20Z</time>
      </trkpt>
      <trkpt lat="44.88146" lon="6.77158">
        <ele>1992.2</ele>
        <time>2021-12-22T11:39:21Z</time>
      </trkpt>
      <trkpt lat="44.88145" lon="6.77159">
        <ele>1992.3</ele>
        <time>2021-12-22T11:39:22Z</time>
      </trkpt>
      <trkpt lat="44.88143" lon="6.7716">
        <ele>1992.4</ele>
        <time>2021-12-22T11:39:36Z</time>
      </trkpt>
      <trkpt lat="44.88137" lon="6.7717">
        <ele>1993.3</ele>
        <time>2021-12-22T11:39:37Z</time>
      </trkpt>
      <trkpt lat="44.88137" lon="6.77171">
        <ele>1993.3</ele>
        <time>2021-12-22T11:39:38Z</time>
      </trkpt>
      <trkpt lat="44.88136" lon="6.77173">
        <ele>1993.5</ele>
        <time>2021-12-22T11:40:03Z</time>
      </trkpt>
      <trkpt lat="44.88133" lon="6.77186">
        <ele>1993.9</ele>
        <time>2021-12-22T11:40:04Z</time>
      </trkpt>
      <trkpt lat="44.88133" lon="6.77187">
        <ele>1993.9</ele>
        <time>2021-12-22T11:40:05Z</time>
      </trkpt>
      <trkpt lat="44.88132" lon="6.77188">
        <ele>1993.9</ele>
        <time>2021-12-22T11:40:23Z</time>
      </trkpt>
      <trkpt lat="44.88125" lon="6.77197">
        <ele>1994.1</ele>
        <time>2021-12-22T11:40:24Z</time>
      </trkpt>
      <trkpt lat="44.88125" lon="6.77198">
        <ele>1994.1</ele>
        <time>2021-12-22T11:40:25Z</time>
      </trkpt>
      <trkpt lat="44.88124" lon="6.77199">
        <ele>1994.2</ele>
        <time>2021-12-22T11:40:46Z</time>
      </trkpt>
      <trkpt lat="44.88121" lon="6.77212">
        <ele>1994.6</ele>
        <time>2021-12-22T11:40:47Z</time>
      </trkpt>
      <trkpt lat="44.88122" lon="6.77212">
        <ele>1994.7</ele>
        <time>2021-12-22T11:40:48Z</time>
      </trkpt>
      <trkpt lat="44.88122" lon="6.77213">
        <ele>1994.6</ele>
        <time>2021-12-22T11:43:07Z</time>
      </trkpt>
      <trkpt lat="44.88127" lon="6.77224">
        <ele>1995.4</ele>
        <time>2021-12-22T11:43:08Z</time>
      </trkpt>
      <trkpt lat="44.88127" lon="6.77225">
        <ele>1995.5</ele>
        <time>2021-12-22T11:43:09Z</time>
      </trkpt>
      <trkpt lat="44.88127" lon="6.77226">
        <ele>1995.7</ele>
        <time>2021-12-22T11:43:24Z</time>
      </trkpt>
      <trkpt lat="44.88121" lon="6.77237">
        <ele>1997.1</ele>
        <time>2021-12-22T11:43:25Z</time>
      </trkpt>
      <trkpt lat="44.8812" lon="6.77238">
        <ele>1997.2</ele>
        <time>2021-12-22T11:43:26Z</time>
      </trkpt>
      <trkpt lat="44.88119" lon="6.77239">
        <ele>1997.5</ele>
        <time>2021-12-22T11:43:46Z</time>
      </trkpt>
      <trkpt lat="44.88116" lon="6.77251">
        <ele>1999.6</ele>
        <time>2021-12-22T11:43:47Z</time>
      </trkpt>
      <trkpt lat="44.88116" lon="6.77252">
        <ele>1999.7</ele>
        <time>2021-12-22T11:43:48Z</time>
      </trkpt>
      <trkpt lat="44.88116" lon="6.77254">
        <ele>2000</ele>
        <time>2021-12-22T11:44:06Z</time>
      </trkpt>
      <trkpt lat="44.88124" lon="6.77261">
        <ele>2001.6</ele>
        <time>2021-12-22T11:44:07Z</time>
      </trkpt>
      <trkpt lat="44.88125" lon="6.77262">
        <ele>2001.7</ele>
        <time>2021-12-22T11:44:08Z</time>
      </trkpt>
      <trkpt lat="44.88127" lon="6.77263">
        <ele>2001.8</ele>
        <time>2021-12-22T11:44:10Z</time>
      </trkpt>
      <trkpt lat="44.88128" lon="6.77262">
        <ele>2001.6</ele>
        <time>2021-12-22T11:44:11Z</time>
      </trkpt>
      <trkpt lat="44.8813" lon="6.77264">
        <ele>2001.8</ele>
        <time>2021-12-22T11:44:13Z</time>
      </trkpt>
      <trkpt lat="44.88131" lon="6.77265">
        <ele>2002</ele>
        <time>2021-12-22T11:44:14Z</time>
      </trkpt>
      <trkpt lat="44.88132" lon="6.77266">
        <ele>2002.2</ele>
        <time>2021-12-22T11:44:31Z</time>
      </trkpt>
      <trkpt lat="44.88134" lon="6.77278">
        <ele>2003.7</ele>
        <time>2021-12-22T11:44:32Z</time>
      </trkpt>
      <trkpt lat="44.88133" lon="6.77279">
        <ele>2003.8</ele>
        <time>2021-12-22T11:44:33Z</time>
      </trkpt>
      <trkpt lat="44.88132" lon="6.7728">
        <ele>2004</ele>
        <time>2021-12-22T11:44:50Z</time>
      </trkpt>
      <trkpt lat="44.88132" lon="6.77294">
        <ele>2004.9</ele>
        <time>2021-12-22T11:44:51Z</time>
      </trkpt>
      <trkpt lat="44.88132" lon="6.77295">
        <ele>2005</ele>
        <time>2021-12-22T11:44:52Z</time>
      </trkpt>
      <trkpt lat="44.88133" lon="6.77297">
        <ele>2005.2</ele>
        <time>2021-12-22T11:45:05Z</time>
      </trkpt>
      <trkpt lat="44.88138" lon="6.77308">
        <ele>2006.4</ele>
        <time>2021-12-22T11:45:06Z</time>
      </trkpt>
      <trkpt lat="44.88138" lon="6.77309">
        <ele>2006.4</ele>
        <time>2021-12-22T11:45:07Z</time>
      </trkpt>
      <trkpt lat="44.88139" lon="6.77311">
        <ele>2006.5</ele>
        <time>2021-12-22T11:45:08Z</time>
      </trkpt>
      <trkpt lat="44.88139" lon="6.77312">
        <ele>2006.4</ele>
        <time>2021-12-22T11:45:09Z</time>
      </trkpt>
      <trkpt lat="44.8814" lon="6.77313">
        <ele>2006.2</ele>
        <time>2021-12-22T11:45:10Z</time>
      </trkpt>
      <trkpt lat="44.88141" lon="6.77314">
        <ele>2006.2</ele>
        <time>2021-12-22T11:45:16Z</time>
      </trkpt>
      <trkpt lat="44.88142" lon="6.7732">
        <ele>2006.1</ele>
        <time>2021-12-22T11:45:17Z</time>
      </trkpt>
      <trkpt lat="44.88142" lon="6.77321">
        <ele>2006</ele>
        <time>2021-12-22T11:45:18Z</time>
      </trkpt>
      <trkpt lat="44.88143" lon="6.77322">
        <ele>2005.8</ele>
        <time>2021-12-22T11:45:19Z</time>
      </trkpt>
      <trkpt lat="44.88144" lon="6.77324">
        <ele>2005.9</ele>
        <time>2021-12-22T11:45:27Z</time>
      </trkpt>
      <trkpt lat="44.88146" lon="6.77331">
        <ele>2005.6</ele>
        <time>2021-12-22T11:45:28Z</time>
      </trkpt>
      <trkpt lat="44.88148" lon="6.77337">
        <ele>2005.1</ele>
        <time>2021-12-22T11:45:32Z</time>
      </trkpt>
      <trkpt lat="44.88149" lon="6.77338">
        <ele>2005.1</ele>
        <time>2021-12-22T11:45:33Z</time>
      </trkpt>
      <trkpt lat="44.88149" lon="6.7734">
        <ele>2005</ele>
        <time>2021-12-22T11:45:38Z</time>
      </trkpt>
      <trkpt lat="44.88151" lon="6.77344">
        <ele>2004.9</ele>
        <time>2021-12-22T11:45:39Z</time>
      </trkpt>
      <trkpt lat="44.88151" lon="6.77346">
        <ele>2004.9</ele>
        <time>2021-12-22T11:45:40Z</time>
      </trkpt>
      <trkpt lat="44.88152" lon="6.77347">
        <ele>2004.7</ele>
        <time>2021-12-22T11:45:41Z</time>
      </trkpt>
      <trkpt lat="44.88152" lon="6.77348">
        <ele>2004.7</ele>
        <time>2021-12-22T11:45:45Z</time>
      </trkpt>
      <trkpt lat="44.88154" lon="6.77352">
        <ele>2004.4</ele>
        <time>2021-12-22T11:45:46Z</time>
      </trkpt>
      <trkpt lat="44.88154" lon="6.77353">
        <ele>2004.3</ele>
        <time>2021-12-22T11:45:47Z</time>
      </trkpt>
      <trkpt lat="44.88154" lon="6.77354">
        <ele>2004</ele>
        <time>2021-12-22T11:45:48Z</time>
      </trkpt>
      <trkpt lat="44.88155" lon="6.77357">
        <ele>2003.9</ele>
        <time>2021-12-22T11:45:59Z</time>
      </trkpt>
      <trkpt lat="44.88158" lon="6.77366">
        <ele>2003.1</ele>
        <time>2021-12-22T11:46:00Z</time>
      </trkpt>
      <trkpt lat="44.88158" lon="6.77369">
        <ele>2002.5</ele>
        <time>2021-12-22T11:46:02Z</time>
      </trkpt>
      <trkpt lat="44.88158" lon="6.7737">
        <ele>2002.3</ele>
        <time>2021-12-22T11:46:03Z</time>
      </trkpt>
      <trkpt lat="44.88159" lon="6.77372">
        <ele>2002</ele>
        <time>2021-12-22T11:46:13Z</time>
      </trkpt>
      <trkpt lat="44.8816" lon="6.77381">
        <ele>2000.3</ele>
        <time>2021-12-22T11:46:14Z</time>
      </trkpt>
      <trkpt lat="44.8816" lon="6.77382">
        <ele>2000.2</ele>
        <time>2021-12-22T11:46:15Z</time>
      </trkpt>
      <trkpt lat="44.8816" lon="6.77383">
        <ele>2000.2</ele>
        <time>2021-12-22T11:46:16Z</time>
      </trkpt>
      <trkpt lat="44.88161" lon="6.77386">
        <ele>2000</ele>
        <time>2021-12-22T11:46:32Z</time>
      </trkpt>
      <trkpt lat="44.88164" lon="6.77397">
        <ele>1999.8</ele>
        <time>2021-12-22T11:46:33Z</time>
      </trkpt>
      <trkpt lat="44.88165" lon="6.77398">
        <ele>1999.7</ele>
        <time>2021-12-22T11:46:34Z</time>
      </trkpt>
      <trkpt lat="44.88165" lon="6.77401">
        <ele>1999.8</ele>
        <time>2021-12-22T11:49:27Z</time>
      </trkpt>
      <trkpt lat="44.8817" lon="6.77413">
        <ele>2002.9</ele>
        <time>2021-12-22T11:49:28Z</time>
      </trkpt>
      <trkpt lat="44.8817" lon="6.77414">
        <ele>2002.9</ele>
        <time>2021-12-22T11:49:29Z</time>
      </trkpt>
      <trkpt lat="44.88171" lon="6.77416">
        <ele>2003</ele>
        <time>2021-12-22T11:49:42Z</time>
      </trkpt>
      <trkpt lat="44.88175" lon="6.77429">
        <ele>2003.5</ele>
        <time>2021-12-22T11:49:43Z</time>
      </trkpt>
      <trkpt lat="44.88175" lon="6.7743">
        <ele>2003.4</ele>
        <time>2021-12-22T11:49:44Z</time>
      </trkpt>
      <trkpt lat="44.88175" lon="6.77431">
        <ele>2003.4</ele>
        <time>2021-12-22T11:49:45Z</time>
      </trkpt>
      <trkpt lat="44.88176" lon="6.77432">
        <ele>2003.4</ele>
        <time>2021-12-22T11:49:46Z</time>
      </trkpt>
      <trkpt lat="44.88176" lon="6.77434">
        <ele>2003.5</ele>
        <time>2021-12-22T11:49:47Z</time>
      </trkpt>
      <trkpt lat="44.88176" lon="6.77438">
        <ele>2003.8</ele>
        <time>2021-12-22T11:49:49Z</time>
      </trkpt>
      <trkpt lat="44.88176" lon="6.7744">
        <ele>2003.9</ele>
        <time>2021-12-22T11:49:50Z</time>
      </trkpt>
      <trkpt lat="44.88176" lon="6.77442">
        <ele>2003.9</ele>
        <time>2021-12-22T11:50:07Z</time>
      </trkpt>
      <trkpt lat="44.88179" lon="6.77453">
        <ele>2004.3</ele>
        <time>2021-12-22T11:50:08Z</time>
      </trkpt>
      <trkpt lat="44.8818" lon="6.77454">
        <ele>2004.3</ele>
        <time>2021-12-22T11:50:09Z</time>
      </trkpt>
      <trkpt lat="44.88181" lon="6.77456">
        <ele>2004.5</ele>
        <time>2021-12-22T11:51:01Z</time>
      </trkpt>
      <trkpt lat="44.8818" lon="6.77468">
        <ele>2007.9</ele>
        <time>2021-12-22T11:51:02Z</time>
      </trkpt>
      <trkpt lat="44.88179" lon="6.77469">
        <ele>2007.9</ele>
        <time>2021-12-22T11:51:03Z</time>
      </trkpt>
      <trkpt lat="44.88179" lon="6.7747">
        <ele>2008</ele>
        <time>2021-12-22T11:51:47Z</time>
      </trkpt>
      <trkpt lat="44.88177" lon="6.77483">
        <ele>2007.5</ele>
        <time>2021-12-22T11:51:48Z</time>
      </trkpt>
      <trkpt lat="44.88176" lon="6.77484">
        <ele>2007.4</ele>
        <time>2021-12-22T11:51:49Z</time>
      </trkpt>
      <trkpt lat="44.88176" lon="6.77486">
        <ele>2007.4</ele>
        <time>2021-12-22T11:52:04Z</time>
      </trkpt>
      <trkpt lat="44.88182" lon="6.77498">
        <ele>2007.7</ele>
        <time>2021-12-22T11:52:05Z</time>
      </trkpt>
      <trkpt lat="44.88182" lon="6.77499">
        <ele>2007.9</ele>
        <time>2021-12-22T11:52:06Z</time>
      </trkpt>
      <trkpt lat="44.88184" lon="6.77501">
        <ele>2008.1</ele>
        <time>2021-12-22T11:52:52Z</time>
      </trkpt>
      <trkpt lat="44.88185" lon="6.77515">
        <ele>2010</ele>
        <time>2021-12-22T11:52:53Z</time>
      </trkpt>
      <trkpt lat="44.88185" lon="6.77516">
        <ele>2010.4</ele>
        <time>2021-12-22T11:52:54Z</time>
      </trkpt>
      <trkpt lat="44.88185" lon="6.77518">
        <ele>2010.5</ele>
        <time>2021-12-22T11:52:56Z</time>
      </trkpt>
      <trkpt lat="44.88185" lon="6.77519">
        <ele>2010.5</ele>
        <time>2021-12-22T11:52:57Z</time>
      </trkpt>
      <trkpt lat="44.88184" lon="6.77523">
        <ele>2010.9</ele>
        <time>2021-12-22T11:53:00Z</time>
      </trkpt>
      <trkpt lat="44.88184" lon="6.77524">
        <ele>2011.3</ele>
        <time>2021-12-22T11:53:01Z</time>
      </trkpt>
      <trkpt lat="44.88184" lon="6.77527">
        <ele>2011.5</ele>
        <time>2021-12-22T11:53:15Z</time>
      </trkpt>
      <trkpt lat="44.88183" lon="6.7754">
        <ele>2013.4</ele>
        <time>2021-12-22T11:53:16Z</time>
      </trkpt>
      <trkpt lat="44.88182" lon="6.77541">
        <ele>2013.5</ele>
        <time>2021-12-22T11:53:17Z</time>
      </trkpt>
      <trkpt lat="44.88182" lon="6.77543">
        <ele>2013.5</ele>
        <time>2021-12-22T11:53:46Z</time>
      </trkpt>
      <trkpt lat="44.88181" lon="6.77555">
        <ele>2014.5</ele>
        <time>2021-12-22T11:53:47Z</time>
      </trkpt>
      <trkpt lat="44.88181" lon="6.77559">
        <ele>2014.6</ele>
        <time>2021-12-22T11:53:49Z</time>
      </trkpt>
      <trkpt lat="44.88181" lon="6.7756">
        <ele>2014.5</ele>
        <time>2021-12-22T11:53:50Z</time>
      </trkpt>
      <trkpt lat="44.88181" lon="6.77563">
        <ele>2014.6</ele>
        <time>2021-12-22T11:53:53Z</time>
      </trkpt>
      <trkpt lat="44.8818" lon="6.77566">
        <ele>2014.7</ele>
        <time>2021-12-22T11:53:54Z</time>
      </trkpt>
      <trkpt lat="44.8818" lon="6.77568">
        <ele>2015</ele>
        <time>2021-12-22T11:53:55Z</time>
      </trkpt>
      <trkpt lat="44.8818" lon="6.77569">
        <ele>2015.1</ele>
        <time>2021-12-22T11:54:00Z</time>
      </trkpt>
      <trkpt lat="44.8818" lon="6.77575">
        <ele>2015.4</ele>
        <time>2021-12-22T11:54:01Z</time>
      </trkpt>
      <trkpt lat="44.88178" lon="6.77581">
        <ele>2015.2</ele>
        <time>2021-12-22T11:54:05Z</time>
      </trkpt>
      <trkpt lat="44.88178" lon="6.77582">
        <ele>2015.1</ele>
        <time>2021-12-22T11:54:06Z</time>
      </trkpt>
      <trkpt lat="44.88177" lon="6.77583">
        <ele>2015.2</ele>
        <time>2021-12-22T11:54:12Z</time>
      </trkpt>
      <trkpt lat="44.88175" lon="6.77588">
        <ele>2015.7</ele>
        <time>2021-12-22T11:54:13Z</time>
      </trkpt>
      <trkpt lat="44.88173" lon="6.7759">
        <ele>2015.9</ele>
        <time>2021-12-22T11:54:15Z</time>
      </trkpt>
      <trkpt lat="44.88173" lon="6.77591">
        <ele>2016</ele>
        <time>2021-12-22T11:54:16Z</time>
      </trkpt>
      <trkpt lat="44.88172" lon="6.77592">
        <ele>2016</ele>
        <time>2021-12-22T11:54:19Z</time>
      </trkpt>
      <trkpt lat="44.8817" lon="6.77595">
        <ele>2016.3</ele>
        <time>2021-12-22T11:54:20Z</time>
      </trkpt>
      <trkpt lat="44.8817" lon="6.77596">
        <ele>2016.5</ele>
        <time>2021-12-22T11:54:21Z</time>
      </trkpt>
      <trkpt lat="44.88169" lon="6.77597">
        <ele>2016.9</ele>
        <time>2021-12-22T11:54:27Z</time>
      </trkpt>
      <trkpt lat="44.88167" lon="6.77602">
        <ele>2017.2</ele>
        <time>2021-12-22T11:54:28Z</time>
      </trkpt>
      <trkpt lat="44.88167" lon="6.77604">
        <ele>2017.1</ele>
        <time>2021-12-22T11:54:29Z</time>
      </trkpt>
      <trkpt lat="44.88167" lon="6.77605">
        <ele>2017.2</ele>
        <time>2021-12-22T11:54:30Z</time>
      </trkpt>
      <trkpt lat="44.88167" lon="6.77607">
        <ele>2017.4</ele>
        <time>2021-12-22T11:54:32Z</time>
      </trkpt>
      <trkpt lat="44.88167" lon="6.77609">
        <ele>2017.4</ele>
        <time>2021-12-22T11:54:33Z</time>
      </trkpt>
      <trkpt lat="44.88166" lon="6.7761">
        <ele>2017.4</ele>
        <time>2021-12-22T11:54:34Z</time>
      </trkpt>
      <trkpt lat="44.88165" lon="6.77612">
        <ele>2017.4</ele>
        <time>2021-12-22T11:54:35Z</time>
      </trkpt>
      <trkpt lat="44.88165" lon="6.77614">
        <ele>2017.5</ele>
        <time>2021-12-22T11:54:36Z</time>
      </trkpt>
      <trkpt lat="44.88165" lon="6.77615">
        <ele>2017.6</ele>
        <time>2021-12-22T11:54:37Z</time>
      </trkpt>
      <trkpt lat="44.88163" lon="6.77622">
        <ele>2017.5</ele>
        <time>2021-12-22T11:54:42Z</time>
      </trkpt>
      <trkpt lat="44.88161" lon="6.77629">
        <ele>2016.7</ele>
        <time>2021-12-22T11:54:47Z</time>
      </trkpt>
      <trkpt lat="44.88161" lon="6.77631">
        <ele>2016.1</ele>
        <time>2021-12-22T11:54:49Z</time>
      </trkpt>
      <trkpt lat="44.88161" lon="6.77633">
        <ele>2015.9</ele>
        <time>2021-12-22T11:54:50Z</time>
      </trkpt>
      <trkpt lat="44.8816" lon="6.77635">
        <ele>2015.9</ele>
        <time>2021-12-22T11:55:04Z</time>
      </trkpt>
      <trkpt lat="44.88158" lon="6.77648">
        <ele>2015.3</ele>
        <time>2021-12-22T11:55:05Z</time>
      </trkpt>
      <trkpt lat="44.88158" lon="6.77649">
        <ele>2015.5</ele>
        <time>2021-12-22T11:55:06Z</time>
      </trkpt>
      <trkpt lat="44.88158" lon="6.77651">
        <ele>2015.5</ele>
        <time>2021-12-22T11:55:07Z</time>
      </trkpt>
      <trkpt lat="44.88157" lon="6.77652">
        <ele>2015.6</ele>
        <time>2021-12-22T11:55:08Z</time>
      </trkpt>
      <trkpt lat="44.88157" lon="6.77656">
        <ele>2015.7</ele>
        <time>2021-12-22T11:55:10Z</time>
      </trkpt>
      <trkpt lat="44.88157" lon="6.77657">
        <ele>2015.9</ele>
        <time>2021-12-22T11:55:11Z</time>
      </trkpt>
      <trkpt lat="44.88157" lon="6.77659">
        <ele>2016</ele>
        <time>2021-12-22T11:55:43Z</time>
      </trkpt>
      <trkpt lat="44.88158" lon="6.77672">
        <ele>2016.8</ele>
        <time>2021-12-22T11:55:44Z</time>
      </trkpt>
      <trkpt lat="44.88159" lon="6.77673">
        <ele>2016.8</ele>
        <time>2021-12-22T11:55:45Z</time>
      </trkpt>
      <trkpt lat="44.88159" lon="6.77674">
        <ele>2016.8</ele>
        <time>2021-12-22T11:55:46Z</time>
      </trkpt>
      <trkpt lat="44.8816" lon="6.77676">
        <ele>2016.8</ele>
        <time>2021-12-22T11:55:47Z</time>
      </trkpt>
      <trkpt lat="44.8816" lon="6.77679">
        <ele>2017.1</ele>
        <time>2021-12-22T11:55:49Z</time>
      </trkpt>
      <trkpt lat="44.88161" lon="6.77681">
        <ele>2017.3</ele>
        <time>2021-12-22T11:55:50Z</time>
      </trkpt>
      <trkpt lat="44.88161" lon="6.77683">
        <ele>2017.6</ele>
        <time>2021-12-22T11:55:54Z</time>
      </trkpt>
      <trkpt lat="44.88163" lon="6.77686">
        <ele>2017.8</ele>
        <time>2021-12-22T11:55:55Z</time>
      </trkpt>
      <trkpt lat="44.88163" lon="6.77687">
        <ele>2017.7</ele>
        <time>2021-12-22T11:55:56Z</time>
      </trkpt>
      <trkpt lat="44.88164" lon="6.77689">
        <ele>2018</ele>
        <time>2021-12-22T11:56:00Z</time>
      </trkpt>
      <trkpt lat="44.88165" lon="6.77692">
        <ele>2018.2</ele>
        <time>2021-12-22T11:56:01Z</time>
      </trkpt>
      <trkpt lat="44.88166" lon="6.77694">
        <ele>2018.2</ele>
        <time>2021-12-22T11:56:03Z</time>
      </trkpt>
      <trkpt lat="44.88166" lon="6.77695">
        <ele>2018.2</ele>
        <time>2021-12-22T11:56:04Z</time>
      </trkpt>
      <trkpt lat="44.88167" lon="6.77696">
        <ele>2018.5</ele>
        <time>2021-12-22T11:56:18Z</time>
      </trkpt>
      <trkpt lat="44.88168" lon="6.7771">
        <ele>2019.7</ele>
        <time>2021-12-22T11:56:19Z</time>
      </trkpt>
      <trkpt lat="44.88169" lon="6.77711">
        <ele>2019.9</ele>
        <time>2021-12-22T11:56:20Z</time>
      </trkpt>
      <trkpt lat="44.88169" lon="6.77712">
        <ele>2020.1</ele>
        <time>2021-12-22T11:56:35Z</time>
      </trkpt>
      <trkpt lat="44.8817" lon="6.77726">
        <ele>2021.9</ele>
        <time>2021-12-22T11:56:36Z</time>
      </trkpt>
      <trkpt lat="44.8817" lon="6.77727">
        <ele>2022</ele>
        <time>2021-12-22T11:56:37Z</time>
      </trkpt>
      <trkpt lat="44.8817" lon="6.77729">
        <ele>2022.2</ele>
        <time>2021-12-22T11:56:49Z</time>
      </trkpt>
      <trkpt lat="44.88172" lon="6.7774">
        <ele>2023.4</ele>
        <time>2021-12-22T11:56:50Z</time>
      </trkpt>
      <trkpt lat="44.88173" lon="6.77746">
        <ele>2023.2</ele>
        <time>2021-12-22T11:56:53Z</time>
      </trkpt>
      <trkpt lat="44.88174" lon="6.77753">
        <ele>2022.8</ele>
        <time>2021-12-22T11:56:56Z</time>
      </trkpt>
      <trkpt lat="44.88175" lon="6.77755">
        <ele>2023</ele>
        <time>2021-12-22T11:56:57Z</time>
      </trkpt>
      <trkpt lat="44.88175" lon="6.77756">
        <ele>2023</ele>
        <time>2021-12-22T11:56:58Z</time>
      </trkpt>
      <trkpt lat="44.88176" lon="6.77758">
        <ele>2023.2</ele>
        <time>2021-12-22T11:58:14Z</time>
      </trkpt>
      <trkpt lat="44.88182" lon="6.77767">
        <ele>2023.4</ele>
        <time>2021-12-22T11:58:15Z</time>
      </trkpt>
      <trkpt lat="44.88186" lon="6.77771">
        <ele>2022.6</ele>
        <time>2021-12-22T11:58:19Z</time>
      </trkpt>
      <trkpt lat="44.88191" lon="6.77776">
        <ele>2021.5</ele>
        <time>2021-12-22T11:58:23Z</time>
      </trkpt>
      <trkpt lat="44.88196" lon="6.7778">
        <ele>2020.7</ele>
        <time>2021-12-22T11:58:26Z</time>
      </trkpt>
      <trkpt lat="44.882" lon="6.77781">
        <ele>2019.7</ele>
        <time>2021-12-22T11:58:30Z</time>
      </trkpt>
      <trkpt lat="44.88205" lon="6.77783">
        <ele>2018.1</ele>
        <time>2021-12-22T11:58:35Z</time>
      </trkpt>
      <trkpt lat="44.88208" lon="6.77785">
        <ele>2017.2</ele>
        <time>2021-12-22T11:58:37Z</time>
      </trkpt>
      <trkpt lat="44.88208" lon="6.77786">
        <ele>2016.8</ele>
        <time>2021-12-22T11:58:38Z</time>
      </trkpt>
      <trkpt lat="44.88209" lon="6.77787">
        <ele>2016.5</ele>
        <time>2021-12-22T11:58:39Z</time>
      </trkpt>
      <trkpt lat="44.8821" lon="6.77788">
        <ele>2016.1</ele>
        <time>2021-12-22T11:58:40Z</time>
      </trkpt>
      <trkpt lat="44.8821" lon="6.77789">
        <ele>2015.9</ele>
        <time>2021-12-22T11:58:41Z</time>
      </trkpt>
      <trkpt lat="44.88211" lon="6.7779">
        <ele>2015.9</ele>
        <time>2021-12-22T11:58:42Z</time>
      </trkpt>
      <trkpt lat="44.88212" lon="6.77791">
        <ele>2015.8</ele>
        <time>2021-12-22T11:59:07Z</time>
      </trkpt>
      <trkpt lat="44.88217" lon="6.77798">
        <ele>2017.1</ele>
        <time>2021-12-22T11:59:08Z</time>
      </trkpt>
      <trkpt lat="44.8822" lon="6.77802">
        <ele>2017.9</ele>
        <time>2021-12-22T11:59:11Z</time>
      </trkpt>
      <trkpt lat="44.88226" lon="6.77806">
        <ele>2018.6</ele>
        <time>2021-12-22T11:59:15Z</time>
      </trkpt>
      <trkpt lat="44.8823" lon="6.77808">
        <ele>2018.9</ele>
        <time>2021-12-22T11:59:18Z</time>
      </trkpt>
      <trkpt lat="44.88233" lon="6.77811">
        <ele>2018.8</ele>
        <time>2021-12-22T11:59:21Z</time>
      </trkpt>
      <trkpt lat="44.88234" lon="6.77811">
        <ele>2018.5</ele>
        <time>2021-12-22T11:59:22Z</time>
      </trkpt>
      <trkpt lat="44.88235" lon="6.77812">
        <ele>2018.6</ele>
        <time>2021-12-22T11:59:31Z</time>
      </trkpt>
      <trkpt lat="44.8824" lon="6.77819">
        <ele>2018.8</ele>
        <time>2021-12-22T11:59:32Z</time>
      </trkpt>
      <trkpt lat="44.88242" lon="6.77821">
        <ele>2018.7</ele>
        <time>2021-12-22T11:59:34Z</time>
      </trkpt>
      <trkpt lat="44.88243" lon="6.77822">
        <ele>2018.5</ele>
        <time>2021-12-22T11:59:35Z</time>
      </trkpt>
      <trkpt lat="44.88244" lon="6.77824">
        <ele>2018.5</ele>
        <time>2021-12-22T11:59:37Z</time>
      </trkpt>
      <trkpt lat="44.88245" lon="6.77826">
        <ele>2018.9</ele>
        <time>2021-12-22T11:59:38Z</time>
      </trkpt>
      <trkpt lat="44.88246" lon="6.77829">
        <ele>2019.5</ele>
        <time>2021-12-22T11:59:40Z</time>
      </trkpt>
      <trkpt lat="44.88246" lon="6.7783">
        <ele>2019.5</ele>
        <time>2021-12-22T11:59:41Z</time>
      </trkpt>
      <trkpt lat="44.88247" lon="6.77833">
        <ele>2019.4</ele>
        <time>2021-12-22T11:59:43Z</time>
      </trkpt>
      <trkpt lat="44.88248" lon="6.77834">
        <ele>2019.2</ele>
        <time>2021-12-22T11:59:44Z</time>
      </trkpt>
      <trkpt lat="44.88248" lon="6.77835">
        <ele>2019.1</ele>
        <time>2021-12-22T11:59:45Z</time>
      </trkpt>
      <trkpt lat="44.88249" lon="6.77837">
        <ele>2019.3</ele>
        <time>2021-12-22T11:59:51Z</time>
      </trkpt>
      <trkpt lat="44.88251" lon="6.77842">
        <ele>2019.3</ele>
        <time>2021-12-22T11:59:52Z</time>
      </trkpt>
      <trkpt lat="44.88251" lon="6.77843">
        <ele>2019.4</ele>
        <time>2021-12-22T11:59:53Z</time>
      </trkpt>
      <trkpt lat="44.88251" lon="6.77845">
        <ele>2019.4</ele>
        <time>2021-12-22T12:00:08Z</time>
      </trkpt>
      <trkpt lat="44.88253" lon="6.77859">
        <ele>2020.5</ele>
        <time>2021-12-22T12:00:09Z</time>
      </trkpt>
      <trkpt lat="44.88254" lon="6.7786">
        <ele>2020.7</ele>
        <time>2021-12-22T12:00:10Z</time>
      </trkpt>
      <trkpt lat="44.88254" lon="6.77862">
        <ele>2021.1</ele>
        <time>2021-12-22T12:00:25Z</time>
      </trkpt>
      <trkpt lat="44.88257" lon="6.77875">
        <ele>2022.4</ele>
        <time>2021-12-22T12:00:26Z</time>
      </trkpt>
      <trkpt lat="44.88257" lon="6.77876">
        <ele>2022.4</ele>
        <time>2021-12-22T12:00:27Z</time>
      </trkpt>
      <trkpt lat="44.88258" lon="6.77878">
        <ele>2022.6</ele>
        <time>2021-12-22T12:01:02Z</time>
      </trkpt>
      <trkpt lat="44.88263" lon="6.77889">
        <ele>2023</ele>
        <time>2021-12-22T12:01:03Z</time>
      </trkpt>
      <trkpt lat="44.88265" lon="6.77897">
        <ele>2022.4</ele>
        <time>2021-12-22T12:01:07Z</time>
      </trkpt>
      <trkpt lat="44.88265" lon="6.77905">
        <ele>2022.1</ele>
        <time>2021-12-22T12:01:11Z</time>
      </trkpt>
      <trkpt lat="44.88266" lon="6.7791">
        <ele>2021.4</ele>
        <time>2021-12-22T12:01:14Z</time>
      </trkpt>
      <trkpt lat="44.88267" lon="6.77911">
        <ele>2021.3</ele>
        <time>2021-12-22T12:01:15Z</time>
      </trkpt>
      <trkpt lat="44.88267" lon="6.77913">
        <ele>2021</ele>
        <time>2021-12-22T12:01:26Z</time>
      </trkpt>
      <trkpt lat="44.88266" lon="6.77923">
        <ele>2020.2</ele>
        <time>2021-12-22T12:01:27Z</time>
      </trkpt>
      <trkpt lat="44.88265" lon="6.77925">
        <ele>2020.3</ele>
        <time>2021-12-22T12:01:28Z</time>
      </trkpt>
      <trkpt lat="44.88265" lon="6.77927">
        <ele>2020.3</ele>
        <time>2021-12-22T12:01:31Z</time>
      </trkpt>
      <trkpt lat="44.88264" lon="6.7793">
        <ele>2020.1</ele>
        <time>2021-12-22T12:01:32Z</time>
      </trkpt>
      <trkpt lat="44.88263" lon="6.77934">
        <ele>2019.8</ele>
        <time>2021-12-22T12:01:35Z</time>
      </trkpt>
      <trkpt lat="44.88262" lon="6.77935">
        <ele>2019.7</ele>
        <time>2021-12-22T12:01:36Z</time>
      </trkpt>
      <trkpt lat="44.88262" lon="6.77938">
        <ele>2019.9</ele>
        <time>2021-12-22T12:01:51Z</time>
      </trkpt>
      <trkpt lat="44.88258" lon="6.7795">
        <ele>2020.2</ele>
        <time>2021-12-22T12:01:52Z</time>
      </trkpt>
      <trkpt lat="44.88258" lon="6.77956">
        <ele>2020.5</ele>
        <time>2021-12-22T12:01:55Z</time>
      </trkpt>
      <trkpt lat="44.88258" lon="6.77957">
        <ele>2020.5</ele>
        <time>2021-12-22T12:01:56Z</time>
      </trkpt>
      <trkpt lat="44.88258" lon="6.77959">
        <ele>2020.5</ele>
        <time>2021-12-22T12:02:08Z</time>
      </trkpt>
      <trkpt lat="44.88264" lon="6.77969">
        <ele>2020.5</ele>
        <time>2021-12-22T12:02:09Z</time>
      </trkpt>
      <trkpt lat="44.88265" lon="6.7797">
        <ele>2020.4</ele>
        <time>2021-12-22T12:02:10Z</time>
      </trkpt>
      <trkpt lat="44.88266" lon="6.77971">
        <ele>2020.3</ele>
        <time>2021-12-22T12:02:11Z</time>
      </trkpt>
      <trkpt lat="44.88267" lon="6.77972">
        <ele>2020.3</ele>
        <time>2021-12-22T12:02:12Z</time>
      </trkpt>
      <trkpt lat="44.88271" lon="6.77976">
        <ele>2020.1</ele>
        <time>2021-12-22T12:02:16Z</time>
      </trkpt>
      <trkpt lat="44.88275" lon="6.77979">
        <ele>2019.3</ele>
        <time>2021-12-22T12:02:20Z</time>
      </trkpt>
      <trkpt lat="44.88276" lon="6.7798">
        <ele>2019.2</ele>
        <time>2021-12-22T12:02:21Z</time>
      </trkpt>
      <trkpt lat="44.88276" lon="6.7798">
        <ele>2019</ele>
        <time>2021-12-22T12:02:43Z</time>
      </trkpt>
      <trkpt lat="44.88281" lon="6.77991">
        <ele>2018.9</ele>
        <time>2021-12-22T12:02:44Z</time>
      </trkpt>
      <trkpt lat="44.88283" lon="6.78001">
        <ele>2017.8</ele>
        <time>2021-12-22T12:02:46Z</time>
      </trkpt>
      <trkpt lat="44.88285" lon="6.78011">
        <ele>2016.8</ele>
        <time>2021-12-22T12:02:48Z</time>
      </trkpt>
      <trkpt lat="44.88286" lon="6.78017">
        <ele>2016.5</ele>
        <time>2021-12-22T12:02:50Z</time>
      </trkpt>
      <trkpt lat="44.88286" lon="6.78018">
        <ele>2016</ele>
        <time>2021-12-22T12:02:51Z</time>
      </trkpt>
      <trkpt lat="44.88286" lon="6.7802">
        <ele>2015.5</ele>
        <time>2021-12-22T12:02:57Z</time>
      </trkpt>
      <trkpt lat="44.88285" lon="6.78026">
        <ele>2013.8</ele>
        <time>2021-12-22T12:02:58Z</time>
      </trkpt>
      <trkpt lat="44.88284" lon="6.78027">
        <ele>2013.6</ele>
        <time>2021-12-22T12:02:59Z</time>
      </trkpt>
      <trkpt lat="44.88283" lon="6.78029">
        <ele>2013.2</ele>
        <time>2021-12-22T12:03:09Z</time>
      </trkpt>
      <trkpt lat="44.88276" lon="6.78035">
        <ele>2012.4</ele>
        <time>2021-12-22T12:03:10Z</time>
      </trkpt>
      <trkpt lat="44.88272" lon="6.78036">
        <ele>2013</ele>
        <time>2021-12-22T12:03:14Z</time>
      </trkpt>
      <trkpt lat="44.88271" lon="6.78037">
        <ele>2013.2</ele>
        <time>2021-12-22T12:03:15Z</time>
      </trkpt>
      <trkpt lat="44.8827" lon="6.78037">
        <ele>2013.3</ele>
        <time>2021-12-22T12:03:28Z</time>
      </trkpt>
      <trkpt lat="44.88261" lon="6.78043">
        <ele>2013.5</ele>
        <time>2021-12-22T12:03:29Z</time>
      </trkpt>
      <trkpt lat="44.8826" lon="6.78043">
        <ele>2013.6</ele>
        <time>2021-12-22T12:03:30Z</time>
      </trkpt>
      <trkpt lat="44.88259" lon="6.78044">
        <ele>2013.6</ele>
        <time>2021-12-22T12:03:36Z</time>
      </trkpt>
      <trkpt lat="44.88254" lon="6.78048">
        <ele>2014.2</ele>
        <time>2021-12-22T12:03:37Z</time>
      </trkpt>
      <trkpt lat="44.88252" lon="6.78049">
        <ele>2014.6</ele>
        <time>2021-12-22T12:03:39Z</time>
      </trkpt>
      <trkpt lat="44.88251" lon="6.7805">
        <ele>2015</ele>
        <time>2021-12-22T12:03:40Z</time>
      </trkpt>
      <trkpt lat="44.8825" lon="6.78051">
        <ele>2015.5</ele>
        <time>2021-12-22T12:03:49Z</time>
      </trkpt>
      <trkpt lat="44.88244" lon="6.78054">
        <ele>2016.5</ele>
        <time>2021-12-22T12:03:50Z</time>
      </trkpt>
      <trkpt lat="44.88243" lon="6.78054">
        <ele>2016.6</ele>
        <time>2021-12-22T12:03:51Z</time>
      </trkpt>
      <trkpt lat="44.88242" lon="6.78055">
        <ele>2016.9</ele>
        <time>2021-12-22T12:04:08Z</time>
      </trkpt>
      <trkpt lat="44.88233" lon="6.7806">
        <ele>2018.3</ele>
        <time>2021-12-22T12:04:09Z</time>
      </trkpt>
      <trkpt lat="44.88233" lon="6.78061">
        <ele>2018.4</ele>
        <time>2021-12-22T12:04:10Z</time>
      </trkpt>
      <trkpt lat="44.88232" lon="6.78062">
        <ele>2018.5</ele>
        <time>2021-12-22T12:04:19Z</time>
      </trkpt>
      <trkpt lat="44.88225" lon="6.78065">
        <ele>2019</ele>
        <time>2021-12-22T12:04:20Z</time>
      </trkpt>
      <trkpt lat="44.88224" lon="6.78066">
        <ele>2019.3</ele>
        <time>2021-12-22T12:04:21Z</time>
      </trkpt>
      <trkpt lat="44.88223" lon="6.78067">
        <ele>2019.3</ele>
        <time>2021-12-22T12:04:22Z</time>
      </trkpt>
      <trkpt lat="44.88222" lon="6.78066">
        <ele>2019.5</ele>
        <time>2021-12-22T12:04:38Z</time>
      </trkpt>
      <trkpt lat="44.88214" lon="6.7806">
        <ele>2021</ele>
        <time>2021-12-22T12:04:39Z</time>
      </trkpt>
      <trkpt lat="44.88214" lon="6.7806">
        <ele>2021.1</ele>
        <time>2021-12-22T12:04:40Z</time>
      </trkpt>
      <trkpt lat="44.88212" lon="6.78059">
        <ele>2021.3</ele>
        <time>2021-12-22T12:04:51Z</time>
      </trkpt>
      <trkpt lat="44.88204" lon="6.7806">
        <ele>2022</ele>
        <time>2021-12-22T12:04:52Z</time>
      </trkpt>
      <trkpt lat="44.88203" lon="6.7806">
        <ele>2022.3</ele>
        <time>2021-12-22T12:04:53Z</time>
      </trkpt>
      <trkpt lat="44.88202" lon="6.7806">
        <ele>2022.5</ele>
        <time>2021-12-22T12:05:05Z</time>
      </trkpt>
      <trkpt lat="44.88195" lon="6.78059">
        <ele>2023.7</ele>
        <time>2021-12-22T12:05:06Z</time>
      </trkpt>
      <trkpt lat="44.88194" lon="6.78059">
        <ele>2023.9</ele>
        <time>2021-12-22T12:05:07Z</time>
      </trkpt>
      <trkpt lat="44.88193" lon="6.78059">
        <ele>2024</ele>
        <time>2021-12-22T12:05:08Z</time>
      </trkpt>
      <trkpt lat="44.88192" lon="6.7806">
        <ele>2024.3</ele>
        <time>2021-12-22T12:05:09Z</time>
      </trkpt>
      <trkpt lat="44.88191" lon="6.7806">
        <ele>2024.4</ele>
        <time>2021-12-22T12:05:10Z</time>
      </trkpt>
      <trkpt lat="44.8819" lon="6.7806">
        <ele>2024.9</ele>
        <time>2021-12-22T12:05:24Z</time>
      </trkpt>
      <trkpt lat="44.88181" lon="6.78064">
        <ele>2027.1</ele>
        <time>2021-12-22T12:05:25Z</time>
      </trkpt>
      <trkpt lat="44.8818" lon="6.78064">
        <ele>2027.3</ele>
        <time>2021-12-22T12:05:26Z</time>
      </trkpt>
      <trkpt lat="44.88179" lon="6.78065">
        <ele>2027.4</ele>
        <time>2021-12-22T12:05:27Z</time>
      </trkpt>
      <trkpt lat="44.88178" lon="6.78066">
        <ele>2027.5</ele>
        <time>2021-12-22T12:05:28Z</time>
      </trkpt>
      <trkpt lat="44.88177" lon="6.78066">
        <ele>2027.8</ele>
        <time>2021-12-22T12:05:29Z</time>
      </trkpt>
      <trkpt lat="44.88175" lon="6.78068">
        <ele>2028.2</ele>
        <time>2021-12-22T12:05:40Z</time>
      </trkpt>
      <trkpt lat="44.88169" lon="6.78074">
        <ele>2030.2</ele>
        <time>2021-12-22T12:05:41Z</time>
      </trkpt>
      <trkpt lat="44.88169" lon="6.78075">
        <ele>2030.3</ele>
        <time>2021-12-22T12:05:42Z</time>
      </trkpt>
      <trkpt lat="44.88168" lon="6.78075">
        <ele>2030.6</ele>
        <time>2021-12-22T12:05:43Z</time>
      </trkpt>
      <trkpt lat="44.88168" lon="6.78076">
        <ele>2030.8</ele>
        <time>2021-12-22T12:05:44Z</time>
      </trkpt>
      <trkpt lat="44.88167" lon="6.78077">
        <ele>2030.9</ele>
        <time>2021-12-22T12:05:45Z</time>
      </trkpt>
      <trkpt lat="44.88167" lon="6.78078">
        <ele>2030.9</ele>
        <time>2021-12-22T12:05:46Z</time>
      </trkpt>
      <trkpt lat="44.88166" lon="6.78079">
        <ele>2031.4</ele>
        <time>2021-12-22T12:06:06Z</time>
      </trkpt>
      <trkpt lat="44.88161" lon="6.7809">
        <ele>2033.6</ele>
        <time>2021-12-22T12:06:07Z</time>
      </trkpt>
      <trkpt lat="44.88161" lon="6.7809">
        <ele>2033.5</ele>
        <time>2021-12-22T12:06:08Z</time>
      </trkpt>
      <trkpt lat="44.88161" lon="6.7809">
        <ele>2033.6</ele>
        <time>2021-12-22T12:06:23Z</time>
      </trkpt>
      <trkpt lat="44.88156" lon="6.781">
        <ele>2034</ele>
        <time>2021-12-22T12:06:24Z</time>
      </trkpt>
      <trkpt lat="44.88155" lon="6.78101">
        <ele>2034</ele>
        <time>2021-12-22T12:06:25Z</time>
      </trkpt>
      <trkpt lat="44.88154" lon="6.78103">
        <ele>2034</ele>
        <time>2021-12-22T12:06:37Z</time>
      </trkpt>
      <trkpt lat="44.88149" lon="6.78114">
        <ele>2034.2</ele>
        <time>2021-12-22T12:06:38Z</time>
      </trkpt>
      <trkpt lat="44.88149" lon="6.78115">
        <ele>2034.2</ele>
        <time>2021-12-22T12:06:39Z</time>
      </trkpt>
      <trkpt lat="44.88148" lon="6.78117">
        <ele>2034.2</ele>
        <time>2021-12-22T12:06:44Z</time>
      </trkpt>
      <trkpt lat="44.88146" lon="6.78121">
        <ele>2033.9</ele>
        <time>2021-12-22T12:06:45Z</time>
      </trkpt>
      <trkpt lat="44.88145" lon="6.78122">
        <ele>2033.7</ele>
        <time>2021-12-22T12:06:46Z</time>
      </trkpt>
      <trkpt lat="44.88145" lon="6.78123">
        <ele>2033.7</ele>
        <time>2021-12-22T12:06:47Z</time>
      </trkpt>
      <trkpt lat="44.88144" lon="6.78125">
        <ele>2033.7</ele>
        <time>2021-12-22T12:06:52Z</time>
      </trkpt>
      <trkpt lat="44.88142" lon="6.78129">
        <ele>2033.7</ele>
        <time>2021-12-22T12:06:53Z</time>
      </trkpt>
      <trkpt lat="44.88141" lon="6.78131">
        <ele>2033.6</ele>
        <time>2021-12-22T12:06:54Z</time>
      </trkpt>
      <trkpt lat="44.88141" lon="6.78132">
        <ele>2033.7</ele>
        <time>2021-12-22T12:06:55Z</time>
      </trkpt>
      <trkpt lat="44.88141" lon="6.78134">
        <ele>2033.8</ele>
        <time>2021-12-22T12:06:56Z</time>
      </trkpt>
      <trkpt lat="44.88138" lon="6.78141">
        <ele>2033</ele>
        <time>2021-12-22T12:07:01Z</time>
      </trkpt>
      <trkpt lat="44.88135" lon="6.78148">
        <ele>2031.9</ele>
        <time>2021-12-22T12:07:07Z</time>
      </trkpt>
      <trkpt lat="44.88134" lon="6.78149">
        <ele>2031.9</ele>
        <time>2021-12-22T12:07:08Z</time>
      </trkpt>
      <trkpt lat="44.88134" lon="6.7815">
        <ele>2031.9</ele>
        <time>2021-12-22T12:07:09Z</time>
      </trkpt>
      <trkpt lat="44.88133" lon="6.78153">
        <ele>2032</ele>
        <time>2021-12-22T12:07:11Z</time>
      </trkpt>
      <trkpt lat="44.88133" lon="6.78154">
        <ele>2032.1</ele>
        <time>2021-12-22T12:07:12Z</time>
      </trkpt>
      <trkpt lat="44.88132" lon="6.78155">
        <ele>2032.3</ele>
        <time>2021-12-22T12:07:13Z</time>
      </trkpt>
      <trkpt lat="44.88131" lon="6.78157">
        <ele>2032.2</ele>
        <time>2021-12-22T12:07:16Z</time>
      </trkpt>
      <trkpt lat="44.88131" lon="6.7816">
        <ele>2032.1</ele>
        <time>2021-12-22T12:07:17Z</time>
      </trkpt>
      <trkpt lat="44.8813" lon="6.7816">
        <ele>2032.1</ele>
        <time>2021-12-22T12:07:18Z</time>
      </trkpt>
      <trkpt lat="44.8813" lon="6.78162">
        <ele>2032.4</ele>
        <time>2021-12-22T12:07:27Z</time>
      </trkpt>
      <trkpt lat="44.88126" lon="6.78172">
        <ele>2032.5</ele>
        <time>2021-12-22T12:07:28Z</time>
      </trkpt>
      <trkpt lat="44.88126" lon="6.78173">
        <ele>2032.5</ele>
        <time>2021-12-22T12:07:29Z</time>
      </trkpt>
      <trkpt lat="44.88125" lon="6.78174">
        <ele>2032.7</ele>
        <time>2021-12-22T12:07:30Z</time>
      </trkpt>
      <trkpt lat="44.88125" lon="6.78176">
        <ele>2032.9</ele>
        <time>2021-12-22T12:07:36Z</time>
      </trkpt>
      <trkpt lat="44.88122" lon="6.78181">
        <ele>2033.1</ele>
        <time>2021-12-22T12:07:37Z</time>
      </trkpt>
      <trkpt lat="44.8812" lon="6.78184">
        <ele>2033.2</ele>
        <time>2021-12-22T12:07:39Z</time>
      </trkpt>
      <trkpt lat="44.8812" lon="6.78185">
        <ele>2033.3</ele>
        <time>2021-12-22T12:07:40Z</time>
      </trkpt>
      <trkpt lat="44.88119" lon="6.78186">
        <ele>2033.4</ele>
        <time>2021-12-22T12:07:54Z</time>
      </trkpt>
      <trkpt lat="44.88111" lon="6.78194">
        <ele>2034.1</ele>
        <time>2021-12-22T12:07:55Z</time>
      </trkpt>
      <trkpt lat="44.88111" lon="6.78195">
        <ele>2034.2</ele>
        <time>2021-12-22T12:07:56Z</time>
      </trkpt>
      <trkpt lat="44.88109" lon="6.78196">
        <ele>2034.3</ele>
        <time>2021-12-22T12:08:11Z</time>
      </trkpt>
      <trkpt lat="44.88102" lon="6.78204">
        <ele>2034.7</ele>
        <time>2021-12-22T12:08:12Z</time>
      </trkpt>
      <trkpt lat="44.88101" lon="6.78204">
        <ele>2034.8</ele>
        <time>2021-12-22T12:08:13Z</time>
      </trkpt>
      <trkpt lat="44.881" lon="6.78205">
        <ele>2034.9</ele>
        <time>2021-12-22T12:08:17Z</time>
      </trkpt>
      <trkpt lat="44.88098" lon="6.7821">
        <ele>2035</ele>
        <time>2021-12-22T12:08:18Z</time>
      </trkpt>
      <trkpt lat="44.88097" lon="6.7821">
        <ele>2035.1</ele>
        <time>2021-12-22T12:08:19Z</time>
      </trkpt>
      <trkpt lat="44.88095" lon="6.78212">
        <ele>2035.4</ele>
        <time>2021-12-22T12:08:35Z</time>
      </trkpt>
      <trkpt lat="44.88087" lon="6.78218">
        <ele>2036.8</ele>
        <time>2021-12-22T12:08:36Z</time>
      </trkpt>
      <trkpt lat="44.88086" lon="6.78219">
        <ele>2036.9</ele>
        <time>2021-12-22T12:08:37Z</time>
      </trkpt>
      <trkpt lat="44.88085" lon="6.7822">
        <ele>2036.9</ele>
        <time>2021-12-22T12:08:38Z</time>
      </trkpt>
      <trkpt lat="44.88084" lon="6.78221">
        <ele>2037.1</ele>
        <time>2021-12-22T12:08:39Z</time>
      </trkpt>
      <trkpt lat="44.88084" lon="6.78222">
        <ele>2036.9</ele>
        <time>2021-12-22T12:08:40Z</time>
      </trkpt>
      <trkpt lat="44.88083" lon="6.78223">
        <ele>2036.8</ele>
        <time>2021-12-22T12:08:41Z</time>
      </trkpt>
      <trkpt lat="44.88082" lon="6.78224">
        <ele>2037</ele>
        <time>2021-12-22T12:09:14Z</time>
      </trkpt>
      <trkpt lat="44.88074" lon="6.78232">
        <ele>2038.4</ele>
        <time>2021-12-22T12:09:15Z</time>
      </trkpt>
      <trkpt lat="44.88074" lon="6.78232">
        <ele>2038.4</ele>
        <time>2021-12-22T12:09:16Z</time>
      </trkpt>
      <trkpt lat="44.88074" lon="6.78233">
        <ele>2038.5</ele>
        <time>2021-12-22T12:10:04Z</time>
      </trkpt>
      <trkpt lat="44.88083" lon="6.78235">
        <ele>2037.9</ele>
        <time>2021-12-22T12:10:05Z</time>
      </trkpt>
      <trkpt lat="44.88084" lon="6.78235">
        <ele>2038</ele>
        <time>2021-12-22T12:10:06Z</time>
      </trkpt>
      <trkpt lat="44.88085" lon="6.78235">
        <ele>2038.2</ele>
        <time>2021-12-22T12:10:39Z</time>
      </trkpt>
      <trkpt lat="44.88094" lon="6.78234">
        <ele>2039.1</ele>
        <time>2021-12-22T12:10:40Z</time>
      </trkpt>
      <trkpt lat="44.88095" lon="6.78234">
        <ele>2039.1</ele>
        <time>2021-12-22T12:10:41Z</time>
      </trkpt>
      <trkpt lat="44.88096" lon="6.78234">
        <ele>2039.3</ele>
        <time>2021-12-22T12:10:59Z</time>
      </trkpt>
      <trkpt lat="44.88105" lon="6.78232">
        <ele>2041.2</ele>
        <time>2021-12-22T12:11:00Z</time>
      </trkpt>
      <trkpt lat="44.88106" lon="6.78232">
        <ele>2041.3</ele>
        <time>2021-12-22T12:11:01Z</time>
      </trkpt>
      <trkpt lat="44.88107" lon="6.78232">
        <ele>2041.6</ele>
        <time>2021-12-22T12:11:17Z</time>
      </trkpt>
      <trkpt lat="44.88117" lon="6.78231">
        <ele>2043.7</ele>
        <time>2021-12-22T12:11:18Z</time>
      </trkpt>
      <trkpt lat="44.88117" lon="6.78231">
        <ele>2043.8</ele>
        <time>2021-12-22T12:11:19Z</time>
      </trkpt>
      <trkpt lat="44.88118" lon="6.78231">
        <ele>2044</ele>
        <time>2021-12-22T12:11:36Z</time>
      </trkpt>
      <trkpt lat="44.88127" lon="6.78233">
        <ele>2045.7</ele>
        <time>2021-12-22T12:11:37Z</time>
      </trkpt>
      <trkpt lat="44.88128" lon="6.78233">
        <ele>2045.8</ele>
        <time>2021-12-22T12:11:38Z</time>
      </trkpt>
      <trkpt lat="44.88129" lon="6.78234">
        <ele>2046</ele>
        <time>2021-12-22T12:11:52Z</time>
      </trkpt>
      <trkpt lat="44.88138" lon="6.78237">
        <ele>2046.6</ele>
        <time>2021-12-22T12:11:53Z</time>
      </trkpt>
      <trkpt lat="44.88139" lon="6.78237">
        <ele>2046.6</ele>
        <time>2021-12-22T12:11:54Z</time>
      </trkpt>
      <trkpt lat="44.8814" lon="6.78238">
        <ele>2046.8</ele>
        <time>2021-12-22T12:12:16Z</time>
      </trkpt>
      <trkpt lat="44.88149" lon="6.78242">
        <ele>2048.9</ele>
        <time>2021-12-22T12:12:17Z</time>
      </trkpt>
      <trkpt lat="44.88149" lon="6.78242">
        <ele>2049</ele>
        <time>2021-12-22T12:12:18Z</time>
      </trkpt>
      <trkpt lat="44.8815" lon="6.78242">
        <ele>2049.3</ele>
        <time>2021-12-22T12:12:46Z</time>
      </trkpt>
      <trkpt lat="44.88158" lon="6.78249">
        <ele>2053.1</ele>
        <time>2021-12-22T12:12:47Z</time>
      </trkpt>
      <trkpt lat="44.88159" lon="6.7825">
        <ele>2053.3</ele>
        <time>2021-12-22T12:12:48Z</time>
      </trkpt>
      <trkpt lat="44.88159" lon="6.7825">
        <ele>2053.7</ele>
        <time>2021-12-22T12:13:06Z</time>
      </trkpt>
      <trkpt lat="44.88167" lon="6.78258">
        <ele>2056.7</ele>
        <time>2021-12-22T12:13:07Z</time>
      </trkpt>
      <trkpt lat="44.88167" lon="6.78258">
        <ele>2057</ele>
        <time>2021-12-22T12:13:08Z</time>
      </trkpt>
      <trkpt lat="44.88168" lon="6.78259">
        <ele>2057.5</ele>
        <time>2021-12-22T12:13:28Z</time>
      </trkpt>
      <trkpt lat="44.88177" lon="6.78264">
        <ele>2061.2</ele>
        <time>2021-12-22T12:13:29Z</time>
      </trkpt>
      <trkpt lat="44.88178" lon="6.78264">
        <ele>2061.3</ele>
        <time>2021-12-22T12:13:30Z</time>
      </trkpt>
      <trkpt lat="44.88178" lon="6.78264">
        <ele>2061.6</ele>
        <time>2021-12-22T12:15:07Z</time>
      </trkpt>
      <trkpt lat="44.88169" lon="6.78268">
        <ele>2062.3</ele>
        <time>2021-12-22T12:15:08Z</time>
      </trkpt>
      <trkpt lat="44.88168" lon="6.78268">
        <ele>2062.3</ele>
        <time>2021-12-22T12:15:09Z</time>
      </trkpt>
      <trkpt lat="44.88167" lon="6.78269">
        <ele>2062.4</ele>
        <time>2021-12-22T12:15:29Z</time>
      </trkpt>
      <trkpt lat="44.88159" lon="6.78274">
        <ele>2062.6</ele>
        <time>2021-12-22T12:15:30Z</time>
      </trkpt>
      <trkpt lat="44.88158" lon="6.78275">
        <ele>2062.7</ele>
        <time>2021-12-22T12:15:31Z</time>
      </trkpt>
      <trkpt lat="44.88157" lon="6.78276">
        <ele>2062.8</ele>
        <time>2021-12-22T12:15:49Z</time>
      </trkpt>
      <trkpt lat="44.8815" lon="6.78284">
        <ele>2063.2</ele>
        <time>2021-12-22T12:15:50Z</time>
      </trkpt>
      <trkpt lat="44.8815" lon="6.78285">
        <ele>2063.3</ele>
        <time>2021-12-22T12:15:51Z</time>
      </trkpt>
      <trkpt lat="44.88149" lon="6.78286">
        <ele>2063.7</ele>
        <time>2021-12-22T12:16:07Z</time>
      </trkpt>
      <trkpt lat="44.88143" lon="6.78296">
        <ele>2066.1</ele>
        <time>2021-12-22T12:16:08Z</time>
      </trkpt>
      <trkpt lat="44.88143" lon="6.78297">
        <ele>2066.3</ele>
        <time>2021-12-22T12:16:09Z</time>
      </trkpt>
      <trkpt lat="44.88142" lon="6.78298">
        <ele>2066.7</ele>
        <time>2021-12-22T12:16:24Z</time>
      </trkpt>
      <trkpt lat="44.88136" lon="6.78308">
        <ele>2068.5</ele>
        <time>2021-12-22T12:16:25Z</time>
      </trkpt>
      <trkpt lat="44.88136" lon="6.78309">
        <ele>2068.6</ele>
        <time>2021-12-22T12:16:26Z</time>
      </trkpt>
      <trkpt lat="44.88135" lon="6.7831">
        <ele>2068.8</ele>
        <time>2021-12-22T12:16:45Z</time>
      </trkpt>
      <trkpt lat="44.88127" lon="6.78316">
        <ele>2069.8</ele>
        <time>2021-12-22T12:16:46Z</time>
      </trkpt>
      <trkpt lat="44.88126" lon="6.78317">
        <ele>2069.9</ele>
        <time>2021-12-22T12:16:47Z</time>
      </trkpt>
      <trkpt lat="44.88126" lon="6.78317">
        <ele>2070</ele>
        <time>2021-12-22T12:17:08Z</time>
      </trkpt>
      <trkpt lat="44.88119" lon="6.78326">
        <ele>2070.8</ele>
        <time>2021-12-22T12:17:09Z</time>
      </trkpt>
      <trkpt lat="44.88119" lon="6.78327">
        <ele>2070.9</ele>
        <time>2021-12-22T12:17:10Z</time>
      </trkpt>
      <trkpt lat="44.88118" lon="6.78328">
        <ele>2071</ele>
        <time>2021-12-22T12:17:27Z</time>
      </trkpt>
      <trkpt lat="44.88117" lon="6.78341">
        <ele>2072.7</ele>
        <time>2021-12-22T12:17:28Z</time>
      </trkpt>
      <trkpt lat="44.88117" lon="6.78342">
        <ele>2072.7</ele>
        <time>2021-12-22T12:17:29Z</time>
      </trkpt>
      <trkpt lat="44.88118" lon="6.78343">
        <ele>2072.9</ele>
        <time>2021-12-22T12:17:50Z</time>
      </trkpt>
      <trkpt lat="44.88126" lon="6.78349">
        <ele>2073.2</ele>
        <time>2021-12-22T12:17:51Z</time>
      </trkpt>
      <trkpt lat="44.88126" lon="6.78349">
        <ele>2073.2</ele>
        <time>2021-12-22T12:17:52Z</time>
      </trkpt>
      <trkpt lat="44.88127" lon="6.7835">
        <ele>2073.3</ele>
        <time>2021-12-22T12:22:17Z</time>
      </trkpt>
      <trkpt lat="44.8813" lon="6.78349">
        <ele>2076.9</ele>
        <time>2021-12-22T12:22:18Z</time>
      </trkpt>
      <trkpt lat="44.8813" lon="6.78349">
        <ele>2076.9</ele>
        <time>2021-12-22T12:22:19Z</time>
      </trkpt>
      <trkpt lat="44.8813" lon="6.7835">
        <ele>2076.9</ele>
        <time>2021-12-22T12:22:20Z</time>
      </trkpt>
      <trkpt lat="44.8813" lon="6.7835">
        <ele>2076.9</ele>
        <time>2021-12-22T12:26:05Z</time>
      </trkpt>
      <trkpt lat="44.88131" lon="6.78338">
        <ele>2078.2</ele>
        <time>2021-12-22T12:26:06Z</time>
      </trkpt>
      <trkpt lat="44.88132" lon="6.78337">
        <ele>2078.2</ele>
        <time>2021-12-22T12:26:07Z</time>
      </trkpt>
      <trkpt lat="44.88132" lon="6.78337">
        <ele>2078.2</ele>
        <time>2021-12-22T12:34:04Z</time>
      </trkpt>
      <trkpt lat="44.88141" lon="6.78338">
        <ele>2083.4</ele>
        <time>2021-12-22T12:34:05Z</time>
      </trkpt>
      <trkpt lat="44.88141" lon="6.78338">
        <ele>2083.4</ele>
        <time>2021-12-22T12:34:06Z</time>
      </trkpt>
      <trkpt lat="44.88141" lon="6.78338">
        <ele>2083.4</ele>
        <time>2021-12-22T12:38:28Z</time>
      </trkpt>
      <trkpt lat="44.88135" lon="6.78347">
        <ele>2084.8</ele>
        <time>2021-12-22T12:38:29Z</time>
      </trkpt>
      <trkpt lat="44.88134" lon="6.78347">
        <ele>2084.8</ele>
        <time>2021-12-22T12:38:30Z</time>
      </trkpt>
      <trkpt lat="44.8813" lon="6.78359">
        <ele>2082.9</ele>
        <time>2021-12-22T12:40:26Z</time>
      </trkpt>
      <trkpt lat="44.8813" lon="6.7836">
        <ele>2082.5</ele>
        <time>2021-12-22T12:53:14Z</time>
      </trkpt>
      <trkpt lat="44.88133" lon="6.78356">
        <ele>2080.7</ele>
        <time>2021-12-22T12:53:15Z</time>
      </trkpt>
      <trkpt lat="44.88136" lon="6.78354">
        <ele>2080.3</ele>
        <time>2021-12-22T12:53:19Z</time>
      </trkpt>
      <trkpt lat="44.88136" lon="6.78354">
        <ele>2080</ele>
        <time>2021-12-22T12:53:20Z</time>
      </trkpt>
      <trkpt lat="44.88136" lon="6.78354">
        <ele>2080</ele>
        <time>2021-12-22T12:58:32Z</time>
      </trkpt>
      <trkpt lat="44.88145" lon="6.78354">
        <ele>2081.5</ele>
        <time>2021-12-22T12:58:33Z</time>
      </trkpt>
      <trkpt lat="44.88146" lon="6.78354">
        <ele>2081.6</ele>
        <time>2021-12-22T12:58:34Z</time>
      </trkpt>
      <trkpt lat="44.88148" lon="6.78355">
        <ele>2081.6</ele>
        <time>2021-12-22T12:58:53Z</time>
      </trkpt>
      <trkpt lat="44.88157" lon="6.78357">
        <ele>2082</ele>
        <time>2021-12-22T12:58:54Z</time>
      </trkpt>
      <trkpt lat="44.88157" lon="6.78358">
        <ele>2082.1</ele>
        <time>2021-12-22T12:58:55Z</time>
      </trkpt>
      <trkpt lat="44.88158" lon="6.78358">
        <ele>2082.3</ele>
        <time>2021-12-22T12:59:11Z</time>
      </trkpt>
      <trkpt lat="44.88166" lon="6.78363">
        <ele>2083.2</ele>
        <time>2021-12-22T12:59:12Z</time>
      </trkpt>
      <trkpt lat="44.88167" lon="6.78363">
        <ele>2083.2</ele>
        <time>2021-12-22T12:59:13Z</time>
      </trkpt>
      <trkpt lat="44.88167" lon="6.78364">
        <ele>2083</ele>
        <time>2021-12-22T12:59:28Z</time>
      </trkpt>
      <trkpt lat="44.88175" lon="6.78373">
        <ele>2082.9</ele>
        <time>2021-12-22T12:59:29Z</time>
      </trkpt>
      <trkpt lat="44.88175" lon="6.78374">
        <ele>2082.9</ele>
        <time>2021-12-22T12:59:30Z</time>
      </trkpt>
      <trkpt lat="44.88176" lon="6.78375">
        <ele>2082.9</ele>
        <time>2021-12-22T12:59:31Z</time>
      </trkpt>
      <trkpt lat="44.88177" lon="6.78376">
        <ele>2082.8</ele>
        <time>2021-12-22T12:59:32Z</time>
      </trkpt>
      <trkpt lat="44.88181" lon="6.78382">
        <ele>2082.3</ele>
        <time>2021-12-22T12:59:36Z</time>
      </trkpt>
      <trkpt lat="44.88184" lon="6.78387">
        <ele>2081.7</ele>
        <time>2021-12-22T12:59:39Z</time>
      </trkpt>
      <trkpt lat="44.88188" lon="6.78394">
        <ele>2081.5</ele>
        <time>2021-12-22T12:59:42Z</time>
      </trkpt>
      <trkpt lat="44.88191" lon="6.78399">
        <ele>2080.4</ele>
        <time>2021-12-22T12:59:45Z</time>
      </trkpt>
      <trkpt lat="44.88192" lon="6.784">
        <ele>2080.4</ele>
        <time>2021-12-22T12:59:46Z</time>
      </trkpt>
      <trkpt lat="44.88193" lon="6.78402">
        <ele>2080.2</ele>
        <time>2021-12-22T12:59:47Z</time>
      </trkpt>
      <trkpt lat="44.88194" lon="6.78403">
        <ele>2080.1</ele>
        <time>2021-12-22T12:59:48Z</time>
      </trkpt>
      <trkpt lat="44.88194" lon="6.78403">
        <ele>2080.1</ele>
        <time>2021-12-22T12:59:49Z</time>
      </trkpt>
      <trkpt lat="44.88198" lon="6.78408">
        <ele>2079.4</ele>
        <time>2021-12-22T12:59:53Z</time>
      </trkpt>
      <trkpt lat="44.88198" lon="6.7841">
        <ele>2079.3</ele>
        <time>2021-12-22T12:59:54Z</time>
      </trkpt>
      <trkpt lat="44.88199" lon="6.78411">
        <ele>2079.1</ele>
        <time>2021-12-22T12:59:55Z</time>
      </trkpt>
      <trkpt lat="44.882" lon="6.78412">
        <ele>2078.8</ele>
        <time>2021-12-22T12:59:58Z</time>
      </trkpt>
      <trkpt lat="44.88201" lon="6.78415">
        <ele>2078.6</ele>
        <time>2021-12-22T12:59:59Z</time>
      </trkpt>
      <trkpt lat="44.88202" lon="6.78416">
        <ele>2078.2</ele>
        <time>2021-12-22T13:00:00Z</time>
      </trkpt>
      <trkpt lat="44.88203" lon="6.78417">
        <ele>2078.3</ele>
        <time>2021-12-22T13:00:01Z</time>
      </trkpt>
      <trkpt lat="44.88204" lon="6.78418">
        <ele>2078.1</ele>
        <time>2021-12-22T13:00:02Z</time>
      </trkpt>
      <trkpt lat="44.88205" lon="6.78419">
        <ele>2078</ele>
        <time>2021-12-22T13:00:03Z</time>
      </trkpt>
      <trkpt lat="44.88208" lon="6.78423">
        <ele>2077.5</ele>
        <time>2021-12-22T13:00:07Z</time>
      </trkpt>
      <trkpt lat="44.88208" lon="6.78424">
        <ele>2077.6</ele>
        <time>2021-12-22T13:00:08Z</time>
      </trkpt>
      <trkpt lat="44.8821" lon="6.78426">
        <ele>2077.4</ele>
        <time>2021-12-22T13:00:11Z</time>
      </trkpt>
      <trkpt lat="44.88211" lon="6.78428">
        <ele>2077.1</ele>
        <time>2021-12-22T13:00:12Z</time>
      </trkpt>
      <trkpt lat="44.88212" lon="6.78429">
        <ele>2076.9</ele>
        <time>2021-12-22T13:00:13Z</time>
      </trkpt>
      <trkpt lat="44.88213" lon="6.7843">
        <ele>2076.8</ele>
        <time>2021-12-22T13:00:14Z</time>
      </trkpt>
      <trkpt lat="44.88214" lon="6.78432">
        <ele>2076.5</ele>
        <time>2021-12-22T13:00:20Z</time>
      </trkpt>
      <trkpt lat="44.88217" lon="6.78437">
        <ele>2075.7</ele>
        <time>2021-12-22T13:00:21Z</time>
      </trkpt>
      <trkpt lat="44.88217" lon="6.78438">
        <ele>2075.4</ele>
        <time>2021-12-22T13:00:22Z</time>
      </trkpt>
      <trkpt lat="44.88219" lon="6.7844">
        <ele>2075</ele>
        <time>2021-12-22T13:00:34Z</time>
      </trkpt>
      <trkpt lat="44.88227" lon="6.78445">
        <ele>2073.1</ele>
        <time>2021-12-22T13:00:35Z</time>
      </trkpt>
      <trkpt lat="44.88228" lon="6.78445">
        <ele>2073</ele>
        <time>2021-12-22T13:00:36Z</time>
      </trkpt>
      <trkpt lat="44.88229" lon="6.78445">
        <ele>2072.7</ele>
        <time>2021-12-22T13:00:50Z</time>
      </trkpt>
      <trkpt lat="44.88238" lon="6.78451">
        <ele>2071.1</ele>
        <time>2021-12-22T13:00:51Z</time>
      </trkpt>
      <trkpt lat="44.88238" lon="6.78451">
        <ele>2071</ele>
        <time>2021-12-22T13:00:52Z</time>
      </trkpt>
      <trkpt lat="44.88239" lon="6.78452">
        <ele>2070.7</ele>
        <time>2021-12-22T13:01:13Z</time>
      </trkpt>
      <trkpt lat="44.88247" lon="6.7846">
        <ele>2071.3</ele>
        <time>2021-12-22T13:01:14Z</time>
      </trkpt>
      <trkpt lat="44.88247" lon="6.7846">
        <ele>2071.4</ele>
        <time>2021-12-22T13:01:15Z</time>
      </trkpt>
      <trkpt lat="44.88247" lon="6.78461">
        <ele>2071.6</ele>
        <time>2021-12-22T13:01:35Z</time>
      </trkpt>
      <trkpt lat="44.88241" lon="6.78471">
        <ele>2073.3</ele>
        <time>2021-12-22T13:01:36Z</time>
      </trkpt>
      <trkpt lat="44.8824" lon="6.78472">
        <ele>2073.4</ele>
        <time>2021-12-22T13:01:37Z</time>
      </trkpt>
      <trkpt lat="44.8824" lon="6.78472">
        <ele>2073.5</ele>
        <time>2021-12-22T13:01:56Z</time>
      </trkpt>
      <trkpt lat="44.88231" lon="6.78478">
        <ele>2075.8</ele>
        <time>2021-12-22T13:01:57Z</time>
      </trkpt>
      <trkpt lat="44.88231" lon="6.78478">
        <ele>2075.9</ele>
        <time>2021-12-22T13:01:58Z</time>
      </trkpt>
      <trkpt lat="44.8823" lon="6.78479">
        <ele>2076.1</ele>
        <time>2021-12-22T13:02:11Z</time>
      </trkpt>
      <trkpt lat="44.88225" lon="6.78483">
        <ele>2077.1</ele>
        <time>2021-12-22T13:02:12Z</time>
      </trkpt>
      <trkpt lat="44.8822" lon="6.78485">
        <ele>2077.2</ele>
        <time>2021-12-22T13:02:14Z</time>
      </trkpt>
      <trkpt lat="44.88218" lon="6.78487">
        <ele>2077.4</ele>
        <time>2021-12-22T13:02:15Z</time>
      </trkpt>
      <trkpt lat="44.88217" lon="6.78487">
        <ele>2077.3</ele>
        <time>2021-12-22T13:02:16Z</time>
      </trkpt>
      <trkpt lat="44.88216" lon="6.78488">
        <ele>2077.4</ele>
        <time>2021-12-22T13:02:29Z</time>
      </trkpt>
      <trkpt lat="44.88209" lon="6.78495">
        <ele>2077.7</ele>
        <time>2021-12-22T13:02:30Z</time>
      </trkpt>
      <trkpt lat="44.88209" lon="6.78496">
        <ele>2077.6</ele>
        <time>2021-12-22T13:02:31Z</time>
      </trkpt>
      <trkpt lat="44.88208" lon="6.78497">
        <ele>2077.9</ele>
        <time>2021-12-22T13:02:46Z</time>
      </trkpt>
      <trkpt lat="44.882" lon="6.78505">
        <ele>2080.1</ele>
        <time>2021-12-22T13:02:47Z</time>
      </trkpt>
      <trkpt lat="44.882" lon="6.78505">
        <ele>2080.2</ele>
        <time>2021-12-22T13:02:48Z</time>
      </trkpt>
      <trkpt lat="44.88199" lon="6.78506">
        <ele>2080.5</ele>
        <time>2021-12-22T13:03:03Z</time>
      </trkpt>
      <trkpt lat="44.88194" lon="6.78517">
        <ele>2081.3</ele>
        <time>2021-12-22T13:03:04Z</time>
      </trkpt>
      <trkpt lat="44.88193" lon="6.78517">
        <ele>2081.4</ele>
        <time>2021-12-22T13:03:05Z</time>
      </trkpt>
      <trkpt lat="44.88193" lon="6.78519">
        <ele>2081.6</ele>
        <time>2021-12-22T13:03:18Z</time>
      </trkpt>
      <trkpt lat="44.88189" lon="6.78529">
        <ele>2083</ele>
        <time>2021-12-22T13:03:19Z</time>
      </trkpt>
      <trkpt lat="44.88188" lon="6.7853">
        <ele>2083</ele>
        <time>2021-12-22T13:03:20Z</time>
      </trkpt>
      <trkpt lat="44.88188" lon="6.78531">
        <ele>2083.3</ele>
        <time>2021-12-22T13:03:36Z</time>
      </trkpt>
      <trkpt lat="44.88184" lon="6.78543">
        <ele>2084.4</ele>
        <time>2021-12-22T13:03:37Z</time>
      </trkpt>
      <trkpt lat="44.88184" lon="6.78544">
        <ele>2084.4</ele>
        <time>2021-12-22T13:03:38Z</time>
      </trkpt>
      <trkpt lat="44.88183" lon="6.78545">
        <ele>2084.6</ele>
        <time>2021-12-22T13:03:47Z</time>
      </trkpt>
      <trkpt lat="44.88178" lon="6.78551">
        <ele>2085.2</ele>
        <time>2021-12-22T13:03:48Z</time>
      </trkpt>
      <trkpt lat="44.88177" lon="6.78554">
        <ele>2085.3</ele>
        <time>2021-12-22T13:03:50Z</time>
      </trkpt>
      <trkpt lat="44.88176" lon="6.78554">
        <ele>2085.3</ele>
        <time>2021-12-22T13:03:51Z</time>
      </trkpt>
      <trkpt lat="44.88174" lon="6.78555">
        <ele>2085.5</ele>
        <time>2021-12-22T13:04:06Z</time>
      </trkpt>
      <trkpt lat="44.88165" lon="6.78557">
        <ele>2087.1</ele>
        <time>2021-12-22T13:04:07Z</time>
      </trkpt>
      <trkpt lat="44.88164" lon="6.78557">
        <ele>2087.5</ele>
        <time>2021-12-22T13:04:08Z</time>
      </trkpt>
      <trkpt lat="44.88163" lon="6.78558">
        <ele>2087.8</ele>
        <time>2021-12-22T13:04:42Z</time>
      </trkpt>
      <trkpt lat="44.88157" lon="6.78566">
        <ele>2088.5</ele>
        <time>2021-12-22T13:04:43Z</time>
      </trkpt>
      <trkpt lat="44.88156" lon="6.78567">
        <ele>2088.5</ele>
        <time>2021-12-22T13:04:44Z</time>
      </trkpt>
      <trkpt lat="44.88156" lon="6.78569">
        <ele>2088.5</ele>
        <time>2021-12-22T13:04:45Z</time>
      </trkpt>
      <trkpt lat="44.88156" lon="6.78571">
        <ele>2088.6</ele>
        <time>2021-12-22T13:04:58Z</time>
      </trkpt>
      <trkpt lat="44.88157" lon="6.78584">
        <ele>2089.2</ele>
        <time>2021-12-22T13:04:59Z</time>
      </trkpt>
      <trkpt lat="44.88157" lon="6.78589">
        <ele>2089.7</ele>
        <time>2021-12-22T13:05:02Z</time>
      </trkpt>
      <trkpt lat="44.88156" lon="6.7859">
        <ele>2090</ele>
        <time>2021-12-22T13:05:03Z</time>
      </trkpt>
      <trkpt lat="44.88156" lon="6.78592">
        <ele>2090</ele>
        <time>2021-12-22T13:05:05Z</time>
      </trkpt>
      <trkpt lat="44.88156" lon="6.78594">
        <ele>2090.1</ele>
        <time>2021-12-22T13:05:06Z</time>
      </trkpt>
      <trkpt lat="44.88155" lon="6.78595">
        <ele>2090</ele>
        <time>2021-12-22T13:05:07Z</time>
      </trkpt>
      <trkpt lat="44.88155" lon="6.78596">
        <ele>2089.9</ele>
        <time>2021-12-22T13:05:08Z</time>
      </trkpt>
      <trkpt lat="44.88154" lon="6.78597">
        <ele>2089.9</ele>
        <time>2021-12-22T13:05:09Z</time>
      </trkpt>
      <trkpt lat="44.88154" lon="6.78598">
        <ele>2089.7</ele>
        <time>2021-12-22T13:05:10Z</time>
      </trkpt>
      <trkpt lat="44.88153" lon="6.78599">
        <ele>2089.5</ele>
        <time>2021-12-22T13:05:11Z</time>
      </trkpt>
      <trkpt lat="44.88153" lon="6.78601">
        <ele>2089.5</ele>
        <time>2021-12-22T13:05:25Z</time>
      </trkpt>
      <trkpt lat="44.88148" lon="6.78613">
        <ele>2089.7</ele>
        <time>2021-12-22T13:05:26Z</time>
      </trkpt>
      <trkpt lat="44.88148" lon="6.78614">
        <ele>2089.8</ele>
        <time>2021-12-22T13:05:27Z</time>
      </trkpt>
      <trkpt lat="44.88148" lon="6.78615">
        <ele>2089.9</ele>
        <time>2021-12-22T13:05:28Z</time>
      </trkpt>
      <trkpt lat="44.88147" lon="6.78617">
        <ele>2090.1</ele>
        <time>2021-12-22T13:05:34Z</time>
      </trkpt>
      <trkpt lat="44.88146" lon="6.78621">
        <ele>2090.3</ele>
        <time>2021-12-22T13:05:35Z</time>
      </trkpt>
      <trkpt lat="44.88145" lon="6.78622">
        <ele>2090.4</ele>
        <time>2021-12-22T13:05:36Z</time>
      </trkpt>
      <trkpt lat="44.88145" lon="6.78623">
        <ele>2090.5</ele>
        <time>2021-12-22T13:05:37Z</time>
      </trkpt>
      <trkpt lat="44.88145" lon="6.78626">
        <ele>2090.8</ele>
        <time>2021-12-22T13:05:49Z</time>
      </trkpt>
      <trkpt lat="44.88141" lon="6.78635">
        <ele>2091.9</ele>
        <time>2021-12-22T13:05:50Z</time>
      </trkpt>
      <trkpt lat="44.8814" lon="6.78636">
        <ele>2091.9</ele>
        <time>2021-12-22T13:05:51Z</time>
      </trkpt>
      <trkpt lat="44.8814" lon="6.78638">
        <ele>2092.1</ele>
        <time>2021-12-22T13:05:52Z</time>
      </trkpt>
      <trkpt lat="44.88139" lon="6.78639">
        <ele>2092.3</ele>
        <time>2021-12-22T13:06:06Z</time>
      </trkpt>
      <trkpt lat="44.88134" lon="6.7865">
        <ele>2093</ele>
        <time>2021-12-22T13:06:07Z</time>
      </trkpt>
      <trkpt lat="44.88134" lon="6.78651">
        <ele>2093.2</ele>
        <time>2021-12-22T13:06:08Z</time>
      </trkpt>
      <trkpt lat="44.88133" lon="6.78653">
        <ele>2093.4</ele>
        <time>2021-12-22T13:06:29Z</time>
      </trkpt>
      <trkpt lat="44.88132" lon="6.78665">
        <ele>2094.7</ele>
        <time>2021-12-22T13:06:30Z</time>
      </trkpt>
      <trkpt lat="44.88131" lon="6.78666">
        <ele>2094.6</ele>
        <time>2021-12-22T13:06:31Z</time>
      </trkpt>
      <trkpt lat="44.88131" lon="6.78668">
        <ele>2094.6</ele>
        <time>2021-12-22T13:06:56Z</time>
      </trkpt>
      <trkpt lat="44.88126" lon="6.78679">
        <ele>2095.9</ele>
        <time>2021-12-22T13:06:57Z</time>
      </trkpt>
      <trkpt lat="44.88126" lon="6.7868">
        <ele>2096.1</ele>
        <time>2021-12-22T13:06:58Z</time>
      </trkpt>
      <trkpt lat="44.88125" lon="6.78681">
        <ele>2095.9</ele>
        <time>2021-12-22T13:07:20Z</time>
      </trkpt>
      <trkpt lat="44.88122" lon="6.78693">
        <ele>2096.4</ele>
        <time>2021-12-22T13:07:21Z</time>
      </trkpt>
      <trkpt lat="44.88122" lon="6.78694">
        <ele>2096.6</ele>
        <time>2021-12-22T13:07:22Z</time>
      </trkpt>
      <trkpt lat="44.88121" lon="6.78696">
        <ele>2096.7</ele>
        <time>2021-12-22T13:07:25Z</time>
      </trkpt>
      <trkpt lat="44.8812" lon="6.78698">
        <ele>2096.9</ele>
        <time>2021-12-22T13:07:26Z</time>
      </trkpt>
      <trkpt lat="44.88119" lon="6.787">
        <ele>2097.2</ele>
        <time>2021-12-22T13:07:28Z</time>
      </trkpt>
      <trkpt lat="44.88118" lon="6.78701">
        <ele>2097.3</ele>
        <time>2021-12-22T13:07:29Z</time>
      </trkpt>
      <trkpt lat="44.88117" lon="6.78703">
        <ele>2097.3</ele>
        <time>2021-12-22T13:07:46Z</time>
      </trkpt>
      <trkpt lat="44.88117" lon="6.78715">
        <ele>2098.5</ele>
        <time>2021-12-22T13:07:47Z</time>
      </trkpt>
      <trkpt lat="44.88118" lon="6.78716">
        <ele>2098.7</ele>
        <time>2021-12-22T13:07:48Z</time>
      </trkpt>
      <trkpt lat="44.88118" lon="6.78718">
        <ele>2099</ele>
        <time>2021-12-22T13:08:04Z</time>
      </trkpt>
      <trkpt lat="44.8812" lon="6.78731">
        <ele>2100.6</ele>
        <time>2021-12-22T13:08:05Z</time>
      </trkpt>
      <trkpt lat="44.8812" lon="6.78732">
        <ele>2100.7</ele>
        <time>2021-12-22T13:08:06Z</time>
      </trkpt>
      <trkpt lat="44.8812" lon="6.78734">
        <ele>2100.9</ele>
        <time>2021-12-22T13:08:22Z</time>
      </trkpt>
      <trkpt lat="44.88125" lon="6.78745">
        <ele>2102.1</ele>
        <time>2021-12-22T13:08:23Z</time>
      </trkpt>
      <trkpt lat="44.88126" lon="6.78746">
        <ele>2102.2</ele>
        <time>2021-12-22T13:08:24Z</time>
      </trkpt>
      <trkpt lat="44.88126" lon="6.78747">
        <ele>2102.4</ele>
        <time>2021-12-22T13:08:38Z</time>
      </trkpt>
      <trkpt lat="44.88131" lon="6.78758">
        <ele>2103.1</ele>
        <time>2021-12-22T13:08:39Z</time>
      </trkpt>
      <trkpt lat="44.88132" lon="6.78759">
        <ele>2103.2</ele>
        <time>2021-12-22T13:08:40Z</time>
      </trkpt>
      <trkpt lat="44.88132" lon="6.7876">
        <ele>2103.3</ele>
        <time>2021-12-22T13:09:08Z</time>
      </trkpt>
      <trkpt lat="44.88138" lon="6.7877">
        <ele>2106.1</ele>
        <time>2021-12-22T13:09:09Z</time>
      </trkpt>
      <trkpt lat="44.88138" lon="6.78771">
        <ele>2106.3</ele>
        <time>2021-12-22T13:09:10Z</time>
      </trkpt>
      <trkpt lat="44.88139" lon="6.78773">
        <ele>2106.4</ele>
        <time>2021-12-22T13:09:28Z</time>
      </trkpt>
      <trkpt lat="44.88143" lon="6.78785">
        <ele>2108</ele>
        <time>2021-12-22T13:09:29Z</time>
      </trkpt>
      <trkpt lat="44.88143" lon="6.78786">
        <ele>2108</ele>
        <time>2021-12-22T13:09:30Z</time>
      </trkpt>
      <trkpt lat="44.88144" lon="6.78787">
        <ele>2108</ele>
        <time>2021-12-22T13:09:53Z</time>
      </trkpt>
      <trkpt lat="44.8815" lon="6.78797">
        <ele>2109.6</ele>
        <time>2021-12-22T13:09:54Z</time>
      </trkpt>
      <trkpt lat="44.8815" lon="6.78797">
        <ele>2109.7</ele>
        <time>2021-12-22T13:09:55Z</time>
      </trkpt>
      <trkpt lat="44.88151" lon="6.78798">
        <ele>2110.1</ele>
        <time>2021-12-22T13:10:16Z</time>
      </trkpt>
      <trkpt lat="44.88155" lon="6.78809">
        <ele>2113.3</ele>
        <time>2021-12-22T13:10:17Z</time>
      </trkpt>
      <trkpt lat="44.88155" lon="6.7881">
        <ele>2113.3</ele>
        <time>2021-12-22T13:10:18Z</time>
      </trkpt>
      <trkpt lat="44.88156" lon="6.78811">
        <ele>2113.6</ele>
        <time>2021-12-22T13:10:38Z</time>
      </trkpt>
      <trkpt lat="44.88159" lon="6.78824">
        <ele>2116.6</ele>
        <time>2021-12-22T13:10:39Z</time>
      </trkpt>
      <trkpt lat="44.88159" lon="6.78824">
        <ele>2116.6</ele>
        <time>2021-12-22T13:10:40Z</time>
      </trkpt>
      <trkpt lat="44.88159" lon="6.78825">
        <ele>2116.7</ele>
        <time>2021-12-22T13:10:56Z</time>
      </trkpt>
      <trkpt lat="44.88157" lon="6.78838">
        <ele>2118.7</ele>
        <time>2021-12-22T13:10:57Z</time>
      </trkpt>
      <trkpt lat="44.88158" lon="6.78839">
        <ele>2118.8</ele>
        <time>2021-12-22T13:10:58Z</time>
      </trkpt>
      <trkpt lat="44.88158" lon="6.78842">
        <ele>2119.1</ele>
        <time>2021-12-22T13:11:12Z</time>
      </trkpt>
      <trkpt lat="44.88162" lon="6.78854">
        <ele>2120.5</ele>
        <time>2021-12-22T13:11:13Z</time>
      </trkpt>
      <trkpt lat="44.88162" lon="6.78855">
        <ele>2120.5</ele>
        <time>2021-12-22T13:11:14Z</time>
      </trkpt>
      <trkpt lat="44.88163" lon="6.78856">
        <ele>2120.5</ele>
        <time>2021-12-22T13:11:34Z</time>
      </trkpt>
      <trkpt lat="44.88167" lon="6.78867">
        <ele>2121.9</ele>
        <time>2021-12-22T13:11:35Z</time>
      </trkpt>
      <trkpt lat="44.88167" lon="6.78868">
        <ele>2122.1</ele>
        <time>2021-12-22T13:11:36Z</time>
      </trkpt>
      <trkpt lat="44.88167" lon="6.7887">
        <ele>2122.1</ele>
        <time>2021-12-22T13:11:52Z</time>
      </trkpt>
      <trkpt lat="44.88166" lon="6.78883">
        <ele>2122.2</ele>
        <time>2021-12-22T13:11:53Z</time>
      </trkpt>
      <trkpt lat="44.88166" lon="6.78884">
        <ele>2122.2</ele>
        <time>2021-12-22T13:11:54Z</time>
      </trkpt>
      <trkpt lat="44.88166" lon="6.78885">
        <ele>2122.1</ele>
        <time>2021-12-22T13:14:43Z</time>
      </trkpt>
      <trkpt lat="44.88157" lon="6.7889">
        <ele>2127.9</ele>
        <time>2021-12-22T13:14:44Z</time>
      </trkpt>
      <trkpt lat="44.88157" lon="6.7889">
        <ele>2128.1</ele>
        <time>2021-12-22T13:14:45Z</time>
      </trkpt>
      <trkpt lat="44.88156" lon="6.78891">
        <ele>2128.5</ele>
        <time>2021-12-22T13:15:05Z</time>
      </trkpt>
      <trkpt lat="44.88148" lon="6.78899">
        <ele>2129.9</ele>
        <time>2021-12-22T13:15:06Z</time>
      </trkpt>
      <trkpt lat="44.88147" lon="6.78899">
        <ele>2129.9</ele>
        <time>2021-12-22T13:15:07Z</time>
      </trkpt>
      <trkpt lat="44.88147" lon="6.789">
        <ele>2129.9</ele>
        <time>2021-12-22T13:15:22Z</time>
      </trkpt>
      <trkpt lat="44.88143" lon="6.78912">
        <ele>2130.6</ele>
        <time>2021-12-22T13:15:23Z</time>
      </trkpt>
      <trkpt lat="44.88143" lon="6.78913">
        <ele>2130.7</ele>
        <time>2021-12-22T13:15:24Z</time>
      </trkpt>
      <trkpt lat="44.88143" lon="6.78914">
        <ele>2130.8</ele>
        <time>2021-12-22T13:15:40Z</time>
      </trkpt>
      <trkpt lat="44.88141" lon="6.78927">
        <ele>2131.3</ele>
        <time>2021-12-22T13:15:41Z</time>
      </trkpt>
      <trkpt lat="44.88141" lon="6.78928">
        <ele>2131.4</ele>
        <time>2021-12-22T13:15:42Z</time>
      </trkpt>
      <trkpt lat="44.8814" lon="6.78929">
        <ele>2131.4</ele>
        <time>2021-12-22T13:16:08Z</time>
      </trkpt>
      <trkpt lat="44.88135" lon="6.78939">
        <ele>2135.2</ele>
        <time>2021-12-22T13:16:09Z</time>
      </trkpt>
      <trkpt lat="44.88135" lon="6.78941">
        <ele>2135.3</ele>
        <time>2021-12-22T13:16:10Z</time>
      </trkpt>
      <trkpt lat="44.88135" lon="6.78943">
        <ele>2135.4</ele>
        <time>2021-12-22T13:16:27Z</time>
      </trkpt>
      <trkpt lat="44.88136" lon="6.78956">
        <ele>2136</ele>
        <time>2021-12-22T13:16:28Z</time>
      </trkpt>
      <trkpt lat="44.88136" lon="6.78957">
        <ele>2136</ele>
        <time>2021-12-22T13:16:29Z</time>
      </trkpt>
      <trkpt lat="44.88135" lon="6.78959">
        <ele>2136.1</ele>
        <time>2021-12-22T13:16:51Z</time>
      </trkpt>
      <trkpt lat="44.88128" lon="6.78966">
        <ele>2139.5</ele>
        <time>2021-12-22T13:16:52Z</time>
      </trkpt>
      <trkpt lat="44.88128" lon="6.78966">
        <ele>2139.7</ele>
        <time>2021-12-22T13:16:53Z</time>
      </trkpt>
      <trkpt lat="44.88126" lon="6.78966">
        <ele>2140.4</ele>
        <time>2021-12-22T13:17:13Z</time>
      </trkpt>
      <trkpt lat="44.88117" lon="6.78968">
        <ele>2144.3</ele>
        <time>2021-12-22T13:17:14Z</time>
      </trkpt>
      <trkpt lat="44.88116" lon="6.78969">
        <ele>2144.4</ele>
        <time>2021-12-22T13:17:15Z</time>
      </trkpt>
      <trkpt lat="44.88116" lon="6.7897">
        <ele>2144.7</ele>
        <time>2021-12-22T13:17:30Z</time>
      </trkpt>
      <trkpt lat="44.88118" lon="6.78983">
        <ele>2146</ele>
        <time>2021-12-22T13:17:31Z</time>
      </trkpt>
      <trkpt lat="44.88118" lon="6.78984">
        <ele>2146</ele>
        <time>2021-12-22T13:17:32Z</time>
      </trkpt>
      <trkpt lat="44.88119" lon="6.78985">
        <ele>2146</ele>
        <time>2021-12-22T13:17:51Z</time>
      </trkpt>
      <trkpt lat="44.88125" lon="6.78994">
        <ele>2146.8</ele>
        <time>2021-12-22T13:17:52Z</time>
      </trkpt>
      <trkpt lat="44.88125" lon="6.78995">
        <ele>2146.9</ele>
        <time>2021-12-22T13:17:53Z</time>
      </trkpt>
      <trkpt lat="44.88126" lon="6.78996">
        <ele>2147.1</ele>
        <time>2021-12-22T13:18:20Z</time>
      </trkpt>
      <trkpt lat="44.88123" lon="6.79008">
        <ele>2151</ele>
        <time>2021-12-22T13:18:21Z</time>
      </trkpt>
      <trkpt lat="44.88123" lon="6.79008">
        <ele>2151.1</ele>
        <time>2021-12-22T13:18:22Z</time>
      </trkpt>
      <trkpt lat="44.88121" lon="6.79009">
        <ele>2151.2</ele>
        <time>2021-12-22T13:18:46Z</time>
      </trkpt>
      <trkpt lat="44.88116" lon="6.79019">
        <ele>2152.8</ele>
        <time>2021-12-22T13:18:47Z</time>
      </trkpt>
      <trkpt lat="44.88115" lon="6.79019">
        <ele>2152.9</ele>
        <time>2021-12-22T13:18:48Z</time>
      </trkpt>
      <trkpt lat="44.88114" lon="6.79021">
        <ele>2153.1</ele>
        <time>2021-12-22T13:19:15Z</time>
      </trkpt>
      <trkpt lat="44.88121" lon="6.79031">
        <ele>2155</ele>
        <time>2021-12-22T13:19:16Z</time>
      </trkpt>
      <trkpt lat="44.88121" lon="6.79031">
        <ele>2155.1</ele>
        <time>2021-12-22T13:19:17Z</time>
      </trkpt>
      <trkpt lat="44.88122" lon="6.79032">
        <ele>2155.3</ele>
        <time>2021-12-22T13:19:36Z</time>
      </trkpt>
      <trkpt lat="44.88128" lon="6.79041">
        <ele>2155.9</ele>
        <time>2021-12-22T13:19:37Z</time>
      </trkpt>
      <trkpt lat="44.88128" lon="6.79042">
        <ele>2155.9</ele>
        <time>2021-12-22T13:19:38Z</time>
      </trkpt>
      <trkpt lat="44.88128" lon="6.79042">
        <ele>2156</ele>
        <time>2021-12-22T13:19:58Z</time>
      </trkpt>
      <trkpt lat="44.8812" lon="6.79049">
        <ele>2160.8</ele>
        <time>2021-12-22T13:19:59Z</time>
      </trkpt>
      <trkpt lat="44.8812" lon="6.79049">
        <ele>2161.1</ele>
        <time>2021-12-22T13:20:00Z</time>
      </trkpt>
      <trkpt lat="44.88119" lon="6.7905">
        <ele>2161.5</ele>
        <time>2021-12-22T13:20:20Z</time>
      </trkpt>
      <trkpt lat="44.88112" lon="6.79058">
        <ele>2163.9</ele>
        <time>2021-12-22T13:20:21Z</time>
      </trkpt>
      <trkpt lat="44.88112" lon="6.79058">
        <ele>2163.9</ele>
        <time>2021-12-22T13:20:22Z</time>
      </trkpt>
      <trkpt lat="44.88112" lon="6.79059">
        <ele>2163.8</ele>
        <time>2021-12-22T13:20:42Z</time>
      </trkpt>
      <trkpt lat="44.88117" lon="6.79069">
        <ele>2164.1</ele>
        <time>2021-12-22T13:20:43Z</time>
      </trkpt>
      <trkpt lat="44.88117" lon="6.7907">
        <ele>2164.2</ele>
        <time>2021-12-22T13:20:44Z</time>
      </trkpt>
      <trkpt lat="44.88118" lon="6.79071">
        <ele>2164.3</ele>
        <time>2021-12-22T13:21:17Z</time>
      </trkpt>
      <trkpt lat="44.88115" lon="6.79083">
        <ele>2167</ele>
        <time>2021-12-22T13:21:18Z</time>
      </trkpt>
      <trkpt lat="44.88114" lon="6.79084">
        <ele>2167.1</ele>
        <time>2021-12-22T13:21:19Z</time>
      </trkpt>
      <trkpt lat="44.88113" lon="6.79085">
        <ele>2167.2</ele>
        <time>2021-12-22T13:21:42Z</time>
      </trkpt>
      <trkpt lat="44.88108" lon="6.79095">
        <ele>2169.5</ele>
        <time>2021-12-22T13:21:43Z</time>
      </trkpt>
      <trkpt lat="44.88108" lon="6.79096">
        <ele>2169.5</ele>
        <time>2021-12-22T13:21:44Z</time>
      </trkpt>
      <trkpt lat="44.88108" lon="6.79097">
        <ele>2169.7</ele>
        <time>2021-12-22T13:22:01Z</time>
      </trkpt>
      <trkpt lat="44.88106" lon="6.7911">
        <ele>2171.4</ele>
        <time>2021-12-22T13:22:02Z</time>
      </trkpt>
      <trkpt lat="44.88106" lon="6.79111">
        <ele>2171.6</ele>
        <time>2021-12-22T13:22:03Z</time>
      </trkpt>
      <trkpt lat="44.88105" lon="6.79113">
        <ele>2171.8</ele>
        <time>2021-12-22T13:22:25Z</time>
      </trkpt>
      <trkpt lat="44.88104" lon="6.79126">
        <ele>2172.9</ele>
        <time>2021-12-22T13:22:26Z</time>
      </trkpt>
      <trkpt lat="44.88103" lon="6.79127">
        <ele>2172.9</ele>
        <time>2021-12-22T13:22:27Z</time>
      </trkpt>
      <trkpt lat="44.88103" lon="6.79128">
        <ele>2172.8</ele>
        <time>2021-12-22T13:22:48Z</time>
      </trkpt>
      <trkpt lat="44.88099" lon="6.7914">
        <ele>2173.1</ele>
        <time>2021-12-22T13:22:49Z</time>
      </trkpt>
      <trkpt lat="44.88099" lon="6.79141">
        <ele>2173.1</ele>
        <time>2021-12-22T13:22:50Z</time>
      </trkpt>
      <trkpt lat="44.88099" lon="6.79143">
        <ele>2173.3</ele>
        <time>2021-12-22T13:23:10Z</time>
      </trkpt>
      <trkpt lat="44.88093" lon="6.79153">
        <ele>2175.8</ele>
        <time>2021-12-22T13:23:11Z</time>
      </trkpt>
      <trkpt lat="44.88093" lon="6.79154">
        <ele>2176</ele>
        <time>2021-12-22T13:23:12Z</time>
      </trkpt>
      <trkpt lat="44.88092" lon="6.79155">
        <ele>2176.2</ele>
        <time>2021-12-22T13:23:34Z</time>
      </trkpt>
      <trkpt lat="44.8809" lon="6.79168">
        <ele>2179.5</ele>
        <time>2021-12-22T13:23:35Z</time>
      </trkpt>
      <trkpt lat="44.8809" lon="6.79168">
        <ele>2179.7</ele>
        <time>2021-12-22T13:23:36Z</time>
      </trkpt>
      <trkpt lat="44.8809" lon="6.7917">
        <ele>2180.2</ele>
        <time>2021-12-22T13:23:51Z</time>
      </trkpt>
      <trkpt lat="44.88089" lon="6.79183">
        <ele>2183.2</ele>
        <time>2021-12-22T13:23:52Z</time>
      </trkpt>
      <trkpt lat="44.88089" lon="6.79184">
        <ele>2183.3</ele>
        <time>2021-12-22T13:23:53Z</time>
      </trkpt>
      <trkpt lat="44.8809" lon="6.79186">
        <ele>2183.6</ele>
        <time>2021-12-22T13:24:09Z</time>
      </trkpt>
      <trkpt lat="44.8809" lon="6.79199">
        <ele>2186.2</ele>
        <time>2021-12-22T13:24:10Z</time>
      </trkpt>
      <trkpt lat="44.8809" lon="6.792">
        <ele>2186.3</ele>
        <time>2021-12-22T13:24:11Z</time>
      </trkpt>
      <trkpt lat="44.88091" lon="6.79202">
        <ele>2186.7</ele>
        <time>2021-12-22T13:24:32Z</time>
      </trkpt>
      <trkpt lat="44.88094" lon="6.79214">
        <ele>2189.3</ele>
        <time>2021-12-22T13:24:33Z</time>
      </trkpt>
      <trkpt lat="44.88094" lon="6.79214">
        <ele>2189.4</ele>
        <time>2021-12-22T13:24:34Z</time>
      </trkpt>
      <trkpt lat="44.88094" lon="6.79215">
        <ele>2189.6</ele>
        <time>2021-12-22T13:25:00Z</time>
      </trkpt>
      <trkpt lat="44.88096" lon="6.79228">
        <ele>2189.8</ele>
        <time>2021-12-22T13:25:01Z</time>
      </trkpt>
      <trkpt lat="44.88096" lon="6.79229">
        <ele>2189.8</ele>
        <time>2021-12-22T13:25:02Z</time>
      </trkpt>
      <trkpt lat="44.88096" lon="6.7923">
        <ele>2189.9</ele>
        <time>2021-12-22T13:25:17Z</time>
      </trkpt>
      <trkpt lat="44.88101" lon="6.79241">
        <ele>2190.6</ele>
        <time>2021-12-22T13:25:18Z</time>
      </trkpt>
      <trkpt lat="44.88101" lon="6.79242">
        <ele>2190.7</ele>
        <time>2021-12-22T13:25:19Z</time>
      </trkpt>
      <trkpt lat="44.88102" lon="6.79244">
        <ele>2190.9</ele>
        <time>2021-12-22T13:25:36Z</time>
      </trkpt>
      <trkpt lat="44.88107" lon="6.79255">
        <ele>2192.2</ele>
        <time>2021-12-22T13:25:37Z</time>
      </trkpt>
      <trkpt lat="44.88107" lon="6.79256">
        <ele>2192.2</ele>
        <time>2021-12-22T13:25:38Z</time>
      </trkpt>
      <trkpt lat="44.88108" lon="6.79257">
        <ele>2192.4</ele>
        <time>2021-12-22T13:25:53Z</time>
      </trkpt>
      <trkpt lat="44.88114" lon="6.79268">
        <ele>2193.8</ele>
        <time>2021-12-22T13:25:54Z</time>
      </trkpt>
      <trkpt lat="44.88114" lon="6.79269">
        <ele>2193.8</ele>
        <time>2021-12-22T13:25:55Z</time>
      </trkpt>
      <trkpt lat="44.88116" lon="6.7927">
        <ele>2193.8</ele>
        <time>2021-12-22T13:26:12Z</time>
      </trkpt>
      <trkpt lat="44.88122" lon="6.7928">
        <ele>2193.5</ele>
        <time>2021-12-22T13:26:13Z</time>
      </trkpt>
      <trkpt lat="44.88122" lon="6.7928">
        <ele>2193.5</ele>
        <time>2021-12-22T13:26:14Z</time>
      </trkpt>
      <trkpt lat="44.88123" lon="6.79281">
        <ele>2193.4</ele>
        <time>2021-12-22T13:27:00Z</time>
      </trkpt>
      <trkpt lat="44.8813" lon="6.79289">
        <ele>2195.4</ele>
        <time>2021-12-22T13:27:01Z</time>
      </trkpt>
      <trkpt lat="44.8813" lon="6.7929">
        <ele>2195.3</ele>
        <time>2021-12-22T13:27:02Z</time>
      </trkpt>
      <trkpt lat="44.88131" lon="6.79291">
        <ele>2195.4</ele>
        <time>2021-12-22T13:27:29Z</time>
      </trkpt>
      <trkpt lat="44.88135" lon="6.79304">
        <ele>2195.5</ele>
        <time>2021-12-22T13:27:30Z</time>
      </trkpt>
      <trkpt lat="44.88135" lon="6.79304">
        <ele>2195.5</ele>
        <time>2021-12-22T13:27:31Z</time>
      </trkpt>
      <trkpt lat="44.88136" lon="6.79305">
        <ele>2195.6</ele>
        <time>2021-12-22T13:27:50Z</time>
      </trkpt>
      <trkpt lat="44.88141" lon="6.79316">
        <ele>2194.9</ele>
        <time>2021-12-22T13:27:51Z</time>
      </trkpt>
      <trkpt lat="44.88141" lon="6.79317">
        <ele>2194.9</ele>
        <time>2021-12-22T13:27:52Z</time>
      </trkpt>
      <trkpt lat="44.88141" lon="6.79318">
        <ele>2194.9</ele>
        <time>2021-12-22T13:28:20Z</time>
      </trkpt>
      <trkpt lat="44.88146" lon="6.7933">
        <ele>2195</ele>
        <time>2021-12-22T13:28:21Z</time>
      </trkpt>
      <trkpt lat="44.88147" lon="6.79331">
        <ele>2194.9</ele>
        <time>2021-12-22T13:28:22Z</time>
      </trkpt>
      <trkpt lat="44.88148" lon="6.79333">
        <ele>2194.8</ele>
        <time>2021-12-22T13:28:35Z</time>
      </trkpt>
      <trkpt lat="44.88155" lon="6.79342">
        <ele>2194.9</ele>
        <time>2021-12-22T13:28:36Z</time>
      </trkpt>
      <trkpt lat="44.88155" lon="6.79343">
        <ele>2194.9</ele>
        <time>2021-12-22T13:28:37Z</time>
      </trkpt>
      <trkpt lat="44.88156" lon="6.79343">
        <ele>2195</ele>
        <time>2021-12-22T13:28:52Z</time>
      </trkpt>
      <trkpt lat="44.88165" lon="6.79348">
        <ele>2195.7</ele>
        <time>2021-12-22T13:28:53Z</time>
      </trkpt>
      <trkpt lat="44.88165" lon="6.79348">
        <ele>2195.8</ele>
        <time>2021-12-22T13:28:54Z</time>
      </trkpt>
      <trkpt lat="44.88166" lon="6.79349">
        <ele>2195.9</ele>
        <time>2021-12-22T13:29:08Z</time>
      </trkpt>
      <trkpt lat="44.88175" lon="6.79355">
        <ele>2197.8</ele>
        <time>2021-12-22T13:29:09Z</time>
      </trkpt>
      <trkpt lat="44.88175" lon="6.79355">
        <ele>2197.9</ele>
        <time>2021-12-22T13:29:10Z</time>
      </trkpt>
      <trkpt lat="44.88176" lon="6.79356">
        <ele>2198.2</ele>
        <time>2021-12-22T13:29:25Z</time>
      </trkpt>
      <trkpt lat="44.88181" lon="6.79354">
        <ele>2198.9</ele>
        <time>2021-12-22T13:29:26Z</time>
      </trkpt>
      <trkpt lat="44.88183" lon="6.79353">
        <ele>2199.1</ele>
        <time>2021-12-22T13:29:27Z</time>
      </trkpt>
      <trkpt lat="44.88184" lon="6.79353">
        <ele>2199.4</ele>
        <time>2021-12-22T13:29:28Z</time>
      </trkpt>
      <trkpt lat="44.88185" lon="6.79353">
        <ele>2199.5</ele>
        <time>2021-12-22T13:29:31Z</time>
      </trkpt>
      <trkpt lat="44.88187" lon="6.79353">
        <ele>2200</ele>
        <time>2021-12-22T13:29:32Z</time>
      </trkpt>
      <trkpt lat="44.88187" lon="6.79353">
        <ele>2200.5</ele>
        <time>2021-12-22T13:29:33Z</time>
      </trkpt>
      <trkpt lat="44.88188" lon="6.79352">
        <ele>2200.7</ele>
        <time>2021-12-22T13:29:41Z</time>
      </trkpt>
      <trkpt lat="44.88194" lon="6.7935">
        <ele>2201.7</ele>
        <time>2021-12-22T13:29:42Z</time>
      </trkpt>
      <trkpt lat="44.88195" lon="6.79349">
        <ele>2201.8</ele>
        <time>2021-12-22T13:29:43Z</time>
      </trkpt>
      <trkpt lat="44.88196" lon="6.79349">
        <ele>2201.9</ele>
        <time>2021-12-22T13:29:44Z</time>
      </trkpt>
      <trkpt lat="44.88197" lon="6.79349">
        <ele>2202</ele>
        <time>2021-12-22T13:29:45Z</time>
      </trkpt>
      <trkpt lat="44.88199" lon="6.79349">
        <ele>2202</ele>
        <time>2021-12-22T13:29:46Z</time>
      </trkpt>
      <trkpt lat="44.882" lon="6.79349">
        <ele>2201.9</ele>
        <time>2021-12-22T13:29:47Z</time>
      </trkpt>
      <trkpt lat="44.88201" lon="6.79349">
        <ele>2202.1</ele>
        <time>2021-12-22T13:29:50Z</time>
      </trkpt>
      <trkpt lat="44.88204" lon="6.79348">
        <ele>2202.3</ele>
        <time>2021-12-22T13:29:51Z</time>
      </trkpt>
      <trkpt lat="44.88206" lon="6.79348">
        <ele>2202.6</ele>
        <time>2021-12-22T13:29:53Z</time>
      </trkpt>
      <trkpt lat="44.88207" lon="6.79348">
        <ele>2202.8</ele>
        <time>2021-12-22T13:29:54Z</time>
      </trkpt>
      <trkpt lat="44.88208" lon="6.79347">
        <ele>2202.9</ele>
        <time>2021-12-22T13:30:10Z</time>
      </trkpt>
      <trkpt lat="44.88217" lon="6.79344">
        <ele>2204.2</ele>
        <time>2021-12-22T13:30:11Z</time>
      </trkpt>
      <trkpt lat="44.88218" lon="6.79344">
        <ele>2204.3</ele>
        <time>2021-12-22T13:30:12Z</time>
      </trkpt>
      <trkpt lat="44.88218" lon="6.79344">
        <ele>2204.4</ele>
        <time>2021-12-22T13:32:47Z</time>
      </trkpt>
      <trkpt lat="44.88226" lon="6.79352">
        <ele>2206.8</ele>
        <time>2021-12-22T13:32:48Z</time>
      </trkpt>
      <trkpt lat="44.8823" lon="6.79354">
        <ele>2206.6</ele>
        <time>2021-12-22T13:32:51Z</time>
      </trkpt>
      <trkpt lat="44.8823" lon="6.79355">
        <ele>2206.6</ele>
        <time>2021-12-22T13:32:52Z</time>
      </trkpt>
      <trkpt lat="44.88232" lon="6.79355">
        <ele>2206.7</ele>
        <time>2021-12-22T13:33:01Z</time>
      </trkpt>
      <trkpt lat="44.88236" lon="6.7936">
        <ele>2207.1</ele>
        <time>2021-12-22T13:33:02Z</time>
      </trkpt>
      <trkpt lat="44.88238" lon="6.79362">
        <ele>2206.9</ele>
        <time>2021-12-22T13:33:04Z</time>
      </trkpt>
      <trkpt lat="44.88238" lon="6.79363">
        <ele>2207.1</ele>
        <time>2021-12-22T13:33:05Z</time>
      </trkpt>
      <trkpt lat="44.88239" lon="6.79363">
        <ele>2207.2</ele>
        <time>2021-12-22T13:33:06Z</time>
      </trkpt>
      <trkpt lat="44.8824" lon="6.79364">
        <ele>2207.3</ele>
        <time>2021-12-22T13:33:07Z</time>
      </trkpt>
      <trkpt lat="44.88244" lon="6.79367">
        <ele>2207.3</ele>
        <time>2021-12-22T13:33:10Z</time>
      </trkpt>
      <trkpt lat="44.88249" lon="6.79372">
        <ele>2206.7</ele>
        <time>2021-12-22T13:33:14Z</time>
      </trkpt>
      <trkpt lat="44.8825" lon="6.79372">
        <ele>2206.6</ele>
        <time>2021-12-22T13:33:15Z</time>
      </trkpt>
      <trkpt lat="44.8825" lon="6.79373">
        <ele>2206.4</ele>
        <time>2021-12-22T13:33:28Z</time>
      </trkpt>
      <trkpt lat="44.88258" lon="6.79378">
        <ele>2205.6</ele>
        <time>2021-12-22T13:33:29Z</time>
      </trkpt>
      <trkpt lat="44.88259" lon="6.79378">
        <ele>2205.3</ele>
        <time>2021-12-22T13:33:30Z</time>
      </trkpt>
      <trkpt lat="44.8826" lon="6.79378">
        <ele>2205.2</ele>
        <time>2021-12-22T13:33:44Z</time>
      </trkpt>
      <trkpt lat="44.88269" lon="6.79382">
        <ele>2204.7</ele>
        <time>2021-12-22T13:33:45Z</time>
      </trkpt>
      <trkpt lat="44.88269" lon="6.79383">
        <ele>2204.7</ele>
        <time>2021-12-22T13:33:46Z</time>
      </trkpt>
      <trkpt lat="44.8827" lon="6.79383">
        <ele>2204.7</ele>
        <time>2021-12-22T13:34:02Z</time>
      </trkpt>
      <trkpt lat="44.88277" lon="6.79392">
        <ele>2205</ele>
        <time>2021-12-22T13:34:03Z</time>
      </trkpt>
      <trkpt lat="44.88277" lon="6.79392">
        <ele>2205.1</ele>
        <time>2021-12-22T13:34:04Z</time>
      </trkpt>
      <trkpt lat="44.88278" lon="6.79393">
        <ele>2205.2</ele>
        <time>2021-12-22T13:34:27Z</time>
      </trkpt>
      <trkpt lat="44.88282" lon="6.79405">
        <ele>2207.4</ele>
        <time>2021-12-22T13:34:28Z</time>
      </trkpt>
      <trkpt lat="44.88282" lon="6.79406">
        <ele>2207.7</ele>
        <time>2021-12-22T13:34:29Z</time>
      </trkpt>
      <trkpt lat="44.88283" lon="6.79407">
        <ele>2208</ele>
        <time>2021-12-22T13:36:37Z</time>
      </trkpt>
      <trkpt lat="44.88286" lon="6.79419">
        <ele>2213</ele>
        <time>2021-12-22T13:36:38Z</time>
      </trkpt>
      <trkpt lat="44.88285" lon="6.7942">
        <ele>2213.2</ele>
        <time>2021-12-22T13:36:39Z</time>
      </trkpt>
      <trkpt lat="44.88285" lon="6.79421">
        <ele>2213.7</ele>
        <time>2021-12-22T13:37:00Z</time>
      </trkpt>
      <trkpt lat="44.88287" lon="6.79434">
        <ele>2214.7</ele>
        <time>2021-12-22T13:37:01Z</time>
      </trkpt>
      <trkpt lat="44.88287" lon="6.79435">
        <ele>2214.7</ele>
        <time>2021-12-22T13:37:02Z</time>
      </trkpt>
      <trkpt lat="44.88288" lon="6.79436">
        <ele>2214.7</ele>
        <time>2021-12-22T13:37:19Z</time>
      </trkpt>
      <trkpt lat="44.88295" lon="6.79445">
        <ele>2214</ele>
        <time>2021-12-22T13:37:20Z</time>
      </trkpt>
      <trkpt lat="44.88299" lon="6.79446">
        <ele>2211.9</ele>
        <time>2021-12-22T13:37:25Z</time>
      </trkpt>
      <trkpt lat="44.883" lon="6.79446">
        <ele>2211.6</ele>
        <time>2021-12-22T13:37:26Z</time>
      </trkpt>
      <trkpt lat="44.88301" lon="6.79446">
        <ele>2211.4</ele>
        <time>2021-12-22T13:37:39Z</time>
      </trkpt>
      <trkpt lat="44.8831" lon="6.79448">
        <ele>2209.8</ele>
        <time>2021-12-22T13:37:40Z</time>
      </trkpt>
      <trkpt lat="44.88311" lon="6.79449">
        <ele>2209</ele>
        <time>2021-12-22T13:37:42Z</time>
      </trkpt>
      <trkpt lat="44.88312" lon="6.7945">
        <ele>2208.7</ele>
        <time>2021-12-22T13:37:43Z</time>
      </trkpt>
      <trkpt lat="44.88313" lon="6.7945">
        <ele>2208.6</ele>
        <time>2021-12-22T13:37:58Z</time>
      </trkpt>
      <trkpt lat="44.88322" lon="6.79451">
        <ele>2207.7</ele>
        <time>2021-12-22T13:37:59Z</time>
      </trkpt>
      <trkpt lat="44.88323" lon="6.79451">
        <ele>2207.7</ele>
        <time>2021-12-22T13:38:00Z</time>
      </trkpt>
      <trkpt lat="44.88325" lon="6.79451">
        <ele>2208</ele>
        <time>2021-12-22T13:38:15Z</time>
      </trkpt>
      <trkpt lat="44.88334" lon="6.7945">
        <ele>2208.3</ele>
        <time>2021-12-22T13:38:16Z</time>
      </trkpt>
      <trkpt lat="44.88335" lon="6.7945">
        <ele>2208.4</ele>
        <time>2021-12-22T13:38:17Z</time>
      </trkpt>
      <trkpt lat="44.88336" lon="6.79451">
        <ele>2208.5</ele>
        <time>2021-12-22T13:38:30Z</time>
      </trkpt>
      <trkpt lat="44.88345" lon="6.79455">
        <ele>2209.4</ele>
        <time>2021-12-22T13:38:31Z</time>
      </trkpt>
      <trkpt lat="44.88345" lon="6.79455">
        <ele>2209.5</ele>
        <time>2021-12-22T13:38:32Z</time>
      </trkpt>
      <trkpt lat="44.88347" lon="6.79456">
        <ele>2209.7</ele>
        <time>2021-12-22T13:38:50Z</time>
      </trkpt>
      <trkpt lat="44.88355" lon="6.79463">
        <ele>2212.1</ele>
        <time>2021-12-22T13:38:51Z</time>
      </trkpt>
      <trkpt lat="44.88356" lon="6.79463">
        <ele>2212.2</ele>
        <time>2021-12-22T13:38:52Z</time>
      </trkpt>
      <trkpt lat="44.88357" lon="6.79464">
        <ele>2212.4</ele>
        <time>2021-12-22T13:39:08Z</time>
      </trkpt>
      <trkpt lat="44.88365" lon="6.79468">
        <ele>2214.2</ele>
        <time>2021-12-22T13:39:09Z</time>
      </trkpt>
      <trkpt lat="44.88367" lon="6.79469">
        <ele>2214.1</ele>
        <time>2021-12-22T13:39:11Z</time>
      </trkpt>
      <trkpt lat="44.88368" lon="6.79469">
        <ele>2214.1</ele>
        <time>2021-12-22T13:39:12Z</time>
      </trkpt>
      <trkpt lat="44.8837" lon="6.7947">
        <ele>2214.3</ele>
        <time>2021-12-22T13:39:17Z</time>
      </trkpt>
      <trkpt lat="44.88373" lon="6.79472">
        <ele>2214.5</ele>
        <time>2021-12-22T13:39:18Z</time>
      </trkpt>
      <trkpt lat="44.88375" lon="6.79473">
        <ele>2214.2</ele>
        <time>2021-12-22T13:39:20Z</time>
      </trkpt>
      <trkpt lat="44.88376" lon="6.79474">
        <ele>2214.3</ele>
        <time>2021-12-22T13:39:21Z</time>
      </trkpt>
      <trkpt lat="44.88377" lon="6.79474">
        <ele>2214.5</ele>
        <time>2021-12-22T13:39:25Z</time>
      </trkpt>
      <trkpt lat="44.8838" lon="6.79475">
        <ele>2214.5</ele>
        <time>2021-12-22T13:39:26Z</time>
      </trkpt>
      <trkpt lat="44.88381" lon="6.79475">
        <ele>2213.7</ele>
        <time>2021-12-22T13:39:29Z</time>
      </trkpt>
      <trkpt lat="44.88382" lon="6.79475">
        <ele>2213.7</ele>
        <time>2021-12-22T13:39:30Z</time>
      </trkpt>
      <trkpt lat="44.88383" lon="6.79475">
        <ele>2213.7</ele>
        <time>2021-12-22T13:39:31Z</time>
      </trkpt>
      <trkpt lat="44.88384" lon="6.79476">
        <ele>2213.6</ele>
        <time>2021-12-22T13:39:32Z</time>
      </trkpt>
      <trkpt lat="44.88385" lon="6.79476">
        <ele>2213.6</ele>
        <time>2021-12-22T13:39:33Z</time>
      </trkpt>
      <trkpt lat="44.88387" lon="6.79477">
        <ele>2213.7</ele>
        <time>2021-12-22T13:39:36Z</time>
      </trkpt>
      <trkpt lat="44.88389" lon="6.79478">
        <ele>2213.9</ele>
        <time>2021-12-22T13:39:37Z</time>
      </trkpt>
      <trkpt lat="44.8839" lon="6.79478">
        <ele>2214.2</ele>
        <time>2021-12-22T13:39:38Z</time>
      </trkpt>
      <trkpt lat="44.88391" lon="6.79478">
        <ele>2214.2</ele>
        <time>2021-12-22T13:39:39Z</time>
      </trkpt>
      <trkpt lat="44.88392" lon="6.79478">
        <ele>2214.3</ele>
        <time>2021-12-22T13:39:40Z</time>
      </trkpt>
      <trkpt lat="44.88393" lon="6.79479">
        <ele>2214.6</ele>
        <time>2021-12-22T13:39:41Z</time>
      </trkpt>
      <trkpt lat="44.88394" lon="6.79479">
        <ele>2214.8</ele>
        <time>2021-12-22T13:39:42Z</time>
      </trkpt>
      <trkpt lat="44.88394" lon="6.79479">
        <ele>2214.8</ele>
        <time>2021-12-22T13:39:43Z</time>
      </trkpt>
      <trkpt lat="44.88396" lon="6.79479">
        <ele>2215</ele>
        <time>2021-12-22T13:39:44Z</time>
      </trkpt>
      <trkpt lat="44.88397" lon="6.7948">
        <ele>2215.4</ele>
        <time>2021-12-22T13:39:45Z</time>
      </trkpt>
      <trkpt lat="44.88398" lon="6.7948">
        <ele>2215.6</ele>
        <time>2021-12-22T13:39:51Z</time>
      </trkpt>
      <trkpt lat="44.88402" lon="6.79483">
        <ele>2216.4</ele>
        <time>2021-12-22T13:39:52Z</time>
      </trkpt>
      <trkpt lat="44.88403" lon="6.79484">
        <ele>2217</ele>
        <time>2021-12-22T13:39:53Z</time>
      </trkpt>
      <trkpt lat="44.88404" lon="6.79485">
        <ele>2217.3</ele>
        <time>2021-12-22T13:40:05Z</time>
      </trkpt>
      <trkpt lat="44.8841" lon="6.79493">
        <ele>2218.6</ele>
        <time>2021-12-22T13:40:06Z</time>
      </trkpt>
      <trkpt lat="44.8841" lon="6.79494">
        <ele>2218.8</ele>
        <time>2021-12-22T13:40:07Z</time>
      </trkpt>
      <trkpt lat="44.88411" lon="6.79495">
        <ele>2219.2</ele>
        <time>2021-12-22T13:41:01Z</time>
      </trkpt>
      <trkpt lat="44.88409" lon="6.79507">
        <ele>2222.1</ele>
        <time>2021-12-22T13:41:02Z</time>
      </trkpt>
      <trkpt lat="44.88409" lon="6.79508">
        <ele>2222.2</ele>
        <time>2021-12-22T13:41:03Z</time>
      </trkpt>
      <trkpt lat="44.88409" lon="6.79509">
        <ele>2222.5</ele>
        <time>2021-12-22T13:41:10Z</time>
      </trkpt>
      <trkpt lat="44.88412" lon="6.79515">
        <ele>2222.9</ele>
        <time>2021-12-22T13:41:11Z</time>
      </trkpt>
      <trkpt lat="44.88413" lon="6.79516">
        <ele>2223</ele>
        <time>2021-12-22T13:41:12Z</time>
      </trkpt>
      <trkpt lat="44.88413" lon="6.79517">
        <ele>2223.2</ele>
        <time>2021-12-22T13:41:26Z</time>
      </trkpt>
      <trkpt lat="44.88418" lon="6.79529">
        <ele>2224.1</ele>
        <time>2021-12-22T13:41:27Z</time>
      </trkpt>
      <trkpt lat="44.88418" lon="6.79529">
        <ele>2224.2</ele>
        <time>2021-12-22T13:41:28Z</time>
      </trkpt>
      <trkpt lat="44.88419" lon="6.79531">
        <ele>2224.4</ele>
        <time>2021-12-22T13:41:45Z</time>
      </trkpt>
      <trkpt lat="44.88422" lon="6.79543">
        <ele>2225.7</ele>
        <time>2021-12-22T13:41:46Z</time>
      </trkpt>
      <trkpt lat="44.88422" lon="6.79544">
        <ele>2225.8</ele>
        <time>2021-12-22T13:41:47Z</time>
      </trkpt>
      <trkpt lat="44.88422" lon="6.79545">
        <ele>2225.9</ele>
        <time>2021-12-22T13:58:11Z</time>
      </trkpt>
      <trkpt lat="44.88426" lon="6.79556">
        <ele>2229.4</ele>
        <time>2021-12-22T13:58:12Z</time>
      </trkpt>
      <trkpt lat="44.88428" lon="6.79561">
        <ele>2228.8</ele>
        <time>2021-12-22T13:58:15Z</time>
      </trkpt>
      <trkpt lat="44.88428" lon="6.79562">
        <ele>2228.3</ele>
        <time>2021-12-22T13:58:16Z</time>
      </trkpt>
      <trkpt lat="44.88429" lon="6.79563">
        <ele>2228.2</ele>
        <time>2021-12-22T13:58:17Z</time>
      </trkpt>
      <trkpt lat="44.88429" lon="6.79564">
        <ele>2227.9</ele>
        <time>2021-12-22T13:58:18Z</time>
      </trkpt>
      <trkpt lat="44.88431" lon="6.7957">
        <ele>2226.5</ele>
        <time>2021-12-22T13:58:22Z</time>
      </trkpt>
      <trkpt lat="44.88432" lon="6.79571">
        <ele>2226.2</ele>
        <time>2021-12-22T13:58:23Z</time>
      </trkpt>
      <trkpt lat="44.88432" lon="6.79572">
        <ele>2225.9</ele>
        <time>2021-12-22T13:58:24Z</time>
      </trkpt>
      <trkpt lat="44.88433" lon="6.79575">
        <ele>2225.4</ele>
        <time>2021-12-22T13:58:30Z</time>
      </trkpt>
      <trkpt lat="44.88436" lon="6.7958">
        <ele>2224.3</ele>
        <time>2021-12-22T13:58:31Z</time>
      </trkpt>
      <trkpt lat="44.88438" lon="6.79586">
        <ele>2223.2</ele>
        <time>2021-12-22T13:58:35Z</time>
      </trkpt>
      <trkpt lat="44.8844" lon="6.79589">
        <ele>2222.7</ele>
        <time>2021-12-22T13:58:37Z</time>
      </trkpt>
      <trkpt lat="44.88441" lon="6.79589">
        <ele>2222.5</ele>
        <time>2021-12-22T13:58:38Z</time>
      </trkpt>
      <trkpt lat="44.88441" lon="6.79592">
        <ele>2222.4</ele>
        <time>2021-12-22T13:58:41Z</time>
      </trkpt>
      <trkpt lat="44.88443" lon="6.79594">
        <ele>2222.3</ele>
        <time>2021-12-22T13:58:42Z</time>
      </trkpt>
      <trkpt lat="44.88445" lon="6.796">
        <ele>2220.9</ele>
        <time>2021-12-22T13:58:47Z</time>
      </trkpt>
      <trkpt lat="44.88448" lon="6.79606">
        <ele>2220.8</ele>
        <time>2021-12-22T13:58:51Z</time>
      </trkpt>
      <trkpt lat="44.88448" lon="6.79608">
        <ele>2220.8</ele>
        <time>2021-12-22T13:58:52Z</time>
      </trkpt>
      <trkpt lat="44.88449" lon="6.79609">
        <ele>2220.8</ele>
        <time>2021-12-22T13:58:53Z</time>
      </trkpt>
      <trkpt lat="44.88449" lon="6.79612">
        <ele>2220.5</ele>
        <time>2021-12-22T13:59:07Z</time>
      </trkpt>
      <trkpt lat="44.88447" lon="6.79625">
        <ele>2219.9</ele>
        <time>2021-12-22T13:59:08Z</time>
      </trkpt>
      <trkpt lat="44.88446" lon="6.79626">
        <ele>2219.8</ele>
        <time>2021-12-22T13:59:09Z</time>
      </trkpt>
      <trkpt lat="44.88446" lon="6.79628">
        <ele>2219.7</ele>
        <time>2021-12-22T13:59:22Z</time>
      </trkpt>
      <trkpt lat="44.88442" lon="6.79641">
        <ele>2219.7</ele>
        <time>2021-12-22T13:59:23Z</time>
      </trkpt>
      <trkpt lat="44.88441" lon="6.79647">
        <ele>2219.3</ele>
        <time>2021-12-22T13:59:27Z</time>
      </trkpt>
      <trkpt lat="44.8844" lon="6.79655">
        <ele>2219.5</ele>
        <time>2021-12-22T13:59:32Z</time>
      </trkpt>
      <trkpt lat="44.88439" lon="6.79656">
        <ele>2219.5</ele>
        <time>2021-12-22T13:59:33Z</time>
      </trkpt>
      <trkpt lat="44.88439" lon="6.79657">
        <ele>2219.5</ele>
        <time>2021-12-22T13:59:34Z</time>
      </trkpt>
      <trkpt lat="44.88439" lon="6.79659">
        <ele>2219.6</ele>
        <time>2021-12-22T14:00:03Z</time>
      </trkpt>
      <trkpt lat="44.88435" lon="6.79672">
        <ele>2220</ele>
        <time>2021-12-22T14:00:04Z</time>
      </trkpt>
      <trkpt lat="44.88434" lon="6.7968">
        <ele>2219.7</ele>
        <time>2021-12-22T14:00:08Z</time>
      </trkpt>
      <trkpt lat="44.88433" lon="6.79686">
        <ele>2219.4</ele>
        <time>2021-12-22T14:00:11Z</time>
      </trkpt>
      <trkpt lat="44.88431" lon="6.79694">
        <ele>2219.7</ele>
        <time>2021-12-22T14:00:16Z</time>
      </trkpt>
      <trkpt lat="44.88429" lon="6.79701">
        <ele>2220.2</ele>
        <time>2021-12-22T14:00:20Z</time>
      </trkpt>
      <trkpt lat="44.88427" lon="6.79708">
        <ele>2220.2</ele>
        <time>2021-12-22T14:00:24Z</time>
      </trkpt>
      <trkpt lat="44.88427" lon="6.79716">
        <ele>2220.4</ele>
        <time>2021-12-22T14:00:28Z</time>
      </trkpt>
      <trkpt lat="44.88425" lon="6.79723">
        <ele>2221</ele>
        <time>2021-12-22T14:00:32Z</time>
      </trkpt>
      <trkpt lat="44.88422" lon="6.79731">
        <ele>2221.7</ele>
        <time>2021-12-22T14:00:36Z</time>
      </trkpt>
      <trkpt lat="44.88421" lon="6.79737">
        <ele>2222.1</ele>
        <time>2021-12-22T14:00:40Z</time>
      </trkpt>
      <trkpt lat="44.88421" lon="6.79738">
        <ele>2222.3</ele>
        <time>2021-12-22T14:00:41Z</time>
      </trkpt>
      <trkpt lat="44.88421" lon="6.79741">
        <ele>2222.6</ele>
        <time>2021-12-22T14:00:48Z</time>
      </trkpt>
      <trkpt lat="44.8842" lon="6.7975">
        <ele>2223.1</ele>
        <time>2021-12-22T14:00:49Z</time>
      </trkpt>
      <trkpt lat="44.8842" lon="6.79754">
        <ele>2223.1</ele>
        <time>2021-12-22T14:00:52Z</time>
      </trkpt>
      <trkpt lat="44.88419" lon="6.79755">
        <ele>2222.8</ele>
        <time>2021-12-22T14:00:53Z</time>
      </trkpt>
      <trkpt lat="44.8842" lon="6.79757">
        <ele>2223</ele>
        <time>2021-12-22T14:01:06Z</time>
      </trkpt>
      <trkpt lat="44.88423" lon="6.79769">
        <ele>2223.5</ele>
        <time>2021-12-22T14:01:07Z</time>
      </trkpt>
      <trkpt lat="44.88424" lon="6.79771">
        <ele>2223.7</ele>
        <time>2021-12-22T14:01:08Z</time>
      </trkpt>
      <trkpt lat="44.88424" lon="6.79772">
        <ele>2223.8</ele>
        <time>2021-12-22T14:01:09Z</time>
      </trkpt>
      <trkpt lat="44.88425" lon="6.79773">
        <ele>2224.3</ele>
        <time>2021-12-22T14:01:10Z</time>
      </trkpt>
      <trkpt lat="44.88426" lon="6.79775">
        <ele>2224.2</ele>
        <time>2021-12-22T14:01:11Z</time>
      </trkpt>
      <trkpt lat="44.88426" lon="6.79776">
        <ele>2224.2</ele>
        <time>2021-12-22T14:01:12Z</time>
      </trkpt>
      <trkpt lat="44.88427" lon="6.79778">
        <ele>2224.2</ele>
        <time>2021-12-22T14:01:13Z</time>
      </trkpt>
      <trkpt lat="44.8843" lon="6.79784">
        <ele>2223.7</ele>
        <time>2021-12-22T14:01:17Z</time>
      </trkpt>
      <trkpt lat="44.88432" lon="6.79791">
        <ele>2223.1</ele>
        <time>2021-12-22T14:01:21Z</time>
      </trkpt>
      <trkpt lat="44.88435" lon="6.79797">
        <ele>2222.3</ele>
        <time>2021-12-22T14:01:25Z</time>
      </trkpt>
      <trkpt lat="44.88438" lon="6.79803">
        <ele>2221.8</ele>
        <time>2021-12-22T14:01:29Z</time>
      </trkpt>
      <trkpt lat="44.8844" lon="6.79809">
        <ele>2222.3</ele>
        <time>2021-12-22T14:01:33Z</time>
      </trkpt>
      <trkpt lat="44.88444" lon="6.79813">
        <ele>2222.8</ele>
        <time>2021-12-22T14:01:37Z</time>
      </trkpt>
      <trkpt lat="44.88447" lon="6.79819">
        <ele>2223</ele>
        <time>2021-12-22T14:01:41Z</time>
      </trkpt>
      <trkpt lat="44.88451" lon="6.79825">
        <ele>2223.2</ele>
        <time>2021-12-22T14:01:45Z</time>
      </trkpt>
      <trkpt lat="44.88454" lon="6.7983">
        <ele>2222.8</ele>
        <time>2021-12-22T14:01:49Z</time>
      </trkpt>
      <trkpt lat="44.88456" lon="6.79836">
        <ele>2222.7</ele>
        <time>2021-12-22T14:01:53Z</time>
      </trkpt>
      <trkpt lat="44.8846" lon="6.79841">
        <ele>2222.8</ele>
        <time>2021-12-22T14:01:58Z</time>
      </trkpt>
      <trkpt lat="44.8846" lon="6.79842">
        <ele>2222.7</ele>
        <time>2021-12-22T14:01:59Z</time>
      </trkpt>
      <trkpt lat="44.88461" lon="6.79844">
        <ele>2222.9</ele>
        <time>2021-12-22T14:02:01Z</time>
      </trkpt>
      <trkpt lat="44.88462" lon="6.79845">
        <ele>2222.8</ele>
        <time>2021-12-22T14:02:02Z</time>
      </trkpt>
      <trkpt lat="44.88465" lon="6.79851">
        <ele>2222.7</ele>
        <time>2021-12-22T14:02:07Z</time>
      </trkpt>
      <trkpt lat="44.88467" lon="6.79855">
        <ele>2222.5</ele>
        <time>2021-12-22T14:02:10Z</time>
      </trkpt>
      <trkpt lat="44.88468" lon="6.79856">
        <ele>2222.5</ele>
        <time>2021-12-22T14:02:11Z</time>
      </trkpt>
      <trkpt lat="44.88468" lon="6.79857">
        <ele>2222.5</ele>
        <time>2021-12-22T14:02:15Z</time>
      </trkpt>
      <trkpt lat="44.8847" lon="6.7986">
        <ele>2222.8</ele>
        <time>2021-12-22T14:02:16Z</time>
      </trkpt>
      <trkpt lat="44.8847" lon="6.79861">
        <ele>2222.9</ele>
        <time>2021-12-22T14:02:17Z</time>
      </trkpt>
      <trkpt lat="44.88471" lon="6.79863">
        <ele>2223</ele>
        <time>2021-12-22T14:02:26Z</time>
      </trkpt>
      <trkpt lat="44.88474" lon="6.79871">
        <ele>2223.3</ele>
        <time>2021-12-22T14:02:27Z</time>
      </trkpt>
      <trkpt lat="44.88476" lon="6.79878">
        <ele>2223</ele>
        <time>2021-12-22T14:02:31Z</time>
      </trkpt>
      <trkpt lat="44.88478" lon="6.79886">
        <ele>2223</ele>
        <time>2021-12-22T14:02:34Z</time>
      </trkpt>
      <trkpt lat="44.8848" lon="6.79892">
        <ele>2222.8</ele>
        <time>2021-12-22T14:02:37Z</time>
      </trkpt>
      <trkpt lat="44.88483" lon="6.79898">
        <ele>2222.6</ele>
        <time>2021-12-22T14:02:41Z</time>
      </trkpt>
      <trkpt lat="44.88485" lon="6.79905">
        <ele>2222.5</ele>
        <time>2021-12-22T14:02:45Z</time>
      </trkpt>
      <trkpt lat="44.88488" lon="6.79911">
        <ele>2222</ele>
        <time>2021-12-22T14:02:49Z</time>
      </trkpt>
      <trkpt lat="44.88491" lon="6.79918">
        <ele>2221.3</ele>
        <time>2021-12-22T14:02:52Z</time>
      </trkpt>
      <trkpt lat="44.88491" lon="6.79919">
        <ele>2221.1</ele>
        <time>2021-12-22T14:02:53Z</time>
      </trkpt>
      <trkpt lat="44.88492" lon="6.79921">
        <ele>2220.8</ele>
        <time>2021-12-22T14:02:54Z</time>
      </trkpt>
      <trkpt lat="44.88493" lon="6.79922">
        <ele>2220.6</ele>
        <time>2021-12-22T14:02:57Z</time>
      </trkpt>
      <trkpt lat="44.88494" lon="6.79924">
        <ele>2220.5</ele>
        <time>2021-12-22T14:02:58Z</time>
      </trkpt>
      <trkpt lat="44.88498" lon="6.79929">
        <ele>2220.9</ele>
        <time>2021-12-22T14:03:02Z</time>
      </trkpt>
      <trkpt lat="44.885" lon="6.7993">
        <ele>2221.3</ele>
        <time>2021-12-22T14:03:04Z</time>
      </trkpt>
      <trkpt lat="44.88501" lon="6.79931">
        <ele>2221.6</ele>
        <time>2021-12-22T14:03:05Z</time>
      </trkpt>
      <trkpt lat="44.88502" lon="6.79933">
        <ele>2221.8</ele>
        <time>2021-12-22T14:03:09Z</time>
      </trkpt>
      <trkpt lat="44.88503" lon="6.79937">
        <ele>2221.6</ele>
        <time>2021-12-22T14:03:10Z</time>
      </trkpt>
      <trkpt lat="44.88504" lon="6.79942">
        <ele>2220.9</ele>
        <time>2021-12-22T14:03:14Z</time>
      </trkpt>
      <trkpt lat="44.88504" lon="6.79943">
        <ele>2221</ele>
        <time>2021-12-22T14:03:15Z</time>
      </trkpt>
      <trkpt lat="44.88504" lon="6.79945">
        <ele>2221.1</ele>
        <time>2021-12-22T14:03:22Z</time>
      </trkpt>
      <trkpt lat="44.88505" lon="6.79952">
        <ele>2221.2</ele>
        <time>2021-12-22T14:03:23Z</time>
      </trkpt>
      <trkpt lat="44.88505" lon="6.79953">
        <ele>2221.4</ele>
        <time>2021-12-22T14:03:24Z</time>
      </trkpt>
      <trkpt lat="44.88505" lon="6.79954">
        <ele>2221.4</ele>
        <time>2021-12-22T14:03:25Z</time>
      </trkpt>
      <trkpt lat="44.88505" lon="6.79956">
        <ele>2221.4</ele>
        <time>2021-12-22T14:03:26Z</time>
      </trkpt>
      <trkpt lat="44.88505" lon="6.79958">
        <ele>2221.4</ele>
        <time>2021-12-22T14:03:27Z</time>
      </trkpt>
      <trkpt lat="44.88505" lon="6.79959">
        <ele>2221.4</ele>
        <time>2021-12-22T14:03:28Z</time>
      </trkpt>
      <trkpt lat="44.88505" lon="6.7996">
        <ele>2221.4</ele>
        <time>2021-12-22T14:03:49Z</time>
      </trkpt>
      <trkpt lat="44.88504" lon="6.79974">
        <ele>2223.6</ele>
        <time>2021-12-22T14:03:50Z</time>
      </trkpt>
      <trkpt lat="44.88504" lon="6.79974">
        <ele>2223.7</ele>
        <time>2021-12-22T14:03:51Z</time>
      </trkpt>
      <trkpt lat="44.88503" lon="6.79976">
        <ele>2224</ele>
        <time>2021-12-22T14:15:50Z</time>
      </trkpt>
      <trkpt lat="44.88506" lon="6.79988">
        <ele>2224.6</ele>
        <time>2021-12-22T14:15:51Z</time>
      </trkpt>
      <trkpt lat="44.88507" lon="6.7999">
        <ele>2224.6</ele>
        <time>2021-12-22T14:15:52Z</time>
      </trkpt>
      <trkpt lat="44.88507" lon="6.79991">
        <ele>2224.5</ele>
        <time>2021-12-22T14:15:53Z</time>
      </trkpt>
      <trkpt lat="44.88508" lon="6.79993">
        <ele>2224.3</ele>
        <time>2021-12-22T14:15:54Z</time>
      </trkpt>
      <trkpt lat="44.88509" lon="6.80001">
        <ele>2223.8</ele>
        <time>2021-12-22T14:15:58Z</time>
      </trkpt>
      <trkpt lat="44.88511" lon="6.80007">
        <ele>2223.3</ele>
        <time>2021-12-22T14:16:01Z</time>
      </trkpt>
      <trkpt lat="44.88512" lon="6.80014">
        <ele>2223</ele>
        <time>2021-12-22T14:16:04Z</time>
      </trkpt>
      <trkpt lat="44.88514" lon="6.8002">
        <ele>2222.7</ele>
        <time>2021-12-22T14:16:06Z</time>
      </trkpt>
      <trkpt lat="44.88515" lon="6.80027">
        <ele>2222.9</ele>
        <time>2021-12-22T14:16:09Z</time>
      </trkpt>
      <trkpt lat="44.88517" lon="6.80034">
        <ele>2222.7</ele>
        <time>2021-12-22T14:16:14Z</time>
      </trkpt>
      <trkpt lat="44.88519" lon="6.8004">
        <ele>2222.6</ele>
        <time>2021-12-22T14:16:18Z</time>
      </trkpt>
      <trkpt lat="44.88521" lon="6.80047">
        <ele>2223</ele>
        <time>2021-12-22T14:16:22Z</time>
      </trkpt>
      <trkpt lat="44.88524" lon="6.80053">
        <ele>2222.9</ele>
        <time>2021-12-22T14:16:26Z</time>
      </trkpt>
      <trkpt lat="44.88526" lon="6.80059">
        <ele>2222.4</ele>
        <time>2021-12-22T14:16:30Z</time>
      </trkpt>
      <trkpt lat="44.88528" lon="6.80067">
        <ele>2221.6</ele>
        <time>2021-12-22T14:16:33Z</time>
      </trkpt>
      <trkpt lat="44.88531" lon="6.80073">
        <ele>2220.7</ele>
        <time>2021-12-22T14:16:36Z</time>
      </trkpt>
      <trkpt lat="44.88533" lon="6.8008">
        <ele>2220.2</ele>
        <time>2021-12-22T14:16:40Z</time>
      </trkpt>
      <trkpt lat="44.88536" lon="6.80087">
        <ele>2219.7</ele>
        <time>2021-12-22T14:16:44Z</time>
      </trkpt>
      <trkpt lat="44.8854" lon="6.80094">
        <ele>2219.1</ele>
        <time>2021-12-22T14:16:47Z</time>
      </trkpt>
      <trkpt lat="44.88542" lon="6.80101">
        <ele>2218.4</ele>
        <time>2021-12-22T14:16:50Z</time>
      </trkpt>
      <trkpt lat="44.88544" lon="6.80108">
        <ele>2217.6</ele>
        <time>2021-12-22T14:16:54Z</time>
      </trkpt>
      <trkpt lat="44.88547" lon="6.80115">
        <ele>2216.9</ele>
        <time>2021-12-22T14:16:58Z</time>
      </trkpt>
      <trkpt lat="44.8855" lon="6.80122">
        <ele>2216.2</ele>
        <time>2021-12-22T14:17:02Z</time>
      </trkpt>
      <trkpt lat="44.88553" lon="6.80129">
        <ele>2216.2</ele>
        <time>2021-12-22T14:17:06Z</time>
      </trkpt>
      <trkpt lat="44.88556" lon="6.80135">
        <ele>2216.1</ele>
        <time>2021-12-22T14:17:10Z</time>
      </trkpt>
      <trkpt lat="44.88559" lon="6.80143">
        <ele>2215.6</ele>
        <time>2021-12-22T14:17:14Z</time>
      </trkpt>
      <trkpt lat="44.88562" lon="6.80149">
        <ele>2215.5</ele>
        <time>2021-12-22T14:17:18Z</time>
      </trkpt>
      <trkpt lat="44.88565" lon="6.80156">
        <ele>2215.7</ele>
        <time>2021-12-22T14:17:22Z</time>
      </trkpt>
      <trkpt lat="44.88567" lon="6.80162">
        <ele>2215.8</ele>
        <time>2021-12-22T14:17:25Z</time>
      </trkpt>
      <trkpt lat="44.88569" lon="6.80168">
        <ele>2215.8</ele>
        <time>2021-12-22T14:17:28Z</time>
      </trkpt>
      <trkpt lat="44.88572" lon="6.80174">
        <ele>2215.8</ele>
        <time>2021-12-22T14:17:31Z</time>
      </trkpt>
      <trkpt lat="44.88574" lon="6.8018">
        <ele>2215.6</ele>
        <time>2021-12-22T14:17:34Z</time>
      </trkpt>
      <trkpt lat="44.88576" lon="6.80186">
        <ele>2215</ele>
        <time>2021-12-22T14:17:37Z</time>
      </trkpt>
      <trkpt lat="44.88579" lon="6.80192">
        <ele>2214.5</ele>
        <time>2021-12-22T14:17:41Z</time>
      </trkpt>
      <trkpt lat="44.88582" lon="6.80197">
        <ele>2214.5</ele>
        <time>2021-12-22T14:17:44Z</time>
      </trkpt>
      <trkpt lat="44.88585" lon="6.80202">
        <ele>2214.7</ele>
        <time>2021-12-22T14:17:47Z</time>
      </trkpt>
      <trkpt lat="44.88587" lon="6.80208">
        <ele>2214.7</ele>
        <time>2021-12-22T14:17:50Z</time>
      </trkpt>
      <trkpt lat="44.88591" lon="6.80214">
        <ele>2214.1</ele>
        <time>2021-12-22T14:17:53Z</time>
      </trkpt>
      <trkpt lat="44.88595" lon="6.80222">
        <ele>2213.3</ele>
        <time>2021-12-22T14:17:56Z</time>
      </trkpt>
      <trkpt lat="44.88598" lon="6.80228">
        <ele>2211.9</ele>
        <time>2021-12-22T14:17:58Z</time>
      </trkpt>
      <trkpt lat="44.886" lon="6.80234">
        <ele>2210</ele>
        <time>2021-12-22T14:18:01Z</time>
      </trkpt>
      <trkpt lat="44.88601" lon="6.80236">
        <ele>2209.3</ele>
        <time>2021-12-22T14:18:02Z</time>
      </trkpt>
      <trkpt lat="44.88601" lon="6.80237">
        <ele>2208.7</ele>
        <time>2021-12-22T14:18:08Z</time>
      </trkpt>
      <trkpt lat="44.88604" lon="6.80243">
        <ele>2207.3</ele>
        <time>2021-12-22T14:18:09Z</time>
      </trkpt>
      <trkpt lat="44.88606" lon="6.8025">
        <ele>2207.2</ele>
        <time>2021-12-22T14:18:11Z</time>
      </trkpt>
      <trkpt lat="44.88608" lon="6.80257">
        <ele>2207.2</ele>
        <time>2021-12-22T14:18:13Z</time>
      </trkpt>
      <trkpt lat="44.8861" lon="6.80264">
        <ele>2206.9</ele>
        <time>2021-12-22T14:18:15Z</time>
      </trkpt>
      <trkpt lat="44.88612" lon="6.80273">
        <ele>2206.1</ele>
        <time>2021-12-22T14:18:17Z</time>
      </trkpt>
      <trkpt lat="44.88614" lon="6.80284">
        <ele>2205.6</ele>
        <time>2021-12-22T14:18:19Z</time>
      </trkpt>
      <trkpt lat="44.88615" lon="6.80297">
        <ele>2204.7</ele>
        <time>2021-12-22T14:18:21Z</time>
      </trkpt>
      <trkpt lat="44.88616" lon="6.80303">
        <ele>2204.4</ele>
        <time>2021-12-22T14:18:22Z</time>
      </trkpt>
      <trkpt lat="44.88616" lon="6.80315">
        <ele>2203.8</ele>
        <time>2021-12-22T14:18:24Z</time>
      </trkpt>
      <trkpt lat="44.88617" lon="6.80324">
        <ele>2203.1</ele>
        <time>2021-12-22T14:18:26Z</time>
      </trkpt>
      <trkpt lat="44.88618" lon="6.80326">
        <ele>2202.9</ele>
        <time>2021-12-22T14:18:27Z</time>
      </trkpt>
      <trkpt lat="44.88618" lon="6.80328">
        <ele>2202.8</ele>
        <time>2021-12-22T14:18:28Z</time>
      </trkpt>
      <trkpt lat="44.88618" lon="6.80329">
        <ele>2202.5</ele>
        <time>2021-12-22T14:18:44Z</time>
      </trkpt>
      <trkpt lat="44.88619" lon="6.80335">
        <ele>2202.3</ele>
        <time>2021-12-22T14:18:45Z</time>
      </trkpt>
      <trkpt lat="44.8862" lon="6.80341">
        <ele>2201.8</ele>
        <time>2021-12-22T14:18:47Z</time>
      </trkpt>
      <trkpt lat="44.88623" lon="6.8035">
        <ele>2201</ele>
        <time>2021-12-22T14:18:49Z</time>
      </trkpt>
      <trkpt lat="44.88625" lon="6.80359">
        <ele>2200.4</ele>
        <time>2021-12-22T14:18:51Z</time>
      </trkpt>
      <trkpt lat="44.88627" lon="6.80368">
        <ele>2199.6</ele>
        <time>2021-12-22T14:18:53Z</time>
      </trkpt>
      <trkpt lat="44.88628" lon="6.80376">
        <ele>2198.8</ele>
        <time>2021-12-22T14:18:55Z</time>
      </trkpt>
      <trkpt lat="44.8863" lon="6.80384">
        <ele>2198.3</ele>
        <time>2021-12-22T14:18:57Z</time>
      </trkpt>
      <trkpt lat="44.88631" lon="6.80391">
        <ele>2197.8</ele>
        <time>2021-12-22T14:18:59Z</time>
      </trkpt>
      <trkpt lat="44.88632" lon="6.80398">
        <ele>2197.6</ele>
        <time>2021-12-22T14:19:01Z</time>
      </trkpt>
      <trkpt lat="44.88634" lon="6.80406">
        <ele>2197.1</ele>
        <time>2021-12-22T14:19:03Z</time>
      </trkpt>
      <trkpt lat="44.88635" lon="6.80414">
        <ele>2197</ele>
        <time>2021-12-22T14:19:05Z</time>
      </trkpt>
      <trkpt lat="44.88637" lon="6.80421">
        <ele>2196.7</ele>
        <time>2021-12-22T14:19:07Z</time>
      </trkpt>
      <trkpt lat="44.88639" lon="6.80429">
        <ele>2195.1</ele>
        <time>2021-12-22T14:19:09Z</time>
      </trkpt>
      <trkpt lat="44.8864" lon="6.80438">
        <ele>2193.5</ele>
        <time>2021-12-22T14:19:11Z</time>
      </trkpt>
      <trkpt lat="44.8864" lon="6.80447">
        <ele>2192.2</ele>
        <time>2021-12-22T14:19:13Z</time>
      </trkpt>
      <trkpt lat="44.88638" lon="6.80455">
        <ele>2191.9</ele>
        <time>2021-12-22T14:19:15Z</time>
      </trkpt>
      <trkpt lat="44.88637" lon="6.80465">
        <ele>2190.9</ele>
        <time>2021-12-22T14:19:17Z</time>
      </trkpt>
      <trkpt lat="44.88636" lon="6.80476">
        <ele>2189.8</ele>
        <time>2021-12-22T14:19:19Z</time>
      </trkpt>
      <trkpt lat="44.88637" lon="6.80487">
        <ele>2188.6</ele>
        <time>2021-12-22T14:19:21Z</time>
      </trkpt>
      <trkpt lat="44.88639" lon="6.80496">
        <ele>2187.7</ele>
        <time>2021-12-22T14:19:23Z</time>
      </trkpt>
      <trkpt lat="44.88641" lon="6.80504">
        <ele>2186.7</ele>
        <time>2021-12-22T14:19:25Z</time>
      </trkpt>
      <trkpt lat="44.88644" lon="6.80513">
        <ele>2185.4</ele>
        <time>2021-12-22T14:19:27Z</time>
      </trkpt>
      <trkpt lat="44.88646" lon="6.80522">
        <ele>2184.7</ele>
        <time>2021-12-22T14:19:29Z</time>
      </trkpt>
      <trkpt lat="44.88647" lon="6.80529">
        <ele>2184.6</ele>
        <time>2021-12-22T14:19:31Z</time>
      </trkpt>
      <trkpt lat="44.88649" lon="6.80536">
        <ele>2185.4</ele>
        <time>2021-12-22T14:19:33Z</time>
      </trkpt>
      <trkpt lat="44.88651" lon="6.80543">
        <ele>2185.3</ele>
        <time>2021-12-22T14:19:35Z</time>
      </trkpt>
      <trkpt lat="44.88653" lon="6.80551">
        <ele>2185.2</ele>
        <time>2021-12-22T14:19:37Z</time>
      </trkpt>
      <trkpt lat="44.88655" lon="6.80559">
        <ele>2185.1</ele>
        <time>2021-12-22T14:19:39Z</time>
      </trkpt>
      <trkpt lat="44.88656" lon="6.80568">
        <ele>2184.2</ele>
        <time>2021-12-22T14:19:41Z</time>
      </trkpt>
      <trkpt lat="44.88658" lon="6.80575">
        <ele>2183.9</ele>
        <time>2021-12-22T14:19:43Z</time>
      </trkpt>
      <trkpt lat="44.8866" lon="6.80582">
        <ele>2182.9</ele>
        <time>2021-12-22T14:19:45Z</time>
      </trkpt>
      <trkpt lat="44.88662" lon="6.80588">
        <ele>2183.1</ele>
        <time>2021-12-22T14:19:47Z</time>
      </trkpt>
      <trkpt lat="44.88664" lon="6.80596">
        <ele>2182.7</ele>
        <time>2021-12-22T14:19:50Z</time>
      </trkpt>
      <trkpt lat="44.88665" lon="6.806">
        <ele>2182.4</ele>
        <time>2021-12-22T14:19:52Z</time>
      </trkpt>
      <trkpt lat="44.88665" lon="6.80602">
        <ele>2182.4</ele>
        <time>2021-12-22T14:19:53Z</time>
      </trkpt>
      <trkpt lat="44.88665" lon="6.80602">
        <ele>2182.3</ele>
        <time>2021-12-22T14:20:04Z</time>
      </trkpt>
      <trkpt lat="44.88666" lon="6.80607">
        <ele>2181.5</ele>
        <time>2021-12-22T14:20:05Z</time>
      </trkpt>
      <trkpt lat="44.88668" lon="6.80615">
        <ele>2181</ele>
        <time>2021-12-22T14:20:09Z</time>
      </trkpt>
      <trkpt lat="44.8867" lon="6.80621">
        <ele>2179.8</ele>
        <time>2021-12-22T14:20:12Z</time>
      </trkpt>
      <trkpt lat="44.88672" lon="6.80628">
        <ele>2179.4</ele>
        <time>2021-12-22T14:20:15Z</time>
      </trkpt>
      <trkpt lat="44.88674" lon="6.80634">
        <ele>2179.2</ele>
        <time>2021-12-22T14:20:18Z</time>
      </trkpt>
      <trkpt lat="44.88675" lon="6.8064">
        <ele>2179.2</ele>
        <time>2021-12-22T14:20:21Z</time>
      </trkpt>
      <trkpt lat="44.88677" lon="6.80646">
        <ele>2179.3</ele>
        <time>2021-12-22T14:20:24Z</time>
      </trkpt>
      <trkpt lat="44.88678" lon="6.80653">
        <ele>2179.1</ele>
        <time>2021-12-22T14:20:28Z</time>
      </trkpt>
      <trkpt lat="44.8868" lon="6.80659">
        <ele>2178.3</ele>
        <time>2021-12-22T14:20:32Z</time>
      </trkpt>
      <trkpt lat="44.88681" lon="6.80661">
        <ele>2178.2</ele>
        <time>2021-12-22T14:20:34Z</time>
      </trkpt>
      <trkpt lat="44.88682" lon="6.80663">
        <ele>2178.5</ele>
        <time>2021-12-22T14:20:35Z</time>
      </trkpt>
      <trkpt lat="44.88682" lon="6.80665">
        <ele>2178.2</ele>
        <time>2021-12-22T14:20:47Z</time>
      </trkpt>
      <trkpt lat="44.88687" lon="6.80675">
        <ele>2177.6</ele>
        <time>2021-12-22T14:20:48Z</time>
      </trkpt>
      <trkpt lat="44.88688" lon="6.80676">
        <ele>2177.5</ele>
        <time>2021-12-22T14:20:49Z</time>
      </trkpt>
      <trkpt lat="44.88688" lon="6.80677">
        <ele>2177.4</ele>
        <time>2021-12-22T14:20:50Z</time>
      </trkpt>
      <trkpt lat="44.88688" lon="6.80679">
        <ele>2177.5</ele>
        <time>2021-12-22T14:20:51Z</time>
      </trkpt>
      <trkpt lat="44.88689" lon="6.80682">
        <ele>2177.6</ele>
        <time>2021-12-22T14:20:53Z</time>
      </trkpt>
      <trkpt lat="44.88689" lon="6.80683">
        <ele>2177.9</ele>
        <time>2021-12-22T14:20:54Z</time>
      </trkpt>
      <trkpt lat="44.88689" lon="6.80685">
        <ele>2178</ele>
        <time>2021-12-22T14:21:26Z</time>
      </trkpt>
      <trkpt lat="44.88689" lon="6.80697">
        <ele>2179.1</ele>
        <time>2021-12-22T14:21:27Z</time>
      </trkpt>
      <trkpt lat="44.8869" lon="6.80698">
        <ele>2179.1</ele>
        <time>2021-12-22T14:21:28Z</time>
      </trkpt>
      <trkpt lat="44.8869" lon="6.80699">
        <ele>2179.1</ele>
        <time>2021-12-22T14:22:47Z</time>
      </trkpt>
      <trkpt lat="44.8869" lon="6.80713">
        <ele>2178.9</ele>
        <time>2021-12-22T14:22:48Z</time>
      </trkpt>
      <trkpt lat="44.8869" lon="6.80714">
        <ele>2178.8</ele>
        <time>2021-12-22T14:22:49Z</time>
      </trkpt>
      <trkpt lat="44.8869" lon="6.80716">
        <ele>2178.8</ele>
        <time>2021-12-22T14:22:50Z</time>
      </trkpt>
      <trkpt lat="44.8869" lon="6.80719">
        <ele>2178.8</ele>
        <time>2021-12-22T14:22:51Z</time>
      </trkpt>
      <trkpt lat="44.8869" lon="6.80727">
        <ele>2178.6</ele>
        <time>2021-12-22T14:22:54Z</time>
      </trkpt>
      <trkpt lat="44.8869" lon="6.80734">
        <ele>2178.2</ele>
        <time>2021-12-22T14:22:56Z</time>
      </trkpt>
      <trkpt lat="44.8869" lon="6.80739">
        <ele>2178.5</ele>
        <time>2021-12-22T14:22:58Z</time>
      </trkpt>
      <trkpt lat="44.8869" lon="6.80741">
        <ele>2178.5</ele>
        <time>2021-12-22T14:22:59Z</time>
      </trkpt>
      <trkpt lat="44.8869" lon="6.80742">
        <ele>2178.4</ele>
        <time>2021-12-22T14:23:37Z</time>
      </trkpt>
      <trkpt lat="44.88688" lon="6.80755">
        <ele>2178.9</ele>
        <time>2021-12-22T14:23:38Z</time>
      </trkpt>
      <trkpt lat="44.88688" lon="6.80756">
        <ele>2178.9</ele>
        <time>2021-12-22T14:23:39Z</time>
      </trkpt>
      <trkpt lat="44.88689" lon="6.80757">
        <ele>2178.8</ele>
        <time>2021-12-22T14:23:43Z</time>
      </trkpt>
      <trkpt lat="44.88688" lon="6.80762">
        <ele>2178.5</ele>
        <time>2021-12-22T14:23:44Z</time>
      </trkpt>
      <trkpt lat="44.88687" lon="6.80771">
        <ele>2177.7</ele>
        <time>2021-12-22T14:23:47Z</time>
      </trkpt>
      <trkpt lat="44.88687" lon="6.80779">
        <ele>2176.7</ele>
        <time>2021-12-22T14:23:49Z</time>
      </trkpt>
      <trkpt lat="44.88688" lon="6.80789">
        <ele>2175.8</ele>
        <time>2021-12-22T14:23:51Z</time>
      </trkpt>
      <trkpt lat="44.88689" lon="6.80798">
        <ele>2174.9</ele>
        <time>2021-12-22T14:23:53Z</time>
      </trkpt>
      <trkpt lat="44.8869" lon="6.80807">
        <ele>2174.3</ele>
        <time>2021-12-22T14:23:55Z</time>
      </trkpt>
      <trkpt lat="44.88692" lon="6.80814">
        <ele>2173</ele>
        <time>2021-12-22T14:23:58Z</time>
      </trkpt>
      <trkpt lat="44.88693" lon="6.80817">
        <ele>2172.3</ele>
        <time>2021-12-22T14:24:00Z</time>
      </trkpt>
      <trkpt lat="44.88694" lon="6.80818">
        <ele>2172</ele>
        <time>2021-12-22T14:24:01Z</time>
      </trkpt>
      <trkpt lat="44.88694" lon="6.80819">
        <ele>2171.8</ele>
        <time>2021-12-22T14:24:02Z</time>
      </trkpt>
      <trkpt lat="44.88695" lon="6.8082">
        <ele>2171.1</ele>
        <time>2021-12-22T14:24:03Z</time>
      </trkpt>
      <trkpt lat="44.88699" lon="6.80828">
        <ele>2169.7</ele>
        <time>2021-12-22T14:24:06Z</time>
      </trkpt>
      <trkpt lat="44.88704" lon="6.80836">
        <ele>2168.9</ele>
        <time>2021-12-22T14:24:08Z</time>
      </trkpt>
      <trkpt lat="44.88708" lon="6.80842">
        <ele>2168</ele>
        <time>2021-12-22T14:24:10Z</time>
      </trkpt>
      <trkpt lat="44.88711" lon="6.8085">
        <ele>2166.9</ele>
        <time>2021-12-22T14:24:13Z</time>
      </trkpt>
      <trkpt lat="44.88714" lon="6.80857">
        <ele>2165.9</ele>
        <time>2021-12-22T14:24:15Z</time>
      </trkpt>
      <trkpt lat="44.88718" lon="6.80864">
        <ele>2165.2</ele>
        <time>2021-12-22T14:24:17Z</time>
      </trkpt>
      <trkpt lat="44.88723" lon="6.80873">
        <ele>2164.6</ele>
        <time>2021-12-22T14:24:19Z</time>
      </trkpt>
      <trkpt lat="44.88727" lon="6.80881">
        <ele>2164.5</ele>
        <time>2021-12-22T14:24:21Z</time>
      </trkpt>
      <trkpt lat="44.88731" lon="6.80886">
        <ele>2164.2</ele>
        <time>2021-12-22T14:24:23Z</time>
      </trkpt>
      <trkpt lat="44.88734" lon="6.80891">
        <ele>2164.4</ele>
        <time>2021-12-22T14:24:26Z</time>
      </trkpt>
      <trkpt lat="44.88737" lon="6.80896">
        <ele>2163.7</ele>
        <time>2021-12-22T14:24:29Z</time>
      </trkpt>
      <trkpt lat="44.88741" lon="6.80901">
        <ele>2163</ele>
        <time>2021-12-22T14:24:33Z</time>
      </trkpt>
      <trkpt lat="44.88745" lon="6.80906">
        <ele>2163</ele>
        <time>2021-12-22T14:24:36Z</time>
      </trkpt>
      <trkpt lat="44.88749" lon="6.80912">
        <ele>2162.8</ele>
        <time>2021-12-22T14:24:40Z</time>
      </trkpt>
      <trkpt lat="44.88752" lon="6.80916">
        <ele>2163</ele>
        <time>2021-12-22T14:24:43Z</time>
      </trkpt>
      <trkpt lat="44.88753" lon="6.80917">
        <ele>2163</ele>
        <time>2021-12-22T14:24:44Z</time>
      </trkpt>
      <trkpt lat="44.88753" lon="6.80918">
        <ele>2163</ele>
        <time>2021-12-22T14:24:45Z</time>
      </trkpt>
      <trkpt lat="44.88754" lon="6.80919">
        <ele>2162.8</ele>
        <time>2021-12-22T14:24:46Z</time>
      </trkpt>
      <trkpt lat="44.88757" lon="6.80925">
        <ele>2162.6</ele>
        <time>2021-12-22T14:24:49Z</time>
      </trkpt>
      <trkpt lat="44.8876" lon="6.80931">
        <ele>2162.2</ele>
        <time>2021-12-22T14:24:51Z</time>
      </trkpt>
      <trkpt lat="44.88762" lon="6.80938">
        <ele>2162.6</ele>
        <time>2021-12-22T14:24:54Z</time>
      </trkpt>
      <trkpt lat="44.88765" lon="6.80945">
        <ele>2161.7</ele>
        <time>2021-12-22T14:24:58Z</time>
      </trkpt>
      <trkpt lat="44.88769" lon="6.80951">
        <ele>2160.4</ele>
        <time>2021-12-22T14:25:02Z</time>
      </trkpt>
      <trkpt lat="44.88772" lon="6.80957">
        <ele>2159.7</ele>
        <time>2021-12-22T14:25:06Z</time>
      </trkpt>
      <trkpt lat="44.88775" lon="6.80963">
        <ele>2159.1</ele>
        <time>2021-12-22T14:25:10Z</time>
      </trkpt>
      <trkpt lat="44.88778" lon="6.80969">
        <ele>2159.2</ele>
        <time>2021-12-22T14:25:13Z</time>
      </trkpt>
      <trkpt lat="44.88778" lon="6.8097">
        <ele>2159.3</ele>
        <time>2021-12-22T14:25:14Z</time>
      </trkpt>
      <trkpt lat="44.88779" lon="6.80971">
        <ele>2159.3</ele>
        <time>2021-12-22T14:25:15Z</time>
      </trkpt>
      <trkpt lat="44.8878" lon="6.80973">
        <ele>2159.2</ele>
        <time>2021-12-22T14:25:16Z</time>
      </trkpt>
      <trkpt lat="44.88781" lon="6.80974">
        <ele>2159.2</ele>
        <time>2021-12-22T14:25:17Z</time>
      </trkpt>
      <trkpt lat="44.88784" lon="6.8098">
        <ele>2158.2</ele>
        <time>2021-12-22T14:25:21Z</time>
      </trkpt>
      <trkpt lat="44.88788" lon="6.80986">
        <ele>2157.3</ele>
        <time>2021-12-22T14:25:25Z</time>
      </trkpt>
      <trkpt lat="44.8879" lon="6.80988">
        <ele>2157.3</ele>
        <time>2021-12-22T14:25:27Z</time>
      </trkpt>
      <trkpt lat="44.88791" lon="6.80989">
        <ele>2157.2</ele>
        <time>2021-12-22T14:25:28Z</time>
      </trkpt>
      <trkpt lat="44.88792" lon="6.8099">
        <ele>2157.1</ele>
        <time>2021-12-22T14:25:33Z</time>
      </trkpt>
      <trkpt lat="44.88795" lon="6.80993">
        <ele>2157.2</ele>
        <time>2021-12-22T14:25:34Z</time>
      </trkpt>
      <trkpt lat="44.88797" lon="6.80995">
        <ele>2157.3</ele>
        <time>2021-12-22T14:25:37Z</time>
      </trkpt>
      <trkpt lat="44.88798" lon="6.80996">
        <ele>2157.3</ele>
        <time>2021-12-22T14:25:38Z</time>
      </trkpt>
      <trkpt lat="44.88799" lon="6.80997">
        <ele>2157.1</ele>
        <time>2021-12-22T14:25:40Z</time>
      </trkpt>
      <trkpt lat="44.888" lon="6.80998">
        <ele>2156.9</ele>
        <time>2021-12-22T14:25:41Z</time>
      </trkpt>
      <trkpt lat="44.888" lon="6.80999">
        <ele>2156.8</ele>
        <time>2021-12-22T14:25:42Z</time>
      </trkpt>
      <trkpt lat="44.88801" lon="6.81">
        <ele>2156.6</ele>
        <time>2021-12-22T14:25:43Z</time>
      </trkpt>
      <trkpt lat="44.88801" lon="6.81001">
        <ele>2156.3</ele>
        <time>2021-12-22T14:25:44Z</time>
      </trkpt>
      <trkpt lat="44.88807" lon="6.81008">
        <ele>2155.5</ele>
        <time>2021-12-22T14:25:47Z</time>
      </trkpt>
      <trkpt lat="44.88814" lon="6.81014">
        <ele>2154.6</ele>
        <time>2021-12-22T14:25:49Z</time>
      </trkpt>
      <trkpt lat="44.88818" lon="6.81021">
        <ele>2153.9</ele>
        <time>2021-12-22T14:25:51Z</time>
      </trkpt>
      <trkpt lat="44.88819" lon="6.81023">
        <ele>2153.6</ele>
        <time>2021-12-22T14:25:52Z</time>
      </trkpt>
      <trkpt lat="44.88819" lon="6.81024">
        <ele>2153.2</ele>
        <time>2021-12-22T14:25:53Z</time>
      </trkpt>
      <trkpt lat="44.88818" lon="6.81025">
        <ele>2152.8</ele>
        <time>2021-12-22T14:29:50Z</time>
      </trkpt>
      <trkpt lat="44.88818" lon="6.81028">
        <ele>2152.8</ele>
        <time>2021-12-22T14:29:51Z</time>
      </trkpt>
      <trkpt lat="44.88819" lon="6.81035">
        <ele>2151.9</ele>
        <time>2021-12-22T14:29:54Z</time>
      </trkpt>
      <trkpt lat="44.88821" lon="6.81039">
        <ele>2151.1</ele>
        <time>2021-12-22T14:29:56Z</time>
      </trkpt>
      <trkpt lat="44.88821" lon="6.81041">
        <ele>2150.9</ele>
        <time>2021-12-22T14:29:57Z</time>
      </trkpt>
      <trkpt lat="44.88821" lon="6.81042">
        <ele>2150.6</ele>
        <time>2021-12-22T14:30:11Z</time>
      </trkpt>
      <trkpt lat="44.8882" lon="6.81052">
        <ele>2150.1</ele>
        <time>2021-12-22T14:30:12Z</time>
      </trkpt>
      <trkpt lat="44.88821" lon="6.81059">
        <ele>2150</ele>
        <time>2021-12-22T14:30:16Z</time>
      </trkpt>
      <trkpt lat="44.88822" lon="6.81067">
        <ele>2149.8</ele>
        <time>2021-12-22T14:30:19Z</time>
      </trkpt>
      <trkpt lat="44.88824" lon="6.81073">
        <ele>2149.7</ele>
        <time>2021-12-22T14:30:21Z</time>
      </trkpt>
      <trkpt lat="44.88825" lon="6.81082">
        <ele>2149.7</ele>
        <time>2021-12-22T14:30:24Z</time>
      </trkpt>
      <trkpt lat="44.88825" lon="6.81083">
        <ele>2149.7</ele>
        <time>2021-12-22T14:30:25Z</time>
      </trkpt>
      <trkpt lat="44.88826" lon="6.81084">
        <ele>2149.7</ele>
        <time>2021-12-22T14:30:26Z</time>
      </trkpt>
      <trkpt lat="44.88826" lon="6.81085">
        <ele>2149.8</ele>
        <time>2021-12-22T14:30:41Z</time>
      </trkpt>
      <trkpt lat="44.88828" lon="6.81097">
        <ele>2149.6</ele>
        <time>2021-12-22T14:30:42Z</time>
      </trkpt>
      <trkpt lat="44.88828" lon="6.81105">
        <ele>2149</ele>
        <time>2021-12-22T14:30:46Z</time>
      </trkpt>
      <trkpt lat="44.88831" lon="6.81111">
        <ele>2148.2</ele>
        <time>2021-12-22T14:30:50Z</time>
      </trkpt>
      <trkpt lat="44.88835" lon="6.81115">
        <ele>2148.4</ele>
        <time>2021-12-22T14:30:54Z</time>
      </trkpt>
      <trkpt lat="44.88838" lon="6.8112">
        <ele>2148.2</ele>
        <time>2021-12-22T14:30:58Z</time>
      </trkpt>
      <trkpt lat="44.88841" lon="6.81127">
        <ele>2147.6</ele>
        <time>2021-12-22T14:31:02Z</time>
      </trkpt>
      <trkpt lat="44.88844" lon="6.81134">
        <ele>2146.8</ele>
        <time>2021-12-22T14:31:06Z</time>
      </trkpt>
      <trkpt lat="44.88847" lon="6.81141">
        <ele>2146.4</ele>
        <time>2021-12-22T14:31:09Z</time>
      </trkpt>
      <trkpt lat="44.88849" lon="6.81147">
        <ele>2145.5</ele>
        <time>2021-12-22T14:31:12Z</time>
      </trkpt>
      <trkpt lat="44.88851" lon="6.81153">
        <ele>2144.5</ele>
        <time>2021-12-22T14:31:15Z</time>
      </trkpt>
      <trkpt lat="44.88855" lon="6.81159">
        <ele>2144.2</ele>
        <time>2021-12-22T14:31:19Z</time>
      </trkpt>
      <trkpt lat="44.88858" lon="6.81164">
        <ele>2144</ele>
        <time>2021-12-22T14:31:23Z</time>
      </trkpt>
      <trkpt lat="44.88859" lon="6.81165">
        <ele>2144.1</ele>
        <time>2021-12-22T14:31:24Z</time>
      </trkpt>
      <trkpt lat="44.8886" lon="6.81166">
        <ele>2143.8</ele>
        <time>2021-12-22T14:31:25Z</time>
      </trkpt>
      <trkpt lat="44.8886" lon="6.81167">
        <ele>2143.6</ele>
        <time>2021-12-22T14:31:28Z</time>
      </trkpt>
      <trkpt lat="44.8886" lon="6.8117">
        <ele>2143.3</ele>
        <time>2021-12-22T14:31:29Z</time>
      </trkpt>
      <trkpt lat="44.8886" lon="6.81177">
        <ele>2142.5</ele>
        <time>2021-12-22T14:31:32Z</time>
      </trkpt>
      <trkpt lat="44.88859" lon="6.81184">
        <ele>2142.5</ele>
        <time>2021-12-22T14:31:35Z</time>
      </trkpt>
      <trkpt lat="44.88858" lon="6.8119">
        <ele>2142</ele>
        <time>2021-12-22T14:31:39Z</time>
      </trkpt>
      <trkpt lat="44.88856" lon="6.81198">
        <ele>2141</ele>
        <time>2021-12-22T14:31:41Z</time>
      </trkpt>
      <trkpt lat="44.88854" lon="6.81209">
        <ele>2140.3</ele>
        <time>2021-12-22T14:31:43Z</time>
      </trkpt>
      <trkpt lat="44.88854" lon="6.81212">
        <ele>2140</ele>
        <time>2021-12-22T14:31:44Z</time>
      </trkpt>
      <trkpt lat="44.88854" lon="6.81213">
        <ele>2139.8</ele>
        <time>2021-12-22T14:31:45Z</time>
      </trkpt>
      <trkpt lat="44.88854" lon="6.81213">
        <ele>2140.2</ele>
        <time>2021-12-22T14:31:52Z</time>
      </trkpt>
      <trkpt lat="44.88856" lon="6.81218">
        <ele>2140.1</ele>
        <time>2021-12-22T14:31:53Z</time>
      </trkpt>
      <trkpt lat="44.88856" lon="6.81219">
        <ele>2140</ele>
        <time>2021-12-22T14:31:54Z</time>
      </trkpt>
      <trkpt lat="44.88856" lon="6.8122">
        <ele>2140.3</ele>
        <time>2021-12-22T14:31:55Z</time>
      </trkpt>
      <trkpt lat="44.88855" lon="6.81221">
        <ele>2140.3</ele>
        <time>2021-12-22T14:31:56Z</time>
      </trkpt>
      <trkpt lat="44.88854" lon="6.81222">
        <ele>2140.1</ele>
        <time>2021-12-22T14:31:57Z</time>
      </trkpt>
      <trkpt lat="44.88854" lon="6.81223">
        <ele>2140.1</ele>
        <time>2021-12-22T14:31:58Z</time>
      </trkpt>
      <trkpt lat="44.88854" lon="6.81224">
        <ele>2140.1</ele>
        <time>2021-12-22T14:31:59Z</time>
      </trkpt>
      <trkpt lat="44.88853" lon="6.81226">
        <ele>2139.9</ele>
        <time>2021-12-22T14:32:10Z</time>
      </trkpt>
      <trkpt lat="44.88848" lon="6.81229">
        <ele>2140.3</ele>
        <time>2021-12-22T14:32:11Z</time>
      </trkpt>
      <trkpt lat="44.88843" lon="6.81229">
        <ele>2140.2</ele>
        <time>2021-12-22T14:32:14Z</time>
      </trkpt>
      <trkpt lat="44.88837" lon="6.81228">
        <ele>2139.5</ele>
        <time>2021-12-22T14:32:17Z</time>
      </trkpt>
      <trkpt lat="44.88832" lon="6.8123">
        <ele>2138</ele>
        <time>2021-12-22T14:32:20Z</time>
      </trkpt>
      <trkpt lat="44.88833" lon="6.81239">
        <ele>2136.1</ele>
        <time>2021-12-22T14:32:23Z</time>
      </trkpt>
      <trkpt lat="44.88837" lon="6.81246">
        <ele>2134.3</ele>
        <time>2021-12-22T14:32:25Z</time>
      </trkpt>
      <trkpt lat="44.88842" lon="6.81255">
        <ele>2131.9</ele>
        <time>2021-12-22T14:32:27Z</time>
      </trkpt>
      <trkpt lat="44.88846" lon="6.81262">
        <ele>2129.8</ele>
        <time>2021-12-22T14:32:29Z</time>
      </trkpt>
      <trkpt lat="44.8885" lon="6.81267">
        <ele>2128.7</ele>
        <time>2021-12-22T14:32:31Z</time>
      </trkpt>
      <trkpt lat="44.88852" lon="6.81269">
        <ele>2127.6</ele>
        <time>2021-12-22T14:32:32Z</time>
      </trkpt>
      <trkpt lat="44.88853" lon="6.8127">
        <ele>2126.8</ele>
        <time>2021-12-22T14:32:33Z</time>
      </trkpt>
      <trkpt lat="44.88854" lon="6.81271">
        <ele>2126.1</ele>
        <time>2021-12-22T14:32:41Z</time>
      </trkpt>
      <trkpt lat="44.88858" lon="6.81276">
        <ele>2124</ele>
        <time>2021-12-22T14:32:42Z</time>
      </trkpt>
      <trkpt lat="44.88863" lon="6.8128">
        <ele>2122.6</ele>
        <time>2021-12-22T14:32:45Z</time>
      </trkpt>
      <trkpt lat="44.88869" lon="6.81282">
        <ele>2121.2</ele>
        <time>2021-12-22T14:32:47Z</time>
      </trkpt>
      <trkpt lat="44.88876" lon="6.81283">
        <ele>2120.1</ele>
        <time>2021-12-22T14:32:49Z</time>
      </trkpt>
      <trkpt lat="44.88882" lon="6.81287">
        <ele>2119.5</ele>
        <time>2021-12-22T14:32:51Z</time>
      </trkpt>
      <trkpt lat="44.88887" lon="6.81291">
        <ele>2118.7</ele>
        <time>2021-12-22T14:32:53Z</time>
      </trkpt>
      <trkpt lat="44.88891" lon="6.81294">
        <ele>2118.6</ele>
        <time>2021-12-22T14:32:55Z</time>
      </trkpt>
      <trkpt lat="44.88897" lon="6.81297">
        <ele>2117.4</ele>
        <time>2021-12-22T14:32:58Z</time>
      </trkpt>
      <trkpt lat="44.88901" lon="6.81302">
        <ele>2116.6</ele>
        <time>2021-12-22T14:33:00Z</time>
      </trkpt>
      <trkpt lat="44.88906" lon="6.81308">
        <ele>2115.5</ele>
        <time>2021-12-22T14:33:02Z</time>
      </trkpt>
      <trkpt lat="44.88909" lon="6.81315">
        <ele>2114.3</ele>
        <time>2021-12-22T14:33:04Z</time>
      </trkpt>
      <trkpt lat="44.88911" lon="6.81323">
        <ele>2113.1</ele>
        <time>2021-12-22T14:33:06Z</time>
      </trkpt>
      <trkpt lat="44.88911" lon="6.8133">
        <ele>2111.9</ele>
        <time>2021-12-22T14:33:09Z</time>
      </trkpt>
      <trkpt lat="44.88911" lon="6.81331">
        <ele>2111.5</ele>
        <time>2021-12-22T14:33:10Z</time>
      </trkpt>
      <trkpt lat="44.88911" lon="6.81332">
        <ele>2111</ele>
        <time>2021-12-22T14:33:52Z</time>
      </trkpt>
      <trkpt lat="44.88912" lon="6.81319">
        <ele>2112.7</ele>
        <time>2021-12-22T14:33:53Z</time>
      </trkpt>
      <trkpt lat="44.88912" lon="6.81318">
        <ele>2112.8</ele>
        <time>2021-12-22T14:33:54Z</time>
      </trkpt>
      <trkpt lat="44.88911" lon="6.81317">
        <ele>2113</ele>
        <time>2021-12-22T14:34:18Z</time>
      </trkpt>
      <trkpt lat="44.8891" lon="6.81321">
        <ele>2113</ele>
        <time>2021-12-22T14:34:19Z</time>
      </trkpt>
      <trkpt lat="44.8891" lon="6.81323">
        <ele>2112.9</ele>
        <time>2021-12-22T14:34:20Z</time>
      </trkpt>
      <trkpt lat="44.88911" lon="6.81324">
        <ele>2112.9</ele>
        <time>2021-12-22T14:34:21Z</time>
      </trkpt>
      <trkpt lat="44.88911" lon="6.81326">
        <ele>2112.9</ele>
        <time>2021-12-22T14:34:26Z</time>
      </trkpt>
      <trkpt lat="44.88911" lon="6.81332">
        <ele>2112.8</ele>
        <time>2021-12-22T14:34:27Z</time>
      </trkpt>
      <trkpt lat="44.88909" lon="6.81338">
        <ele>2112.8</ele>
        <time>2021-12-22T14:34:29Z</time>
      </trkpt>
      <trkpt lat="44.88905" lon="6.81345">
        <ele>2113</ele>
        <time>2021-12-22T14:34:32Z</time>
      </trkpt>
      <trkpt lat="44.88905" lon="6.81347">
        <ele>2113.3</ele>
        <time>2021-12-22T14:34:33Z</time>
      </trkpt>
      <trkpt lat="44.88905" lon="6.81348">
        <ele>2113.4</ele>
        <time>2021-12-22T14:34:34Z</time>
      </trkpt>
      <trkpt lat="44.88905" lon="6.81351">
        <ele>2113.5</ele>
        <time>2021-12-22T14:34:36Z</time>
      </trkpt>
      <trkpt lat="44.88905" lon="6.81354">
        <ele>2113.3</ele>
        <time>2021-12-22T14:34:37Z</time>
      </trkpt>
      <trkpt lat="44.88905" lon="6.81361">
        <ele>2113.2</ele>
        <time>2021-12-22T14:34:39Z</time>
      </trkpt>
      <trkpt lat="44.88905" lon="6.81363">
        <ele>2112.9</ele>
        <time>2021-12-22T14:34:40Z</time>
      </trkpt>
      <trkpt lat="44.88906" lon="6.81364">
        <ele>2112.9</ele>
        <time>2021-12-22T14:35:20Z</time>
      </trkpt>
      <trkpt lat="44.8891" lon="6.81367">
        <ele>2112.8</ele>
        <time>2021-12-22T14:35:21Z</time>
      </trkpt>
      <trkpt lat="44.88915" lon="6.8137">
        <ele>2112.5</ele>
        <time>2021-12-22T14:35:24Z</time>
      </trkpt>
      <trkpt lat="44.8892" lon="6.81373">
        <ele>2112.1</ele>
        <time>2021-12-22T14:35:27Z</time>
      </trkpt>
      <trkpt lat="44.88926" lon="6.81375">
        <ele>2111.8</ele>
        <time>2021-12-22T14:35:30Z</time>
      </trkpt>
      <trkpt lat="44.88933" lon="6.81376">
        <ele>2111.8</ele>
        <time>2021-12-22T14:35:33Z</time>
      </trkpt>
      <trkpt lat="44.88937" lon="6.81377">
        <ele>2111.9</ele>
        <time>2021-12-22T14:35:36Z</time>
      </trkpt>
      <trkpt lat="44.88942" lon="6.81381">
        <ele>2111.6</ele>
        <time>2021-12-22T14:35:39Z</time>
      </trkpt>
      <trkpt lat="44.88943" lon="6.81381">
        <ele>2111.4</ele>
        <time>2021-12-22T14:35:40Z</time>
      </trkpt>
      <trkpt lat="44.88944" lon="6.81381">
        <ele>2111.4</ele>
        <time>2021-12-22T14:35:41Z</time>
      </trkpt>
      <trkpt lat="44.88945" lon="6.81382">
        <ele>2111.3</ele>
        <time>2021-12-22T14:35:42Z</time>
      </trkpt>
      <trkpt lat="44.88946" lon="6.81382">
        <ele>2111.2</ele>
        <time>2021-12-22T14:35:43Z</time>
      </trkpt>
      <trkpt lat="44.8895" lon="6.81383">
        <ele>2110.7</ele>
        <time>2021-12-22T14:35:47Z</time>
      </trkpt>
      <trkpt lat="44.88955" lon="6.81386">
        <ele>2110.3</ele>
        <time>2021-12-22T14:35:50Z</time>
      </trkpt>
      <trkpt lat="44.88959" lon="6.8139">
        <ele>2110.2</ele>
        <time>2021-12-22T14:35:52Z</time>
      </trkpt>
      <trkpt lat="44.88963" lon="6.81394">
        <ele>2110.1</ele>
        <time>2021-12-22T14:35:54Z</time>
      </trkpt>
      <trkpt lat="44.88966" lon="6.814">
        <ele>2110.4</ele>
        <time>2021-12-22T14:35:56Z</time>
      </trkpt>
      <trkpt lat="44.88969" lon="6.81406">
        <ele>2109.8</ele>
        <time>2021-12-22T14:35:58Z</time>
      </trkpt>
      <trkpt lat="44.88972" lon="6.81411">
        <ele>2108.6</ele>
        <time>2021-12-22T14:36:00Z</time>
      </trkpt>
      <trkpt lat="44.88975" lon="6.81416">
        <ele>2107.5</ele>
        <time>2021-12-22T14:36:03Z</time>
      </trkpt>
      <trkpt lat="44.88978" lon="6.81422">
        <ele>2106.6</ele>
        <time>2021-12-22T14:36:06Z</time>
      </trkpt>
      <trkpt lat="44.88982" lon="6.81429">
        <ele>2106</ele>
        <time>2021-12-22T14:36:09Z</time>
      </trkpt>
      <trkpt lat="44.88986" lon="6.81437">
        <ele>2105.3</ele>
        <time>2021-12-22T14:36:12Z</time>
      </trkpt>
      <trkpt lat="44.88988" lon="6.81442">
        <ele>2105.6</ele>
        <time>2021-12-22T14:36:14Z</time>
      </trkpt>
      <trkpt lat="44.88991" lon="6.81449">
        <ele>2106.3</ele>
        <time>2021-12-22T14:36:16Z</time>
      </trkpt>
      <trkpt lat="44.88995" lon="6.81455">
        <ele>2106.4</ele>
        <time>2021-12-22T14:36:18Z</time>
      </trkpt>
      <trkpt lat="44.88998" lon="6.8146">
        <ele>2106</ele>
        <time>2021-12-22T14:36:20Z</time>
      </trkpt>
      <trkpt lat="44.89002" lon="6.81466">
        <ele>2106</ele>
        <time>2021-12-22T14:36:22Z</time>
      </trkpt>
      <trkpt lat="44.89005" lon="6.81472">
        <ele>2105.9</ele>
        <time>2021-12-22T14:36:24Z</time>
      </trkpt>
      <trkpt lat="44.89008" lon="6.81479">
        <ele>2105.7</ele>
        <time>2021-12-22T14:36:26Z</time>
      </trkpt>
      <trkpt lat="44.89011" lon="6.81484">
        <ele>2105.2</ele>
        <time>2021-12-22T14:36:28Z</time>
      </trkpt>
      <trkpt lat="44.89014" lon="6.81489">
        <ele>2104.8</ele>
        <time>2021-12-22T14:36:30Z</time>
      </trkpt>
      <trkpt lat="44.89017" lon="6.81494">
        <ele>2104.1</ele>
        <time>2021-12-22T14:36:32Z</time>
      </trkpt>
      <trkpt lat="44.89021" lon="6.81502">
        <ele>2102.6</ele>
        <time>2021-12-22T14:36:35Z</time>
      </trkpt>
      <trkpt lat="44.89024" lon="6.81508">
        <ele>2102.4</ele>
        <time>2021-12-22T14:36:37Z</time>
      </trkpt>
      <trkpt lat="44.89027" lon="6.81515">
        <ele>2101.7</ele>
        <time>2021-12-22T14:36:40Z</time>
      </trkpt>
      <trkpt lat="44.8903" lon="6.8152">
        <ele>2101.5</ele>
        <time>2021-12-22T14:36:43Z</time>
      </trkpt>
      <trkpt lat="44.89033" lon="6.81525">
        <ele>2101.5</ele>
        <time>2021-12-22T14:36:46Z</time>
      </trkpt>
      <trkpt lat="44.89037" lon="6.81529">
        <ele>2101</ele>
        <time>2021-12-22T14:36:49Z</time>
      </trkpt>
      <trkpt lat="44.89042" lon="6.81533">
        <ele>2101.4</ele>
        <time>2021-12-22T14:36:52Z</time>
      </trkpt>
      <trkpt lat="44.89048" lon="6.81537">
        <ele>2101.7</ele>
        <time>2021-12-22T14:36:55Z</time>
      </trkpt>
      <trkpt lat="44.89052" lon="6.81542">
        <ele>2101.6</ele>
        <time>2021-12-22T14:36:58Z</time>
      </trkpt>
      <trkpt lat="44.89056" lon="6.81546">
        <ele>2102</ele>
        <time>2021-12-22T14:37:02Z</time>
      </trkpt>
      <trkpt lat="44.89061" lon="6.81551">
        <ele>2102.3</ele>
        <time>2021-12-22T14:37:07Z</time>
      </trkpt>
      <trkpt lat="44.89065" lon="6.81555">
        <ele>2102.4</ele>
        <time>2021-12-22T14:37:10Z</time>
      </trkpt>
      <trkpt lat="44.89069" lon="6.8156">
        <ele>2102.4</ele>
        <time>2021-12-22T14:37:13Z</time>
      </trkpt>
      <trkpt lat="44.89073" lon="6.81564">
        <ele>2102.4</ele>
        <time>2021-12-22T14:37:16Z</time>
      </trkpt>
      <trkpt lat="44.89078" lon="6.81568">
        <ele>2102.3</ele>
        <time>2021-12-22T14:37:19Z</time>
      </trkpt>
      <trkpt lat="44.89082" lon="6.81571">
        <ele>2102.3</ele>
        <time>2021-12-22T14:37:22Z</time>
      </trkpt>
      <trkpt lat="44.89086" lon="6.81574">
        <ele>2102.9</ele>
        <time>2021-12-22T14:37:25Z</time>
      </trkpt>
      <trkpt lat="44.8909" lon="6.81578">
        <ele>2103.4</ele>
        <time>2021-12-22T14:37:29Z</time>
      </trkpt>
      <trkpt lat="44.89095" lon="6.81582">
        <ele>2103.2</ele>
        <time>2021-12-22T14:37:33Z</time>
      </trkpt>
      <trkpt lat="44.89101" lon="6.81585">
        <ele>2102.3</ele>
        <time>2021-12-22T14:37:37Z</time>
      </trkpt>
      <trkpt lat="44.89102" lon="6.81586">
        <ele>2102.1</ele>
        <time>2021-12-22T14:37:38Z</time>
      </trkpt>
      <trkpt lat="44.89102" lon="6.81587">
        <ele>2101.8</ele>
        <time>2021-12-22T14:37:39Z</time>
      </trkpt>
      <trkpt lat="44.89102" lon="6.81587">
        <ele>2101.8</ele>
        <time>2021-12-22T14:38:26Z</time>
      </trkpt>
      <trkpt lat="44.89105" lon="6.81589">
        <ele>2101.8</ele>
        <time>2021-12-22T14:38:27Z</time>
      </trkpt>
      <trkpt lat="44.89109" lon="6.81592">
        <ele>2101.5</ele>
        <time>2021-12-22T14:38:29Z</time>
      </trkpt>
      <trkpt lat="44.89114" lon="6.81595">
        <ele>2100.8</ele>
        <time>2021-12-22T14:38:31Z</time>
      </trkpt>
      <trkpt lat="44.89121" lon="6.816">
        <ele>2099.9</ele>
        <time>2021-12-22T14:38:33Z</time>
      </trkpt>
      <trkpt lat="44.89125" lon="6.81604">
        <ele>2099.3</ele>
        <time>2021-12-22T14:38:34Z</time>
      </trkpt>
      <trkpt lat="44.89129" lon="6.81608">
        <ele>2098.8</ele>
        <time>2021-12-22T14:38:35Z</time>
      </trkpt>
      <trkpt lat="44.89133" lon="6.81612">
        <ele>2098.2</ele>
        <time>2021-12-22T14:38:36Z</time>
      </trkpt>
      <trkpt lat="44.89137" lon="6.81616">
        <ele>2097.5</ele>
        <time>2021-12-22T14:38:37Z</time>
      </trkpt>
      <trkpt lat="44.89142" lon="6.81625">
        <ele>2096.3</ele>
        <time>2021-12-22T14:38:39Z</time>
      </trkpt>
      <trkpt lat="44.89148" lon="6.81631">
        <ele>2095.9</ele>
        <time>2021-12-22T14:38:41Z</time>
      </trkpt>
      <trkpt lat="44.89153" lon="6.81635">
        <ele>2096</ele>
        <time>2021-12-22T14:38:43Z</time>
      </trkpt>
      <trkpt lat="44.89157" lon="6.81638">
        <ele>2096.3</ele>
        <time>2021-12-22T14:38:45Z</time>
      </trkpt>
      <trkpt lat="44.89162" lon="6.81639">
        <ele>2096</ele>
        <time>2021-12-22T14:38:47Z</time>
      </trkpt>
      <trkpt lat="44.89167" lon="6.81641">
        <ele>2095.6</ele>
        <time>2021-12-22T14:38:49Z</time>
      </trkpt>
      <trkpt lat="44.89172" lon="6.81642">
        <ele>2095.3</ele>
        <time>2021-12-22T14:38:51Z</time>
      </trkpt>
      <trkpt lat="44.89177" lon="6.81642">
        <ele>2094.8</ele>
        <time>2021-12-22T14:38:53Z</time>
      </trkpt>
      <trkpt lat="44.89182" lon="6.81641">
        <ele>2094.5</ele>
        <time>2021-12-22T14:38:55Z</time>
      </trkpt>
      <trkpt lat="44.89186" lon="6.81639">
        <ele>2093.9</ele>
        <time>2021-12-22T14:38:57Z</time>
      </trkpt>
      <trkpt lat="44.89192" lon="6.81637">
        <ele>2092.8</ele>
        <time>2021-12-22T14:38:59Z</time>
      </trkpt>
      <trkpt lat="44.89197" lon="6.81634">
        <ele>2091.8</ele>
        <time>2021-12-22T14:39:01Z</time>
      </trkpt>
      <trkpt lat="44.89202" lon="6.81632">
        <ele>2091.4</ele>
        <time>2021-12-22T14:39:03Z</time>
      </trkpt>
      <trkpt lat="44.89207" lon="6.81629">
        <ele>2090.9</ele>
        <time>2021-12-22T14:39:06Z</time>
      </trkpt>
      <trkpt lat="44.89212" lon="6.81625">
        <ele>2089.4</ele>
        <time>2021-12-22T14:39:09Z</time>
      </trkpt>
      <trkpt lat="44.89219" lon="6.81624">
        <ele>2087.7</ele>
        <time>2021-12-22T14:39:12Z</time>
      </trkpt>
      <trkpt lat="44.89226" lon="6.81623">
        <ele>2085.5</ele>
        <time>2021-12-22T14:39:14Z</time>
      </trkpt>
      <trkpt lat="44.89231" lon="6.8162">
        <ele>2084.7</ele>
        <time>2021-12-22T14:39:15Z</time>
      </trkpt>
      <trkpt lat="44.89235" lon="6.81618">
        <ele>2084.4</ele>
        <time>2021-12-22T14:39:16Z</time>
      </trkpt>
      <trkpt lat="44.89243" lon="6.81619">
        <ele>2082.6</ele>
        <time>2021-12-22T14:39:18Z</time>
      </trkpt>
      <trkpt lat="44.89248" lon="6.81624">
        <ele>2081.4</ele>
        <time>2021-12-22T14:39:20Z</time>
      </trkpt>
      <trkpt lat="44.89254" lon="6.81626">
        <ele>2081.2</ele>
        <time>2021-12-22T14:39:22Z</time>
      </trkpt>
      <trkpt lat="44.89259" lon="6.81624">
        <ele>2080.3</ele>
        <time>2021-12-22T14:39:24Z</time>
      </trkpt>
      <trkpt lat="44.89265" lon="6.81621">
        <ele>2079</ele>
        <time>2021-12-22T14:39:26Z</time>
      </trkpt>
      <trkpt lat="44.89272" lon="6.8162">
        <ele>2078.3</ele>
        <time>2021-12-22T14:39:28Z</time>
      </trkpt>
      <trkpt lat="44.89276" lon="6.81624">
        <ele>2076.5</ele>
        <time>2021-12-22T14:39:30Z</time>
      </trkpt>
      <trkpt lat="44.89284" lon="6.81626">
        <ele>2073.7</ele>
        <time>2021-12-22T14:39:32Z</time>
      </trkpt>
      <trkpt lat="44.89288" lon="6.81628">
        <ele>2072.6</ele>
        <time>2021-12-22T14:39:33Z</time>
      </trkpt>
      <trkpt lat="44.89293" lon="6.81631">
        <ele>2071.5</ele>
        <time>2021-12-22T14:39:34Z</time>
      </trkpt>
      <trkpt lat="44.89297" lon="6.81635">
        <ele>2070</ele>
        <time>2021-12-22T14:39:35Z</time>
      </trkpt>
      <trkpt lat="44.89302" lon="6.81639">
        <ele>2069.4</ele>
        <time>2021-12-22T14:39:36Z</time>
      </trkpt>
      <trkpt lat="44.89307" lon="6.81643">
        <ele>2069</ele>
        <time>2021-12-22T14:39:37Z</time>
      </trkpt>
      <trkpt lat="44.89311" lon="6.81646">
        <ele>2068.3</ele>
        <time>2021-12-22T14:39:38Z</time>
      </trkpt>
      <trkpt lat="44.89315" lon="6.8165">
        <ele>2067.6</ele>
        <time>2021-12-22T14:39:39Z</time>
      </trkpt>
      <trkpt lat="44.89321" lon="6.81656">
        <ele>2066.3</ele>
        <time>2021-12-22T14:39:41Z</time>
      </trkpt>
      <trkpt lat="44.89322" lon="6.81658">
        <ele>2065.7</ele>
        <time>2021-12-22T14:39:42Z</time>
      </trkpt>
      <trkpt lat="44.89323" lon="6.8166">
        <ele>2065</ele>
        <time>2021-12-22T14:39:43Z</time>
      </trkpt>
      <trkpt lat="44.89324" lon="6.81661">
        <ele>2065.2</ele>
        <time>2021-12-22T14:40:28Z</time>
      </trkpt>
      <trkpt lat="44.89325" lon="6.81667">
        <ele>2066.7</ele>
        <time>2021-12-22T14:40:29Z</time>
      </trkpt>
      <trkpt lat="44.89327" lon="6.81674">
        <ele>2066.7</ele>
        <time>2021-12-22T14:40:32Z</time>
      </trkpt>
      <trkpt lat="44.89329" lon="6.81682">
        <ele>2066.5</ele>
        <time>2021-12-22T14:40:34Z</time>
      </trkpt>
      <trkpt lat="44.89331" lon="6.81693">
        <ele>2065.7</ele>
        <time>2021-12-22T14:40:36Z</time>
      </trkpt>
      <trkpt lat="44.89336" lon="6.817">
        <ele>2065.5</ele>
        <time>2021-12-22T14:40:38Z</time>
      </trkpt>
      <trkpt lat="44.89341" lon="6.81701">
        <ele>2064.4</ele>
        <time>2021-12-22T14:40:41Z</time>
      </trkpt>
      <trkpt lat="44.89347" lon="6.81696">
        <ele>2063.3</ele>
        <time>2021-12-22T14:40:44Z</time>
      </trkpt>
      <trkpt lat="44.89354" lon="6.81691">
        <ele>2062.4</ele>
        <time>2021-12-22T14:40:46Z</time>
      </trkpt>
      <trkpt lat="44.89359" lon="6.81691">
        <ele>2061.3</ele>
        <time>2021-12-22T14:40:49Z</time>
      </trkpt>
      <trkpt lat="44.8936" lon="6.81692">
        <ele>2061.4</ele>
        <time>2021-12-22T14:40:50Z</time>
      </trkpt>
      <trkpt lat="44.89361" lon="6.81692">
        <ele>2061.6</ele>
        <time>2021-12-22T14:40:51Z</time>
      </trkpt>
      <trkpt lat="44.89361" lon="6.81692">
        <ele>2061.4</ele>
        <time>2021-12-22T14:41:00Z</time>
      </trkpt>
      <trkpt lat="44.89364" lon="6.81697">
        <ele>2060.6</ele>
        <time>2021-12-22T14:41:01Z</time>
      </trkpt>
      <trkpt lat="44.89367" lon="6.81704">
        <ele>2059.7</ele>
        <time>2021-12-22T14:41:02Z</time>
      </trkpt>
      <trkpt lat="44.89368" lon="6.81711">
        <ele>2058.8</ele>
        <time>2021-12-22T14:41:03Z</time>
      </trkpt>
      <trkpt lat="44.8937" lon="6.81718">
        <ele>2058.1</ele>
        <time>2021-12-22T14:41:04Z</time>
      </trkpt>
      <trkpt lat="44.89372" lon="6.81726">
        <ele>2057.2</ele>
        <time>2021-12-22T14:41:06Z</time>
      </trkpt>
      <trkpt lat="44.89372" lon="6.81727">
        <ele>2056.9</ele>
        <time>2021-12-22T14:41:07Z</time>
      </trkpt>
      <trkpt lat="44.89372" lon="6.81727">
        <ele>2057.4</ele>
        <time>2021-12-22T14:41:13Z</time>
      </trkpt>
      <trkpt lat="44.89374" lon="6.81722">
        <ele>2056.6</ele>
        <time>2021-12-22T14:41:14Z</time>
      </trkpt>
      <trkpt lat="44.89376" lon="6.81715">
        <ele>2055</ele>
        <time>2021-12-22T14:41:16Z</time>
      </trkpt>
      <trkpt lat="44.89381" lon="6.81713">
        <ele>2053.3</ele>
        <time>2021-12-22T14:41:19Z</time>
      </trkpt>
      <trkpt lat="44.89384" lon="6.81718">
        <ele>2052.4</ele>
        <time>2021-12-22T14:41:21Z</time>
      </trkpt>
      <trkpt lat="44.89388" lon="6.81723">
        <ele>2051.6</ele>
        <time>2021-12-22T14:41:23Z</time>
      </trkpt>
      <trkpt lat="44.89391" lon="6.81729">
        <ele>2049.5</ele>
        <time>2021-12-22T14:41:25Z</time>
      </trkpt>
      <trkpt lat="44.89393" lon="6.8174">
        <ele>2048.6</ele>
        <time>2021-12-22T14:41:27Z</time>
      </trkpt>
      <trkpt lat="44.89393" lon="6.81748">
        <ele>2047.6</ele>
        <time>2021-12-22T14:41:29Z</time>
      </trkpt>
      <trkpt lat="44.89393" lon="6.81749">
        <ele>2047.5</ele>
        <time>2021-12-22T14:41:30Z</time>
      </trkpt>
      <trkpt lat="44.89392" lon="6.8175">
        <ele>2046.5</ele>
        <time>2021-12-22T14:41:43Z</time>
      </trkpt>
      <trkpt lat="44.89393" lon="6.81755">
        <ele>2045.7</ele>
        <time>2021-12-22T14:41:44Z</time>
      </trkpt>
      <trkpt lat="44.89394" lon="6.81763">
        <ele>2045.3</ele>
        <time>2021-12-22T14:41:46Z</time>
      </trkpt>
      <trkpt lat="44.89395" lon="6.81771">
        <ele>2044.8</ele>
        <time>2021-12-22T14:41:48Z</time>
      </trkpt>
      <trkpt lat="44.89396" lon="6.81781">
        <ele>2044.2</ele>
        <time>2021-12-22T14:41:50Z</time>
      </trkpt>
      <trkpt lat="44.89399" lon="6.81791">
        <ele>2044.2</ele>
        <time>2021-12-22T14:41:52Z</time>
      </trkpt>
      <trkpt lat="44.89401" lon="6.818">
        <ele>2043.1</ele>
        <time>2021-12-22T14:41:54Z</time>
      </trkpt>
      <trkpt lat="44.89404" lon="6.81808">
        <ele>2041.7</ele>
        <time>2021-12-22T14:41:56Z</time>
      </trkpt>
      <trkpt lat="44.89408" lon="6.81816">
        <ele>2040.5</ele>
        <time>2021-12-22T14:41:58Z</time>
      </trkpt>
      <trkpt lat="44.89412" lon="6.81823">
        <ele>2041.3</ele>
        <time>2021-12-22T14:42:00Z</time>
      </trkpt>
      <trkpt lat="44.89416" lon="6.8183">
        <ele>2039.7</ele>
        <time>2021-12-22T14:42:02Z</time>
      </trkpt>
      <trkpt lat="44.89419" lon="6.81837">
        <ele>2039.1</ele>
        <time>2021-12-22T14:42:04Z</time>
      </trkpt>
      <trkpt lat="44.89422" lon="6.81846">
        <ele>2038</ele>
        <time>2021-12-22T14:42:06Z</time>
      </trkpt>
      <trkpt lat="44.89425" lon="6.81854">
        <ele>2035.9</ele>
        <time>2021-12-22T14:42:08Z</time>
      </trkpt>
      <trkpt lat="44.89429" lon="6.81863">
        <ele>2033.4</ele>
        <time>2021-12-22T14:42:10Z</time>
      </trkpt>
      <trkpt lat="44.89431" lon="6.81871">
        <ele>2031.6</ele>
        <time>2021-12-22T14:42:12Z</time>
      </trkpt>
      <trkpt lat="44.89434" lon="6.8188">
        <ele>2030.8</ele>
        <time>2021-12-22T14:42:14Z</time>
      </trkpt>
      <trkpt lat="44.89438" lon="6.81887">
        <ele>2028.7</ele>
        <time>2021-12-22T14:42:16Z</time>
      </trkpt>
      <trkpt lat="44.89442" lon="6.81895">
        <ele>2027.9</ele>
        <time>2021-12-22T14:42:18Z</time>
      </trkpt>
      <trkpt lat="44.89447" lon="6.81902">
        <ele>2026.7</ele>
        <time>2021-12-22T14:42:20Z</time>
      </trkpt>
      <trkpt lat="44.8945" lon="6.81907">
        <ele>2025.9</ele>
        <time>2021-12-22T14:42:21Z</time>
      </trkpt>
      <trkpt lat="44.89453" lon="6.81912">
        <ele>2025.2</ele>
        <time>2021-12-22T14:42:22Z</time>
      </trkpt>
      <trkpt lat="44.89458" lon="6.81922">
        <ele>2022.6</ele>
        <time>2021-12-22T14:42:24Z</time>
      </trkpt>
      <trkpt lat="44.89464" lon="6.81929">
        <ele>2019.7</ele>
        <time>2021-12-22T14:42:26Z</time>
      </trkpt>
      <trkpt lat="44.89469" lon="6.81938">
        <ele>2018</ele>
        <time>2021-12-22T14:42:28Z</time>
      </trkpt>
      <trkpt lat="44.89475" lon="6.81943">
        <ele>2016.1</ele>
        <time>2021-12-22T14:42:30Z</time>
      </trkpt>
      <trkpt lat="44.89482" lon="6.8195">
        <ele>2015.3</ele>
        <time>2021-12-22T14:42:32Z</time>
      </trkpt>
      <trkpt lat="44.89487" lon="6.81959">
        <ele>2014.3</ele>
        <time>2021-12-22T14:42:34Z</time>
      </trkpt>
      <trkpt lat="44.8949" lon="6.81964">
        <ele>2013.6</ele>
        <time>2021-12-22T14:42:35Z</time>
      </trkpt>
      <trkpt lat="44.89494" lon="6.81969">
        <ele>2013</ele>
        <time>2021-12-22T14:42:36Z</time>
      </trkpt>
      <trkpt lat="44.895" lon="6.81977">
        <ele>2012.3</ele>
        <time>2021-12-22T14:42:38Z</time>
      </trkpt>
      <trkpt lat="44.89505" lon="6.81986">
        <ele>2011</ele>
        <time>2021-12-22T14:42:40Z</time>
      </trkpt>
      <trkpt lat="44.89511" lon="6.81996">
        <ele>2009.6</ele>
        <time>2021-12-22T14:42:42Z</time>
      </trkpt>
      <trkpt lat="44.89514" lon="6.82001">
        <ele>2009.1</ele>
        <time>2021-12-22T14:42:43Z</time>
      </trkpt>
      <trkpt lat="44.8952" lon="6.8201">
        <ele>2007.2</ele>
        <time>2021-12-22T14:42:45Z</time>
      </trkpt>
      <trkpt lat="44.89526" lon="6.82018">
        <ele>2005</ele>
        <time>2021-12-22T14:42:47Z</time>
      </trkpt>
      <trkpt lat="44.89532" lon="6.82026">
        <ele>2004.1</ele>
        <time>2021-12-22T14:42:49Z</time>
      </trkpt>
      <trkpt lat="44.89538" lon="6.82031">
        <ele>2003.8</ele>
        <time>2021-12-22T14:42:51Z</time>
      </trkpt>
      <trkpt lat="44.89543" lon="6.82036">
        <ele>2003.5</ele>
        <time>2021-12-22T14:42:53Z</time>
      </trkpt>
      <trkpt lat="44.89546" lon="6.8204">
        <ele>2003.2</ele>
        <time>2021-12-22T14:42:55Z</time>
      </trkpt>
      <trkpt lat="44.89546" lon="6.82042">
        <ele>2003.6</ele>
        <time>2021-12-22T14:42:56Z</time>
      </trkpt>
      <trkpt lat="44.89546" lon="6.82042">
        <ele>2003.7</ele>
        <time>2021-12-22T14:43:06Z</time>
      </trkpt>
      <trkpt lat="44.89549" lon="6.82046">
        <ele>2003.9</ele>
        <time>2021-12-22T14:43:07Z</time>
      </trkpt>
      <trkpt lat="44.89554" lon="6.82052">
        <ele>2003.8</ele>
        <time>2021-12-22T14:43:10Z</time>
      </trkpt>
      <trkpt lat="44.89558" lon="6.82058">
        <ele>2003.3</ele>
        <time>2021-12-22T14:43:12Z</time>
      </trkpt>
      <trkpt lat="44.89563" lon="6.82064">
        <ele>2002.6</ele>
        <time>2021-12-22T14:43:14Z</time>
      </trkpt>
      <trkpt lat="44.89567" lon="6.82071">
        <ele>2001.4</ele>
        <time>2021-12-22T14:43:16Z</time>
      </trkpt>
      <trkpt lat="44.89572" lon="6.8208">
        <ele>2000.5</ele>
        <time>2021-12-22T14:43:18Z</time>
      </trkpt>
      <trkpt lat="44.89575" lon="6.82086">
        <ele>1999.6</ele>
        <time>2021-12-22T14:43:19Z</time>
      </trkpt>
      <trkpt lat="44.89578" lon="6.82092">
        <ele>1999</ele>
        <time>2021-12-22T14:43:20Z</time>
      </trkpt>
      <trkpt lat="44.89583" lon="6.82099">
        <ele>1998.2</ele>
        <time>2021-12-22T14:43:21Z</time>
      </trkpt>
      <trkpt lat="44.89587" lon="6.82106">
        <ele>1997</ele>
        <time>2021-12-22T14:43:22Z</time>
      </trkpt>
      <trkpt lat="44.89591" lon="6.82115">
        <ele>1995.6</ele>
        <time>2021-12-22T14:43:23Z</time>
      </trkpt>
      <trkpt lat="44.89594" lon="6.82124">
        <ele>1994.3</ele>
        <time>2021-12-22T14:43:24Z</time>
      </trkpt>
      <trkpt lat="44.89598" lon="6.82133">
        <ele>1993.1</ele>
        <time>2021-12-22T14:43:25Z</time>
      </trkpt>
      <trkpt lat="44.89602" lon="6.8214">
        <ele>1991.9</ele>
        <time>2021-12-22T14:43:26Z</time>
      </trkpt>
      <trkpt lat="44.89607" lon="6.82147">
        <ele>1990.8</ele>
        <time>2021-12-22T14:43:27Z</time>
      </trkpt>
      <trkpt lat="44.89611" lon="6.82152">
        <ele>1990</ele>
        <time>2021-12-22T14:43:28Z</time>
      </trkpt>
      <trkpt lat="44.89615" lon="6.82157">
        <ele>1989.6</ele>
        <time>2021-12-22T14:43:29Z</time>
      </trkpt>
      <trkpt lat="44.89619" lon="6.82161">
        <ele>1989.5</ele>
        <time>2021-12-22T14:43:30Z</time>
      </trkpt>
      <trkpt lat="44.89627" lon="6.82168">
        <ele>1989</ele>
        <time>2021-12-22T14:43:32Z</time>
      </trkpt>
      <trkpt lat="44.89633" lon="6.8217">
        <ele>1987.8</ele>
        <time>2021-12-22T14:43:34Z</time>
      </trkpt>
      <trkpt lat="44.89635" lon="6.8217">
        <ele>1987.2</ele>
        <time>2021-12-22T14:43:35Z</time>
      </trkpt>
      <trkpt lat="44.89636" lon="6.82169">
        <ele>1986.6</ele>
        <time>2021-12-22T14:43:36Z</time>
      </trkpt>
      <trkpt lat="44.89637" lon="6.8217">
        <ele>1986.4</ele>
        <time>2021-12-22T14:44:49Z</time>
      </trkpt>
      <trkpt lat="44.8964" lon="6.82171">
        <ele>1986.2</ele>
        <time>2021-12-22T14:44:50Z</time>
      </trkpt>
      <trkpt lat="44.89647" lon="6.82171">
        <ele>1985.8</ele>
        <time>2021-12-22T14:44:53Z</time>
      </trkpt>
      <trkpt lat="44.89652" lon="6.82172">
        <ele>1985.3</ele>
        <time>2021-12-22T14:44:55Z</time>
      </trkpt>
      <trkpt lat="44.89658" lon="6.82172">
        <ele>1984</ele>
        <time>2021-12-22T14:44:57Z</time>
      </trkpt>
      <trkpt lat="44.89665" lon="6.8217">
        <ele>1982.7</ele>
        <time>2021-12-22T14:44:59Z</time>
      </trkpt>
      <trkpt lat="44.89673" lon="6.82168">
        <ele>1981.3</ele>
        <time>2021-12-22T14:45:01Z</time>
      </trkpt>
      <trkpt lat="44.8968" lon="6.82164">
        <ele>1980.1</ele>
        <time>2021-12-22T14:45:03Z</time>
      </trkpt>
      <trkpt lat="44.89687" lon="6.82161">
        <ele>1979</ele>
        <time>2021-12-22T14:45:05Z</time>
      </trkpt>
      <trkpt lat="44.89693" lon="6.82157">
        <ele>1977.5</ele>
        <time>2021-12-22T14:45:07Z</time>
      </trkpt>
      <trkpt lat="44.897" lon="6.82155">
        <ele>1976.4</ele>
        <time>2021-12-22T14:45:09Z</time>
      </trkpt>
      <trkpt lat="44.89709" lon="6.82152">
        <ele>1975.9</ele>
        <time>2021-12-22T14:45:11Z</time>
      </trkpt>
      <trkpt lat="44.89714" lon="6.82151">
        <ele>1975.4</ele>
        <time>2021-12-22T14:45:12Z</time>
      </trkpt>
      <trkpt lat="44.89719" lon="6.82149">
        <ele>1974.8</ele>
        <time>2021-12-22T14:45:13Z</time>
      </trkpt>
      <trkpt lat="44.89723" lon="6.82148">
        <ele>1974</ele>
        <time>2021-12-22T14:45:14Z</time>
      </trkpt>
      <trkpt lat="44.89732" lon="6.8215">
        <ele>1974.9</ele>
        <time>2021-12-22T14:45:16Z</time>
      </trkpt>
      <trkpt lat="44.89739" lon="6.82156">
        <ele>1974.9</ele>
        <time>2021-12-22T14:45:18Z</time>
      </trkpt>
      <trkpt lat="44.89745" lon="6.82163">
        <ele>1975</ele>
        <time>2021-12-22T14:45:20Z</time>
      </trkpt>
      <trkpt lat="44.89748" lon="6.8217">
        <ele>1975.2</ele>
        <time>2021-12-22T14:45:22Z</time>
      </trkpt>
      <trkpt lat="44.89749" lon="6.82171">
        <ele>1975.2</ele>
        <time>2021-12-22T14:45:23Z</time>
      </trkpt>
      <trkpt lat="44.89749" lon="6.82171">
        <ele>1975.4</ele>
        <time>2021-12-22T14:49:44Z</time>
      </trkpt>
      <trkpt lat="44.89753" lon="6.8218">
        <ele>1976.7</ele>
        <time>2021-12-22T14:49:45Z</time>
      </trkpt>
      <trkpt lat="44.89756" lon="6.82185">
        <ele>1975.8</ele>
        <time>2021-12-22T14:49:49Z</time>
      </trkpt>
      <trkpt lat="44.89759" lon="6.82191">
        <ele>1975.2</ele>
        <time>2021-12-22T14:49:52Z</time>
      </trkpt>
      <trkpt lat="44.89761" lon="6.82197">
        <ele>1974.4</ele>
        <time>2021-12-22T14:49:55Z</time>
      </trkpt>
      <trkpt lat="44.89764" lon="6.82202">
        <ele>1973.6</ele>
        <time>2021-12-22T14:49:58Z</time>
      </trkpt>
      <trkpt lat="44.89765" lon="6.82209">
        <ele>1972.3</ele>
        <time>2021-12-22T14:50:01Z</time>
      </trkpt>
      <trkpt lat="44.89767" lon="6.82215">
        <ele>1971.7</ele>
        <time>2021-12-22T14:50:04Z</time>
      </trkpt>
      <trkpt lat="44.89769" lon="6.82222">
        <ele>1971.2</ele>
        <time>2021-12-22T14:50:07Z</time>
      </trkpt>
      <trkpt lat="44.8977" lon="6.82229">
        <ele>1970.5</ele>
        <time>2021-12-22T14:50:11Z</time>
      </trkpt>
      <trkpt lat="44.89772" lon="6.82236">
        <ele>1970</ele>
        <time>2021-12-22T14:50:16Z</time>
      </trkpt>
      <trkpt lat="44.89774" lon="6.8224">
        <ele>1969.8</ele>
        <time>2021-12-22T14:50:19Z</time>
      </trkpt>
      <trkpt lat="44.89774" lon="6.82241">
        <ele>1969.8</ele>
        <time>2021-12-22T14:50:20Z</time>
      </trkpt>
      <trkpt lat="44.89775" lon="6.82243">
        <ele>1969.7</ele>
        <time>2021-12-22T14:50:23Z</time>
      </trkpt>
      <trkpt lat="44.89776" lon="6.82246">
        <ele>1969.5</ele>
        <time>2021-12-22T14:50:24Z</time>
      </trkpt>
      <trkpt lat="44.89778" lon="6.82254">
        <ele>1969.1</ele>
        <time>2021-12-22T14:50:27Z</time>
      </trkpt>
      <trkpt lat="44.8978" lon="6.82261">
        <ele>1968.3</ele>
        <time>2021-12-22T14:50:29Z</time>
      </trkpt>
      <trkpt lat="44.89783" lon="6.82269">
        <ele>1967.5</ele>
        <time>2021-12-22T14:50:31Z</time>
      </trkpt>
      <trkpt lat="44.89788" lon="6.82278">
        <ele>1966.4</ele>
        <time>2021-12-22T14:50:33Z</time>
      </trkpt>
      <trkpt lat="44.89791" lon="6.82288">
        <ele>1965.4</ele>
        <time>2021-12-22T14:50:35Z</time>
      </trkpt>
      <trkpt lat="44.89795" lon="6.82298">
        <ele>1964.6</ele>
        <time>2021-12-22T14:50:37Z</time>
      </trkpt>
      <trkpt lat="44.89797" lon="6.82307">
        <ele>1964.2</ele>
        <time>2021-12-22T14:50:39Z</time>
      </trkpt>
      <trkpt lat="44.898" lon="6.82316">
        <ele>1963</ele>
        <time>2021-12-22T14:50:41Z</time>
      </trkpt>
      <trkpt lat="44.89802" lon="6.82323">
        <ele>1963.4</ele>
        <time>2021-12-22T14:50:43Z</time>
      </trkpt>
      <trkpt lat="44.89804" lon="6.82329">
        <ele>1963.2</ele>
        <time>2021-12-22T14:50:45Z</time>
      </trkpt>
      <trkpt lat="44.89807" lon="6.82337">
        <ele>1962.7</ele>
        <time>2021-12-22T14:50:47Z</time>
      </trkpt>
      <trkpt lat="44.89811" lon="6.82347">
        <ele>1961.4</ele>
        <time>2021-12-22T14:50:49Z</time>
      </trkpt>
      <trkpt lat="44.89814" lon="6.82353">
        <ele>1961.1</ele>
        <time>2021-12-22T14:50:50Z</time>
      </trkpt>
      <trkpt lat="44.89816" lon="6.8236">
        <ele>1960.8</ele>
        <time>2021-12-22T14:50:51Z</time>
      </trkpt>
      <trkpt lat="44.89818" lon="6.82367">
        <ele>1960.6</ele>
        <time>2021-12-22T14:50:52Z</time>
      </trkpt>
      <trkpt lat="44.8982" lon="6.82374">
        <ele>1960</ele>
        <time>2021-12-22T14:50:53Z</time>
      </trkpt>
      <trkpt lat="44.89822" lon="6.8238">
        <ele>1959.4</ele>
        <time>2021-12-22T14:50:54Z</time>
      </trkpt>
      <trkpt lat="44.89825" lon="6.82387">
        <ele>1958.7</ele>
        <time>2021-12-22T14:50:55Z</time>
      </trkpt>
      <trkpt lat="44.89827" lon="6.82394">
        <ele>1957.9</ele>
        <time>2021-12-22T14:50:56Z</time>
      </trkpt>
      <trkpt lat="44.89829" lon="6.824">
        <ele>1957.4</ele>
        <time>2021-12-22T14:50:57Z</time>
      </trkpt>
      <trkpt lat="44.89831" lon="6.82406">
        <ele>1956.9</ele>
        <time>2021-12-22T14:50:58Z</time>
      </trkpt>
      <trkpt lat="44.89836" lon="6.82417">
        <ele>1954.7</ele>
        <time>2021-12-22T14:51:00Z</time>
      </trkpt>
      <trkpt lat="44.89839" lon="6.82424">
        <ele>1954.4</ele>
        <time>2021-12-22T14:51:01Z</time>
      </trkpt>
      <trkpt lat="44.89841" lon="6.8243">
        <ele>1954.4</ele>
        <time>2021-12-22T14:51:02Z</time>
      </trkpt>
      <trkpt lat="44.89843" lon="6.82436">
        <ele>1954.4</ele>
        <time>2021-12-22T14:51:03Z</time>
      </trkpt>
      <trkpt lat="44.89846" lon="6.82442">
        <ele>1953.7</ele>
        <time>2021-12-22T14:51:04Z</time>
      </trkpt>
      <trkpt lat="44.89851" lon="6.82452">
        <ele>1952.7</ele>
        <time>2021-12-22T14:51:06Z</time>
      </trkpt>
      <trkpt lat="44.89854" lon="6.82458">
        <ele>1952.2</ele>
        <time>2021-12-22T14:51:07Z</time>
      </trkpt>
      <trkpt lat="44.8986" lon="6.82465">
        <ele>1951</ele>
        <time>2021-12-22T14:51:09Z</time>
      </trkpt>
      <trkpt lat="44.89864" lon="6.8247">
        <ele>1949.5</ele>
        <time>2021-12-22T14:51:11Z</time>
      </trkpt>
      <trkpt lat="44.89869" lon="6.82472">
        <ele>1948.6</ele>
        <time>2021-12-22T14:51:13Z</time>
      </trkpt>
      <trkpt lat="44.89873" lon="6.82471">
        <ele>1949</ele>
        <time>2021-12-22T14:51:15Z</time>
      </trkpt>
      <trkpt lat="44.89874" lon="6.8247">
        <ele>1949.4</ele>
        <time>2021-12-22T14:51:16Z</time>
      </trkpt>
      <trkpt lat="44.89874" lon="6.82469">
        <ele>1949.1</ele>
        <time>2021-12-22T14:51:27Z</time>
      </trkpt>
      <trkpt lat="44.89877" lon="6.82467">
        <ele>1948.9</ele>
        <time>2021-12-22T14:51:28Z</time>
      </trkpt>
      <trkpt lat="44.89881" lon="6.82463">
        <ele>1948.1</ele>
        <time>2021-12-22T14:51:30Z</time>
      </trkpt>
      <trkpt lat="44.89882" lon="6.82461">
        <ele>1947.8</ele>
        <time>2021-12-22T14:51:31Z</time>
      </trkpt>
      <trkpt lat="44.89883" lon="6.82462">
        <ele>1947.4</ele>
        <time>2021-12-22T14:51:32Z</time>
      </trkpt>
      <trkpt lat="44.89883" lon="6.82463">
        <ele>1947.3</ele>
        <time>2021-12-22T14:52:11Z</time>
      </trkpt>
      <trkpt lat="44.89885" lon="6.82465">
        <ele>1947.3</ele>
        <time>2021-12-22T14:52:12Z</time>
      </trkpt>
      <trkpt lat="44.89889" lon="6.82464">
        <ele>1946.7</ele>
        <time>2021-12-22T14:52:16Z</time>
      </trkpt>
      <trkpt lat="44.89895" lon="6.82459">
        <ele>1945.6</ele>
        <time>2021-12-22T14:52:18Z</time>
      </trkpt>
      <trkpt lat="44.899" lon="6.82456">
        <ele>1945.3</ele>
        <time>2021-12-22T14:52:19Z</time>
      </trkpt>
      <trkpt lat="44.89907" lon="6.82452">
        <ele>1944.6</ele>
        <time>2021-12-22T14:52:21Z</time>
      </trkpt>
      <trkpt lat="44.89915" lon="6.82453">
        <ele>1942.7</ele>
        <time>2021-12-22T14:52:23Z</time>
      </trkpt>
      <trkpt lat="44.89919" lon="6.82453">
        <ele>1942</ele>
        <time>2021-12-22T14:52:24Z</time>
      </trkpt>
      <trkpt lat="44.89924" lon="6.82453">
        <ele>1940.8</ele>
        <time>2021-12-22T14:52:25Z</time>
      </trkpt>
      <trkpt lat="44.89929" lon="6.82454">
        <ele>1939.7</ele>
        <time>2021-12-22T14:52:26Z</time>
      </trkpt>
      <trkpt lat="44.89936" lon="6.82457">
        <ele>1937.1</ele>
        <time>2021-12-22T14:52:28Z</time>
      </trkpt>
      <trkpt lat="44.89942" lon="6.82462">
        <ele>1934.7</ele>
        <time>2021-12-22T14:52:30Z</time>
      </trkpt>
      <trkpt lat="44.89946" lon="6.82467">
        <ele>1932.5</ele>
        <time>2021-12-22T14:52:32Z</time>
      </trkpt>
      <trkpt lat="44.8995" lon="6.82473">
        <ele>1930.8</ele>
        <time>2021-12-22T14:52:34Z</time>
      </trkpt>
      <trkpt lat="44.89955" lon="6.82479">
        <ele>1928.9</ele>
        <time>2021-12-22T14:52:36Z</time>
      </trkpt>
      <trkpt lat="44.89961" lon="6.82485">
        <ele>1928.1</ele>
        <time>2021-12-22T14:52:38Z</time>
      </trkpt>
      <trkpt lat="44.89967" lon="6.8249">
        <ele>1927.3</ele>
        <time>2021-12-22T14:52:40Z</time>
      </trkpt>
      <trkpt lat="44.89973" lon="6.8249">
        <ele>1927.3</ele>
        <time>2021-12-22T14:52:42Z</time>
      </trkpt>
      <trkpt lat="44.89978" lon="6.8249">
        <ele>1926.3</ele>
        <time>2021-12-22T14:52:46Z</time>
      </trkpt>
      <trkpt lat="44.89982" lon="6.82488">
        <ele>1923.8</ele>
        <time>2021-12-22T14:52:50Z</time>
      </trkpt>
      <trkpt lat="44.89987" lon="6.82487">
        <ele>1923.3</ele>
        <time>2021-12-22T14:52:52Z</time>
      </trkpt>
      <trkpt lat="44.89989" lon="6.82487">
        <ele>1923.2</ele>
        <time>2021-12-22T14:52:53Z</time>
      </trkpt>
      <trkpt lat="44.89989" lon="6.82487">
        <ele>1923</ele>
        <time>2021-12-22T14:52:54Z</time>
      </trkpt>
      <trkpt lat="44.89989" lon="6.82487">
        <ele>1923</ele>
        <time>2021-12-22T14:53:03Z</time>
      </trkpt>
      <trkpt lat="44.89985" lon="6.82492">
        <ele>1922.8</ele>
        <time>2021-12-22T14:53:04Z</time>
      </trkpt>
      <trkpt lat="44.89983" lon="6.82498">
        <ele>1923.1</ele>
        <time>2021-12-22T14:53:06Z</time>
      </trkpt>
      <trkpt lat="44.89982" lon="6.82503">
        <ele>1923.6</ele>
        <time>2021-12-22T14:53:08Z</time>
      </trkpt>
      <trkpt lat="44.89983" lon="6.82503">
        <ele>1923.7</ele>
        <time>2021-12-22T14:53:09Z</time>
      </trkpt>
      <trkpt lat="44.89984" lon="6.82503">
        <ele>1923</ele>
        <time>2021-12-22T14:53:10Z</time>
      </trkpt>
      <trkpt lat="44.89986" lon="6.82503">
        <ele>1921.7</ele>
        <time>2021-12-22T14:53:11Z</time>
      </trkpt>
      <trkpt lat="44.89991" lon="6.82499">
        <ele>1920</ele>
        <time>2021-12-22T14:53:14Z</time>
      </trkpt>
      <trkpt lat="44.89996" lon="6.82497">
        <ele>1918.6</ele>
        <time>2021-12-22T14:53:16Z</time>
      </trkpt>
      <trkpt lat="44.90002" lon="6.82494">
        <ele>1917.8</ele>
        <time>2021-12-22T14:53:18Z</time>
      </trkpt>
      <trkpt lat="44.90009" lon="6.82491">
        <ele>1917.4</ele>
        <time>2021-12-22T14:53:20Z</time>
      </trkpt>
      <trkpt lat="44.90016" lon="6.82489">
        <ele>1917.4</ele>
        <time>2021-12-22T14:53:22Z</time>
      </trkpt>
      <trkpt lat="44.90023" lon="6.82487">
        <ele>1917.2</ele>
        <time>2021-12-22T14:53:24Z</time>
      </trkpt>
      <trkpt lat="44.90027" lon="6.82485">
        <ele>1917.3</ele>
        <time>2021-12-22T14:53:26Z</time>
      </trkpt>
      <trkpt lat="44.90033" lon="6.82481">
        <ele>1916.7</ele>
        <time>2021-12-22T14:53:29Z</time>
      </trkpt>
      <trkpt lat="44.90037" lon="6.82476">
        <ele>1917.6</ele>
        <time>2021-12-22T14:53:32Z</time>
      </trkpt>
      <trkpt lat="44.90042" lon="6.82472">
        <ele>1918.7</ele>
        <time>2021-12-22T14:53:35Z</time>
      </trkpt>
      <trkpt lat="44.90047" lon="6.82475">
        <ele>1919.6</ele>
        <time>2021-12-22T14:53:38Z</time>
      </trkpt>
      <trkpt lat="44.90048" lon="6.82481">
        <ele>1920</ele>
        <time>2021-12-22T14:53:40Z</time>
      </trkpt>
      <trkpt lat="44.90047" lon="6.82488">
        <ele>1919.6</ele>
        <time>2021-12-22T14:53:42Z</time>
      </trkpt>
      <trkpt lat="44.90045" lon="6.82494">
        <ele>1919.1</ele>
        <time>2021-12-22T14:53:44Z</time>
      </trkpt>
      <trkpt lat="44.90044" lon="6.82502">
        <ele>1918</ele>
        <time>2021-12-22T14:53:46Z</time>
      </trkpt>
      <trkpt lat="44.90041" lon="6.82511">
        <ele>1916.7</ele>
        <time>2021-12-22T14:53:48Z</time>
      </trkpt>
      <trkpt lat="44.90039" lon="6.8252">
        <ele>1915.2</ele>
        <time>2021-12-22T14:53:50Z</time>
      </trkpt>
      <trkpt lat="44.90037" lon="6.82528">
        <ele>1913.7</ele>
        <time>2021-12-22T14:53:52Z</time>
      </trkpt>
      <trkpt lat="44.90036" lon="6.82537">
        <ele>1912.2</ele>
        <time>2021-12-22T14:53:54Z</time>
      </trkpt>
      <trkpt lat="44.90036" lon="6.82544">
        <ele>1911.1</ele>
        <time>2021-12-22T14:53:56Z</time>
      </trkpt>
      <trkpt lat="44.90038" lon="6.8255">
        <ele>1909.1</ele>
        <time>2021-12-22T14:53:58Z</time>
      </trkpt>
      <trkpt lat="44.90043" lon="6.82555">
        <ele>1907.9</ele>
        <time>2021-12-22T14:54:00Z</time>
      </trkpt>
      <trkpt lat="44.90045" lon="6.82561">
        <ele>1906.5</ele>
        <time>2021-12-22T14:54:02Z</time>
      </trkpt>
      <trkpt lat="44.9005" lon="6.82566">
        <ele>1905.7</ele>
        <time>2021-12-22T14:54:05Z</time>
      </trkpt>
      <trkpt lat="44.90054" lon="6.82572">
        <ele>1905.7</ele>
        <time>2021-12-22T14:54:07Z</time>
      </trkpt>
      <trkpt lat="44.90059" lon="6.82578">
        <ele>1904.5</ele>
        <time>2021-12-22T14:54:09Z</time>
      </trkpt>
      <trkpt lat="44.90064" lon="6.82581">
        <ele>1903.3</ele>
        <time>2021-12-22T14:54:11Z</time>
      </trkpt>
      <trkpt lat="44.90069" lon="6.82586">
        <ele>1901.5</ele>
        <time>2021-12-22T14:54:13Z</time>
      </trkpt>
      <trkpt lat="44.90074" lon="6.8259">
        <ele>1900.2</ele>
        <time>2021-12-22T14:54:15Z</time>
      </trkpt>
      <trkpt lat="44.90077" lon="6.82595">
        <ele>1899.4</ele>
        <time>2021-12-22T14:54:17Z</time>
      </trkpt>
      <trkpt lat="44.90082" lon="6.82599">
        <ele>1897.9</ele>
        <time>2021-12-22T14:54:19Z</time>
      </trkpt>
      <trkpt lat="44.90087" lon="6.82604">
        <ele>1896.7</ele>
        <time>2021-12-22T14:54:21Z</time>
      </trkpt>
      <trkpt lat="44.90092" lon="6.82607">
        <ele>1894.9</ele>
        <time>2021-12-22T14:54:23Z</time>
      </trkpt>
      <trkpt lat="44.90099" lon="6.82609">
        <ele>1893.2</ele>
        <time>2021-12-22T14:54:25Z</time>
      </trkpt>
      <trkpt lat="44.90105" lon="6.8261">
        <ele>1892</ele>
        <time>2021-12-22T14:54:27Z</time>
      </trkpt>
      <trkpt lat="44.90111" lon="6.82615">
        <ele>1890.9</ele>
        <time>2021-12-22T14:54:29Z</time>
      </trkpt>
      <trkpt lat="44.90118" lon="6.8262">
        <ele>1890.1</ele>
        <time>2021-12-22T14:54:31Z</time>
      </trkpt>
      <trkpt lat="44.90121" lon="6.82627">
        <ele>1889.8</ele>
        <time>2021-12-22T14:54:33Z</time>
      </trkpt>
      <trkpt lat="44.90126" lon="6.8263">
        <ele>1888.9</ele>
        <time>2021-12-22T14:54:35Z</time>
      </trkpt>
      <trkpt lat="44.90128" lon="6.82629">
        <ele>1888.8</ele>
        <time>2021-12-22T14:54:36Z</time>
      </trkpt>
      <trkpt lat="44.90129" lon="6.82629">
        <ele>1888.9</ele>
        <time>2021-12-22T14:54:37Z</time>
      </trkpt>
      <trkpt lat="44.90129" lon="6.82629">
        <ele>1889.8</ele>
        <time>2021-12-22T14:54:54Z</time>
      </trkpt>
      <trkpt lat="44.9013" lon="6.82631">
        <ele>1890.1</ele>
        <time>2021-12-22T14:54:55Z</time>
      </trkpt>
      <trkpt lat="44.90135" lon="6.82634">
        <ele>1890</ele>
        <time>2021-12-22T14:54:57Z</time>
      </trkpt>
      <trkpt lat="44.90141" lon="6.82639">
        <ele>1889.5</ele>
        <time>2021-12-22T14:54:59Z</time>
      </trkpt>
      <trkpt lat="44.90145" lon="6.82644">
        <ele>1889.1</ele>
        <time>2021-12-22T14:55:01Z</time>
      </trkpt>
      <trkpt lat="44.90148" lon="6.82652">
        <ele>1888.3</ele>
        <time>2021-12-22T14:55:03Z</time>
      </trkpt>
      <trkpt lat="44.90148" lon="6.82658">
        <ele>1888</ele>
        <time>2021-12-22T14:55:05Z</time>
      </trkpt>
      <trkpt lat="44.90147" lon="6.82663">
        <ele>1887.7</ele>
        <time>2021-12-22T14:55:07Z</time>
      </trkpt>
      <trkpt lat="44.90147" lon="6.82665">
        <ele>1887.4</ele>
        <time>2021-12-22T14:55:08Z</time>
      </trkpt>
      <trkpt lat="44.90147" lon="6.82666">
        <ele>1887.3</ele>
        <time>2021-12-22T14:55:24Z</time>
      </trkpt>
      <trkpt lat="44.90153" lon="6.8266">
        <ele>1887.3</ele>
        <time>2021-12-22T14:55:25Z</time>
      </trkpt>
      <trkpt lat="44.90158" lon="6.82658">
        <ele>1887.3</ele>
        <time>2021-12-22T14:55:30Z</time>
      </trkpt>
      <trkpt lat="44.90163" lon="6.82658">
        <ele>1886.6</ele>
        <time>2021-12-22T14:55:33Z</time>
      </trkpt>
      <trkpt lat="44.90168" lon="6.82664">
        <ele>1885.5</ele>
        <time>2021-12-22T14:55:35Z</time>
      </trkpt>
      <trkpt lat="44.90172" lon="6.82668">
        <ele>1884.8</ele>
        <time>2021-12-22T14:55:37Z</time>
      </trkpt>
      <trkpt lat="44.90177" lon="6.82674">
        <ele>1883.3</ele>
        <time>2021-12-22T14:55:39Z</time>
      </trkpt>
      <trkpt lat="44.90181" lon="6.82677">
        <ele>1881.6</ele>
        <time>2021-12-22T14:55:41Z</time>
      </trkpt>
      <trkpt lat="44.90185" lon="6.8268">
        <ele>1880</ele>
        <time>2021-12-22T14:55:43Z</time>
      </trkpt>
      <trkpt lat="44.90192" lon="6.82678">
        <ele>1878.9</ele>
        <time>2021-12-22T14:55:46Z</time>
      </trkpt>
      <trkpt lat="44.90196" lon="6.82674">
        <ele>1878.7</ele>
        <time>2021-12-22T14:55:49Z</time>
      </trkpt>
      <trkpt lat="44.90199" lon="6.82669">
        <ele>1878.4</ele>
        <time>2021-12-22T14:55:52Z</time>
      </trkpt>
      <trkpt lat="44.90202" lon="6.82664">
        <ele>1877.9</ele>
        <time>2021-12-22T14:55:54Z</time>
      </trkpt>
      <trkpt lat="44.90208" lon="6.8266">
        <ele>1877</ele>
        <time>2021-12-22T14:55:56Z</time>
      </trkpt>
      <trkpt lat="44.90215" lon="6.82656">
        <ele>1876.4</ele>
        <time>2021-12-22T14:55:58Z</time>
      </trkpt>
      <trkpt lat="44.90222" lon="6.82653">
        <ele>1876</ele>
        <time>2021-12-22T14:56:00Z</time>
      </trkpt>
      <trkpt lat="44.90228" lon="6.82652">
        <ele>1875.4</ele>
        <time>2021-12-22T14:56:02Z</time>
      </trkpt>
      <trkpt lat="44.90233" lon="6.82658">
        <ele>1874.3</ele>
        <time>2021-12-22T14:56:05Z</time>
      </trkpt>
      <trkpt lat="44.90237" lon="6.82665">
        <ele>1874.2</ele>
        <time>2021-12-22T14:56:07Z</time>
      </trkpt>
      <trkpt lat="44.90241" lon="6.82674">
        <ele>1873.9</ele>
        <time>2021-12-22T14:56:09Z</time>
      </trkpt>
      <trkpt lat="44.90247" lon="6.82681">
        <ele>1874.1</ele>
        <time>2021-12-22T14:56:11Z</time>
      </trkpt>
      <trkpt lat="44.90253" lon="6.82686">
        <ele>1874.4</ele>
        <time>2021-12-22T14:56:13Z</time>
      </trkpt>
      <trkpt lat="44.90258" lon="6.8269">
        <ele>1873.7</ele>
        <time>2021-12-22T14:56:16Z</time>
      </trkpt>
      <trkpt lat="44.90262" lon="6.82695">
        <ele>1872.9</ele>
        <time>2021-12-22T14:56:19Z</time>
      </trkpt>
      <trkpt lat="44.90265" lon="6.82699">
        <ele>1872.3</ele>
        <time>2021-12-22T14:56:21Z</time>
      </trkpt>
      <trkpt lat="44.9027" lon="6.82703">
        <ele>1871.1</ele>
        <time>2021-12-22T14:56:23Z</time>
      </trkpt>
      <trkpt lat="44.90275" lon="6.82709">
        <ele>1869.5</ele>
        <time>2021-12-22T14:56:26Z</time>
      </trkpt>
      <trkpt lat="44.90275" lon="6.8271">
        <ele>1868.7</ele>
        <time>2021-12-22T14:56:27Z</time>
      </trkpt>
      <trkpt lat="44.90275" lon="6.8271">
        <ele>1868.8</ele>
        <time>2021-12-22T14:56:34Z</time>
      </trkpt>
      <trkpt lat="44.90272" lon="6.8271">
        <ele>1868.2</ele>
        <time>2021-12-22T14:56:35Z</time>
      </trkpt>
      <trkpt lat="44.90267" lon="6.8271">
        <ele>1866.8</ele>
        <time>2021-12-22T14:56:38Z</time>
      </trkpt>
      <trkpt lat="44.90261" lon="6.8271">
        <ele>1865.7</ele>
        <time>2021-12-22T14:56:41Z</time>
      </trkpt>
      <trkpt lat="44.90255" lon="6.82711">
        <ele>1864.3</ele>
        <time>2021-12-22T14:56:44Z</time>
      </trkpt>
      <trkpt lat="44.90254" lon="6.82712">
        <ele>1863.9</ele>
        <time>2021-12-22T14:56:45Z</time>
      </trkpt>
      <trkpt lat="44.90254" lon="6.82714">
        <ele>1863.7</ele>
        <time>2021-12-22T14:56:47Z</time>
      </trkpt>
      <trkpt lat="44.90254" lon="6.82717">
        <ele>1863.8</ele>
        <time>2021-12-22T14:56:48Z</time>
      </trkpt>
      <trkpt lat="44.90253" lon="6.82724">
        <ele>1863.5</ele>
        <time>2021-12-22T14:56:50Z</time>
      </trkpt>
      <trkpt lat="44.90251" lon="6.82733">
        <ele>1863</ele>
        <time>2021-12-22T14:56:52Z</time>
      </trkpt>
      <trkpt lat="44.90247" lon="6.8274">
        <ele>1862</ele>
        <time>2021-12-22T14:56:54Z</time>
      </trkpt>
      <trkpt lat="44.90242" lon="6.82745">
        <ele>1860.7</ele>
        <time>2021-12-22T14:56:56Z</time>
      </trkpt>
      <trkpt lat="44.90237" lon="6.82749">
        <ele>1859.6</ele>
        <time>2021-12-22T14:56:58Z</time>
      </trkpt>
      <trkpt lat="44.90233" lon="6.82752">
        <ele>1859.6</ele>
        <time>2021-12-22T14:57:00Z</time>
      </trkpt>
      <trkpt lat="44.90227" lon="6.82755">
        <ele>1859.2</ele>
        <time>2021-12-22T14:57:03Z</time>
      </trkpt>
      <trkpt lat="44.90222" lon="6.82757">
        <ele>1858.9</ele>
        <time>2021-12-22T14:57:06Z</time>
      </trkpt>
      <trkpt lat="44.90217" lon="6.82758">
        <ele>1858.1</ele>
        <time>2021-12-22T14:57:09Z</time>
      </trkpt>
      <trkpt lat="44.90212" lon="6.8276">
        <ele>1856.8</ele>
        <time>2021-12-22T14:57:12Z</time>
      </trkpt>
      <trkpt lat="44.90207" lon="6.82761">
        <ele>1855.8</ele>
        <time>2021-12-22T14:57:16Z</time>
      </trkpt>
      <trkpt lat="44.90202" lon="6.82762">
        <ele>1855.6</ele>
        <time>2021-12-22T14:57:20Z</time>
      </trkpt>
      <trkpt lat="44.90196" lon="6.82763">
        <ele>1856.4</ele>
        <time>2021-12-22T14:57:24Z</time>
      </trkpt>
      <trkpt lat="44.9019" lon="6.82762">
        <ele>1857.9</ele>
        <time>2021-12-22T14:57:28Z</time>
      </trkpt>
      <trkpt lat="44.90185" lon="6.82762">
        <ele>1858.1</ele>
        <time>2021-12-22T14:57:31Z</time>
      </trkpt>
      <trkpt lat="44.9018" lon="6.82763">
        <ele>1858.5</ele>
        <time>2021-12-22T14:57:34Z</time>
      </trkpt>
      <trkpt lat="44.90174" lon="6.82767">
        <ele>1858.7</ele>
        <time>2021-12-22T14:57:37Z</time>
      </trkpt>
      <trkpt lat="44.90172" lon="6.82773">
        <ele>1858.6</ele>
        <time>2021-12-22T14:57:39Z</time>
      </trkpt>
      <trkpt lat="44.90173" lon="6.8278">
        <ele>1858.4</ele>
        <time>2021-12-22T14:57:41Z</time>
      </trkpt>
      <trkpt lat="44.90176" lon="6.82785">
        <ele>1858</ele>
        <time>2021-12-22T14:57:43Z</time>
      </trkpt>
      <trkpt lat="44.90181" lon="6.82785">
        <ele>1857.5</ele>
        <time>2021-12-22T14:57:45Z</time>
      </trkpt>
      <trkpt lat="44.90186" lon="6.82785">
        <ele>1857.3</ele>
        <time>2021-12-22T14:57:47Z</time>
      </trkpt>
      <trkpt lat="44.90191" lon="6.82783">
        <ele>1856.7</ele>
        <time>2021-12-22T14:57:49Z</time>
      </trkpt>
      <trkpt lat="44.90197" lon="6.82782">
        <ele>1856.1</ele>
        <time>2021-12-22T14:57:51Z</time>
      </trkpt>
      <trkpt lat="44.90204" lon="6.82781">
        <ele>1855.6</ele>
        <time>2021-12-22T14:57:53Z</time>
      </trkpt>
      <trkpt lat="44.90211" lon="6.8278">
        <ele>1854.5</ele>
        <time>2021-12-22T14:57:55Z</time>
      </trkpt>
      <trkpt lat="44.90216" lon="6.8278">
        <ele>1852.8</ele>
        <time>2021-12-22T14:57:57Z</time>
      </trkpt>
      <trkpt lat="44.90221" lon="6.8278">
        <ele>1852.1</ele>
        <time>2021-12-22T14:57:59Z</time>
      </trkpt>
      <trkpt lat="44.90227" lon="6.8278">
        <ele>1851.7</ele>
        <time>2021-12-22T14:58:02Z</time>
      </trkpt>
      <trkpt lat="44.90232" lon="6.82781">
        <ele>1850.6</ele>
        <time>2021-12-22T14:58:04Z</time>
      </trkpt>
      <trkpt lat="44.90237" lon="6.82782">
        <ele>1850</ele>
        <time>2021-12-22T14:58:06Z</time>
      </trkpt>
      <trkpt lat="44.90243" lon="6.82782">
        <ele>1850</ele>
        <time>2021-12-22T14:58:09Z</time>
      </trkpt>
      <trkpt lat="44.90248" lon="6.82782">
        <ele>1849.7</ele>
        <time>2021-12-22T14:58:11Z</time>
      </trkpt>
      <trkpt lat="44.90253" lon="6.82781">
        <ele>1849.5</ele>
        <time>2021-12-22T14:58:13Z</time>
      </trkpt>
      <trkpt lat="44.9026" lon="6.82779">
        <ele>1849.3</ele>
        <time>2021-12-22T14:58:16Z</time>
      </trkpt>
      <trkpt lat="44.90264" lon="6.82777">
        <ele>1848.9</ele>
        <time>2021-12-22T14:58:18Z</time>
      </trkpt>
      <trkpt lat="44.90269" lon="6.82775">
        <ele>1848.9</ele>
        <time>2021-12-22T14:58:20Z</time>
      </trkpt>
      <trkpt lat="44.90274" lon="6.82773">
        <ele>1848.4</ele>
        <time>2021-12-22T14:58:22Z</time>
      </trkpt>
      <trkpt lat="44.90279" lon="6.82771">
        <ele>1848.5</ele>
        <time>2021-12-22T14:58:24Z</time>
      </trkpt>
      <trkpt lat="44.90282" lon="6.82768">
        <ele>1848.6</ele>
        <time>2021-12-22T14:58:26Z</time>
      </trkpt>
      <trkpt lat="44.90284" lon="6.82768">
        <ele>1848.3</ele>
        <time>2021-12-22T14:58:27Z</time>
      </trkpt>
      <trkpt lat="44.90285" lon="6.82767">
        <ele>1848.1</ele>
        <time>2021-12-22T14:58:30Z</time>
      </trkpt>
      <trkpt lat="44.90288" lon="6.82765">
        <ele>1847.8</ele>
        <time>2021-12-22T14:58:31Z</time>
      </trkpt>
      <trkpt lat="44.90293" lon="6.8276">
        <ele>1846.8</ele>
        <time>2021-12-22T14:58:34Z</time>
      </trkpt>
      <trkpt lat="44.90298" lon="6.82754">
        <ele>1845.2</ele>
        <time>2021-12-22T14:58:37Z</time>
      </trkpt>
      <trkpt lat="44.90302" lon="6.82749">
        <ele>1843.5</ele>
        <time>2021-12-22T14:58:40Z</time>
      </trkpt>
      <trkpt lat="44.90307" lon="6.82743">
        <ele>1842.3</ele>
        <time>2021-12-22T14:58:42Z</time>
      </trkpt>
      <trkpt lat="44.90311" lon="6.82737">
        <ele>1840.6</ele>
        <time>2021-12-22T14:58:44Z</time>
      </trkpt>
      <trkpt lat="44.90318" lon="6.82732">
        <ele>1839.5</ele>
        <time>2021-12-22T14:58:46Z</time>
      </trkpt>
      <trkpt lat="44.90323" lon="6.8273">
        <ele>1839.1</ele>
        <time>2021-12-22T14:58:47Z</time>
      </trkpt>
      <trkpt lat="44.90328" lon="6.82727">
        <ele>1838.8</ele>
        <time>2021-12-22T14:58:48Z</time>
      </trkpt>
      <trkpt lat="44.90334" lon="6.82723">
        <ele>1838.4</ele>
        <time>2021-12-22T14:58:49Z</time>
      </trkpt>
      <trkpt lat="44.9034" lon="6.82719">
        <ele>1837.6</ele>
        <time>2021-12-22T14:58:50Z</time>
      </trkpt>
      <trkpt lat="44.90345" lon="6.82713">
        <ele>1836.9</ele>
        <time>2021-12-22T14:58:51Z</time>
      </trkpt>
      <trkpt lat="44.90352" lon="6.82708">
        <ele>1836.4</ele>
        <time>2021-12-22T14:58:52Z</time>
      </trkpt>
      <trkpt lat="44.90358" lon="6.82704">
        <ele>1835.5</ele>
        <time>2021-12-22T14:58:53Z</time>
      </trkpt>
      <trkpt lat="44.90364" lon="6.82701">
        <ele>1834.8</ele>
        <time>2021-12-22T14:58:54Z</time>
      </trkpt>
      <trkpt lat="44.9037" lon="6.82699">
        <ele>1834</ele>
        <time>2021-12-22T14:58:55Z</time>
      </trkpt>
      <trkpt lat="44.90377" lon="6.82698">
        <ele>1833.3</ele>
        <time>2021-12-22T14:58:56Z</time>
      </trkpt>
      <trkpt lat="44.90383" lon="6.82698">
        <ele>1832.6</ele>
        <time>2021-12-22T14:58:57Z</time>
      </trkpt>
      <trkpt lat="44.90389" lon="6.82701">
        <ele>1832.3</ele>
        <time>2021-12-22T14:58:58Z</time>
      </trkpt>
      <trkpt lat="44.90395" lon="6.82705">
        <ele>1832</ele>
        <time>2021-12-22T14:58:59Z</time>
      </trkpt>
      <trkpt lat="44.90399" lon="6.8271">
        <ele>1831.5</ele>
        <time>2021-12-22T14:59:00Z</time>
      </trkpt>
      <trkpt lat="44.90402" lon="6.82716">
        <ele>1830.9</ele>
        <time>2021-12-22T14:59:01Z</time>
      </trkpt>
      <trkpt lat="44.90407" lon="6.82727">
        <ele>1829.6</ele>
        <time>2021-12-22T14:59:03Z</time>
      </trkpt>
      <trkpt lat="44.9041" lon="6.82732">
        <ele>1828.9</ele>
        <time>2021-12-22T14:59:04Z</time>
      </trkpt>
      <trkpt lat="44.90415" lon="6.82741">
        <ele>1828.1</ele>
        <time>2021-12-22T14:59:06Z</time>
      </trkpt>
      <trkpt lat="44.90421" lon="6.82749">
        <ele>1828.1</ele>
        <time>2021-12-22T14:59:08Z</time>
      </trkpt>
      <trkpt lat="44.90428" lon="6.82755">
        <ele>1827.5</ele>
        <time>2021-12-22T14:59:10Z</time>
      </trkpt>
      <trkpt lat="44.90435" lon="6.82759">
        <ele>1826.4</ele>
        <time>2021-12-22T14:59:12Z</time>
      </trkpt>
      <trkpt lat="44.90441" lon="6.8276">
        <ele>1826.1</ele>
        <time>2021-12-22T14:59:14Z</time>
      </trkpt>
      <trkpt lat="44.90445" lon="6.82758">
        <ele>1825.6</ele>
        <time>2021-12-22T14:59:16Z</time>
      </trkpt>
      <trkpt lat="44.90445" lon="6.82756">
        <ele>1825.1</ele>
        <time>2021-12-22T14:59:17Z</time>
      </trkpt>
      <trkpt lat="44.90445" lon="6.82756">
        <ele>1824.7</ele>
        <time>2021-12-22T14:59:55Z</time>
      </trkpt>
      <trkpt lat="44.90449" lon="6.82754">
        <ele>1824.6</ele>
        <time>2021-12-22T14:59:56Z</time>
      </trkpt>
      <trkpt lat="44.90455" lon="6.8275">
        <ele>1824.2</ele>
        <time>2021-12-22T15:00:00Z</time>
      </trkpt>
      <trkpt lat="44.90459" lon="6.82747">
        <ele>1823.9</ele>
        <time>2021-12-22T15:00:02Z</time>
      </trkpt>
      <trkpt lat="44.90464" lon="6.82745">
        <ele>1823.6</ele>
        <time>2021-12-22T15:00:04Z</time>
      </trkpt>
      <trkpt lat="44.90469" lon="6.82744">
        <ele>1823</ele>
        <time>2021-12-22T15:00:06Z</time>
      </trkpt>
      <trkpt lat="44.90475" lon="6.82744">
        <ele>1822.5</ele>
        <time>2021-12-22T15:00:08Z</time>
      </trkpt>
      <trkpt lat="44.90481" lon="6.82745">
        <ele>1821.6</ele>
        <time>2021-12-22T15:00:10Z</time>
      </trkpt>
      <trkpt lat="44.90486" lon="6.82745">
        <ele>1820</ele>
        <time>2021-12-22T15:00:12Z</time>
      </trkpt>
      <trkpt lat="44.90493" lon="6.82743">
        <ele>1818.5</ele>
        <time>2021-12-22T15:00:14Z</time>
      </trkpt>
      <trkpt lat="44.90499" lon="6.82739">
        <ele>1816.3</ele>
        <time>2021-12-22T15:00:16Z</time>
      </trkpt>
      <trkpt lat="44.90506" lon="6.82734">
        <ele>1813.4</ele>
        <time>2021-12-22T15:00:18Z</time>
      </trkpt>
      <trkpt lat="44.90513" lon="6.82731">
        <ele>1811.6</ele>
        <time>2021-12-22T15:00:20Z</time>
      </trkpt>
      <trkpt lat="44.9052" lon="6.82729">
        <ele>1810.4</ele>
        <time>2021-12-22T15:00:22Z</time>
      </trkpt>
      <trkpt lat="44.90527" lon="6.82728">
        <ele>1810</ele>
        <time>2021-12-22T15:00:24Z</time>
      </trkpt>
      <trkpt lat="44.90532" lon="6.82726">
        <ele>1809.8</ele>
        <time>2021-12-22T15:00:26Z</time>
      </trkpt>
      <trkpt lat="44.90539" lon="6.82725">
        <ele>1809.4</ele>
        <time>2021-12-22T15:00:28Z</time>
      </trkpt>
      <trkpt lat="44.90546" lon="6.82722">
        <ele>1808.2</ele>
        <time>2021-12-22T15:00:30Z</time>
      </trkpt>
      <trkpt lat="44.90552" lon="6.82719">
        <ele>1806.7</ele>
        <time>2021-12-22T15:00:32Z</time>
      </trkpt>
      <trkpt lat="44.90558" lon="6.82716">
        <ele>1806.3</ele>
        <time>2021-12-22T15:00:34Z</time>
      </trkpt>
      <trkpt lat="44.9056" lon="6.82714">
        <ele>1806.1</ele>
        <time>2021-12-22T15:00:35Z</time>
      </trkpt>
      <trkpt lat="44.90561" lon="6.82713">
        <ele>1805.7</ele>
        <time>2021-12-22T15:00:36Z</time>
      </trkpt>
      <trkpt lat="44.90561" lon="6.82713">
        <ele>1805.7</ele>
        <time>2021-12-22T15:01:11Z</time>
      </trkpt>
      <trkpt lat="44.90567" lon="6.82715">
        <ele>1805.6</ele>
        <time>2021-12-22T15:01:12Z</time>
      </trkpt>
      <trkpt lat="44.90573" lon="6.8272">
        <ele>1805.2</ele>
        <time>2021-12-22T15:01:15Z</time>
      </trkpt>
      <trkpt lat="44.9058" lon="6.82722">
        <ele>1804.6</ele>
        <time>2021-12-22T15:01:17Z</time>
      </trkpt>
      <trkpt lat="44.90586" lon="6.82723">
        <ele>1803.7</ele>
        <time>2021-12-22T15:01:19Z</time>
      </trkpt>
      <trkpt lat="44.90593" lon="6.82724">
        <ele>1802.7</ele>
        <time>2021-12-22T15:01:21Z</time>
      </trkpt>
      <trkpt lat="44.90599" lon="6.82725">
        <ele>1800.9</ele>
        <time>2021-12-22T15:01:23Z</time>
      </trkpt>
      <trkpt lat="44.90605" lon="6.82726">
        <ele>1800.3</ele>
        <time>2021-12-22T15:01:25Z</time>
      </trkpt>
      <trkpt lat="44.90612" lon="6.82726">
        <ele>1799.3</ele>
        <time>2021-12-22T15:01:27Z</time>
      </trkpt>
      <trkpt lat="44.90617" lon="6.82726">
        <ele>1797.9</ele>
        <time>2021-12-22T15:01:29Z</time>
      </trkpt>
      <trkpt lat="44.90624" lon="6.82727">
        <ele>1796.5</ele>
        <time>2021-12-22T15:01:31Z</time>
      </trkpt>
      <trkpt lat="44.90629" lon="6.8273">
        <ele>1795.5</ele>
        <time>2021-12-22T15:01:33Z</time>
      </trkpt>
      <trkpt lat="44.90636" lon="6.82734">
        <ele>1794.7</ele>
        <time>2021-12-22T15:01:35Z</time>
      </trkpt>
      <trkpt lat="44.90642" lon="6.8274">
        <ele>1794</ele>
        <time>2021-12-22T15:01:37Z</time>
      </trkpt>
      <trkpt lat="44.90646" lon="6.82746">
        <ele>1792.4</ele>
        <time>2021-12-22T15:01:39Z</time>
      </trkpt>
      <trkpt lat="44.90646" lon="6.82756">
        <ele>1790.5</ele>
        <time>2021-12-22T15:01:41Z</time>
      </trkpt>
      <trkpt lat="44.90642" lon="6.82763">
        <ele>1787.8</ele>
        <time>2021-12-22T15:01:43Z</time>
      </trkpt>
      <trkpt lat="44.90636" lon="6.82768">
        <ele>1785.1</ele>
        <time>2021-12-22T15:01:45Z</time>
      </trkpt>
      <trkpt lat="44.90632" lon="6.82773">
        <ele>1783</ele>
        <time>2021-12-22T15:01:47Z</time>
      </trkpt>
      <trkpt lat="44.90626" lon="6.82777">
        <ele>1780.9</ele>
        <time>2021-12-22T15:01:49Z</time>
      </trkpt>
      <trkpt lat="44.9062" lon="6.8278">
        <ele>1777.9</ele>
        <time>2021-12-22T15:01:51Z</time>
      </trkpt>
      <trkpt lat="44.90615" lon="6.82782">
        <ele>1776.2</ele>
        <time>2021-12-22T15:01:53Z</time>
      </trkpt>
      <trkpt lat="44.9061" lon="6.82786">
        <ele>1773.9</ele>
        <time>2021-12-22T15:01:55Z</time>
      </trkpt>
      <trkpt lat="44.90606" lon="6.82792">
        <ele>1772.9</ele>
        <time>2021-12-22T15:01:57Z</time>
      </trkpt>
      <trkpt lat="44.90602" lon="6.828">
        <ele>1771.8</ele>
        <time>2021-12-22T15:01:59Z</time>
      </trkpt>
      <trkpt lat="44.90597" lon="6.82808">
        <ele>1771.4</ele>
        <time>2021-12-22T15:02:01Z</time>
      </trkpt>
      <trkpt lat="44.90593" lon="6.82815">
        <ele>1770.2</ele>
        <time>2021-12-22T15:02:03Z</time>
      </trkpt>
      <trkpt lat="44.90589" lon="6.82821">
        <ele>1770.1</ele>
        <time>2021-12-22T15:02:05Z</time>
      </trkpt>
      <trkpt lat="44.90586" lon="6.82828">
        <ele>1770.3</ele>
        <time>2021-12-22T15:02:07Z</time>
      </trkpt>
      <trkpt lat="44.90583" lon="6.82834">
        <ele>1770.1</ele>
        <time>2021-12-22T15:02:09Z</time>
      </trkpt>
      <trkpt lat="44.90582" lon="6.8284">
        <ele>1769.3</ele>
        <time>2021-12-22T15:02:11Z</time>
      </trkpt>
      <trkpt lat="44.9058" lon="6.82847">
        <ele>1767.7</ele>
        <time>2021-12-22T15:02:13Z</time>
      </trkpt>
      <trkpt lat="44.90579" lon="6.82856">
        <ele>1765.2</ele>
        <time>2021-12-22T15:02:16Z</time>
      </trkpt>
      <trkpt lat="44.90578" lon="6.82864">
        <ele>1764.3</ele>
        <time>2021-12-22T15:02:18Z</time>
      </trkpt>
      <trkpt lat="44.90575" lon="6.82871">
        <ele>1762.7</ele>
        <time>2021-12-22T15:02:20Z</time>
      </trkpt>
      <trkpt lat="44.90573" lon="6.82879">
        <ele>1762</ele>
        <time>2021-12-22T15:02:22Z</time>
      </trkpt>
      <trkpt lat="44.90569" lon="6.82887">
        <ele>1760.4</ele>
        <time>2021-12-22T15:02:24Z</time>
      </trkpt>
      <trkpt lat="44.90565" lon="6.82897">
        <ele>1759.6</ele>
        <time>2021-12-22T15:02:26Z</time>
      </trkpt>
      <trkpt lat="44.90563" lon="6.82901">
        <ele>1759.7</ele>
        <time>2021-12-22T15:02:27Z</time>
      </trkpt>
      <trkpt lat="44.90561" lon="6.82902">
        <ele>1760.1</ele>
        <time>2021-12-22T15:02:28Z</time>
      </trkpt>
      <trkpt lat="44.90561" lon="6.82902">
        <ele>1760.4</ele>
        <time>2021-12-22T15:02:33Z</time>
      </trkpt>
      <trkpt lat="44.90564" lon="6.82907">
        <ele>1760.9</ele>
        <time>2021-12-22T15:02:34Z</time>
      </trkpt>
      <trkpt lat="44.90564" lon="6.82909">
        <ele>1760.7</ele>
        <time>2021-12-22T15:02:35Z</time>
      </trkpt>
      <trkpt lat="44.90564" lon="6.8291">
        <ele>1760.4</ele>
        <time>2021-12-22T15:03:41Z</time>
      </trkpt>
      <trkpt lat="44.90566" lon="6.82912">
        <ele>1761.2</ele>
        <time>2021-12-22T15:03:42Z</time>
      </trkpt>
      <trkpt lat="44.90571" lon="6.82911">
        <ele>1760.6</ele>
        <time>2021-12-22T15:03:44Z</time>
      </trkpt>
      <trkpt lat="44.90576" lon="6.82909">
        <ele>1759.7</ele>
        <time>2021-12-22T15:03:46Z</time>
      </trkpt>
      <trkpt lat="44.90581" lon="6.82907">
        <ele>1758.8</ele>
        <time>2021-12-22T15:03:48Z</time>
      </trkpt>
      <trkpt lat="44.90587" lon="6.82905">
        <ele>1758</ele>
        <time>2021-12-22T15:03:50Z</time>
      </trkpt>
      <trkpt lat="44.90593" lon="6.82903">
        <ele>1756.7</ele>
        <time>2021-12-22T15:03:53Z</time>
      </trkpt>
      <trkpt lat="44.90597" lon="6.82902">
        <ele>1756.3</ele>
        <time>2021-12-22T15:03:55Z</time>
      </trkpt>
      <trkpt lat="44.90603" lon="6.82901">
        <ele>1755.4</ele>
        <time>2021-12-22T15:03:57Z</time>
      </trkpt>
      <trkpt lat="44.90608" lon="6.82901">
        <ele>1754.7</ele>
        <time>2021-12-22T15:03:59Z</time>
      </trkpt>
      <trkpt lat="44.90614" lon="6.82903">
        <ele>1752.9</ele>
        <time>2021-12-22T15:04:02Z</time>
      </trkpt>
      <trkpt lat="44.90618" lon="6.82904">
        <ele>1751.8</ele>
        <time>2021-12-22T15:04:04Z</time>
      </trkpt>
      <trkpt lat="44.90623" lon="6.82904">
        <ele>1750.1</ele>
        <time>2021-12-22T15:04:06Z</time>
      </trkpt>
      <trkpt lat="44.9063" lon="6.82901">
        <ele>1747</ele>
        <time>2021-12-22T15:04:09Z</time>
      </trkpt>
      <trkpt lat="44.90634" lon="6.82897">
        <ele>1745.5</ele>
        <time>2021-12-22T15:04:11Z</time>
      </trkpt>
      <trkpt lat="44.90637" lon="6.82892">
        <ele>1743.9</ele>
        <time>2021-12-22T15:04:13Z</time>
      </trkpt>
      <trkpt lat="44.9064" lon="6.82886">
        <ele>1742.2</ele>
        <time>2021-12-22T15:04:15Z</time>
      </trkpt>
      <trkpt lat="44.90643" lon="6.82882">
        <ele>1740.7</ele>
        <time>2021-12-22T15:04:17Z</time>
      </trkpt>
      <trkpt lat="44.90648" lon="6.82876">
        <ele>1737.4</ele>
        <time>2021-12-22T15:04:20Z</time>
      </trkpt>
      <trkpt lat="44.90653" lon="6.82874">
        <ele>1736.3</ele>
        <time>2021-12-22T15:04:22Z</time>
      </trkpt>
      <trkpt lat="44.90657" lon="6.82874">
        <ele>1735.6</ele>
        <time>2021-12-22T15:04:24Z</time>
      </trkpt>
      <trkpt lat="44.90662" lon="6.82878">
        <ele>1734.1</ele>
        <time>2021-12-22T15:04:27Z</time>
      </trkpt>
      <trkpt lat="44.90665" lon="6.8288">
        <ele>1732.5</ele>
        <time>2021-12-22T15:04:29Z</time>
      </trkpt>
      <trkpt lat="44.90666" lon="6.82879">
        <ele>1732.2</ele>
        <time>2021-12-22T15:04:30Z</time>
      </trkpt>
      <trkpt lat="44.90668" lon="6.82879">
        <ele>1731</ele>
        <time>2021-12-22T15:04:32Z</time>
      </trkpt>
      <trkpt lat="44.9067" lon="6.8288">
        <ele>1730.5</ele>
        <time>2021-12-22T15:04:33Z</time>
      </trkpt>
      <trkpt lat="44.90673" lon="6.82885">
        <ele>1729.7</ele>
        <time>2021-12-22T15:04:35Z</time>
      </trkpt>
      <trkpt lat="44.90674" lon="6.82886">
        <ele>1729.5</ele>
        <time>2021-12-22T15:04:36Z</time>
      </trkpt>
      <trkpt lat="44.90675" lon="6.82886">
        <ele>1728.8</ele>
        <time>2021-12-22T15:04:56Z</time>
      </trkpt>
      <trkpt lat="44.90678" lon="6.82884">
        <ele>1729</ele>
        <time>2021-12-22T15:04:57Z</time>
      </trkpt>
      <trkpt lat="44.90684" lon="6.82885">
        <ele>1728.7</ele>
        <time>2021-12-22T15:05:00Z</time>
      </trkpt>
      <trkpt lat="44.90691" lon="6.82884">
        <ele>1728.4</ele>
        <time>2021-12-22T15:05:03Z</time>
      </trkpt>
      <trkpt lat="44.90696" lon="6.82886">
        <ele>1727.8</ele>
        <time>2021-12-22T15:05:06Z</time>
      </trkpt>
      <trkpt lat="44.90699" lon="6.82892">
        <ele>1727.2</ele>
        <time>2021-12-22T15:05:09Z</time>
      </trkpt>
      <trkpt lat="44.90696" lon="6.82898">
        <ele>1727</ele>
        <time>2021-12-22T15:05:11Z</time>
      </trkpt>
      <trkpt lat="44.9069" lon="6.82907">
        <ele>1726.6</ele>
        <time>2021-12-22T15:05:13Z</time>
      </trkpt>
      <trkpt lat="44.90687" lon="6.82912">
        <ele>1726.2</ele>
        <time>2021-12-22T15:05:14Z</time>
      </trkpt>
      <trkpt lat="44.90683" lon="6.82917">
        <ele>1725.4</ele>
        <time>2021-12-22T15:05:15Z</time>
      </trkpt>
      <trkpt lat="44.90679" lon="6.82922">
        <ele>1724.9</ele>
        <time>2021-12-22T15:05:16Z</time>
      </trkpt>
      <trkpt lat="44.90674" lon="6.82928">
        <ele>1723.7</ele>
        <time>2021-12-22T15:05:17Z</time>
      </trkpt>
      <trkpt lat="44.9067" lon="6.82933">
        <ele>1722.4</ele>
        <time>2021-12-22T15:05:18Z</time>
      </trkpt>
      <trkpt lat="44.90667" lon="6.82938">
        <ele>1721</ele>
        <time>2021-12-22T15:05:19Z</time>
      </trkpt>
      <trkpt lat="44.90661" lon="6.82946">
        <ele>1718.3</ele>
        <time>2021-12-22T15:05:21Z</time>
      </trkpt>
      <trkpt lat="44.90658" lon="6.82951">
        <ele>1717.2</ele>
        <time>2021-12-22T15:05:23Z</time>
      </trkpt>
      <trkpt lat="44.90658" lon="6.82952">
        <ele>1716.3</ele>
        <time>2021-12-22T15:05:24Z</time>
      </trkpt>
      <trkpt lat="44.90657" lon="6.82953">
        <ele>1714.8</ele>
        <time>2021-12-22T15:06:13Z</time>
      </trkpt>
      <trkpt lat="44.90657" lon="6.82968">
        <ele>1716.1</ele>
        <time>2021-12-22T15:06:14Z</time>
      </trkpt>
      <trkpt lat="44.90654" lon="6.82976">
        <ele>1716.3</ele>
        <time>2021-12-22T15:06:17Z</time>
      </trkpt>
      <trkpt lat="44.90651" lon="6.82982">
        <ele>1716.4</ele>
        <time>2021-12-22T15:06:19Z</time>
      </trkpt>
      <trkpt lat="44.90647" lon="6.82987">
        <ele>1716.1</ele>
        <time>2021-12-22T15:06:21Z</time>
      </trkpt>
      <trkpt lat="44.90643" lon="6.82993">
        <ele>1715.9</ele>
        <time>2021-12-22T15:06:23Z</time>
      </trkpt>
      <trkpt lat="44.9064" lon="6.83">
        <ele>1715.7</ele>
        <time>2021-12-22T15:06:25Z</time>
      </trkpt>
      <trkpt lat="44.90636" lon="6.83006">
        <ele>1715.5</ele>
        <time>2021-12-22T15:06:27Z</time>
      </trkpt>
      <trkpt lat="44.90632" lon="6.83014">
        <ele>1714.9</ele>
        <time>2021-12-22T15:06:29Z</time>
      </trkpt>
      <trkpt lat="44.90628" lon="6.83021">
        <ele>1715.3</ele>
        <time>2021-12-22T15:06:31Z</time>
      </trkpt>
      <trkpt lat="44.90626" lon="6.83027">
        <ele>1715.4</ele>
        <time>2021-12-22T15:06:33Z</time>
      </trkpt>
      <trkpt lat="44.90624" lon="6.83034">
        <ele>1714.9</ele>
        <time>2021-12-22T15:06:35Z</time>
      </trkpt>
      <trkpt lat="44.90624" lon="6.83041">
        <ele>1712.8</ele>
        <time>2021-12-22T15:06:37Z</time>
      </trkpt>
      <trkpt lat="44.90629" lon="6.83043">
        <ele>1710.5</ele>
        <time>2021-12-22T15:06:40Z</time>
      </trkpt>
      <trkpt lat="44.90633" lon="6.8304">
        <ele>1711</ele>
        <time>2021-12-22T15:06:42Z</time>
      </trkpt>
      <trkpt lat="44.90639" lon="6.83036">
        <ele>1710.9</ele>
        <time>2021-12-22T15:06:45Z</time>
      </trkpt>
      <trkpt lat="44.90645" lon="6.83033">
        <ele>1708.1</ele>
        <time>2021-12-22T15:06:48Z</time>
      </trkpt>
      <trkpt lat="44.90649" lon="6.83031">
        <ele>1705.8</ele>
        <time>2021-12-22T15:06:51Z</time>
      </trkpt>
      <trkpt lat="44.90655" lon="6.8303">
        <ele>1704.5</ele>
        <time>2021-12-22T15:06:54Z</time>
      </trkpt>
      <trkpt lat="44.90659" lon="6.8303">
        <ele>1704.5</ele>
        <time>2021-12-22T15:06:57Z</time>
      </trkpt>
      <trkpt lat="44.90665" lon="6.83028">
        <ele>1703.1</ele>
        <time>2021-12-22T15:07:01Z</time>
      </trkpt>
      <trkpt lat="44.9067" lon="6.83025">
        <ele>1701.8</ele>
        <time>2021-12-22T15:07:04Z</time>
      </trkpt>
      <trkpt lat="44.90676" lon="6.83022">
        <ele>1700.3</ele>
        <time>2021-12-22T15:07:07Z</time>
      </trkpt>
      <trkpt lat="44.90681" lon="6.8302">
        <ele>1699.2</ele>
        <time>2021-12-22T15:07:10Z</time>
      </trkpt>
      <trkpt lat="44.90685" lon="6.83018">
        <ele>1698.5</ele>
        <time>2021-12-22T15:07:13Z</time>
      </trkpt>
      <trkpt lat="44.9069" lon="6.83016">
        <ele>1697.9</ele>
        <time>2021-12-22T15:07:16Z</time>
      </trkpt>
      <trkpt lat="44.90695" lon="6.83017">
        <ele>1697.4</ele>
        <time>2021-12-22T15:07:19Z</time>
      </trkpt>
      <trkpt lat="44.90701" lon="6.83017">
        <ele>1696.4</ele>
        <time>2021-12-22T15:07:22Z</time>
      </trkpt>
      <trkpt lat="44.90706" lon="6.83013">
        <ele>1695.2</ele>
        <time>2021-12-22T15:07:25Z</time>
      </trkpt>
      <trkpt lat="44.9071" lon="6.83007">
        <ele>1693.7</ele>
        <time>2021-12-22T15:07:28Z</time>
      </trkpt>
      <trkpt lat="44.90714" lon="6.83001">
        <ele>1692.3</ele>
        <time>2021-12-22T15:07:31Z</time>
      </trkpt>
      <trkpt lat="44.9072" lon="6.83003">
        <ele>1691.4</ele>
        <time>2021-12-22T15:07:33Z</time>
      </trkpt>
      <trkpt lat="44.90725" lon="6.83012">
        <ele>1690</ele>
        <time>2021-12-22T15:07:35Z</time>
      </trkpt>
      <trkpt lat="44.90726" lon="6.83024">
        <ele>1689.1</ele>
        <time>2021-12-22T15:07:37Z</time>
      </trkpt>
      <trkpt lat="44.90725" lon="6.8303">
        <ele>1688.4</ele>
        <time>2021-12-22T15:07:39Z</time>
      </trkpt>
      <trkpt lat="44.90725" lon="6.83031">
        <ele>1688.5</ele>
        <time>2021-12-22T15:07:40Z</time>
      </trkpt>
      <trkpt lat="44.90725" lon="6.83032">
        <ele>1687.5</ele>
        <time>2021-12-22T15:07:59Z</time>
      </trkpt>
      <trkpt lat="44.90718" lon="6.8304">
        <ele>1685.2</ele>
        <time>2021-12-22T15:08:00Z</time>
      </trkpt>
      <trkpt lat="44.90717" lon="6.83041">
        <ele>1685.2</ele>
        <time>2021-12-22T15:08:01Z</time>
      </trkpt>
      <trkpt lat="44.90716" lon="6.83042">
        <ele>1685.3</ele>
        <time>2021-12-22T15:08:25Z</time>
      </trkpt>
      <trkpt lat="44.90715" lon="6.83052">
        <ele>1685.7</ele>
        <time>2021-12-22T15:08:26Z</time>
      </trkpt>
      <trkpt lat="44.90712" lon="6.83058">
        <ele>1685.6</ele>
        <time>2021-12-22T15:08:29Z</time>
      </trkpt>
      <trkpt lat="44.9071" lon="6.83062">
        <ele>1685.9</ele>
        <time>2021-12-22T15:08:31Z</time>
      </trkpt>
      <trkpt lat="44.9071" lon="6.83063">
        <ele>1686</ele>
        <time>2021-12-22T15:08:32Z</time>
      </trkpt>
      <trkpt lat="44.90709" lon="6.83065">
        <ele>1686</ele>
        <time>2021-12-22T15:08:33Z</time>
      </trkpt>
      <trkpt lat="44.90708" lon="6.83067">
        <ele>1686.1</ele>
        <time>2021-12-22T15:08:34Z</time>
      </trkpt>
      <trkpt lat="44.90706" lon="6.83074">
        <ele>1686.7</ele>
        <time>2021-12-22T15:08:38Z</time>
      </trkpt>
      <trkpt lat="44.90704" lon="6.83081">
        <ele>1686.7</ele>
        <time>2021-12-22T15:08:42Z</time>
      </trkpt>
      <trkpt lat="44.90702" lon="6.83088">
        <ele>1687.1</ele>
        <time>2021-12-22T15:08:46Z</time>
      </trkpt>
      <trkpt lat="44.90698" lon="6.83094">
        <ele>1687</ele>
        <time>2021-12-22T15:08:50Z</time>
      </trkpt>
      <trkpt lat="44.90694" lon="6.83099">
        <ele>1687.1</ele>
        <time>2021-12-22T15:08:53Z</time>
      </trkpt>
      <trkpt lat="44.90691" lon="6.83101">
        <ele>1687.1</ele>
        <time>2021-12-22T15:08:55Z</time>
      </trkpt>
      <trkpt lat="44.90691" lon="6.83102">
        <ele>1687.2</ele>
        <time>2021-12-22T15:08:56Z</time>
      </trkpt>
      <trkpt lat="44.9069" lon="6.83102">
        <ele>1687.1</ele>
        <time>2021-12-22T15:09:33Z</time>
      </trkpt>
      <trkpt lat="44.90687" lon="6.83104">
        <ele>1686.7</ele>
        <time>2021-12-22T15:09:34Z</time>
      </trkpt>
      <trkpt lat="44.90683" lon="6.83108">
        <ele>1686.7</ele>
        <time>2021-12-22T15:09:37Z</time>
      </trkpt>
      <trkpt lat="44.90677" lon="6.83111">
        <ele>1686.7</ele>
        <time>2021-12-22T15:09:40Z</time>
      </trkpt>
      <trkpt lat="44.90673" lon="6.83114">
        <ele>1686.1</ele>
        <time>2021-12-22T15:09:42Z</time>
      </trkpt>
      <trkpt lat="44.90668" lon="6.83115">
        <ele>1685.1</ele>
        <time>2021-12-22T15:09:44Z</time>
      </trkpt>
      <trkpt lat="44.90663" lon="6.83117">
        <ele>1683.5</ele>
        <time>2021-12-22T15:09:46Z</time>
      </trkpt>
      <trkpt lat="44.90659" lon="6.8312">
        <ele>1681.7</ele>
        <time>2021-12-22T15:09:48Z</time>
      </trkpt>
      <trkpt lat="44.90654" lon="6.83124">
        <ele>1678.8</ele>
        <time>2021-12-22T15:09:51Z</time>
      </trkpt>
      <trkpt lat="44.90651" lon="6.83129">
        <ele>1677.9</ele>
        <time>2021-12-22T15:09:53Z</time>
      </trkpt>
      <trkpt lat="44.90648" lon="6.83135">
        <ele>1677.9</ele>
        <time>2021-12-22T15:09:55Z</time>
      </trkpt>
      <trkpt lat="44.90646" lon="6.83141">
        <ele>1678.6</ele>
        <time>2021-12-22T15:09:57Z</time>
      </trkpt>
      <trkpt lat="44.90643" lon="6.83147">
        <ele>1678.1</ele>
        <time>2021-12-22T15:09:59Z</time>
      </trkpt>
      <trkpt lat="44.9064" lon="6.83154">
        <ele>1676.9</ele>
        <time>2021-12-22T15:10:01Z</time>
      </trkpt>
      <trkpt lat="44.90638" lon="6.8316">
        <ele>1675.7</ele>
        <time>2021-12-22T15:10:03Z</time>
      </trkpt>
      <trkpt lat="44.90635" lon="6.83166">
        <ele>1674.6</ele>
        <time>2021-12-22T15:10:06Z</time>
      </trkpt>
      <trkpt lat="44.90632" lon="6.83171">
        <ele>1673.7</ele>
        <time>2021-12-22T15:10:08Z</time>
      </trkpt>
      <trkpt lat="44.90629" lon="6.83178">
        <ele>1672.2</ele>
        <time>2021-12-22T15:10:10Z</time>
      </trkpt>
      <trkpt lat="44.90625" lon="6.83185">
        <ele>1671.2</ele>
        <time>2021-12-22T15:10:12Z</time>
      </trkpt>
      <trkpt lat="44.90623" lon="6.83193">
        <ele>1670.8</ele>
        <time>2021-12-22T15:10:14Z</time>
      </trkpt>
      <trkpt lat="44.90621" lon="6.832">
        <ele>1669.9</ele>
        <time>2021-12-22T15:10:16Z</time>
      </trkpt>
      <trkpt lat="44.90622" lon="6.83206">
        <ele>1669.7</ele>
        <time>2021-12-22T15:10:18Z</time>
      </trkpt>
      <trkpt lat="44.90622" lon="6.83214">
        <ele>1667.8</ele>
        <time>2021-12-22T15:10:21Z</time>
      </trkpt>
      <trkpt lat="44.90623" lon="6.83222">
        <ele>1666.3</ele>
        <time>2021-12-22T15:10:24Z</time>
      </trkpt>
      <trkpt lat="44.90624" lon="6.83231">
        <ele>1665.2</ele>
        <time>2021-12-22T15:10:27Z</time>
      </trkpt>
      <trkpt lat="44.90622" lon="6.83239">
        <ele>1665.6</ele>
        <time>2021-12-22T15:10:30Z</time>
      </trkpt>
      <trkpt lat="44.9062" lon="6.83246">
        <ele>1667.2</ele>
        <time>2021-12-22T15:10:34Z</time>
      </trkpt>
      <trkpt lat="44.90616" lon="6.83253">
        <ele>1667.5</ele>
        <time>2021-12-22T15:10:38Z</time>
      </trkpt>
      <trkpt lat="44.90613" lon="6.83258">
        <ele>1668.4</ele>
        <time>2021-12-22T15:10:42Z</time>
      </trkpt>
      <trkpt lat="44.90613" lon="6.83265">
        <ele>1668</ele>
        <time>2021-12-22T15:10:45Z</time>
      </trkpt>
      <trkpt lat="44.90613" lon="6.83269">
        <ele>1667.9</ele>
        <time>2021-12-22T15:10:47Z</time>
      </trkpt>
      <trkpt lat="44.90613" lon="6.83269">
        <ele>1667.5</ele>
        <time>2021-12-22T15:10:48Z</time>
      </trkpt>
      <trkpt lat="44.90613" lon="6.83269">
        <ele>1667.6</ele>
        <time>2021-12-22T15:11:09Z</time>
      </trkpt>
      <trkpt lat="44.90613" lon="6.83282">
        <ele>1669.7</ele>
        <time>2021-12-22T15:11:10Z</time>
      </trkpt>
      <trkpt lat="44.90613" lon="6.83283">
        <ele>1669.8</ele>
        <time>2021-12-22T15:11:11Z</time>
      </trkpt>
      <trkpt lat="44.90614" lon="6.83285">
        <ele>1670</ele>
        <time>2021-12-22T15:11:17Z</time>
      </trkpt>
      <trkpt lat="44.90613" lon="6.83291">
        <ele>1670.4</ele>
        <time>2021-12-22T15:11:18Z</time>
      </trkpt>
      <trkpt lat="44.90613" lon="6.83296">
        <ele>1670.3</ele>
        <time>2021-12-22T15:11:22Z</time>
      </trkpt>
      <trkpt lat="44.90613" lon="6.83298">
        <ele>1670.2</ele>
        <time>2021-12-22T15:11:23Z</time>
      </trkpt>
      <trkpt lat="44.90613" lon="6.83299">
        <ele>1670.2</ele>
        <time>2021-12-22T15:11:24Z</time>
      </trkpt>
      <trkpt lat="44.90613" lon="6.833">
        <ele>1670.1</ele>
        <time>2021-12-22T15:11:25Z</time>
      </trkpt>
      <trkpt lat="44.90613" lon="6.83304">
        <ele>1670.1</ele>
        <time>2021-12-22T15:11:27Z</time>
      </trkpt>
      <trkpt lat="44.90613" lon="6.83306">
        <ele>1670.2</ele>
        <time>2021-12-22T15:11:28Z</time>
      </trkpt>
      <trkpt lat="44.90614" lon="6.83307">
        <ele>1670.2</ele>
        <time>2021-12-22T15:11:29Z</time>
      </trkpt>
      <trkpt lat="44.90614" lon="6.83309">
        <ele>1670.1</ele>
        <time>2021-12-22T15:11:30Z</time>
      </trkpt>
      <trkpt lat="44.90614" lon="6.83313">
        <ele>1669.9</ele>
        <time>2021-12-22T15:11:33Z</time>
      </trkpt>
      <trkpt lat="44.90614" lon="6.83314">
        <ele>1669.7</ele>
        <time>2021-12-22T15:11:34Z</time>
      </trkpt>
      <trkpt lat="44.90614" lon="6.83316">
        <ele>1669.8</ele>
        <time>2021-12-22T15:11:49Z</time>
      </trkpt>
      <trkpt lat="44.90616" lon="6.83329">
        <ele>1669.9</ele>
        <time>2021-12-22T15:11:50Z</time>
      </trkpt>
      <trkpt lat="44.90616" lon="6.83331">
        <ele>1669.9</ele>
        <time>2021-12-22T15:11:51Z</time>
      </trkpt>
      <trkpt lat="44.90616" lon="6.83332">
        <ele>1669.8</ele>
        <time>2021-12-22T15:13:25Z</time>
      </trkpt>
      <trkpt lat="44.90617" lon="6.83335">
        <ele>1669.9</ele>
        <time>2021-12-22T15:13:26Z</time>
      </trkpt>
      <trkpt lat="44.90617" lon="6.83336">
        <ele>1669.9</ele>
        <time>2021-12-22T15:13:27Z</time>
      </trkpt>
      <trkpt lat="44.90617" lon="6.83338">
        <ele>1670</ele>
        <time>2021-12-22T15:13:28Z</time>
      </trkpt>
      <trkpt lat="44.90618" lon="6.8334">
        <ele>1670.1</ele>
        <time>2021-12-22T15:13:40Z</time>
      </trkpt>
      <trkpt lat="44.90624" lon="6.83352">
        <ele>1669.5</ele>
        <time>2021-12-22T15:13:41Z</time>
      </trkpt>
      <trkpt lat="44.90624" lon="6.83353">
        <ele>1669.5</ele>
        <time>2021-12-22T15:13:42Z</time>
      </trkpt>
      <trkpt lat="44.90625" lon="6.83354">
        <ele>1669.6</ele>
        <time>2021-12-22T15:13:44Z</time>
      </trkpt>
      <trkpt lat="44.90626" lon="6.83356">
        <ele>1669.6</ele>
        <time>2021-12-22T15:13:45Z</time>
      </trkpt>
      <trkpt lat="44.90627" lon="6.83356">
        <ele>1669.6</ele>
        <time>2021-12-22T15:13:46Z</time>
      </trkpt>
      <trkpt lat="44.90627" lon="6.83357">
        <ele>1669.6</ele>
        <time>2021-12-22T15:13:47Z</time>
      </trkpt>
      <trkpt lat="44.90628" lon="6.83358">
        <ele>1669.6</ele>
        <time>2021-12-22T15:13:48Z</time>
      </trkpt>
      <trkpt lat="44.90629" lon="6.83359">
        <ele>1669.6</ele>
        <time>2021-12-22T15:13:49Z</time>
      </trkpt>
      <trkpt lat="44.9063" lon="6.8336">
        <ele>1669.8</ele>
        <time>2021-12-22T15:14:14Z</time>
      </trkpt>
      <trkpt lat="44.90638" lon="6.83365">
        <ele>1669.5</ele>
        <time>2021-12-22T15:14:15Z</time>
      </trkpt>
      <trkpt lat="44.90638" lon="6.83365">
        <ele>1669.5</ele>
        <time>2021-12-22T15:14:16Z</time>
      </trkpt>
      <trkpt lat="44.90638" lon="6.83366">
        <ele>1669.4</ele>
        <time>2021-12-22T15:14:24Z</time>
      </trkpt>
      <trkpt lat="44.90644" lon="6.83364">
        <ele>1669.8</ele>
        <time>2021-12-22T15:14:25Z</time>
      </trkpt>
      <trkpt lat="44.90646" lon="6.83364">
        <ele>1670.2</ele>
        <time>2021-12-22T15:14:27Z</time>
      </trkpt>
      <trkpt lat="44.90647" lon="6.83363">
        <ele>1670</ele>
        <time>2021-12-22T15:14:28Z</time>
      </trkpt>
      <trkpt lat="44.90648" lon="6.83363">
        <ele>1670</ele>
        <time>2021-12-22T15:18:07Z</time>
      </trkpt>
      <trkpt lat="44.90652" lon="6.83362">
        <ele>1672.1</ele>
        <time>2021-12-22T15:18:08Z</time>
      </trkpt>
      <trkpt lat="44.90657" lon="6.83358">
        <ele>1672.2</ele>
        <time>2021-12-22T15:18:11Z</time>
      </trkpt>
      <trkpt lat="44.90662" lon="6.83355">
        <ele>1672.6</ele>
        <time>2021-12-22T15:18:15Z</time>
      </trkpt>
      <trkpt lat="44.90666" lon="6.83353">
        <ele>1672.4</ele>
        <time>2021-12-22T15:18:18Z</time>
      </trkpt>
      <trkpt lat="44.90671" lon="6.83351">
        <ele>1672.4</ele>
        <time>2021-12-22T15:18:21Z</time>
      </trkpt>
      <trkpt lat="44.90676" lon="6.83348">
        <ele>1672.4</ele>
        <time>2021-12-22T15:18:25Z</time>
      </trkpt>
      <trkpt lat="44.90681" lon="6.83346">
        <ele>1672.9</ele>
        <time>2021-12-22T15:18:28Z</time>
      </trkpt>
      <trkpt lat="44.90686" lon="6.83342">
        <ele>1673.3</ele>
        <time>2021-12-22T15:18:31Z</time>
      </trkpt>
      <trkpt lat="44.9069" lon="6.83339">
        <ele>1673.6</ele>
        <time>2021-12-22T15:18:34Z</time>
      </trkpt>
      <trkpt lat="44.90691" lon="6.83337">
        <ele>1673.8</ele>
        <time>2021-12-22T15:18:36Z</time>
      </trkpt>
      <trkpt lat="44.90692" lon="6.83336">
        <ele>1673.8</ele>
        <time>2021-12-22T15:18:37Z</time>
      </trkpt>
      <trkpt lat="44.90693" lon="6.83335">
        <ele>1673.7</ele>
        <time>2021-12-22T15:18:38Z</time>
      </trkpt>
      <trkpt lat="44.90693" lon="6.83334">
        <ele>1673.8</ele>
        <time>2021-12-22T15:18:39Z</time>
      </trkpt>
      <trkpt lat="44.90694" lon="6.83333">
        <ele>1673.8</ele>
        <time>2021-12-22T15:18:40Z</time>
      </trkpt>
      <trkpt lat="44.90694" lon="6.83332">
        <ele>1673.8</ele>
        <time>2021-12-22T15:18:41Z</time>
      </trkpt>
      <trkpt lat="44.90694" lon="6.8333">
        <ele>1673.8</ele>
        <time>2021-12-22T15:18:42Z</time>
      </trkpt>
      <trkpt lat="44.90695" lon="6.83329">
        <ele>1673.7</ele>
        <time>2021-12-22T15:18:43Z</time>
      </trkpt>
      <trkpt lat="44.90695" lon="6.83322">
        <ele>1673.1</ele>
        <time>2021-12-22T15:18:47Z</time>
      </trkpt>
      <trkpt lat="44.90694" lon="6.83314">
        <ele>1672.3</ele>
        <time>2021-12-22T15:18:51Z</time>
      </trkpt>
      <trkpt lat="44.90694" lon="6.83307">
        <ele>1671.9</ele>
        <time>2021-12-22T15:18:54Z</time>
      </trkpt>
      <trkpt lat="44.90694" lon="6.833">
        <ele>1672.2</ele>
        <time>2021-12-22T15:18:57Z</time>
      </trkpt>
      <trkpt lat="44.90693" lon="6.83292">
        <ele>1671.5</ele>
        <time>2021-12-22T15:19:00Z</time>
      </trkpt>
      <trkpt lat="44.90693" lon="6.83283">
        <ele>1671.1</ele>
        <time>2021-12-22T15:19:03Z</time>
      </trkpt>
      <trkpt lat="44.90695" lon="6.83275">
        <ele>1671.5</ele>
        <time>2021-12-22T15:19:05Z</time>
      </trkpt>
      <trkpt lat="44.907" lon="6.83269">
        <ele>1671.1</ele>
        <time>2021-12-22T15:19:07Z</time>
      </trkpt>
      <trkpt lat="44.90705" lon="6.83264">
        <ele>1670.8</ele>
        <time>2021-12-22T15:19:09Z</time>
      </trkpt>
      <trkpt lat="44.90711" lon="6.8326">
        <ele>1670</ele>
        <time>2021-12-22T15:19:11Z</time>
      </trkpt>
      <trkpt lat="44.90717" lon="6.83257">
        <ele>1669</ele>
        <time>2021-12-22T15:19:13Z</time>
      </trkpt>
      <trkpt lat="44.90722" lon="6.83255">
        <ele>1667.6</ele>
        <time>2021-12-22T15:19:15Z</time>
      </trkpt>
      <trkpt lat="44.90727" lon="6.83255">
        <ele>1666</ele>
        <time>2021-12-22T15:19:17Z</time>
      </trkpt>
      <trkpt lat="44.90732" lon="6.83255">
        <ele>1665</ele>
        <time>2021-12-22T15:19:19Z</time>
      </trkpt>
      <trkpt lat="44.90737" lon="6.83254">
        <ele>1665.3</ele>
        <time>2021-12-22T15:19:23Z</time>
      </trkpt>
      <trkpt lat="44.90738" lon="6.83254">
        <ele>1665.1</ele>
        <time>2021-12-22T15:19:24Z</time>
      </trkpt>
      <trkpt lat="44.90739" lon="6.83254">
        <ele>1665.2</ele>
        <time>2021-12-22T15:19:25Z</time>
      </trkpt>
      <trkpt lat="44.9074" lon="6.83254">
        <ele>1665.3</ele>
        <time>2021-12-22T15:19:28Z</time>
      </trkpt>
      <trkpt lat="44.90742" lon="6.83254">
        <ele>1665.4</ele>
        <time>2021-12-22T15:19:29Z</time>
      </trkpt>
      <trkpt lat="44.90744" lon="6.83254">
        <ele>1665.3</ele>
        <time>2021-12-22T15:19:30Z</time>
      </trkpt>
      <trkpt lat="44.90745" lon="6.83254">
        <ele>1665.3</ele>
        <time>2021-12-22T15:19:31Z</time>
      </trkpt>
      <trkpt lat="44.90746" lon="6.83254">
        <ele>1665.3</ele>
        <time>2021-12-22T15:19:35Z</time>
      </trkpt>
      <trkpt lat="44.90749" lon="6.83255">
        <ele>1666.7</ele>
        <time>2021-12-22T15:19:36Z</time>
      </trkpt>
      <trkpt lat="44.90754" lon="6.83251">
        <ele>1665.6</ele>
        <time>2021-12-22T15:19:39Z</time>
      </trkpt>
      <trkpt lat="44.90758" lon="6.83248">
        <ele>1665.7</ele>
        <time>2021-12-22T15:19:42Z</time>
      </trkpt>
      <trkpt lat="44.90762" lon="6.83245">
        <ele>1666.3</ele>
        <time>2021-12-22T15:19:46Z</time>
      </trkpt>
      <trkpt lat="44.90763" lon="6.83245">
        <ele>1666.6</ele>
        <time>2021-12-22T15:19:47Z</time>
      </trkpt>
      <trkpt lat="44.90765" lon="6.83244">
        <ele>1666.7</ele>
        <time>2021-12-22T15:19:49Z</time>
      </trkpt>
      <trkpt lat="44.90766" lon="6.83243">
        <ele>1666.9</ele>
        <time>2021-12-22T15:19:50Z</time>
      </trkpt>
      <trkpt lat="44.90767" lon="6.83243">
        <ele>1667.1</ele>
        <time>2021-12-22T15:19:51Z</time>
      </trkpt>
      <trkpt lat="44.90768" lon="6.83242">
        <ele>1667.4</ele>
        <time>2021-12-22T15:19:55Z</time>
      </trkpt>
      <trkpt lat="44.90771" lon="6.8324">
        <ele>1667.8</ele>
        <time>2021-12-22T15:19:56Z</time>
      </trkpt>
      <trkpt lat="44.90777" lon="6.83235">
        <ele>1668.1</ele>
        <time>2021-12-22T15:20:00Z</time>
      </trkpt>
      <trkpt lat="44.90782" lon="6.83232">
        <ele>1668.5</ele>
        <time>2021-12-22T15:20:04Z</time>
      </trkpt>
      <trkpt lat="44.90787" lon="6.83228">
        <ele>1668.1</ele>
        <time>2021-12-22T15:20:09Z</time>
      </trkpt>
      <trkpt lat="44.90791" lon="6.83223">
        <ele>1668</ele>
        <time>2021-12-22T15:20:14Z</time>
      </trkpt>
      <trkpt lat="44.90794" lon="6.83217">
        <ele>1668.1</ele>
        <time>2021-12-22T15:20:18Z</time>
      </trkpt>
      <trkpt lat="44.90794" lon="6.83216">
        <ele>1668.3</ele>
        <time>2021-12-22T15:20:19Z</time>
      </trkpt>
      <trkpt lat="44.90795" lon="6.83215">
        <ele>1668.4</ele>
        <time>2021-12-22T15:20:20Z</time>
      </trkpt>
      <trkpt lat="44.90796" lon="6.83213">
        <ele>1668.6</ele>
        <time>2021-12-22T15:20:26Z</time>
      </trkpt>
      <trkpt lat="44.90798" lon="6.83208">
        <ele>1668.7</ele>
        <time>2021-12-22T15:20:27Z</time>
      </trkpt>
      <trkpt lat="44.90799" lon="6.83207">
        <ele>1668.8</ele>
        <time>2021-12-22T15:20:28Z</time>
      </trkpt>
      <trkpt lat="44.90799" lon="6.83205">
        <ele>1668.8</ele>
        <time>2021-12-22T15:20:29Z</time>
      </trkpt>
      <trkpt lat="44.908" lon="6.83204">
        <ele>1668.7</ele>
        <time>2021-12-22T15:20:30Z</time>
      </trkpt>
      <trkpt lat="44.908" lon="6.83202">
        <ele>1668.7</ele>
        <time>2021-12-22T15:20:31Z</time>
      </trkpt>
      <trkpt lat="44.90801" lon="6.83201">
        <ele>1668.7</ele>
        <time>2021-12-22T15:20:32Z</time>
      </trkpt>
      <trkpt lat="44.90802" lon="6.83199">
        <ele>1668.8</ele>
        <time>2021-12-22T15:20:33Z</time>
      </trkpt>
      <trkpt lat="44.90804" lon="6.83192">
        <ele>1668.5</ele>
        <time>2021-12-22T15:20:38Z</time>
      </trkpt>
      <trkpt lat="44.90805" lon="6.83187">
        <ele>1668.9</ele>
        <time>2021-12-22T15:20:42Z</time>
      </trkpt>
      <trkpt lat="44.90806" lon="6.83186">
        <ele>1669</ele>
        <time>2021-12-22T15:20:43Z</time>
      </trkpt>
      <trkpt lat="44.90806" lon="6.83184">
        <ele>1669.1</ele>
        <time>2021-12-22T15:20:44Z</time>
      </trkpt>
      <trkpt lat="44.90807" lon="6.83183">
        <ele>1669.3</ele>
        <time>2021-12-22T15:20:45Z</time>
      </trkpt>
      <trkpt lat="44.90811" lon="6.83178">
        <ele>1668.9</ele>
        <time>2021-12-22T15:20:50Z</time>
      </trkpt>
      <trkpt lat="44.90813" lon="6.83177">
        <ele>1668.8</ele>
        <time>2021-12-22T15:20:52Z</time>
      </trkpt>
      <trkpt lat="44.90814" lon="6.83176">
        <ele>1668.5</ele>
        <time>2021-12-22T15:20:53Z</time>
      </trkpt>
      <trkpt lat="44.90815" lon="6.83175">
        <ele>1668.4</ele>
        <time>2021-12-22T15:21:24Z</time>
      </trkpt>
      <trkpt lat="44.90822" lon="6.83167">
        <ele>1668.7</ele>
        <time>2021-12-22T15:21:25Z</time>
      </trkpt>
      <trkpt lat="44.90823" lon="6.83167">
        <ele>1668.7</ele>
        <time>2021-12-22T15:21:26Z</time>
      </trkpt>
      <trkpt lat="44.90824" lon="6.83165">
        <ele>1668.9</ele>
        <time>2021-12-22T15:21:35Z</time>
      </trkpt>
      <trkpt lat="44.90831" lon="6.8316">
        <ele>1668.8</ele>
        <time>2021-12-22T15:21:36Z</time>
      </trkpt>
      <trkpt lat="44.90831" lon="6.8316">
        <ele>1668.7</ele>
        <time>2021-12-22T15:21:37Z</time>
      </trkpt>
      <trkpt lat="44.90832" lon="6.83159">
        <ele>1668.8</ele>
        <time>2021-12-22T15:21:50Z</time>
      </trkpt>
      <trkpt lat="44.90841" lon="6.83154">
        <ele>1669.2</ele>
        <time>2021-12-22T15:21:51Z</time>
      </trkpt>
      <trkpt lat="44.90842" lon="6.83153">
        <ele>1669.2</ele>
        <time>2021-12-22T15:21:52Z</time>
      </trkpt>
      <trkpt lat="44.90843" lon="6.83153">
        <ele>1669.3</ele>
        <time>2021-12-22T15:21:53Z</time>
      </trkpt>
      <trkpt lat="44.90843" lon="6.83152">
        <ele>1669.4</ele>
        <time>2021-12-22T15:21:54Z</time>
      </trkpt>
      <trkpt lat="44.90844" lon="6.83151">
        <ele>1669.4</ele>
        <time>2021-12-22T15:21:55Z</time>
      </trkpt>
      <trkpt lat="44.90846" lon="6.8315">
        <ele>1669.6</ele>
        <time>2021-12-22T15:22:00Z</time>
      </trkpt>
      <trkpt lat="44.90849" lon="6.83147">
        <ele>1669.2</ele>
        <time>2021-12-22T15:22:01Z</time>
      </trkpt>
      <trkpt lat="44.90853" lon="6.83144">
        <ele>1668.4</ele>
        <time>2021-12-22T15:22:05Z</time>
      </trkpt>
      <trkpt lat="44.90855" lon="6.83142">
        <ele>1668.9</ele>
        <time>2021-12-22T15:22:07Z</time>
      </trkpt>
      <trkpt lat="44.90855" lon="6.83141">
        <ele>1669</ele>
        <time>2021-12-22T15:22:08Z</time>
      </trkpt>
      <trkpt lat="44.90856" lon="6.83139">
        <ele>1669.1</ele>
        <time>2021-12-22T15:22:14Z</time>
      </trkpt>
      <trkpt lat="44.90859" lon="6.83134">
        <ele>1669.5</ele>
        <time>2021-12-22T15:22:15Z</time>
      </trkpt>
      <trkpt lat="44.9086" lon="6.83133">
        <ele>1669.6</ele>
        <time>2021-12-22T15:22:16Z</time>
      </trkpt>
      <trkpt lat="44.90861" lon="6.83132">
        <ele>1669.9</ele>
        <time>2021-12-22T15:22:22Z</time>
      </trkpt>
      <trkpt lat="44.90864" lon="6.83127">
        <ele>1669.8</ele>
        <time>2021-12-22T15:22:23Z</time>
      </trkpt>
      <trkpt lat="44.90865" lon="6.83126">
        <ele>1669.6</ele>
        <time>2021-12-22T15:22:24Z</time>
      </trkpt>
      <trkpt lat="44.90866" lon="6.83125">
        <ele>1669.4</ele>
        <time>2021-12-22T15:22:25Z</time>
      </trkpt>
      <trkpt lat="44.90866" lon="6.83124">
        <ele>1669.3</ele>
        <time>2021-12-22T15:22:26Z</time>
      </trkpt>
      <trkpt lat="44.90867" lon="6.83123">
        <ele>1669.3</ele>
        <time>2021-12-22T15:22:27Z</time>
      </trkpt>
      <trkpt lat="44.9087" lon="6.83118">
        <ele>1668.6</ele>
        <time>2021-12-22T15:22:31Z</time>
      </trkpt>
      <trkpt lat="44.90873" lon="6.83113">
        <ele>1668.7</ele>
        <time>2021-12-22T15:22:35Z</time>
      </trkpt>
      <trkpt lat="44.90873" lon="6.83112">
        <ele>1669.3</ele>
        <time>2021-12-22T15:22:36Z</time>
      </trkpt>
      <trkpt lat="44.90873" lon="6.83111">
        <ele>1669.3</ele>
        <time>2021-12-22T15:22:37Z</time>
      </trkpt>
      <trkpt lat="44.90874" lon="6.8311">
        <ele>1669.4</ele>
        <time>2021-12-22T15:22:38Z</time>
      </trkpt>
      <trkpt lat="44.90876" lon="6.83104">
        <ele>1669.2</ele>
        <time>2021-12-22T15:22:42Z</time>
      </trkpt>
      <trkpt lat="44.9088" lon="6.83098">
        <ele>1669.2</ele>
        <time>2021-12-22T15:22:46Z</time>
      </trkpt>
      <trkpt lat="44.90882" lon="6.83092">
        <ele>1668.7</ele>
        <time>2021-12-22T15:22:49Z</time>
      </trkpt>
      <trkpt lat="44.90887" lon="6.83086">
        <ele>1668.1</ele>
        <time>2021-12-22T15:22:52Z</time>
      </trkpt>
      <trkpt lat="44.90891" lon="6.8308">
        <ele>1667.3</ele>
        <time>2021-12-22T15:22:55Z</time>
      </trkpt>
      <trkpt lat="44.90897" lon="6.83077">
        <ele>1666.6</ele>
        <time>2021-12-22T15:22:58Z</time>
      </trkpt>
      <trkpt lat="44.90903" lon="6.83076">
        <ele>1666</ele>
        <time>2021-12-22T15:23:01Z</time>
      </trkpt>
      <trkpt lat="44.90908" lon="6.83077">
        <ele>1665.5</ele>
        <time>2021-12-22T15:23:05Z</time>
      </trkpt>
      <trkpt lat="44.90913" lon="6.83077">
        <ele>1665.3</ele>
        <time>2021-12-22T15:23:08Z</time>
      </trkpt>
      <trkpt lat="44.90918" lon="6.83076">
        <ele>1665.3</ele>
        <time>2021-12-22T15:23:11Z</time>
      </trkpt>
      <trkpt lat="44.90923" lon="6.83075">
        <ele>1664.3</ele>
        <time>2021-12-22T15:23:15Z</time>
      </trkpt>
      <trkpt lat="44.90927" lon="6.83071">
        <ele>1663.7</ele>
        <time>2021-12-22T15:23:19Z</time>
      </trkpt>
      <trkpt lat="44.90931" lon="6.83067">
        <ele>1663.6</ele>
        <time>2021-12-22T15:23:23Z</time>
      </trkpt>
      <trkpt lat="44.90932" lon="6.83066">
        <ele>1663.8</ele>
        <time>2021-12-22T15:23:24Z</time>
      </trkpt>
      <trkpt lat="44.90933" lon="6.83066">
        <ele>1663.9</ele>
        <time>2021-12-22T15:23:25Z</time>
      </trkpt>
      <trkpt lat="44.90934" lon="6.83065">
        <ele>1664.3</ele>
        <time>2021-12-22T15:23:26Z</time>
      </trkpt>
      <trkpt lat="44.90939" lon="6.83061">
        <ele>1665.3</ele>
        <time>2021-12-22T15:23:30Z</time>
      </trkpt>
      <trkpt lat="44.90943" lon="6.83057">
        <ele>1665.9</ele>
        <time>2021-12-22T15:23:34Z</time>
      </trkpt>
      <trkpt lat="44.90944" lon="6.83056">
        <ele>1666.1</ele>
        <time>2021-12-22T15:23:35Z</time>
      </trkpt>
      <trkpt lat="44.90945" lon="6.83055">
        <ele>1666.4</ele>
        <time>2021-12-22T15:23:38Z</time>
      </trkpt>
      <trkpt lat="44.90947" lon="6.83054">
        <ele>1666.7</ele>
        <time>2021-12-22T15:23:39Z</time>
      </trkpt>
      <trkpt lat="44.90947" lon="6.83054">
        <ele>1666.9</ele>
        <time>2021-12-22T15:23:40Z</time>
      </trkpt>
      <trkpt lat="44.90948" lon="6.83053">
        <ele>1667</ele>
        <time>2021-12-22T15:23:41Z</time>
      </trkpt>
      <trkpt lat="44.90949" lon="6.83053">
        <ele>1667.2</ele>
        <time>2021-12-22T15:23:57Z</time>
      </trkpt>
      <trkpt lat="44.90958" lon="6.83054">
        <ele>1668.2</ele>
        <time>2021-12-22T15:23:58Z</time>
      </trkpt>
      <trkpt lat="44.90959" lon="6.83054">
        <ele>1668.3</ele>
        <time>2021-12-22T15:23:59Z</time>
      </trkpt>
      <trkpt lat="44.90959" lon="6.83055">
        <ele>1668.3</ele>
        <time>2021-12-22T15:24:18Z</time>
      </trkpt>
      <trkpt lat="44.90968" lon="6.8306">
        <ele>1669.5</ele>
        <time>2021-12-22T15:24:19Z</time>
      </trkpt>
      <trkpt lat="44.90968" lon="6.8306">
        <ele>1669.5</ele>
        <time>2021-12-22T15:24:20Z</time>
      </trkpt>
      <trkpt lat="44.90969" lon="6.83062">
        <ele>1669.6</ele>
        <time>2021-12-22T15:24:35Z</time>
      </trkpt>
      <trkpt lat="44.90977" lon="6.83068">
        <ele>1670.3</ele>
        <time>2021-12-22T15:24:36Z</time>
      </trkpt>
      <trkpt lat="44.90978" lon="6.83068">
        <ele>1670.3</ele>
        <time>2021-12-22T15:24:37Z</time>
      </trkpt>
      <trkpt lat="44.90979" lon="6.83067">
        <ele>1670.4</ele>
        <time>2021-12-22T15:24:38Z</time>
      </trkpt>
      <trkpt lat="44.9098" lon="6.83067">
        <ele>1670.4</ele>
        <time>2021-12-22T15:24:39Z</time>
      </trkpt>
      <trkpt lat="44.90981" lon="6.83067">
        <ele>1670.4</ele>
        <time>2021-12-22T15:24:40Z</time>
      </trkpt>
      <trkpt lat="44.90987" lon="6.83068">
        <ele>1670.2</ele>
        <time>2021-12-22T15:24:44Z</time>
      </trkpt>
      <trkpt lat="44.9099" lon="6.83068">
        <ele>1669.7</ele>
        <time>2021-12-22T15:24:46Z</time>
      </trkpt>
      <trkpt lat="44.9099" lon="6.83068">
        <ele>1669.5</ele>
        <time>2021-12-22T15:24:47Z</time>
      </trkpt>
      <trkpt lat="44.90991" lon="6.83068">
        <ele>1669.4</ele>
        <time>2021-12-22T15:24:48Z</time>
      </trkpt>
      <trkpt lat="44.90992" lon="6.83067">
        <ele>1669</ele>
        <time>2021-12-22T15:24:49Z</time>
      </trkpt>
      <trkpt lat="44.90997" lon="6.83066">
        <ele>1667.9</ele>
        <time>2021-12-22T15:24:53Z</time>
      </trkpt>
      <trkpt lat="44.91002" lon="6.83065">
        <ele>1667.2</ele>
        <time>2021-12-22T15:24:58Z</time>
      </trkpt>
      <trkpt lat="44.91006" lon="6.83067">
        <ele>1667.5</ele>
        <time>2021-12-22T15:25:01Z</time>
      </trkpt>
      <trkpt lat="44.91007" lon="6.83067">
        <ele>1667.5</ele>
        <time>2021-12-22T15:25:02Z</time>
      </trkpt>
      <trkpt lat="44.91008" lon="6.83068">
        <ele>1667.5</ele>
        <time>2021-12-22T15:25:07Z</time>
      </trkpt>
      <trkpt lat="44.91012" lon="6.83068">
        <ele>1667.7</ele>
        <time>2021-12-22T15:25:08Z</time>
      </trkpt>
      <trkpt lat="44.91014" lon="6.83069">
        <ele>1667.5</ele>
        <time>2021-12-22T15:25:10Z</time>
      </trkpt>
      <trkpt lat="44.91015" lon="6.8307">
        <ele>1667.6</ele>
        <time>2021-12-22T15:25:11Z</time>
      </trkpt>
      <trkpt lat="44.91016" lon="6.8307">
        <ele>1667.7</ele>
        <time>2021-12-22T15:25:29Z</time>
      </trkpt>
      <trkpt lat="44.91025" lon="6.83071">
        <ele>1667.8</ele>
        <time>2021-12-22T15:25:30Z</time>
      </trkpt>
      <trkpt lat="44.91026" lon="6.8307">
        <ele>1667.9</ele>
        <time>2021-12-22T15:25:31Z</time>
      </trkpt>
      <trkpt lat="44.91027" lon="6.8307">
        <ele>1668.1</ele>
        <time>2021-12-22T15:27:15Z</time>
      </trkpt>
      <trkpt lat="44.91036" lon="6.83069">
        <ele>1669.8</ele>
        <time>2021-12-22T15:27:16Z</time>
      </trkpt>
      <trkpt lat="44.91036" lon="6.83069">
        <ele>1669.8</ele>
        <time>2021-12-22T15:27:17Z</time>
      </trkpt>
      <trkpt lat="44.91038" lon="6.83068">
        <ele>1669.7</ele>
        <time>2021-12-22T15:27:28Z</time>
      </trkpt>
      <trkpt lat="44.91047" lon="6.83064">
        <ele>1669.7</ele>
        <time>2021-12-22T15:27:29Z</time>
      </trkpt>
      <trkpt lat="44.91048" lon="6.83064">
        <ele>1669.8</ele>
        <time>2021-12-22T15:27:30Z</time>
      </trkpt>
      <trkpt lat="44.91049" lon="6.83063">
        <ele>1669.8</ele>
        <time>2021-12-22T15:27:32Z</time>
      </trkpt>
      <trkpt lat="44.91051" lon="6.83063">
        <ele>1670</ele>
        <time>2021-12-22T15:27:33Z</time>
      </trkpt>
      <trkpt lat="44.91055" lon="6.8306">
        <ele>1671</ele>
        <time>2021-12-22T15:27:37Z</time>
      </trkpt>
      <trkpt lat="44.91059" lon="6.83057">
        <ele>1671.9</ele>
        <time>2021-12-22T15:27:40Z</time>
      </trkpt>
      <trkpt lat="44.91059" lon="6.83056">
        <ele>1672.3</ele>
        <time>2021-12-22T15:27:41Z</time>
      </trkpt>
      <trkpt lat="44.91061" lon="6.83056">
        <ele>1672.5</ele>
        <time>2021-12-22T15:27:42Z</time>
      </trkpt>
      <trkpt lat="44.91062" lon="6.83055">
        <ele>1672.9</ele>
        <time>2021-12-22T15:27:43Z</time>
      </trkpt>
      <trkpt lat="44.91067" lon="6.83053">
        <ele>1673.7</ele>
        <time>2021-12-22T15:27:47Z</time>
      </trkpt>
      <trkpt lat="44.9107" lon="6.83051">
        <ele>1673.3</ele>
        <time>2021-12-22T15:27:49Z</time>
      </trkpt>
      <trkpt lat="44.91072" lon="6.83051">
        <ele>1673</ele>
        <time>2021-12-22T15:27:50Z</time>
      </trkpt>
      <trkpt lat="44.91073" lon="6.83051">
        <ele>1673.1</ele>
        <time>2021-12-22T15:27:51Z</time>
      </trkpt>
      <trkpt lat="44.91074" lon="6.83051">
        <ele>1673.2</ele>
        <time>2021-12-22T15:27:52Z</time>
      </trkpt>
      <trkpt lat="44.91075" lon="6.83051">
        <ele>1673.2</ele>
        <time>2021-12-22T15:27:53Z</time>
      </trkpt>
      <trkpt lat="44.91077" lon="6.83051">
        <ele>1673.4</ele>
        <time>2021-12-22T15:27:56Z</time>
      </trkpt>
      <trkpt lat="44.91079" lon="6.83052">
        <ele>1673.4</ele>
        <time>2021-12-22T15:27:57Z</time>
      </trkpt>
      <trkpt lat="44.91083" lon="6.83053">
        <ele>1672.9</ele>
        <time>2021-12-22T15:28:00Z</time>
      </trkpt>
      <trkpt lat="44.91084" lon="6.83053">
        <ele>1672.8</ele>
        <time>2021-12-22T15:28:01Z</time>
      </trkpt>
      <trkpt lat="44.91085" lon="6.83054">
        <ele>1672.7</ele>
        <time>2021-12-22T15:28:02Z</time>
      </trkpt>
      <trkpt lat="44.91086" lon="6.83054">
        <ele>1672.5</ele>
        <time>2021-12-22T15:28:03Z</time>
      </trkpt>
      <trkpt lat="44.91091" lon="6.83054">
        <ele>1671.9</ele>
        <time>2021-12-22T15:28:07Z</time>
      </trkpt>
      <trkpt lat="44.91096" lon="6.83056">
        <ele>1671.7</ele>
        <time>2021-12-22T15:28:11Z</time>
      </trkpt>
      <trkpt lat="44.91102" lon="6.83059">
        <ele>1671.6</ele>
        <time>2021-12-22T15:28:15Z</time>
      </trkpt>
      <trkpt lat="44.91107" lon="6.8306">
        <ele>1671.7</ele>
        <time>2021-12-22T15:28:19Z</time>
      </trkpt>
      <trkpt lat="44.91112" lon="6.83064">
        <ele>1671.3</ele>
        <time>2021-12-22T15:28:22Z</time>
      </trkpt>
      <trkpt lat="44.91117" lon="6.83068">
        <ele>1670.8</ele>
        <time>2021-12-22T15:28:24Z</time>
      </trkpt>
      <trkpt lat="44.91121" lon="6.8307">
        <ele>1670.4</ele>
        <time>2021-12-22T15:28:26Z</time>
      </trkpt>
      <trkpt lat="44.91127" lon="6.83071">
        <ele>1670.4</ele>
        <time>2021-12-22T15:28:28Z</time>
      </trkpt>
      <trkpt lat="44.9113" lon="6.8307">
        <ele>1670.1</ele>
        <time>2021-12-22T15:28:30Z</time>
      </trkpt>
      <trkpt lat="44.91131" lon="6.83069">
        <ele>1669.7</ele>
        <time>2021-12-22T15:28:31Z</time>
      </trkpt>
      <trkpt lat="44.91133" lon="6.83069">
        <ele>1669.6</ele>
        <time>2021-12-22T15:29:04Z</time>
      </trkpt>
      <trkpt lat="44.91139" lon="6.8306">
        <ele>1667.8</ele>
        <time>2021-12-22T15:29:05Z</time>
      </trkpt>
      <trkpt lat="44.9114" lon="6.8306">
        <ele>1667.8</ele>
        <time>2021-12-22T15:29:06Z</time>
      </trkpt>
      <trkpt lat="44.9114" lon="6.83059">
        <ele>1667.8</ele>
        <time>2021-12-22T15:29:20Z</time>
      </trkpt>
      <trkpt lat="44.91143" lon="6.83054">
        <ele>1667.6</ele>
        <time>2021-12-22T15:29:21Z</time>
      </trkpt>
      <trkpt lat="44.91147" lon="6.83047">
        <ele>1667.5</ele>
        <time>2021-12-22T15:29:24Z</time>
      </trkpt>
      <trkpt lat="44.91151" lon="6.83042">
        <ele>1667.3</ele>
        <time>2021-12-22T15:29:26Z</time>
      </trkpt>
      <trkpt lat="44.91155" lon="6.83036">
        <ele>1667.4</ele>
        <time>2021-12-22T15:29:28Z</time>
      </trkpt>
      <trkpt lat="44.91159" lon="6.83032">
        <ele>1668</ele>
        <time>2021-12-22T15:29:30Z</time>
      </trkpt>
      <trkpt lat="44.91162" lon="6.83028">
        <ele>1668.2</ele>
        <time>2021-12-22T15:29:32Z</time>
      </trkpt>
      <trkpt lat="44.91167" lon="6.83023">
        <ele>1669</ele>
        <time>2021-12-22T15:29:35Z</time>
      </trkpt>
      <trkpt lat="44.91173" lon="6.8302">
        <ele>1668.9</ele>
        <time>2021-12-22T15:29:38Z</time>
      </trkpt>
      <trkpt lat="44.91179" lon="6.83017">
        <ele>1668.6</ele>
        <time>2021-12-22T15:29:41Z</time>
      </trkpt>
      <trkpt lat="44.91184" lon="6.83015">
        <ele>1668.6</ele>
        <time>2021-12-22T15:29:44Z</time>
      </trkpt>
      <trkpt lat="44.9119" lon="6.83013">
        <ele>1668.5</ele>
        <time>2021-12-22T15:29:47Z</time>
      </trkpt>
      <trkpt lat="44.91194" lon="6.8301">
        <ele>1668.1</ele>
        <time>2021-12-22T15:29:50Z</time>
      </trkpt>
      <trkpt lat="44.91199" lon="6.83009">
        <ele>1667.8</ele>
        <time>2021-12-22T15:29:53Z</time>
      </trkpt>
      <trkpt lat="44.91204" lon="6.83007">
        <ele>1668.3</ele>
        <time>2021-12-22T15:29:57Z</time>
      </trkpt>
      <trkpt lat="44.91205" lon="6.83006">
        <ele>1668.3</ele>
        <time>2021-12-22T15:29:58Z</time>
      </trkpt>
      <trkpt lat="44.91206" lon="6.83005">
        <ele>1668.5</ele>
        <time>2021-12-22T15:30:05Z</time>
      </trkpt>
      <trkpt lat="44.91211" lon="6.83001">
        <ele>1668.7</ele>
        <time>2021-12-22T15:30:06Z</time>
      </trkpt>
      <trkpt lat="44.91213" lon="6.83001">
        <ele>1668.4</ele>
        <time>2021-12-22T15:30:07Z</time>
      </trkpt>
      <trkpt lat="44.91214" lon="6.83001">
        <ele>1668.6</ele>
        <time>2021-12-22T15:30:08Z</time>
      </trkpt>
      <trkpt lat="44.91215" lon="6.83">
        <ele>1668.7</ele>
        <time>2021-12-22T15:30:18Z</time>
      </trkpt>
      <trkpt lat="44.91221" lon="6.82993">
        <ele>1668.8</ele>
        <time>2021-12-22T15:30:19Z</time>
      </trkpt>
      <trkpt lat="44.91225" lon="6.82987">
        <ele>1667.8</ele>
        <time>2021-12-22T15:30:24Z</time>
      </trkpt>
      <trkpt lat="44.91229" lon="6.82983">
        <ele>1667.1</ele>
        <time>2021-12-22T15:30:27Z</time>
      </trkpt>
      <trkpt lat="44.91232" lon="6.82978">
        <ele>1666.4</ele>
        <time>2021-12-22T15:30:30Z</time>
      </trkpt>
      <trkpt lat="44.91235" lon="6.82973">
        <ele>1665.8</ele>
        <time>2021-12-22T15:30:33Z</time>
      </trkpt>
      <trkpt lat="44.9124" lon="6.8297">
        <ele>1665.1</ele>
        <time>2021-12-22T15:30:37Z</time>
      </trkpt>
      <trkpt lat="44.9124" lon="6.82969">
        <ele>1665.1</ele>
        <time>2021-12-22T15:30:38Z</time>
      </trkpt>
      <trkpt lat="44.91241" lon="6.82969">
        <ele>1665</ele>
        <time>2021-12-22T15:30:39Z</time>
      </trkpt>
      <trkpt lat="44.91242" lon="6.82968">
        <ele>1664.9</ele>
        <time>2021-12-22T15:30:40Z</time>
      </trkpt>
      <trkpt lat="44.91247" lon="6.82966">
        <ele>1664.7</ele>
        <time>2021-12-22T15:30:44Z</time>
      </trkpt>
      <trkpt lat="44.91251" lon="6.82963">
        <ele>1664.8</ele>
        <time>2021-12-22T15:30:47Z</time>
      </trkpt>
      <trkpt lat="44.91256" lon="6.82958">
        <ele>1665.1</ele>
        <time>2021-12-22T15:30:50Z</time>
      </trkpt>
      <trkpt lat="44.9126" lon="6.82951">
        <ele>1665.4</ele>
        <time>2021-12-22T15:30:53Z</time>
      </trkpt>
      <trkpt lat="44.91264" lon="6.82944">
        <ele>1666.2</ele>
        <time>2021-12-22T15:30:56Z</time>
      </trkpt>
      <trkpt lat="44.91267" lon="6.82939">
        <ele>1665.7</ele>
        <time>2021-12-22T15:30:59Z</time>
      </trkpt>
      <trkpt lat="44.9127" lon="6.82932">
        <ele>1664.5</ele>
        <time>2021-12-22T15:31:03Z</time>
      </trkpt>
      <trkpt lat="44.91273" lon="6.82926">
        <ele>1663.9</ele>
        <time>2021-12-22T15:31:07Z</time>
      </trkpt>
      <trkpt lat="44.91276" lon="6.8292">
        <ele>1663.5</ele>
        <time>2021-12-22T15:31:12Z</time>
      </trkpt>
      <trkpt lat="44.91276" lon="6.8292">
        <ele>1663.5</ele>
        <time>2021-12-22T15:31:13Z</time>
      </trkpt>
      <trkpt lat="44.91277" lon="6.82917">
        <ele>1663.6</ele>
        <time>2021-12-22T15:31:25Z</time>
      </trkpt>
      <trkpt lat="44.9128" lon="6.82907">
        <ele>1663.9</ele>
        <time>2021-12-22T15:31:26Z</time>
      </trkpt>
      <trkpt lat="44.91282" lon="6.829">
        <ele>1663</ele>
        <time>2021-12-22T15:31:31Z</time>
      </trkpt>
      <trkpt lat="44.91285" lon="6.82895">
        <ele>1662.2</ele>
        <time>2021-12-22T15:31:35Z</time>
      </trkpt>
      <trkpt lat="44.91288" lon="6.82891">
        <ele>1661.4</ele>
        <time>2021-12-22T15:31:39Z</time>
      </trkpt>
      <trkpt lat="44.91292" lon="6.82886">
        <ele>1661.4</ele>
        <time>2021-12-22T15:31:44Z</time>
      </trkpt>
      <trkpt lat="44.91293" lon="6.82885">
        <ele>1661.2</ele>
        <time>2021-12-22T15:31:45Z</time>
      </trkpt>
      <trkpt lat="44.91295" lon="6.82884">
        <ele>1661.1</ele>
        <time>2021-12-22T15:31:47Z</time>
      </trkpt>
      <trkpt lat="44.91296" lon="6.82884">
        <ele>1661.1</ele>
        <time>2021-12-22T15:31:48Z</time>
      </trkpt>
      <trkpt lat="44.91297" lon="6.82883">
        <ele>1661.2</ele>
        <time>2021-12-22T15:31:49Z</time>
      </trkpt>
      <trkpt lat="44.91298" lon="6.82882">
        <ele>1661.1</ele>
        <time>2021-12-22T15:31:56Z</time>
      </trkpt>
      <trkpt lat="44.91303" lon="6.8288">
        <ele>1661.5</ele>
        <time>2021-12-22T15:31:57Z</time>
      </trkpt>
      <trkpt lat="44.91306" lon="6.82879">
        <ele>1662</ele>
        <time>2021-12-22T15:31:59Z</time>
      </trkpt>
      <trkpt lat="44.91307" lon="6.82879">
        <ele>1662.5</ele>
        <time>2021-12-22T15:32:00Z</time>
      </trkpt>
      <trkpt lat="44.91307" lon="6.82878">
        <ele>1662.6</ele>
        <time>2021-12-22T15:32:01Z</time>
      </trkpt>
      <trkpt lat="44.91308" lon="6.82878">
        <ele>1662.9</ele>
        <time>2021-12-22T15:32:02Z</time>
      </trkpt>
      <trkpt lat="44.91309" lon="6.82877">
        <ele>1663.2</ele>
        <time>2021-12-22T15:32:03Z</time>
      </trkpt>
      <trkpt lat="44.9131" lon="6.82877">
        <ele>1663.3</ele>
        <time>2021-12-22T15:32:04Z</time>
      </trkpt>
      <trkpt lat="44.91311" lon="6.82876">
        <ele>1663.5</ele>
        <time>2021-12-22T15:32:20Z</time>
      </trkpt>
      <trkpt lat="44.91319" lon="6.8287">
        <ele>1665</ele>
        <time>2021-12-22T15:32:21Z</time>
      </trkpt>
      <trkpt lat="44.9132" lon="6.82869">
        <ele>1665</ele>
        <time>2021-12-22T15:32:22Z</time>
      </trkpt>
      <trkpt lat="44.9132" lon="6.82869">
        <ele>1665.2</ele>
        <time>2021-12-22T15:32:40Z</time>
      </trkpt>
      <trkpt lat="44.91329" lon="6.82862">
        <ele>1666.3</ele>
        <time>2021-12-22T15:32:41Z</time>
      </trkpt>
      <trkpt lat="44.91329" lon="6.82861">
        <ele>1666.4</ele>
        <time>2021-12-22T15:32:42Z</time>
      </trkpt>
      <trkpt lat="44.9133" lon="6.8286">
        <ele>1666.6</ele>
        <time>2021-12-22T15:32:57Z</time>
      </trkpt>
      <trkpt lat="44.91336" lon="6.82851">
        <ele>1667.2</ele>
        <time>2021-12-22T15:32:58Z</time>
      </trkpt>
      <trkpt lat="44.91337" lon="6.8285">
        <ele>1667.2</ele>
        <time>2021-12-22T15:32:59Z</time>
      </trkpt>
      <trkpt lat="44.91339" lon="6.82849">
        <ele>1667.1</ele>
        <time>2021-12-22T15:34:40Z</time>
      </trkpt>
      <trkpt lat="44.91346" lon="6.8284">
        <ele>1667.7</ele>
        <time>2021-12-22T15:34:41Z</time>
      </trkpt>
      <trkpt lat="44.91346" lon="6.8284">
        <ele>1667.7</ele>
        <time>2021-12-22T15:34:42Z</time>
      </trkpt>
      <trkpt lat="44.91346" lon="6.82839">
        <ele>1667.6</ele>
        <time>2021-12-22T15:34:47Z</time>
      </trkpt>
      <trkpt lat="44.91349" lon="6.82837">
        <ele>1667.7</ele>
        <time>2021-12-22T15:34:48Z</time>
      </trkpt>
      <trkpt lat="44.91353" lon="6.82831">
        <ele>1667.6</ele>
        <time>2021-12-22T15:34:52Z</time>
      </trkpt>
      <trkpt lat="44.91356" lon="6.82825">
        <ele>1666.8</ele>
        <time>2021-12-22T15:34:56Z</time>
      </trkpt>
      <trkpt lat="44.91359" lon="6.82818">
        <ele>1665.7</ele>
        <time>2021-12-22T15:35:00Z</time>
      </trkpt>
      <trkpt lat="44.9136" lon="6.82811">
        <ele>1664.7</ele>
        <time>2021-12-22T15:35:04Z</time>
      </trkpt>
      <trkpt lat="44.91362" lon="6.82803">
        <ele>1663.7</ele>
        <time>2021-12-22T15:35:08Z</time>
      </trkpt>
      <trkpt lat="44.91363" lon="6.82796">
        <ele>1663.3</ele>
        <time>2021-12-22T15:35:10Z</time>
      </trkpt>
      <trkpt lat="44.91366" lon="6.82788">
        <ele>1662.9</ele>
        <time>2021-12-22T15:35:12Z</time>
      </trkpt>
      <trkpt lat="44.91368" lon="6.8278">
        <ele>1662.5</ele>
        <time>2021-12-22T15:35:14Z</time>
      </trkpt>
      <trkpt lat="44.91371" lon="6.82772">
        <ele>1661.8</ele>
        <time>2021-12-22T15:35:16Z</time>
      </trkpt>
      <trkpt lat="44.91376" lon="6.82765">
        <ele>1661.1</ele>
        <time>2021-12-22T15:35:18Z</time>
      </trkpt>
      <trkpt lat="44.91381" lon="6.82759">
        <ele>1660.8</ele>
        <time>2021-12-22T15:35:20Z</time>
      </trkpt>
      <trkpt lat="44.91387" lon="6.82754">
        <ele>1660.8</ele>
        <time>2021-12-22T15:35:22Z</time>
      </trkpt>
      <trkpt lat="44.91393" lon="6.82751">
        <ele>1660.6</ele>
        <time>2021-12-22T15:35:24Z</time>
      </trkpt>
      <trkpt lat="44.91401" lon="6.82748">
        <ele>1660.7</ele>
        <time>2021-12-22T15:35:26Z</time>
      </trkpt>
      <trkpt lat="44.91407" lon="6.82744">
        <ele>1660.8</ele>
        <time>2021-12-22T15:35:28Z</time>
      </trkpt>
      <trkpt lat="44.91412" lon="6.82741">
        <ele>1660.6</ele>
        <time>2021-12-22T15:35:30Z</time>
      </trkpt>
      <trkpt lat="44.91416" lon="6.82737">
        <ele>1660.9</ele>
        <time>2021-12-22T15:35:33Z</time>
      </trkpt>
      <trkpt lat="44.91421" lon="6.82732">
        <ele>1660.7</ele>
        <time>2021-12-22T15:35:37Z</time>
      </trkpt>
      <trkpt lat="44.91425" lon="6.82728">
        <ele>1660.4</ele>
        <time>2021-12-22T15:35:42Z</time>
      </trkpt>
      <trkpt lat="44.91429" lon="6.82724">
        <ele>1659.9</ele>
        <time>2021-12-22T15:35:45Z</time>
      </trkpt>
      <trkpt lat="44.91433" lon="6.82721">
        <ele>1659.5</ele>
        <time>2021-12-22T15:35:48Z</time>
      </trkpt>
      <trkpt lat="44.91439" lon="6.82716">
        <ele>1659.4</ele>
        <time>2021-12-22T15:35:51Z</time>
      </trkpt>
      <trkpt lat="44.91443" lon="6.82713">
        <ele>1659.6</ele>
        <time>2021-12-22T15:35:53Z</time>
      </trkpt>
      <trkpt lat="44.91447" lon="6.82709">
        <ele>1659</ele>
        <time>2021-12-22T15:35:55Z</time>
      </trkpt>
      <trkpt lat="44.91451" lon="6.82706">
        <ele>1658.5</ele>
        <time>2021-12-22T15:35:58Z</time>
      </trkpt>
      <trkpt lat="44.91453" lon="6.82704">
        <ele>1658.4</ele>
        <time>2021-12-22T15:36:00Z</time>
      </trkpt>
      <trkpt lat="44.91454" lon="6.82703">
        <ele>1658.1</ele>
        <time>2021-12-22T15:36:01Z</time>
      </trkpt>
      <trkpt lat="44.91455" lon="6.82701">
        <ele>1658</ele>
        <time>2021-12-22T15:36:03Z</time>
      </trkpt>
      <trkpt lat="44.91456" lon="6.82701">
        <ele>1658.1</ele>
        <time>2021-12-22T15:36:04Z</time>
      </trkpt>
      <trkpt lat="44.9146" lon="6.82697">
        <ele>1657.9</ele>
        <time>2021-12-22T15:36:08Z</time>
      </trkpt>
      <trkpt lat="44.91465" lon="6.82694">
        <ele>1658.7</ele>
        <time>2021-12-22T15:36:12Z</time>
      </trkpt>
      <trkpt lat="44.9147" lon="6.82691">
        <ele>1659.2</ele>
        <time>2021-12-22T15:36:16Z</time>
      </trkpt>
      <trkpt lat="44.91476" lon="6.82689">
        <ele>1658.6</ele>
        <time>2021-12-22T15:36:20Z</time>
      </trkpt>
      <trkpt lat="44.91481" lon="6.82688">
        <ele>1657.7</ele>
        <time>2021-12-22T15:36:24Z</time>
      </trkpt>
      <trkpt lat="44.91482" lon="6.82688">
        <ele>1657.5</ele>
        <time>2021-12-22T15:36:25Z</time>
      </trkpt>
      <trkpt lat="44.91483" lon="6.82688">
        <ele>1657.2</ele>
        <time>2021-12-22T15:36:26Z</time>
      </trkpt>
      <trkpt lat="44.91484" lon="6.82688">
        <ele>1657</ele>
        <time>2021-12-22T15:37:36Z</time>
      </trkpt>
      <trkpt lat="44.91493" lon="6.8269">
        <ele>1656.4</ele>
        <time>2021-12-22T15:37:37Z</time>
      </trkpt>
      <trkpt lat="44.91494" lon="6.8269">
        <ele>1656.5</ele>
        <time>2021-12-22T15:37:38Z</time>
      </trkpt>
      <trkpt lat="44.91496" lon="6.8269">
        <ele>1656.7</ele>
        <time>2021-12-22T15:37:45Z</time>
      </trkpt>
      <trkpt lat="44.91501" lon="6.82691">
        <ele>1657.3</ele>
        <time>2021-12-22T15:37:46Z</time>
      </trkpt>
      <trkpt lat="44.91502" lon="6.82691">
        <ele>1657.3</ele>
        <time>2021-12-22T15:37:47Z</time>
      </trkpt>
      <trkpt lat="44.91503" lon="6.82691">
        <ele>1657.4</ele>
        <time>2021-12-22T15:37:48Z</time>
      </trkpt>
      <trkpt lat="44.91504" lon="6.82691">
        <ele>1657.5</ele>
        <time>2021-12-22T15:37:49Z</time>
      </trkpt>
      <trkpt lat="44.91505" lon="6.82691">
        <ele>1657.5</ele>
        <time>2021-12-22T15:37:50Z</time>
      </trkpt>
      <trkpt lat="44.91506" lon="6.82692">
        <ele>1657.5</ele>
        <time>2021-12-22T15:37:51Z</time>
      </trkpt>
      <trkpt lat="44.91508" lon="6.82692">
        <ele>1657.8</ele>
        <time>2021-12-22T15:38:00Z</time>
      </trkpt>
      <trkpt lat="44.91515" lon="6.82693">
        <ele>1658.3</ele>
        <time>2021-12-22T15:38:01Z</time>
      </trkpt>
      <trkpt lat="44.91517" lon="6.82692">
        <ele>1658.6</ele>
        <time>2021-12-22T15:38:04Z</time>
      </trkpt>
      <trkpt lat="44.91518" lon="6.82692">
        <ele>1658.7</ele>
        <time>2021-12-22T15:38:05Z</time>
      </trkpt>
      <trkpt lat="44.91519" lon="6.82692">
        <ele>1658.8</ele>
        <time>2021-12-22T15:38:06Z</time>
      </trkpt>
      <trkpt lat="44.9152" lon="6.82692">
        <ele>1659</ele>
        <time>2021-12-22T15:38:07Z</time>
      </trkpt>
      <trkpt lat="44.9152" lon="6.82691">
        <ele>1659.3</ele>
        <time>2021-12-22T15:38:08Z</time>
      </trkpt>
      <trkpt lat="44.91521" lon="6.82691">
        <ele>1659.4</ele>
        <time>2021-12-22T15:38:09Z</time>
      </trkpt>
      <trkpt lat="44.91522" lon="6.82691">
        <ele>1659.7</ele>
        <time>2021-12-22T15:38:10Z</time>
      </trkpt>
      <trkpt lat="44.91523" lon="6.8269">
        <ele>1659.7</ele>
        <time>2021-12-22T15:38:11Z</time>
      </trkpt>
      <trkpt lat="44.91523" lon="6.82689">
        <ele>1659.8</ele>
        <time>2021-12-22T15:38:12Z</time>
      </trkpt>
      <trkpt lat="44.91525" lon="6.82689">
        <ele>1659.9</ele>
        <time>2021-12-22T15:38:18Z</time>
      </trkpt>
      <trkpt lat="44.91529" lon="6.82685">
        <ele>1660.3</ele>
        <time>2021-12-22T15:38:19Z</time>
      </trkpt>
      <trkpt lat="44.9153" lon="6.82684">
        <ele>1660.5</ele>
        <time>2021-12-22T15:38:20Z</time>
      </trkpt>
      <trkpt lat="44.91531" lon="6.82683">
        <ele>1660.9</ele>
        <time>2021-12-22T15:38:21Z</time>
      </trkpt>
      <trkpt lat="44.91533" lon="6.82682">
        <ele>1661.3</ele>
        <time>2021-12-22T15:38:28Z</time>
      </trkpt>
      <trkpt lat="44.91537" lon="6.82678">
        <ele>1663.1</ele>
        <time>2021-12-22T15:38:29Z</time>
      </trkpt>
      <trkpt lat="44.91538" lon="6.82677">
        <ele>1663.6</ele>
        <time>2021-12-22T15:38:30Z</time>
      </trkpt>
      <trkpt lat="44.91539" lon="6.82676">
        <ele>1663.8</ele>
        <time>2021-12-22T15:38:31Z</time>
      </trkpt>
      <trkpt lat="44.9154" lon="6.82676">
        <ele>1663.9</ele>
        <time>2021-12-22T15:38:32Z</time>
      </trkpt>
      <trkpt lat="44.91541" lon="6.82675">
        <ele>1664.3</ele>
        <time>2021-12-22T15:38:33Z</time>
      </trkpt>
      <trkpt lat="44.91541" lon="6.82675">
        <ele>1664.4</ele>
        <time>2021-12-22T15:38:34Z</time>
      </trkpt>
      <trkpt lat="44.91543" lon="6.82674">
        <ele>1664.6</ele>
        <time>2021-12-22T15:38:43Z</time>
      </trkpt>
      <trkpt lat="44.9155" lon="6.8267">
        <ele>1664.6</ele>
        <time>2021-12-22T15:38:44Z</time>
      </trkpt>
      <trkpt lat="44.9155" lon="6.8267">
        <ele>1664.4</ele>
        <time>2021-12-22T15:38:45Z</time>
      </trkpt>
      <trkpt lat="44.91551" lon="6.82669">
        <ele>1664.4</ele>
        <time>2021-12-22T15:38:46Z</time>
      </trkpt>
      <trkpt lat="44.91553" lon="6.82669">
        <ele>1664.4</ele>
        <time>2021-12-22T15:38:51Z</time>
      </trkpt>
      <trkpt lat="44.91557" lon="6.82668">
        <ele>1664.3</ele>
        <time>2021-12-22T15:38:52Z</time>
      </trkpt>
      <trkpt lat="44.91558" lon="6.82668">
        <ele>1664.3</ele>
        <time>2021-12-22T15:38:53Z</time>
      </trkpt>
      <trkpt lat="44.91559" lon="6.82667">
        <ele>1664.4</ele>
        <time>2021-12-22T15:38:54Z</time>
      </trkpt>
      <trkpt lat="44.9156" lon="6.82667">
        <ele>1664.5</ele>
        <time>2021-12-22T15:38:55Z</time>
      </trkpt>
      <trkpt lat="44.91563" lon="6.82665">
        <ele>1664.6</ele>
        <time>2021-12-22T15:38:58Z</time>
      </trkpt>
      <trkpt lat="44.91564" lon="6.82665">
        <ele>1664.9</ele>
        <time>2021-12-22T15:38:59Z</time>
      </trkpt>
      <trkpt lat="44.91566" lon="6.82664">
        <ele>1665.1</ele>
        <time>2021-12-22T15:39:05Z</time>
      </trkpt>
      <trkpt lat="44.9157" lon="6.82661">
        <ele>1665.6</ele>
        <time>2021-12-22T15:39:06Z</time>
      </trkpt>
      <trkpt lat="44.9157" lon="6.8266">
        <ele>1665.7</ele>
        <time>2021-12-22T15:39:07Z</time>
      </trkpt>
      <trkpt lat="44.91571" lon="6.8266">
        <ele>1666</ele>
        <time>2021-12-22T15:39:08Z</time>
      </trkpt>
      <trkpt lat="44.91573" lon="6.82659">
        <ele>1666.1</ele>
        <time>2021-12-22T15:39:20Z</time>
      </trkpt>
      <trkpt lat="44.9158" lon="6.8265">
        <ele>1666.2</ele>
        <time>2021-12-22T15:39:21Z</time>
      </trkpt>
      <trkpt lat="44.91582" lon="6.82647">
        <ele>1666.3</ele>
        <time>2021-12-22T15:39:24Z</time>
      </trkpt>
      <trkpt lat="44.91582" lon="6.82647">
        <ele>1666</ele>
        <time>2021-12-22T15:39:25Z</time>
      </trkpt>
      <trkpt lat="44.91584" lon="6.82645">
        <ele>1666.2</ele>
        <time>2021-12-22T15:39:28Z</time>
      </trkpt>
      <trkpt lat="44.91585" lon="6.82644">
        <ele>1666.3</ele>
        <time>2021-12-22T15:39:29Z</time>
      </trkpt>
      <trkpt lat="44.91586" lon="6.82643">
        <ele>1666.3</ele>
        <time>2021-12-22T15:39:30Z</time>
      </trkpt>
      <trkpt lat="44.91587" lon="6.82642">
        <ele>1666.2</ele>
        <time>2021-12-22T15:39:31Z</time>
      </trkpt>
      <trkpt lat="44.91587" lon="6.82642">
        <ele>1666.3</ele>
        <time>2021-12-22T15:39:32Z</time>
      </trkpt>
      <trkpt lat="44.91588" lon="6.82641">
        <ele>1666.2</ele>
        <time>2021-12-22T15:39:33Z</time>
      </trkpt>
      <trkpt lat="44.91589" lon="6.8264">
        <ele>1666.2</ele>
        <time>2021-12-22T15:39:34Z</time>
      </trkpt>
      <trkpt lat="44.9159" lon="6.82639">
        <ele>1666.3</ele>
        <time>2021-12-22T15:39:35Z</time>
      </trkpt>
      <trkpt lat="44.91591" lon="6.82638">
        <ele>1666.4</ele>
        <time>2021-12-22T15:39:36Z</time>
      </trkpt>
      <trkpt lat="44.91591" lon="6.82637">
        <ele>1666.5</ele>
        <time>2021-12-22T15:39:37Z</time>
      </trkpt>
      <trkpt lat="44.91593" lon="6.82636">
        <ele>1667</ele>
        <time>2021-12-22T15:39:39Z</time>
      </trkpt>
      <trkpt lat="44.91594" lon="6.82635">
        <ele>1667.2</ele>
        <time>2021-12-22T15:39:40Z</time>
      </trkpt>
      <trkpt lat="44.91595" lon="6.82633">
        <ele>1667.3</ele>
        <time>2021-12-22T15:39:53Z</time>
      </trkpt>
      <trkpt lat="44.91603" lon="6.82628">
        <ele>1668.3</ele>
        <time>2021-12-22T15:39:54Z</time>
      </trkpt>
      <trkpt lat="44.91607" lon="6.82625">
        <ele>1668.8</ele>
        <time>2021-12-22T15:39:59Z</time>
      </trkpt>
      <trkpt lat="44.91608" lon="6.82625">
        <ele>1669.2</ele>
        <time>2021-12-22T15:40:00Z</time>
      </trkpt>
      <trkpt lat="44.91609" lon="6.82624">
        <ele>1669.3</ele>
        <time>2021-12-22T15:40:44Z</time>
      </trkpt>
      <trkpt lat="44.91615" lon="6.82614">
        <ele>1668.5</ele>
        <time>2021-12-22T15:40:45Z</time>
      </trkpt>
      <trkpt lat="44.91616" lon="6.82614">
        <ele>1668.4</ele>
        <time>2021-12-22T15:40:46Z</time>
      </trkpt>
      <trkpt lat="44.91617" lon="6.82613">
        <ele>1668.3</ele>
        <time>2021-12-22T15:40:47Z</time>
      </trkpt>
      <trkpt lat="44.91618" lon="6.82613">
        <ele>1668.1</ele>
        <time>2021-12-22T15:40:48Z</time>
      </trkpt>
      <trkpt lat="44.9162" lon="6.82612">
        <ele>1668</ele>
        <time>2021-12-22T15:40:50Z</time>
      </trkpt>
      <trkpt lat="44.91621" lon="6.82612">
        <ele>1667.9</ele>
        <time>2021-12-22T15:40:51Z</time>
      </trkpt>
      <trkpt lat="44.91622" lon="6.82611">
        <ele>1667.7</ele>
        <time>2021-12-22T15:40:54Z</time>
      </trkpt>
      <trkpt lat="44.91624" lon="6.8261">
        <ele>1667.3</ele>
        <time>2021-12-22T15:40:55Z</time>
      </trkpt>
      <trkpt lat="44.91624" lon="6.8261">
        <ele>1667.2</ele>
        <time>2021-12-22T15:40:56Z</time>
      </trkpt>
      <trkpt lat="44.91626" lon="6.82609">
        <ele>1666.9</ele>
        <time>2021-12-22T15:40:59Z</time>
      </trkpt>
      <trkpt lat="44.91628" lon="6.82607">
        <ele>1666.6</ele>
        <time>2021-12-22T15:41:00Z</time>
      </trkpt>
      <trkpt lat="44.91628" lon="6.82606">
        <ele>1666.5</ele>
        <time>2021-12-22T15:41:01Z</time>
      </trkpt>
      <trkpt lat="44.9163" lon="6.82605">
        <ele>1666.2</ele>
        <time>2021-12-22T15:41:34Z</time>
      </trkpt>
      <trkpt lat="44.91638" lon="6.82599">
        <ele>1664.5</ele>
        <time>2021-12-22T15:41:35Z</time>
      </trkpt>
      <trkpt lat="44.91638" lon="6.82599">
        <ele>1664.5</ele>
        <time>2021-12-22T15:41:36Z</time>
      </trkpt>
      <trkpt lat="44.91639" lon="6.82598">
        <ele>1664.4</ele>
        <time>2021-12-22T15:41:47Z</time>
      </trkpt>
      <trkpt lat="44.91645" lon="6.82593">
        <ele>1664.1</ele>
        <time>2021-12-22T15:41:48Z</time>
      </trkpt>
      <trkpt lat="44.91649" lon="6.82587">
        <ele>1664.3</ele>
        <time>2021-12-22T15:41:52Z</time>
      </trkpt>
      <trkpt lat="44.91652" lon="6.82583">
        <ele>1664.4</ele>
        <time>2021-12-22T15:41:56Z</time>
      </trkpt>
      <trkpt lat="44.91653" lon="6.82582">
        <ele>1664.4</ele>
        <time>2021-12-22T15:41:57Z</time>
      </trkpt>
      <trkpt lat="44.91654" lon="6.8258">
        <ele>1664.4</ele>
        <time>2021-12-22T15:42:00Z</time>
      </trkpt>
      <trkpt lat="44.91655" lon="6.82579">
        <ele>1664.5</ele>
        <time>2021-12-22T15:42:01Z</time>
      </trkpt>
      <trkpt lat="44.91656" lon="6.82578">
        <ele>1664.6</ele>
        <time>2021-12-22T15:42:02Z</time>
      </trkpt>
      <trkpt lat="44.91657" lon="6.82577">
        <ele>1664.6</ele>
        <time>2021-12-22T15:42:03Z</time>
      </trkpt>
      <trkpt lat="44.91658" lon="6.82576">
        <ele>1664.8</ele>
        <time>2021-12-22T15:42:23Z</time>
      </trkpt>
      <trkpt lat="44.91666" lon="6.8257">
        <ele>1664.6</ele>
        <time>2021-12-22T15:42:24Z</time>
      </trkpt>
      <trkpt lat="44.91667" lon="6.82569">
        <ele>1664.6</ele>
        <time>2021-12-22T15:42:25Z</time>
      </trkpt>
      <trkpt lat="44.91668" lon="6.82569">
        <ele>1664.5</ele>
        <time>2021-12-22T15:42:41Z</time>
      </trkpt>
      <trkpt lat="44.91677" lon="6.82565">
        <ele>1664.3</ele>
        <time>2021-12-22T15:42:42Z</time>
      </trkpt>
      <trkpt lat="44.91678" lon="6.82565">
        <ele>1664.2</ele>
        <time>2021-12-22T15:42:43Z</time>
      </trkpt>
      <trkpt lat="44.91679" lon="6.82564">
        <ele>1664.2</ele>
        <time>2021-12-22T15:43:10Z</time>
      </trkpt>
      <trkpt lat="44.91687" lon="6.82561">
        <ele>1663.8</ele>
        <time>2021-12-22T15:43:11Z</time>
      </trkpt>
      <trkpt lat="44.91688" lon="6.82561">
        <ele>1663.7</ele>
        <time>2021-12-22T15:43:12Z</time>
      </trkpt>
      <trkpt lat="44.91688" lon="6.8256">
        <ele>1663.6</ele>
        <time>2021-12-22T15:43:40Z</time>
      </trkpt>
      <trkpt lat="44.91697" lon="6.82555">
        <ele>1663.4</ele>
        <time>2021-12-22T15:43:41Z</time>
      </trkpt>
      <trkpt lat="44.91698" lon="6.82555">
        <ele>1663.4</ele>
        <time>2021-12-22T15:43:42Z</time>
      </trkpt>
      <trkpt lat="44.91699" lon="6.82554">
        <ele>1663.5</ele>
        <time>2021-12-22T15:43:45Z</time>
      </trkpt>
      <trkpt lat="44.91701" lon="6.82552">
        <ele>1663.7</ele>
        <time>2021-12-22T15:43:46Z</time>
      </trkpt>
      <trkpt lat="44.91706" lon="6.82549">
        <ele>1664.2</ele>
        <time>2021-12-22T15:43:51Z</time>
      </trkpt>
      <trkpt lat="44.9171" lon="6.82547">
        <ele>1664.5</ele>
        <time>2021-12-22T15:43:55Z</time>
      </trkpt>
      <trkpt lat="44.9171" lon="6.82547">
        <ele>1664.7</ele>
        <time>2021-12-22T15:43:56Z</time>
      </trkpt>
      <trkpt lat="44.91712" lon="6.82546">
        <ele>1664.9</ele>
        <time>2021-12-22T15:43:59Z</time>
      </trkpt>
      <trkpt lat="44.91714" lon="6.82545">
        <ele>1665.1</ele>
        <time>2021-12-22T15:44:00Z</time>
      </trkpt>
      <trkpt lat="44.91714" lon="6.82544">
        <ele>1665.4</ele>
        <time>2021-12-22T15:44:01Z</time>
      </trkpt>
      <trkpt lat="44.91715" lon="6.82544">
        <ele>1665.5</ele>
        <time>2021-12-22T15:44:02Z</time>
      </trkpt>
      <trkpt lat="44.91717" lon="6.82543">
        <ele>1665.6</ele>
        <time>2021-12-22T15:44:13Z</time>
      </trkpt>
      <trkpt lat="44.91726" lon="6.82543">
        <ele>1666.1</ele>
        <time>2021-12-22T15:44:14Z</time>
      </trkpt>
      <trkpt lat="44.91728" lon="6.82543">
        <ele>1666.2</ele>
        <time>2021-12-22T15:44:16Z</time>
      </trkpt>
      <trkpt lat="44.91729" lon="6.82543">
        <ele>1666.4</ele>
        <time>2021-12-22T15:44:17Z</time>
      </trkpt>
      <trkpt lat="44.9173" lon="6.82542">
        <ele>1666.3</ele>
        <time>2021-12-22T15:44:18Z</time>
      </trkpt>
      <trkpt lat="44.91731" lon="6.82542">
        <ele>1666.3</ele>
        <time>2021-12-22T15:44:19Z</time>
      </trkpt>
      <trkpt lat="44.91735" lon="6.82541">
        <ele>1666.2</ele>
        <time>2021-12-22T15:44:23Z</time>
      </trkpt>
      <trkpt lat="44.91736" lon="6.82541">
        <ele>1666.2</ele>
        <time>2021-12-22T15:44:24Z</time>
      </trkpt>
      <trkpt lat="44.91737" lon="6.8254">
        <ele>1666.1</ele>
        <time>2021-12-22T15:44:36Z</time>
      </trkpt>
      <trkpt lat="44.91747" lon="6.82538">
        <ele>1665.5</ele>
        <time>2021-12-22T15:44:37Z</time>
      </trkpt>
      <trkpt lat="44.91747" lon="6.82538">
        <ele>1665.6</ele>
        <time>2021-12-22T15:44:38Z</time>
      </trkpt>
      <trkpt lat="44.91749" lon="6.82538">
        <ele>1665.6</ele>
        <time>2021-12-22T15:46:33Z</time>
      </trkpt>
      <trkpt lat="44.91759" lon="6.82537">
        <ele>1665.5</ele>
        <time>2021-12-22T15:46:34Z</time>
      </trkpt>
      <trkpt lat="44.91759" lon="6.82537">
        <ele>1665.5</ele>
        <time>2021-12-22T15:46:35Z</time>
      </trkpt>
      <trkpt lat="44.91761" lon="6.82538">
        <ele>1665.6</ele>
        <time>2021-12-22T15:46:42Z</time>
      </trkpt>
      <trkpt lat="44.91767" lon="6.82539">
        <ele>1665.8</ele>
        <time>2021-12-22T15:46:43Z</time>
      </trkpt>
      <trkpt lat="44.9177" lon="6.82539">
        <ele>1666.1</ele>
        <time>2021-12-22T15:46:46Z</time>
      </trkpt>
      <trkpt lat="44.91771" lon="6.82539">
        <ele>1666.2</ele>
        <time>2021-12-22T15:46:47Z</time>
      </trkpt>
      <trkpt lat="44.91773" lon="6.82539">
        <ele>1666.2</ele>
        <time>2021-12-22T15:47:00Z</time>
      </trkpt>
      <trkpt lat="44.91782" lon="6.82539">
        <ele>1666.5</ele>
        <time>2021-12-22T15:47:01Z</time>
      </trkpt>
      <trkpt lat="44.91783" lon="6.82539">
        <ele>1666.6</ele>
        <time>2021-12-22T15:47:02Z</time>
      </trkpt>
      <trkpt lat="44.91784" lon="6.82539">
        <ele>1666.8</ele>
        <time>2021-12-22T15:47:17Z</time>
      </trkpt>
      <trkpt lat="44.91794" lon="6.8254">
        <ele>1667.6</ele>
        <time>2021-12-22T15:47:18Z</time>
      </trkpt>
      <trkpt lat="44.91796" lon="6.8254">
        <ele>1667.7</ele>
        <time>2021-12-22T15:47:20Z</time>
      </trkpt>
      <trkpt lat="44.91797" lon="6.8254">
        <ele>1667.8</ele>
        <time>2021-12-22T15:47:21Z</time>
      </trkpt>
      <trkpt lat="44.91798" lon="6.8254">
        <ele>1667.7</ele>
        <time>2021-12-22T15:47:22Z</time>
      </trkpt>
      <trkpt lat="44.91799" lon="6.8254">
        <ele>1667.9</ele>
        <time>2021-12-22T15:47:23Z</time>
      </trkpt>
      <trkpt lat="44.91801" lon="6.8254">
        <ele>1668.1</ele>
        <time>2021-12-22T15:47:25Z</time>
      </trkpt>
      <trkpt lat="44.91802" lon="6.8254">
        <ele>1668</ele>
        <time>2021-12-22T15:47:26Z</time>
      </trkpt>
      <trkpt lat="44.91803" lon="6.8254">
        <ele>1668.2</ele>
        <time>2021-12-22T15:47:42Z</time>
      </trkpt>
      <trkpt lat="44.91812" lon="6.82541">
        <ele>1669.4</ele>
        <time>2021-12-22T15:47:43Z</time>
      </trkpt>
      <trkpt lat="44.91812" lon="6.82541">
        <ele>1669.5</ele>
        <time>2021-12-22T15:47:44Z</time>
      </trkpt>
      <trkpt lat="44.91812" lon="6.82541">
        <ele>1669.5</ele>
        <time>2021-12-22T15:48:33Z</time>
      </trkpt>
      <trkpt lat="44.91821" lon="6.82545">
        <ele>1670.5</ele>
        <time>2021-12-22T15:48:34Z</time>
      </trkpt>
      <trkpt lat="44.91822" lon="6.82546">
        <ele>1670.6</ele>
        <time>2021-12-22T15:48:35Z</time>
      </trkpt>
      <trkpt lat="44.91823" lon="6.82546">
        <ele>1670.6</ele>
        <time>2021-12-22T15:48:36Z</time>
      </trkpt>
      <trkpt lat="44.91823" lon="6.82547">
        <ele>1670.6</ele>
        <time>2021-12-22T15:48:37Z</time>
      </trkpt>
      <trkpt lat="44.91825" lon="6.82547">
        <ele>1670.7</ele>
        <time>2021-12-22T15:48:40Z</time>
      </trkpt>
      <trkpt lat="44.91826" lon="6.82548">
        <ele>1670.9</ele>
        <time>2021-12-22T15:48:41Z</time>
      </trkpt>
      <trkpt lat="44.91831" lon="6.82551">
        <ele>1670.8</ele>
        <time>2021-12-22T15:48:44Z</time>
      </trkpt>
      <trkpt lat="44.91835" lon="6.82553">
        <ele>1670.7</ele>
        <time>2021-12-22T15:48:47Z</time>
      </trkpt>
      <trkpt lat="44.91841" lon="6.82556">
        <ele>1670.7</ele>
        <time>2021-12-22T15:48:50Z</time>
      </trkpt>
      <trkpt lat="44.91847" lon="6.82558">
        <ele>1670.5</ele>
        <time>2021-12-22T15:48:53Z</time>
      </trkpt>
      <trkpt lat="44.91852" lon="6.8256">
        <ele>1670.6</ele>
        <time>2021-12-22T15:48:56Z</time>
      </trkpt>
      <trkpt lat="44.91857" lon="6.8256">
        <ele>1670.2</ele>
        <time>2021-12-22T15:48:59Z</time>
      </trkpt>
      <trkpt lat="44.91862" lon="6.82559">
        <ele>1669.8</ele>
        <time>2021-12-22T15:49:03Z</time>
      </trkpt>
      <trkpt lat="44.91867" lon="6.82558">
        <ele>1669.5</ele>
        <time>2021-12-22T15:49:07Z</time>
      </trkpt>
      <trkpt lat="44.91872" lon="6.82557">
        <ele>1669.5</ele>
        <time>2021-12-22T15:49:10Z</time>
      </trkpt>
      <trkpt lat="44.91875" lon="6.82556">
        <ele>1669.3</ele>
        <time>2021-12-22T15:49:13Z</time>
      </trkpt>
      <trkpt lat="44.91876" lon="6.82556">
        <ele>1669.3</ele>
        <time>2021-12-22T15:49:14Z</time>
      </trkpt>
      <trkpt lat="44.91877" lon="6.82555">
        <ele>1669.2</ele>
        <time>2021-12-22T15:49:16Z</time>
      </trkpt>
      <trkpt lat="44.91878" lon="6.82555">
        <ele>1668.8</ele>
        <time>2021-12-22T15:49:17Z</time>
      </trkpt>
      <trkpt lat="44.91884" lon="6.82554">
        <ele>1668.8</ele>
        <time>2021-12-22T15:49:22Z</time>
      </trkpt>
      <trkpt lat="44.91889" lon="6.82553">
        <ele>1669.7</ele>
        <time>2021-12-22T15:49:26Z</time>
      </trkpt>
      <trkpt lat="44.9189" lon="6.82552">
        <ele>1669.9</ele>
        <time>2021-12-22T15:49:27Z</time>
      </trkpt>
      <trkpt lat="44.91891" lon="6.82552">
        <ele>1669.8</ele>
        <time>2021-12-22T15:49:28Z</time>
      </trkpt>
      <trkpt lat="44.91893" lon="6.82551">
        <ele>1670</ele>
        <time>2021-12-22T15:49:31Z</time>
      </trkpt>
      <trkpt lat="44.91895" lon="6.82551">
        <ele>1670</ele>
        <time>2021-12-22T15:49:32Z</time>
      </trkpt>
      <trkpt lat="44.919" lon="6.82549">
        <ele>1669.9</ele>
        <time>2021-12-22T15:49:36Z</time>
      </trkpt>
      <trkpt lat="44.91901" lon="6.82549">
        <ele>1669.8</ele>
        <time>2021-12-22T15:49:37Z</time>
      </trkpt>
      <trkpt lat="44.91902" lon="6.82549">
        <ele>1669.7</ele>
        <time>2021-12-22T15:49:54Z</time>
      </trkpt>
      <trkpt lat="44.91911" lon="6.82547">
        <ele>1668.6</ele>
        <time>2021-12-22T15:49:55Z</time>
      </trkpt>
      <trkpt lat="44.91912" lon="6.82546">
        <ele>1668.5</ele>
        <time>2021-12-22T15:49:56Z</time>
      </trkpt>
      <trkpt lat="44.91913" lon="6.82546">
        <ele>1668.5</ele>
        <time>2021-12-22T15:49:57Z</time>
      </trkpt>
      <trkpt lat="44.91914" lon="6.82546">
        <ele>1668.3</ele>
        <time>2021-12-22T15:50:05Z</time>
      </trkpt>
      <trkpt lat="44.9192" lon="6.82546">
        <ele>1668.5</ele>
        <time>2021-12-22T15:50:06Z</time>
      </trkpt>
      <trkpt lat="44.91923" lon="6.82547">
        <ele>1668.6</ele>
        <time>2021-12-22T15:50:09Z</time>
      </trkpt>
      <trkpt lat="44.91923" lon="6.82547">
        <ele>1668.8</ele>
        <time>2021-12-22T15:50:10Z</time>
      </trkpt>
      <trkpt lat="44.91924" lon="6.82547">
        <ele>1668.7</ele>
        <time>2021-12-22T15:50:37Z</time>
      </trkpt>
      <trkpt lat="44.91933" lon="6.8255">
        <ele>1669.1</ele>
        <time>2021-12-22T15:50:38Z</time>
      </trkpt>
      <trkpt lat="44.91934" lon="6.8255">
        <ele>1669.1</ele>
        <time>2021-12-22T15:50:39Z</time>
      </trkpt>
      <trkpt lat="44.91935" lon="6.82551">
        <ele>1669</ele>
        <time>2021-12-22T15:50:45Z</time>
      </trkpt>
      <trkpt lat="44.91939" lon="6.82554">
        <ele>1669</ele>
        <time>2021-12-22T15:50:46Z</time>
      </trkpt>
      <trkpt lat="44.9194" lon="6.82555">
        <ele>1669</ele>
        <time>2021-12-22T15:50:47Z</time>
      </trkpt>
      <trkpt lat="44.91941" lon="6.82556">
        <ele>1668.9</ele>
        <time>2021-12-22T15:50:48Z</time>
      </trkpt>
      <trkpt lat="44.91942" lon="6.82557">
        <ele>1668.8</ele>
        <time>2021-12-22T15:50:54Z</time>
      </trkpt>
      <trkpt lat="44.91947" lon="6.8256">
        <ele>1668.4</ele>
        <time>2021-12-22T15:50:55Z</time>
      </trkpt>
      <trkpt lat="44.91952" lon="6.82562">
        <ele>1668.7</ele>
        <time>2021-12-22T15:50:58Z</time>
      </trkpt>
      <trkpt lat="44.91952" lon="6.82563">
        <ele>1668.8</ele>
        <time>2021-12-22T15:50:59Z</time>
      </trkpt>
      <trkpt lat="44.91952" lon="6.82563">
        <ele>1668.7</ele>
        <time>2021-12-22T15:51:14Z</time>
      </trkpt>
      <trkpt lat="44.91961" lon="6.82567">
        <ele>1667.2</ele>
        <time>2021-12-22T15:51:15Z</time>
      </trkpt>
      <trkpt lat="44.91961" lon="6.82567">
        <ele>1667.1</ele>
        <time>2021-12-22T15:51:16Z</time>
      </trkpt>
      <trkpt lat="44.91961" lon="6.82567">
        <ele>1667.1</ele>
        <time>2021-12-22T15:52:03Z</time>
      </trkpt>
      <trkpt lat="44.9197" lon="6.82571">
        <ele>1667.1</ele>
        <time>2021-12-22T15:52:04Z</time>
      </trkpt>
      <trkpt lat="44.91971" lon="6.82571">
        <ele>1667.3</ele>
        <time>2021-12-22T15:52:05Z</time>
      </trkpt>
      <trkpt lat="44.91972" lon="6.82572">
        <ele>1667.5</ele>
        <time>2021-12-22T15:52:21Z</time>
      </trkpt>
      <trkpt lat="44.91981" lon="6.82574">
        <ele>1668.2</ele>
        <time>2021-12-22T15:52:22Z</time>
      </trkpt>
      <trkpt lat="44.91982" lon="6.82574">
        <ele>1668.2</ele>
        <time>2021-12-22T15:52:23Z</time>
      </trkpt>
      <trkpt lat="44.91984" lon="6.82575">
        <ele>1668.3</ele>
        <time>2021-12-22T15:52:35Z</time>
      </trkpt>
      <trkpt lat="44.91993" lon="6.82578">
        <ele>1668.2</ele>
        <time>2021-12-22T15:52:36Z</time>
      </trkpt>
      <trkpt lat="44.91996" lon="6.82578">
        <ele>1668.5</ele>
        <time>2021-12-22T15:52:38Z</time>
      </trkpt>
      <trkpt lat="44.91997" lon="6.82579">
        <ele>1668.8</ele>
        <time>2021-12-22T15:52:39Z</time>
      </trkpt>
      <trkpt lat="44.91998" lon="6.82579">
        <ele>1668.7</ele>
        <time>2021-12-22T15:52:41Z</time>
      </trkpt>
      <trkpt lat="44.91999" lon="6.8258">
        <ele>1668.7</ele>
        <time>2021-12-22T15:52:42Z</time>
      </trkpt>
      <trkpt lat="44.92" lon="6.8258">
        <ele>1668.8</ele>
        <time>2021-12-22T15:52:43Z</time>
      </trkpt>
      <trkpt lat="44.92001" lon="6.82581">
        <ele>1668.6</ele>
        <time>2021-12-22T15:53:01Z</time>
      </trkpt>
      <trkpt lat="44.92009" lon="6.82586">
        <ele>1668.9</ele>
        <time>2021-12-22T15:53:02Z</time>
      </trkpt>
      <trkpt lat="44.92009" lon="6.82586">
        <ele>1668.9</ele>
        <time>2021-12-22T15:53:03Z</time>
      </trkpt>
      <trkpt lat="44.92011" lon="6.82586">
        <ele>1668.9</ele>
        <time>2021-12-22T15:53:17Z</time>
      </trkpt>
      <trkpt lat="44.92019" lon="6.82589">
        <ele>1667.7</ele>
        <time>2021-12-22T15:53:18Z</time>
      </trkpt>
      <trkpt lat="44.9202" lon="6.82589">
        <ele>1667.6</ele>
        <time>2021-12-22T15:53:19Z</time>
      </trkpt>
      <trkpt lat="44.92022" lon="6.82589">
        <ele>1667.7</ele>
        <time>2021-12-22T15:53:23Z</time>
      </trkpt>
      <trkpt lat="44.92024" lon="6.82589">
        <ele>1667.9</ele>
        <time>2021-12-22T15:53:24Z</time>
      </trkpt>
      <trkpt lat="44.92025" lon="6.82589">
        <ele>1668.1</ele>
        <time>2021-12-22T15:53:25Z</time>
      </trkpt>
      <trkpt lat="44.92026" lon="6.82589">
        <ele>1668.2</ele>
        <time>2021-12-22T15:53:46Z</time>
      </trkpt>
      <trkpt lat="44.92035" lon="6.82587">
        <ele>1669.3</ele>
        <time>2021-12-22T15:53:47Z</time>
      </trkpt>
      <trkpt lat="44.92036" lon="6.82586">
        <ele>1669.4</ele>
        <time>2021-12-22T15:53:48Z</time>
      </trkpt>
      <trkpt lat="44.92038" lon="6.82585">
        <ele>1669.6</ele>
        <time>2021-12-22T15:54:01Z</time>
      </trkpt>
      <trkpt lat="44.92046" lon="6.8258">
        <ele>1670.8</ele>
        <time>2021-12-22T15:54:02Z</time>
      </trkpt>
      <trkpt lat="44.92046" lon="6.82579">
        <ele>1670.9</ele>
        <time>2021-12-22T15:54:03Z</time>
      </trkpt>
      <trkpt lat="44.92048" lon="6.82578">
        <ele>1671.3</ele>
        <time>2021-12-22T15:54:08Z</time>
      </trkpt>
      <trkpt lat="44.92051" lon="6.82574">
        <ele>1672.1</ele>
        <time>2021-12-22T15:54:09Z</time>
      </trkpt>
      <trkpt lat="44.92052" lon="6.82573">
        <ele>1672.4</ele>
        <time>2021-12-22T15:54:10Z</time>
      </trkpt>
      <trkpt lat="44.92052" lon="6.82572">
        <ele>1672.8</ele>
        <time>2021-12-22T15:54:11Z</time>
      </trkpt>
      <trkpt lat="44.92053" lon="6.8257">
        <ele>1672.9</ele>
        <time>2021-12-22T15:54:19Z</time>
      </trkpt>
      <trkpt lat="44.92054" lon="6.8257">
        <ele>1672.5</ele>
        <time>2021-12-22T15:54:20Z</time>
      </trkpt>
      <trkpt lat="44.92057" lon="6.8257">
        <ele>1666.8</ele>
        <time>2021-12-22T15:54:23Z</time>
      </trkpt>
      <trkpt lat="44.92057" lon="6.82568">
        <ele>1667.9</ele>
        <time>2021-12-22T15:54:24Z</time>
      </trkpt>
      <trkpt lat="44.92058" lon="6.82567">
        <ele>1666.9</ele>
        <time>2021-12-22T15:54:25Z</time>
      </trkpt>
      <trkpt lat="44.92059" lon="6.82567">
        <ele>1666.3</ele>
        <time>2021-12-22T15:54:26Z</time>
      </trkpt>
      <trkpt lat="44.92062" lon="6.82562">
        <ele>1665.3</ele>
        <time>2021-12-22T15:54:29Z</time>
      </trkpt>
      <trkpt lat="44.92067" lon="6.8256">
        <ele>1666.9</ele>
        <time>2021-12-22T15:54:32Z</time>
      </trkpt>
      <trkpt lat="44.92067" lon="6.82556">
        <ele>1669.7</ele>
        <time>2021-12-22T15:54:35Z</time>
      </trkpt>
      <trkpt lat="44.92068" lon="6.82555">
        <ele>1670.4</ele>
        <time>2021-12-22T15:54:36Z</time>
      </trkpt>
      <trkpt lat="44.92068" lon="6.82554">
        <ele>1670.8</ele>
        <time>2021-12-22T15:55:21Z</time>
      </trkpt>
      <trkpt lat="44.92062" lon="6.82545">
        <ele>1672.1</ele>
        <time>2021-12-22T15:55:22Z</time>
      </trkpt>
      <trkpt lat="44.92062" lon="6.82544">
        <ele>1672.1</ele>
        <time>2021-12-22T15:55:23Z</time>
      </trkpt>
      <trkpt lat="44.92062" lon="6.82543">
        <ele>1671.6</ele>
        <time>2021-12-22T15:56:21Z</time>
      </trkpt>
      <trkpt lat="44.92065" lon="6.82531">
        <ele>1670.3</ele>
        <time>2021-12-22T15:56:22Z</time>
      </trkpt>
      <trkpt lat="44.92065" lon="6.82531">
        <ele>1670.2</ele>
        <time>2021-12-22T15:56:23Z</time>
      </trkpt>
      <trkpt lat="44.92066" lon="6.8253">
        <ele>1670.2</ele>
        <time>2021-12-22T15:57:11Z</time>
      </trkpt>
      <trkpt lat="44.92069" lon="6.82518">
        <ele>1668.4</ele>
        <time>2021-12-22T15:57:12Z</time>
      </trkpt>
      <trkpt lat="44.9207" lon="6.82518">
        <ele>1668.4</ele>
        <time>2021-12-22T15:57:13Z</time>
      </trkpt>
      <trkpt lat="44.92072" lon="6.82519">
        <ele>1667.8</ele>
        <time>2021-12-22T15:57:15Z</time>
      </trkpt>
      <trkpt lat="44.92072" lon="6.8252">
        <ele>1667.4</ele>
        <time>2021-12-22T15:57:16Z</time>
      </trkpt>
      <trkpt lat="44.92072" lon="6.82521">
        <ele>1666.9</ele>
        <time>2021-12-22T15:57:17Z</time>
      </trkpt>
      <trkpt lat="44.92072" lon="6.82523">
        <ele>1666.4</ele>
        <time>2021-12-22T15:57:18Z</time>
      </trkpt>
      <trkpt lat="44.92073" lon="6.82525">
        <ele>1665.7</ele>
        <time>2021-12-22T15:57:39Z</time>
      </trkpt>
      <trkpt lat="44.92069" lon="6.82511">
        <ele>1664.6</ele>
        <time>2021-12-22T15:57:40Z</time>
      </trkpt>
      <trkpt lat="44.92067" lon="6.8251">
        <ele>1664.8</ele>
        <time>2021-12-22T15:57:41Z</time>
      </trkpt>
      <trkpt lat="44.92065" lon="6.8251">
        <ele>1665.3</ele>
        <time>2021-12-22T15:57:58Z</time>
      </trkpt>
      <trkpt lat="44.92056" lon="6.82506">
        <ele>1666.6</ele>
        <time>2021-12-22T15:57:59Z</time>
      </trkpt>
      <trkpt lat="44.92057" lon="6.82507">
        <ele>1666.6</ele>
        <time>2021-12-22T15:58:00Z</time>
      </trkpt>
      <trkpt lat="44.92056" lon="6.82506">
        <ele>1666.6</ele>
        <time>2021-12-22T15:58:35Z</time>
      </trkpt>
      <trkpt lat="44.9205" lon="6.82516">
        <ele>1666.3</ele>
        <time>2021-12-22T15:58:36Z</time>
      </trkpt>
      <trkpt lat="44.9205" lon="6.82518">
        <ele>1666.2</ele>
        <time>2021-12-22T15:58:37Z</time>
      </trkpt>
      <trkpt lat="44.92048" lon="6.82519">
        <ele>1666</ele>
        <time>2021-12-22T15:58:41Z</time>
      </trkpt>
      <trkpt lat="44.9204" lon="6.82519">
        <ele>1665.4</ele>
        <time>2021-12-22T15:58:42Z</time>
      </trkpt>
      <trkpt lat="44.92039" lon="6.8252">
        <ele>1665.1</ele>
        <time>2021-12-22T15:58:43Z</time>
      </trkpt>
      <trkpt lat="44.92037" lon="6.82521">
        <ele>1664.9</ele>
        <time>2021-12-22T15:58:44Z</time>
      </trkpt>
      <trkpt lat="44.92036" lon="6.82521">
        <ele>1664.8</ele>
        <time>2021-12-22T15:59:31Z</time>
      </trkpt>
      <trkpt lat="44.92036" lon="6.82508">
        <ele>1663.5</ele>
        <time>2021-12-22T15:59:32Z</time>
      </trkpt>
      <trkpt lat="44.92036" lon="6.82508">
        <ele>1663.5</ele>
        <time>2021-12-22T15:59:33Z</time>
      </trkpt>
      <trkpt lat="44.92035" lon="6.82507">
        <ele>1663.6</ele>
        <time>2021-12-22T16:00:28Z</time>
      </trkpt>
      <trkpt lat="44.92045" lon="6.82507">
        <ele>1663.9</ele>
        <time>2021-12-22T16:00:29Z</time>
      </trkpt>
      <trkpt lat="44.92045" lon="6.82505">
        <ele>1663.7</ele>
        <time>2021-12-22T16:00:30Z</time>
      </trkpt>
      <trkpt lat="44.92043" lon="6.82491">
        <ele>1662.5</ele>
        <time>2021-12-22T16:00:59Z</time>
      </trkpt>
      <trkpt lat="44.92046" lon="6.8248">
        <ele>1662.6</ele>
        <time>2021-12-22T16:01:19Z</time>
      </trkpt>
      <trkpt lat="44.9205" lon="6.82481">
        <ele>1662.5</ele>
        <time>2021-12-22T16:01:23Z</time>
      </trkpt>
      <trkpt lat="44.92051" lon="6.82482">
        <ele>1662.5</ele>
        <time>2021-12-22T16:01:24Z</time>
      </trkpt>
      <trkpt lat="44.92057" lon="6.82489">
        <ele>1662.3</ele>
        <time>2021-12-22T16:01:29Z</time>
      </trkpt>
      <trkpt lat="44.92059" lon="6.82493">
        <ele>1662.1</ele>
        <time>2021-12-22T16:01:31Z</time>
      </trkpt>
      <trkpt lat="44.92058" lon="6.82489">
        <ele>1662</ele>
        <time>2021-12-22T16:01:32Z</time>
      </trkpt>
      <trkpt lat="44.92059" lon="6.82495">
        <ele>1661.7</ele>
        <time>2021-12-22T16:01:34Z</time>
      </trkpt>
      <trkpt lat="44.92064" lon="6.82492">
        <ele>1661.5</ele>
        <time>2021-12-22T16:01:35Z</time>
      </trkpt>
      <trkpt lat="44.92066" lon="6.82489">
        <ele>1661.3</ele>
        <time>2021-12-22T16:01:37Z</time>
      </trkpt>
      <trkpt lat="44.92066" lon="6.82488">
        <ele>1661.2</ele>
        <time>2021-12-22T16:01:38Z</time>
      </trkpt>
      <trkpt lat="44.92066" lon="6.82478">
        <ele>1660.8</ele>
        <time>2021-12-22T16:01:53Z</time>
      </trkpt>
      <trkpt lat="44.92061" lon="6.82478">
        <ele>1660.9</ele>
        <time>2021-12-22T16:02:07Z</time>
      </trkpt>
      <trkpt lat="44.92051" lon="6.82491">
        <ele>1738.8</ele>
        <time>2021-12-22T16:04:28Z</time>
      </trkpt>
      <trkpt lat="44.92047" lon="6.82485">
        <ele>1737.2</ele>
        <time>2021-12-22T16:04:29Z</time>
      </trkpt>
      <trkpt lat="44.92044" lon="6.8248">
        <ele>1735.8</ele>
        <time>2021-12-22T16:04:30Z</time>
      </trkpt>
      <trkpt lat="44.9204" lon="6.82475">
        <ele>1734.2</ele>
        <time>2021-12-22T16:04:31Z</time>
      </trkpt>
      <trkpt lat="44.92033" lon="6.82466">
        <ele>1730.6</ele>
        <time>2021-12-22T16:04:34Z</time>
      </trkpt>
      <trkpt lat="44.92039" lon="6.82478">
        <ele>1707.9</ele>
        <time>2021-12-22T16:04:42Z</time>
      </trkpt>
      <trkpt lat="44.92043" lon="6.82489">
        <ele>1693.4</ele>
        <time>2021-12-22T16:05:23Z</time>
      </trkpt>
      <trkpt lat="44.92051" lon="6.82502">
        <ele>1686.8</ele>
        <time>2021-12-22T16:05:30Z</time>
      </trkpt>
      <trkpt lat="44.92055" lon="6.82507">
        <ele>1685.4</ele>
        <time>2021-12-22T16:05:32Z</time>
      </trkpt>
      <trkpt lat="44.92058" lon="6.82513">
        <ele>1684.8</ele>
        <time>2021-12-22T16:05:36Z</time>
      </trkpt>
      <trkpt lat="44.92062" lon="6.82516">
        <ele>1692.8</ele>
        <time>2021-12-22T16:06:08Z</time>
      </trkpt>
      <trkpt lat="44.92067" lon="6.82517">
        <ele>1691.8</ele>
        <time>2021-12-22T16:06:12Z</time>
      </trkpt>
      <trkpt lat="44.92073" lon="6.82519">
        <ele>1689.1</ele>
        <time>2021-12-22T16:06:14Z</time>
      </trkpt>
      <trkpt lat="44.92079" lon="6.8252">
        <ele>1686.3</ele>
        <time>2021-12-22T16:06:17Z</time>
      </trkpt>
      <trkpt lat="44.92074" lon="6.82519">
        <ele>1687.2</ele>
        <time>2021-12-22T16:06:25Z</time>
      </trkpt>
      <trkpt lat="44.92064" lon="6.82512">
        <ele>1685</ele>
        <time>2021-12-22T16:06:38Z</time>
      </trkpt>
      <trkpt lat="44.92059" lon="6.82505">
        <ele>1685.1</ele>
        <time>2021-12-22T16:06:39Z</time>
      </trkpt>
      <trkpt lat="44.92055" lon="6.825">
        <ele>1685</ele>
        <time>2021-12-22T16:06:40Z</time>
      </trkpt>
      <trkpt lat="44.92047" lon="6.82485">
        <ele>1685.1</ele>
        <time>2021-12-22T16:06:44Z</time>
      </trkpt>
      <trkpt lat="44.92044" lon="6.82522">
        <ele>1634</ele>
        <time>2021-12-22T16:09:34Z</time>
      </trkpt>
      <trkpt lat="44.92043" lon="6.82524">
        <ele>1630.7</ele>
        <time>2021-12-22T16:09:49Z</time>
      </trkpt>
      <trkpt lat="44.92044" lon="6.82536">
        <ele>1645.2</ele>
        <time>2021-12-22T16:09:50Z</time>
      </trkpt>
      <trkpt lat="44.92044" lon="6.82538">
        <ele>1648.5</ele>
        <time>2021-12-22T16:09:57Z</time>
      </trkpt>
      <trkpt lat="44.92044" lon="6.82538">
        <ele>1648.8</ele>
        <time>2021-12-22T16:09:58Z</time>
      </trkpt>
      <trkpt lat="44.92043" lon="6.82543">
        <ele>1652.2</ele>
        <time>2021-12-22T16:10:00Z</time>
      </trkpt>
      <trkpt lat="44.92043" lon="6.82545">
        <ele>1654</ele>
        <time>2021-12-22T16:10:01Z</time>
      </trkpt>
      <trkpt lat="44.92043" lon="6.8255">
        <ele>1658.3</ele>
        <time>2021-12-22T16:10:09Z</time>
      </trkpt>
      <trkpt lat="44.92042" lon="6.82551">
        <ele>1658.4</ele>
        <time>2021-12-22T16:10:10Z</time>
      </trkpt>
      <trkpt lat="44.92042" lon="6.82553">
        <ele>1658.5</ele>
        <time>2021-12-22T16:10:14Z</time>
      </trkpt>
      <trkpt lat="44.92041" lon="6.8256">
        <ele>1659.1</ele>
        <time>2021-12-22T16:10:15Z</time>
      </trkpt>
      <trkpt lat="44.92041" lon="6.8257">
        <ele>1658.1</ele>
        <time>2021-12-22T16:10:22Z</time>
      </trkpt>
      <trkpt lat="44.92041" lon="6.82569">
        <ele>1657.8</ele>
        <time>2021-12-22T16:10:25Z</time>
      </trkpt>
      <trkpt lat="44.92041" lon="6.82568">
        <ele>1657.6</ele>
        <time>2021-12-22T16:10:26Z</time>
      </trkpt>
      <trkpt lat="44.92041" lon="6.82569">
        <ele>1657.4</ele>
        <time>2021-12-22T16:10:31Z</time>
      </trkpt>
      <trkpt lat="44.92041" lon="6.82568">
        <ele>1657.9</ele>
        <time>2021-12-22T16:10:32Z</time>
      </trkpt>
      <trkpt lat="44.92041" lon="6.82566">
        <ele>1658</ele>
        <time>2021-12-22T16:10:33Z</time>
      </trkpt>
      <trkpt lat="44.92041" lon="6.82565">
        <ele>1658</ele>
        <time>2021-12-22T16:10:54Z</time>
      </trkpt>
      <trkpt lat="44.9204" lon="6.82562">
        <ele>1658.1</ele>
        <time>2021-12-22T16:10:55Z</time>
      </trkpt>
      <trkpt lat="44.92038" lon="6.82569">
        <ele>1657.7</ele>
        <time>2021-12-22T16:10:59Z</time>
      </trkpt>
      <trkpt lat="44.92035" lon="6.82576">
        <ele>1656.4</ele>
        <time>2021-12-22T16:11:04Z</time>
      </trkpt>
      <trkpt lat="44.92037" lon="6.82567">
        <ele>1656.8</ele>
        <time>2021-12-22T16:11:06Z</time>
      </trkpt>
      <trkpt lat="44.92032" lon="6.82572">
        <ele>1653.8</ele>
        <time>2021-12-22T16:11:11Z</time>
      </trkpt>
      <trkpt lat="44.92033" lon="6.82574">
        <ele>1650.4</ele>
        <time>2021-12-22T16:11:19Z</time>
      </trkpt>
      <trkpt lat="44.92033" lon="6.82573">
        <ele>1650.3</ele>
        <time>2021-12-22T16:11:20Z</time>
      </trkpt>
      <trkpt lat="44.92032" lon="6.82574">
        <ele>1649.8</ele>
        <time>2021-12-22T16:11:22Z</time>
      </trkpt>
      <trkpt lat="44.92032" lon="6.82575">
        <ele>1649.5</ele>
        <time>2021-12-22T16:11:23Z</time>
      </trkpt>
      <trkpt lat="44.92032" lon="6.82576">
        <ele>1648.7</ele>
        <time>2021-12-22T16:11:25Z</time>
      </trkpt>
      <trkpt lat="44.92034" lon="6.8257">
        <ele>1647.6</ele>
        <time>2021-12-22T16:11:26Z</time>
      </trkpt>
      <trkpt lat="44.92034" lon="6.82569">
        <ele>1646</ele>
        <time>2021-12-22T16:11:31Z</time>
      </trkpt>
      <trkpt lat="44.92034" lon="6.82569">
        <ele>1645.7</ele>
        <time>2021-12-22T16:11:32Z</time>
      </trkpt>
      <trkpt lat="44.92036" lon="6.82563">
        <ele>1644.9</ele>
        <time>2021-12-22T16:11:33Z</time>
      </trkpt>
      <trkpt lat="44.92036" lon="6.82564">
        <ele>1644.6</ele>
        <time>2021-12-22T16:11:34Z</time>
      </trkpt>
      <trkpt lat="44.92037" lon="6.8256">
        <ele>1644</ele>
        <time>2021-12-22T16:11:35Z</time>
      </trkpt>
      <trkpt lat="44.92035" lon="6.82564">
        <ele>1643.5</ele>
        <time>2021-12-22T16:11:43Z</time>
      </trkpt>
      <trkpt lat="44.92035" lon="6.82565">
        <ele>1643.3</ele>
        <time>2021-12-22T16:11:44Z</time>
      </trkpt>
      <trkpt lat="44.92035" lon="6.82567">
        <ele>1643.5</ele>
        <time>2021-12-22T16:11:45Z</time>
      </trkpt>
    </trkseg>
  </trk>
</gpx>